<?xml version="1.0" encoding="UTF-8"?>
<gpx xmlns="http://www.topografix.com/GPX/1/1" xmlns:xsi="http://www.w3.org/2001/XMLSchema-instance" creator="orig: https://MapMagic.app [change: GPX2CNX_MultyTool v1.1.9]" xsi:schemaLocation="http://www.topografix.com/GPX/1/1 http://www.topografix.com/GPX/1/1/gpx.xsd" version="1.1">
	<metadata><name>Бревет 5 республик 600 км (Дагестан)</name><author><name>caravan-randonneur-moscow</name><email id="mail.ru">caravan_randonneur</email><link href="www.caravan-randonneur.ru/calendar" /></author><time>2026-09-04T18:31:48Z</time></metadata><trk>
		<name>Бревет 5 республик 600 км (Дагестан)</name>
		<desc>Caravan-Randonneur / Страна Гор</desc>
		<trkseg>
			<trkpt lat="42.967340" lon="47.394530"><ele>100.6</ele><time>2026-09-04T17:51:48Z</time></trkpt>
			<trkpt lat="42.967340" lon="47.394530"><ele>100.6</ele><time>2026-09-04T17:51:59Z</time></trkpt>
			<trkpt lat="42.967140" lon="47.394810"><ele>100.4</ele><time>2026-09-04T17:52:09Z</time></trkpt>
			<trkpt lat="42.966990" lon="47.394930"><ele>100.2</ele><time>2026-09-04T17:52:20Z</time></trkpt>
			<trkpt lat="42.966790" lon="47.395050"><ele>100.0</ele><time>2026-09-04T17:52:31Z</time></trkpt>
			<trkpt lat="42.966740" lon="47.395030"><ele>100.0</ele><time>2026-09-04T17:52:42Z</time></trkpt>
			<trkpt lat="42.966630" lon="47.395040"><ele>99.9</ele><time>2026-09-04T17:52:53Z</time></trkpt>
			<trkpt lat="42.966530" lon="47.395090"><ele>99.8</ele><time>2026-09-04T17:53:04Z</time></trkpt>
			<trkpt lat="42.966460" lon="47.395170"><ele>99.7</ele><time>2026-09-04T17:53:14Z</time></trkpt>
			<trkpt lat="42.966390" lon="47.395290"><ele>99.6</ele><time>2026-09-04T17:53:25Z</time></trkpt>
			<trkpt lat="42.966350" lon="47.395420"><ele>99.5</ele><time>2026-09-04T17:53:36Z</time></trkpt>
			<trkpt lat="42.966330" lon="47.395570"><ele>99.4</ele><time>2026-09-04T17:53:47Z</time></trkpt>
			<trkpt lat="42.966350" lon="47.395710"><ele>99.3</ele><time>2026-09-04T17:53:58Z</time></trkpt>
			<trkpt lat="42.966410" lon="47.395850"><ele>99.2</ele><time>2026-09-04T17:54:09Z</time></trkpt>
			<trkpt lat="42.966520" lon="47.395970"><ele>99.1</ele><time>2026-09-04T17:54:19Z</time></trkpt>
			<trkpt lat="42.966610" lon="47.396020"><ele>99.0</ele><time>2026-09-04T17:54:30Z</time></trkpt>
			<trkpt lat="42.966640" lon="47.396030"><ele>99.0</ele><time>2026-09-04T17:54:41Z</time></trkpt>
			<trkpt lat="42.966750" lon="47.396030"><ele>98.9</ele><time>2026-09-04T17:54:52Z</time></trkpt>
			<trkpt lat="42.966870" lon="47.395980"><ele>98.8</ele><time>2026-09-04T17:55:03Z</time></trkpt>
			<trkpt lat="42.967000" lon="47.395860"><ele>98.6</ele><time>2026-09-04T17:55:14Z</time></trkpt>
			<trkpt lat="42.967030" lon="47.395770"><ele>98.6</ele><time>2026-09-04T17:55:24Z</time></trkpt>
			<trkpt lat="42.967070" lon="47.395630"><ele>98.5</ele><time>2026-09-04T17:55:35Z</time></trkpt>
			<trkpt lat="42.967070" lon="47.395530"><ele>98.4</ele><time>2026-09-04T17:55:46Z</time></trkpt>
			<trkpt lat="42.967160" lon="47.395090"><ele>98.1</ele><time>2026-09-04T17:55:57Z</time></trkpt>
			<trkpt lat="42.967230" lon="47.394900"><ele>98.0</ele><time>2026-09-04T17:56:08Z</time></trkpt>
			<trkpt lat="42.967420" lon="47.394590"><ele>97.7</ele><time>2026-09-04T17:56:19Z</time></trkpt>
			<trkpt lat="42.968970" lon="47.392310"><ele>95.6</ele><time>2026-09-04T17:56:29Z</time></trkpt>
			<trkpt lat="42.971440" lon="47.388670"><ele>87.4</ele><time>2026-09-04T17:56:40Z</time></trkpt>
			<trkpt lat="42.972140" lon="47.387630"><ele>85.1</ele><time>2026-09-04T17:56:51Z</time></trkpt>
			<trkpt lat="42.976710" lon="47.380850"><ele>81.1</ele><time>2026-09-04T17:57:02Z</time></trkpt>
			<trkpt lat="42.985570" lon="47.367680"><ele>58.6</ele><time>2026-09-04T17:57:13Z</time></trkpt>
			<trkpt lat="42.986230" lon="47.366730"><ele>56.7</ele><time>2026-09-04T17:57:24Z</time></trkpt>
			<trkpt lat="42.988280" lon="47.363770"><ele>52.6</ele><time>2026-09-04T17:57:34Z</time></trkpt>
			<trkpt lat="42.994510" lon="47.354530"><ele>46.6</ele><time>2026-09-04T17:57:45Z</time></trkpt>
			<trkpt lat="42.997670" lon="47.349830"><ele>46.0</ele><time>2026-09-04T17:57:56Z</time></trkpt>
			<trkpt lat="42.998390" lon="47.348680"><ele>45.9</ele><time>2026-09-04T17:58:07Z</time></trkpt>
			<trkpt lat="42.998700" lon="47.348190"><ele>45.8</ele><time>2026-09-04T17:58:18Z</time></trkpt>
			<trkpt lat="42.998900" lon="47.347820"><ele>45.7</ele><time>2026-09-04T17:58:29Z</time></trkpt>
			<trkpt lat="42.999190" lon="47.347310"><ele>45.6</ele><time>2026-09-04T17:58:39Z</time></trkpt>
			<trkpt lat="42.999850" lon="47.346070"><ele>45.4</ele><time>2026-09-04T17:58:50Z</time></trkpt>
			<trkpt lat="43.000680" lon="47.344380"><ele>45.2</ele><time>2026-09-04T17:59:01Z</time></trkpt>
			<trkpt lat="43.001340" lon="47.343140"><ele>45.0</ele><time>2026-09-04T17:59:12Z</time></trkpt>
			<trkpt lat="43.001560" lon="47.342640"><ele>44.9</ele><time>2026-09-04T17:59:23Z</time></trkpt>
			<trkpt lat="43.001760" lon="47.342150"><ele>45.1</ele><time>2026-09-04T17:59:34Z</time></trkpt>
			<trkpt lat="43.002030" lon="47.341290"><ele>45.5</ele><time>2026-09-04T17:59:44Z</time></trkpt>
			<trkpt lat="43.002240" lon="47.340480"><ele>45.9</ele><time>2026-09-04T17:59:55Z</time></trkpt>
			<trkpt lat="43.003240" lon="47.336560"><ele>47.7</ele><time>2026-09-04T18:00:06Z</time></trkpt>
			<trkpt lat="43.003470" lon="47.335680"><ele>48.1</ele><time>2026-09-04T18:00:17Z</time></trkpt>
			<trkpt lat="43.003740" lon="47.334550"><ele>49.0</ele><time>2026-09-04T18:00:28Z</time></trkpt>
			<trkpt lat="43.004270" lon="47.332250"><ele>50.8</ele><time>2026-09-04T18:00:39Z</time></trkpt>
			<trkpt lat="43.004680" lon="47.330480"><ele>52.3</ele><time>2026-09-04T18:00:49Z</time></trkpt>
			<trkpt lat="43.004870" lon="47.329740"><ele>52.9</ele><time>2026-09-04T18:01:00Z</time></trkpt>
			<trkpt lat="43.005120" lon="47.328780"><ele>53.6</ele><time>2026-09-04T18:01:11Z</time></trkpt>
			<trkpt lat="43.005350" lon="47.328050"><ele>53.8</ele><time>2026-09-04T18:01:22Z</time></trkpt>
			<trkpt lat="43.005430" lon="47.327740"><ele>53.8</ele><time>2026-09-04T18:01:33Z</time></trkpt>
			<trkpt lat="43.005580" lon="47.327180"><ele>53.9</ele><time>2026-09-04T18:01:44Z</time></trkpt>
			<trkpt lat="43.005700" lon="47.326500"><ele>53.9</ele><time>2026-09-04T18:01:54Z</time></trkpt>
			<trkpt lat="43.005880" lon="47.325290"><ele>53.9</ele><time>2026-09-04T18:02:05Z</time></trkpt>
			<trkpt lat="43.006100" lon="47.324000"><ele>53.9</ele><time>2026-09-04T18:02:16Z</time></trkpt>
			<trkpt lat="43.006230" lon="47.323410"><ele>53.9</ele><time>2026-09-04T18:02:27Z</time></trkpt>
			<trkpt lat="43.006490" lon="47.321910"><ele>54.0</ele><time>2026-09-04T18:02:38Z</time></trkpt>
			<trkpt lat="43.006500" lon="47.321900"><ele>54.0</ele><time>2026-09-04T18:02:49Z</time></trkpt>
			<trkpt lat="43.006500" lon="47.321900"><ele>54.0</ele><time>2026-09-04T18:02:59Z</time></trkpt>
			<trkpt lat="43.006510" lon="47.321830"><ele>54.0</ele><time>2026-09-04T18:03:10Z</time></trkpt>
			<trkpt lat="43.006820" lon="47.320410"><ele>54.8</ele><time>2026-09-04T18:03:21Z</time></trkpt>
			<trkpt lat="43.008030" lon="47.315110"><ele>59.1</ele><time>2026-09-04T18:03:32Z</time></trkpt>
			<trkpt lat="43.008410" lon="47.313530"><ele>60.2</ele><time>2026-09-04T18:03:43Z</time></trkpt>
			<trkpt lat="43.008810" lon="47.312100"><ele>61.1</ele><time>2026-09-04T18:03:54Z</time></trkpt>
			<trkpt lat="43.009100" lon="47.311180"><ele>61.6</ele><time>2026-09-04T18:04:04Z</time></trkpt>
			<trkpt lat="43.009440" lon="47.310280"><ele>62.1</ele><time>2026-09-04T18:04:15Z</time></trkpt>
			<trkpt lat="43.010280" lon="47.308290"><ele>63.4</ele><time>2026-09-04T18:04:26Z</time></trkpt>
			<trkpt lat="43.012860" lon="47.302520"><ele>63.1</ele><time>2026-09-04T18:04:37Z</time></trkpt>
			<trkpt lat="43.012920" lon="47.302370"><ele>63.0</ele><time>2026-09-04T18:04:48Z</time></trkpt>
			<trkpt lat="43.014410" lon="47.299060"><ele>63.3</ele><time>2026-09-04T18:04:59Z</time></trkpt>
			<trkpt lat="43.015380" lon="47.296890"><ele>63.7</ele><time>2026-09-04T18:05:09Z</time></trkpt>
			<trkpt lat="43.016970" lon="47.293300"><ele>64.2</ele><time>2026-09-04T18:05:20Z</time></trkpt>
			<trkpt lat="43.019950" lon="47.286600"><ele>65.3</ele><time>2026-09-04T18:05:31Z</time></trkpt>
			<trkpt lat="43.020040" lon="47.286400"><ele>65.4</ele><time>2026-09-04T18:05:42Z</time></trkpt>
			<trkpt lat="43.020800" lon="47.284720"><ele>66.2</ele><time>2026-09-04T18:05:53Z</time></trkpt>
			<trkpt lat="43.021780" lon="47.282560"><ele>67.2</ele><time>2026-09-04T18:06:04Z</time></trkpt>
			<trkpt lat="43.023160" lon="47.279370"><ele>65.8</ele><time>2026-09-04T18:06:14Z</time></trkpt>
			<trkpt lat="43.023310" lon="47.279030"><ele>65.6</ele><time>2026-09-04T18:06:25Z</time></trkpt>
			<trkpt lat="43.024250" lon="47.276960"><ele>64.5</ele><time>2026-09-04T18:06:36Z</time></trkpt>
			<trkpt lat="43.024370" lon="47.276690"><ele>64.3</ele><time>2026-09-04T18:06:47Z</time></trkpt>
			<trkpt lat="43.024950" lon="47.275280"><ele>62.3</ele><time>2026-09-04T18:06:58Z</time></trkpt>
			<trkpt lat="43.025610" lon="47.273670"><ele>57.6</ele><time>2026-09-04T18:07:09Z</time></trkpt>
			<trkpt lat="43.026590" lon="47.271510"><ele>51.0</ele><time>2026-09-04T18:07:19Z</time></trkpt>
			<trkpt lat="43.027080" lon="47.270460"><ele>47.8</ele><time>2026-09-04T18:07:30Z</time></trkpt>
			<trkpt lat="43.028150" lon="47.268090"><ele>48.2</ele><time>2026-09-04T18:07:41Z</time></trkpt>
			<trkpt lat="43.028380" lon="47.267620"><ele>49.4</ele><time>2026-09-04T18:07:52Z</time></trkpt>
			<trkpt lat="43.028680" lon="47.266980"><ele>51.1</ele><time>2026-09-04T18:08:03Z</time></trkpt>
			<trkpt lat="43.028820" lon="47.266680"><ele>51.9</ele><time>2026-09-04T18:08:14Z</time></trkpt>
			<trkpt lat="43.029180" lon="47.265880"><ele>53.9</ele><time>2026-09-04T18:08:24Z</time></trkpt>
			<trkpt lat="43.029500" lon="47.265120"><ele>55.8</ele><time>2026-09-04T18:08:35Z</time></trkpt>
			<trkpt lat="43.032620" lon="47.258230"><ele>63.9</ele><time>2026-09-04T18:08:46Z</time></trkpt>
			<trkpt lat="43.038040" lon="47.246050"><ele>65.1</ele><time>2026-09-04T18:08:57Z</time></trkpt>
			<trkpt lat="43.040480" lon="47.240590"><ele>64.3</ele><time>2026-09-04T18:09:08Z</time></trkpt>
			<trkpt lat="43.042840" lon="47.235240"><ele>62.8</ele><time>2026-09-04T18:09:18Z</time></trkpt>
			<trkpt lat="43.043650" lon="47.233460"><ele>62.2</ele><time>2026-09-04T18:09:29Z</time></trkpt>
			<trkpt lat="43.044060" lon="47.232560"><ele>61.8</ele><time>2026-09-04T18:09:40Z</time></trkpt>
			<trkpt lat="43.044130" lon="47.232410"><ele>61.8</ele><time>2026-09-04T18:09:51Z</time></trkpt>
			<trkpt lat="43.044560" lon="47.231420"><ele>61.4</ele><time>2026-09-04T18:10:02Z</time></trkpt>
			<trkpt lat="43.045590" lon="47.229070"><ele>58.1</ele><time>2026-09-04T18:10:13Z</time></trkpt>
			<trkpt lat="43.056580" lon="47.204500"><ele>61.1</ele><time>2026-09-04T18:10:23Z</time></trkpt>
			<trkpt lat="43.059430" lon="47.198030"><ele>63.8</ele><time>2026-09-04T18:10:34Z</time></trkpt>
			<trkpt lat="43.062690" lon="47.190740"><ele>67.5</ele><time>2026-09-04T18:10:45Z</time></trkpt>
			<trkpt lat="43.067090" lon="47.180880"><ele>72.7</ele><time>2026-09-04T18:10:56Z</time></trkpt>
			<trkpt lat="43.071430" lon="47.171140"><ele>81.2</ele><time>2026-09-04T18:11:07Z</time></trkpt>
			<trkpt lat="43.073600" lon="47.166270"><ele>82.8</ele><time>2026-09-04T18:11:18Z</time></trkpt>
			<trkpt lat="43.073600" lon="47.166270"><ele>82.8</ele><time>2026-09-04T18:11:28Z</time></trkpt>
			<trkpt lat="43.075790" lon="47.161370"><ele>82.4</ele><time>2026-09-04T18:11:38Z</time></trkpt>
			<trkpt lat="43.075960" lon="47.161000"><ele>82.5</ele><time>2026-09-04T18:11:49Z</time></trkpt>
			<trkpt lat="43.076230" lon="47.160440"><ele>82.7</ele><time>2026-09-04T18:11:59Z</time></trkpt>
			<trkpt lat="43.077270" lon="47.158260"><ele>83.3</ele><time>2026-09-04T18:12:09Z</time></trkpt>
			<trkpt lat="43.078320" lon="47.156330"><ele>83.9</ele><time>2026-09-04T18:12:19Z</time></trkpt>
			<trkpt lat="43.079370" lon="47.154560"><ele>84.7</ele><time>2026-09-04T18:12:30Z</time></trkpt>
			<trkpt lat="43.080770" lon="47.152340"><ele>86.2</ele><time>2026-09-04T18:12:40Z</time></trkpt>
			<trkpt lat="43.086660" lon="47.143220"><ele>92.1</ele><time>2026-09-04T18:12:50Z</time></trkpt>
			<trkpt lat="43.086820" lon="47.142970"><ele>92.0</ele><time>2026-09-04T18:13:01Z</time></trkpt>
			<trkpt lat="43.087290" lon="47.142240"><ele>91.9</ele><time>2026-09-04T18:13:11Z</time></trkpt>
			<trkpt lat="43.088120" lon="47.140960"><ele>91.6</ele><time>2026-09-04T18:13:21Z</time></trkpt>
			<trkpt lat="43.090490" lon="47.137300"><ele>91.2</ele><time>2026-09-04T18:13:31Z</time></trkpt>
			<trkpt lat="43.090910" lon="47.136640"><ele>91.2</ele><time>2026-09-04T18:13:42Z</time></trkpt>
			<trkpt lat="43.105950" lon="47.113370"><ele>77.5</ele><time>2026-09-04T18:13:52Z</time></trkpt>
			<trkpt lat="43.113440" lon="47.101820"><ele>83.4</ele><time>2026-09-04T18:14:02Z</time></trkpt>
			<trkpt lat="43.117740" lon="47.095130"><ele>87.1</ele><time>2026-09-04T18:14:13Z</time></trkpt>
			<trkpt lat="43.122020" lon="47.088490"><ele>86.3</ele><time>2026-09-04T18:14:23Z</time></trkpt>
			<trkpt lat="43.143910" lon="47.054520"><ele>44.7</ele><time>2026-09-04T18:14:33Z</time></trkpt>
			<trkpt lat="43.146630" lon="47.050290"><ele>45.5</ele><time>2026-09-04T18:14:44Z</time></trkpt>
			<trkpt lat="43.150520" lon="47.044320"><ele>42.2</ele><time>2026-09-04T18:14:54Z</time></trkpt>
			<trkpt lat="43.151450" lon="47.042890"><ele>41.4</ele><time>2026-09-04T18:15:04Z</time></trkpt>
			<trkpt lat="43.152170" lon="47.041700"><ele>41.1</ele><time>2026-09-04T18:15:14Z</time></trkpt>
			<trkpt lat="43.152550" lon="47.041070"><ele>40.9</ele><time>2026-09-04T18:15:25Z</time></trkpt>
			<trkpt lat="43.152950" lon="47.040400"><ele>40.7</ele><time>2026-09-04T18:15:35Z</time></trkpt>
			<trkpt lat="43.153270" lon="47.039820"><ele>40.5</ele><time>2026-09-04T18:15:45Z</time></trkpt>
			<trkpt lat="43.153470" lon="47.039470"><ele>40.4</ele><time>2026-09-04T18:15:56Z</time></trkpt>
			<trkpt lat="43.153780" lon="47.038810"><ele>40.3</ele><time>2026-09-04T18:16:06Z</time></trkpt>
			<trkpt lat="43.154360" lon="47.037610"><ele>39.9</ele><time>2026-09-04T18:16:16Z</time></trkpt>
			<trkpt lat="43.158840" lon="47.027700"><ele>42.8</ele><time>2026-09-04T18:16:27Z</time></trkpt>
			<trkpt lat="43.159470" lon="47.026300"><ele>43.3</ele><time>2026-09-04T18:16:37Z</time></trkpt>
			<trkpt lat="43.160270" lon="47.024540"><ele>44.0</ele><time>2026-09-04T18:16:47Z</time></trkpt>
			<trkpt lat="43.161440" lon="47.021900"><ele>45.0</ele><time>2026-09-04T18:16:57Z</time></trkpt>
			<trkpt lat="43.164260" lon="47.015640"><ele>45.2</ele><time>2026-09-04T18:17:08Z</time></trkpt>
			<trkpt lat="43.164690" lon="47.014770"><ele>44.8</ele><time>2026-09-04T18:17:18Z</time></trkpt>
			<trkpt lat="43.165290" lon="47.013700"><ele>44.4</ele><time>2026-09-04T18:17:28Z</time></trkpt>
			<trkpt lat="43.165550" lon="47.013200"><ele>44.2</ele><time>2026-09-04T18:17:39Z</time></trkpt>
			<trkpt lat="43.165750" lon="47.012700"><ele>44.0</ele><time>2026-09-04T18:17:49Z</time></trkpt>
			<trkpt lat="43.165940" lon="47.012220"><ele>43.9</ele><time>2026-09-04T18:17:59Z</time></trkpt>
			<trkpt lat="43.166470" lon="47.010850"><ele>44.4</ele><time>2026-09-04T18:18:09Z</time></trkpt>
			<trkpt lat="43.168110" lon="47.007130"><ele>45.7</ele><time>2026-09-04T18:18:20Z</time></trkpt>
			<trkpt lat="43.169810" lon="47.003350"><ele>46.0</ele><time>2026-09-04T18:18:30Z</time></trkpt>
			<trkpt lat="43.171080" lon="47.000880"><ele>45.9</ele><time>2026-09-04T18:18:40Z</time></trkpt>
			<trkpt lat="43.171220" lon="47.000580"><ele>45.9</ele><time>2026-09-04T18:18:51Z</time></trkpt>
			<trkpt lat="43.171420" lon="47.000080"><ele>45.8</ele><time>2026-09-04T18:19:01Z</time></trkpt>
			<trkpt lat="43.171900" lon="46.998760"><ele>46.0</ele><time>2026-09-04T18:19:11Z</time></trkpt>
			<trkpt lat="43.172540" lon="46.997150"><ele>46.5</ele><time>2026-09-04T18:19:22Z</time></trkpt>
			<trkpt lat="43.173490" lon="46.994890"><ele>47.2</ele><time>2026-09-04T18:19:32Z</time></trkpt>
			<trkpt lat="43.173860" lon="46.993910"><ele>47.4</ele><time>2026-09-04T18:19:42Z</time></trkpt>
			<trkpt lat="43.174470" lon="46.992220"><ele>48.0</ele><time>2026-09-04T18:19:52Z</time></trkpt>
			<trkpt lat="43.174940" lon="46.990800"><ele>48.5</ele><time>2026-09-04T18:20:03Z</time></trkpt>
			<trkpt lat="43.175400" lon="46.989340"><ele>49.0</ele><time>2026-09-04T18:20:13Z</time></trkpt>
			<trkpt lat="43.177060" lon="46.984000"><ele>50.7</ele><time>2026-09-04T18:20:23Z</time></trkpt>
			<trkpt lat="43.178430" lon="46.979580"><ele>52.0</ele><time>2026-09-04T18:20:34Z</time></trkpt>
			<trkpt lat="43.178740" lon="46.978680"><ele>51.7</ele><time>2026-09-04T18:20:44Z</time></trkpt>
			<trkpt lat="43.179140" lon="46.977750"><ele>51.2</ele><time>2026-09-04T18:20:54Z</time></trkpt>
			<trkpt lat="43.179450" lon="46.976880"><ele>50.8</ele><time>2026-09-04T18:21:04Z</time></trkpt>
			<trkpt lat="43.179540" lon="46.976470"><ele>50.5</ele><time>2026-09-04T18:21:15Z</time></trkpt>
			<trkpt lat="43.180280" lon="46.973700"><ele>49.1</ele><time>2026-09-04T18:21:25Z</time></trkpt>
			<trkpt lat="43.180550" lon="46.972830"><ele>48.7</ele><time>2026-09-04T18:21:35Z</time></trkpt>
			<trkpt lat="43.181450" lon="46.969940"><ele>49.9</ele><time>2026-09-04T18:21:46Z</time></trkpt>
			<trkpt lat="43.181960" lon="46.967720"><ele>51.1</ele><time>2026-09-04T18:21:56Z</time></trkpt>
			<trkpt lat="43.182600" lon="46.964470"><ele>51.9</ele><time>2026-09-04T18:22:06Z</time></trkpt>
			<trkpt lat="43.182710" lon="46.963930"><ele>51.6</ele><time>2026-09-04T18:22:17Z</time></trkpt>
			<trkpt lat="43.182990" lon="46.962350"><ele>50.8</ele><time>2026-09-04T18:22:27Z</time></trkpt>
			<trkpt lat="43.184560" lon="46.954160"><ele>50.2</ele><time>2026-09-04T18:22:37Z</time></trkpt>
			<trkpt lat="43.185020" lon="46.951390"><ele>51.1</ele><time>2026-09-04T18:22:47Z</time></trkpt>
			<trkpt lat="43.185260" lon="46.949650"><ele>52.1</ele><time>2026-09-04T18:22:58Z</time></trkpt>
			<trkpt lat="43.185400" lon="46.948270"><ele>53.0</ele><time>2026-09-04T18:23:08Z</time></trkpt>
			<trkpt lat="43.185540" lon="46.946420"><ele>54.2</ele><time>2026-09-04T18:23:18Z</time></trkpt>
			<trkpt lat="43.185650" lon="46.943430"><ele>56.1</ele><time>2026-09-04T18:23:29Z</time></trkpt>
			<trkpt lat="43.185620" lon="46.939550"><ele>61.0</ele><time>2026-09-04T18:23:39Z</time></trkpt>
			<trkpt lat="43.185370" lon="46.934660"><ele>67.3</ele><time>2026-09-04T18:23:49Z</time></trkpt>
			<trkpt lat="43.185280" lon="46.933550"><ele>68.9</ele><time>2026-09-04T18:24:00Z</time></trkpt>
			<trkpt lat="43.185260" lon="46.933390"><ele>69.1</ele><time>2026-09-04T18:24:10Z</time></trkpt>
			<trkpt lat="43.185240" lon="46.933250"><ele>69.3</ele><time>2026-09-04T18:24:20Z</time></trkpt>
			<trkpt lat="43.184780" lon="46.931040"><ele>72.4</ele><time>2026-09-04T18:24:30Z</time></trkpt>
			<trkpt lat="43.184430" lon="46.929260"><ele>75.0</ele><time>2026-09-04T18:24:41Z</time></trkpt>
			<trkpt lat="43.184040" lon="46.927430"><ele>77.2</ele><time>2026-09-04T18:24:51Z</time></trkpt>
			<trkpt lat="43.182820" lon="46.921970"><ele>83.7</ele><time>2026-09-04T18:25:01Z</time></trkpt>
			<trkpt lat="43.176340" lon="46.893590"><ele>101.0</ele><time>2026-09-04T18:25:12Z</time></trkpt>
			<trkpt lat="43.175060" lon="46.887760"><ele>100.1</ele><time>2026-09-04T18:25:22Z</time></trkpt>
			<trkpt lat="43.174750" lon="46.885470"><ele>99.2</ele><time>2026-09-04T18:25:32Z</time></trkpt>
			<trkpt lat="43.174680" lon="46.884110"><ele>97.6</ele><time>2026-09-04T18:25:42Z</time></trkpt>
			<trkpt lat="43.174620" lon="46.882970"><ele>96.3</ele><time>2026-09-04T18:25:53Z</time></trkpt>
			<trkpt lat="43.174650" lon="46.880990"><ele>94.1</ele><time>2026-09-04T18:26:03Z</time></trkpt>
			<trkpt lat="43.174720" lon="46.879890"><ele>92.8</ele><time>2026-09-04T18:26:13Z</time></trkpt>
			<trkpt lat="43.174820" lon="46.878790"><ele>91.5</ele><time>2026-09-04T18:26:24Z</time></trkpt>
			<trkpt lat="43.175190" lon="46.876250"><ele>87.8</ele><time>2026-09-04T18:26:34Z</time></trkpt>
			<trkpt lat="43.175320" lon="46.875560"><ele>86.8</ele><time>2026-09-04T18:26:44Z</time></trkpt>
			<trkpt lat="43.175470" lon="46.875000"><ele>85.9</ele><time>2026-09-04T18:26:55Z</time></trkpt>
			<trkpt lat="43.175800" lon="46.873670"><ele>83.9</ele><time>2026-09-04T18:27:05Z</time></trkpt>
			<trkpt lat="43.176130" lon="46.872560"><ele>82.2</ele><time>2026-09-04T18:27:15Z</time></trkpt>
			<trkpt lat="43.177150" lon="46.869680"><ele>79.4</ele><time>2026-09-04T18:27:25Z</time></trkpt>
			<trkpt lat="43.178380" lon="46.866330"><ele>77.6</ele><time>2026-09-04T18:27:36Z</time></trkpt>
			<trkpt lat="43.178870" lon="46.865000"><ele>76.8</ele><time>2026-09-04T18:27:46Z</time></trkpt>
			<trkpt lat="43.179490" lon="46.863240"><ele>77.0</ele><time>2026-09-04T18:27:56Z</time></trkpt>
			<trkpt lat="43.180780" lon="46.859830"><ele>77.6</ele><time>2026-09-04T18:28:07Z</time></trkpt>
			<trkpt lat="43.181160" lon="46.858720"><ele>77.8</ele><time>2026-09-04T18:28:17Z</time></trkpt>
			<trkpt lat="43.182120" lon="46.856040"><ele>76.3</ele><time>2026-09-04T18:28:27Z</time></trkpt>
			<trkpt lat="43.182660" lon="46.854630"><ele>75.1</ele><time>2026-09-04T18:28:37Z</time></trkpt>
			<trkpt lat="43.183780" lon="46.851500"><ele>72.6</ele><time>2026-09-04T18:28:48Z</time></trkpt>
			<trkpt lat="43.183990" lon="46.850760"><ele>71.0</ele><time>2026-09-04T18:28:58Z</time></trkpt>
			<trkpt lat="43.184210" lon="46.849850"><ele>68.7</ele><time>2026-09-04T18:29:08Z</time></trkpt>
			<trkpt lat="43.184360" lon="46.849000"><ele>66.7</ele><time>2026-09-04T18:29:19Z</time></trkpt>
			<trkpt lat="43.184470" lon="46.847900"><ele>64.1</ele><time>2026-09-04T18:29:29Z</time></trkpt>
			<trkpt lat="43.184530" lon="46.847090"><ele>62.2</ele><time>2026-09-04T18:29:39Z</time></trkpt>
			<trkpt lat="43.184490" lon="46.846240"><ele>60.2</ele><time>2026-09-04T18:29:50Z</time></trkpt>
			<trkpt lat="43.184390" lon="46.844940"><ele>57.1</ele><time>2026-09-04T18:30:00Z</time></trkpt>
			<trkpt lat="43.184220" lon="46.843500"><ele>55.2</ele><time>2026-09-04T18:30:10Z</time></trkpt>
			<trkpt lat="43.183880" lon="46.839880"><ele>55.8</ele><time>2026-09-04T18:30:20Z</time></trkpt>
			<trkpt lat="43.183820" lon="46.839130"><ele>56.0</ele><time>2026-09-04T18:30:31Z</time></trkpt>
			<trkpt lat="43.183790" lon="46.838540"><ele>56.1</ele><time>2026-09-04T18:30:41Z</time></trkpt>
			<trkpt lat="43.183820" lon="46.837950"><ele>56.2</ele><time>2026-09-04T18:30:51Z</time></trkpt>
			<trkpt lat="43.183930" lon="46.837130"><ele>56.3</ele><time>2026-09-04T18:31:02Z</time></trkpt>
			<trkpt lat="43.184100" lon="46.836050"><ele>58.5</ele><time>2026-09-04T18:31:12Z</time></trkpt>
			<trkpt lat="43.184320" lon="46.834900"><ele>62.3</ele><time>2026-09-04T18:31:22Z</time></trkpt>
			<trkpt lat="43.184760" lon="46.832840"><ele>69.2</ele><time>2026-09-04T18:31:33Z</time></trkpt>
			<trkpt lat="43.184920" lon="46.832110"><ele>71.7</ele><time>2026-09-04T18:31:43Z</time></trkpt>
			<trkpt lat="43.185420" lon="46.829820"><ele>79.4</ele><time>2026-09-04T18:31:53Z</time></trkpt>
			<trkpt lat="43.185440" lon="46.829700"><ele>79.8</ele><time>2026-09-04T18:32:03Z</time></trkpt>
			<trkpt lat="43.185790" lon="46.827760"><ele>81.0</ele><time>2026-09-04T18:32:14Z</time></trkpt>
			<trkpt lat="43.185890" lon="46.827180"><ele>81.1</ele><time>2026-09-04T18:32:24Z</time></trkpt>
			<trkpt lat="43.185970" lon="46.826530"><ele>81.3</ele><time>2026-09-04T18:32:34Z</time></trkpt>
			<trkpt lat="43.186050" lon="46.825830"><ele>81.6</ele><time>2026-09-04T18:32:45Z</time></trkpt>
			<trkpt lat="43.186150" lon="46.824660"><ele>81.9</ele><time>2026-09-04T18:32:55Z</time></trkpt>
			<trkpt lat="43.186180" lon="46.823880"><ele>82.1</ele><time>2026-09-04T18:33:05Z</time></trkpt>
			<trkpt lat="43.186180" lon="46.823020"><ele>82.4</ele><time>2026-09-04T18:33:15Z</time></trkpt>
			<trkpt lat="43.186160" lon="46.822090"><ele>82.7</ele><time>2026-09-04T18:33:26Z</time></trkpt>
			<trkpt lat="43.186140" lon="46.821400"><ele>83.1</ele><time>2026-09-04T18:33:36Z</time></trkpt>
			<trkpt lat="43.186090" lon="46.820670"><ele>83.5</ele><time>2026-09-04T18:33:46Z</time></trkpt>
			<trkpt lat="43.185990" lon="46.819520"><ele>84.1</ele><time>2026-09-04T18:33:57Z</time></trkpt>
			<trkpt lat="43.185670" lon="46.816700"><ele>85.7</ele><time>2026-09-04T18:34:07Z</time></trkpt>
			<trkpt lat="43.184880" lon="46.809550"><ele>91.6</ele><time>2026-09-04T18:34:17Z</time></trkpt>
			<trkpt lat="43.184850" lon="46.809130"><ele>91.9</ele><time>2026-09-04T18:34:28Z</time></trkpt>
			<trkpt lat="43.184820" lon="46.808580"><ele>92.4</ele><time>2026-09-04T18:34:38Z</time></trkpt>
			<trkpt lat="43.184800" lon="46.806810"><ele>94.0</ele><time>2026-09-04T18:34:48Z</time></trkpt>
			<trkpt lat="43.184790" lon="46.805920"><ele>94.8</ele><time>2026-09-04T18:34:58Z</time></trkpt>
			<trkpt lat="43.184830" lon="46.805230"><ele>95.3</ele><time>2026-09-04T18:35:09Z</time></trkpt>
			<trkpt lat="43.184920" lon="46.803930"><ele>96.4</ele><time>2026-09-04T18:35:19Z</time></trkpt>
			<trkpt lat="43.185010" lon="46.803120"><ele>97.1</ele><time>2026-09-04T18:35:29Z</time></trkpt>
			<trkpt lat="43.185080" lon="46.802510"><ele>97.6</ele><time>2026-09-04T18:35:40Z</time></trkpt>
			<trkpt lat="43.185200" lon="46.801730"><ele>98.2</ele><time>2026-09-04T18:35:50Z</time></trkpt>
			<trkpt lat="43.185460" lon="46.800120"><ele>99.6</ele><time>2026-09-04T18:36:00Z</time></trkpt>
			<trkpt lat="43.187600" lon="46.787360"><ele>102.4</ele><time>2026-09-04T18:36:10Z</time></trkpt>
			<trkpt lat="43.187820" lon="46.786010"><ele>102.3</ele><time>2026-09-04T18:36:21Z</time></trkpt>
			<trkpt lat="43.189130" lon="46.778170"><ele>111.8</ele><time>2026-09-04T18:36:31Z</time></trkpt>
			<trkpt lat="43.190210" lon="46.771680"><ele>118.5</ele><time>2026-09-04T18:36:41Z</time></trkpt>
			<trkpt lat="43.190720" lon="46.768500"><ele>120.5</ele><time>2026-09-04T18:36:52Z</time></trkpt>
			<trkpt lat="43.190860" lon="46.767730"><ele>120.8</ele><time>2026-09-04T18:37:02Z</time></trkpt>
			<trkpt lat="43.191720" lon="46.762570"><ele>123.4</ele><time>2026-09-04T18:37:12Z</time></trkpt>
			<trkpt lat="43.197300" lon="46.729200"><ele>158.1</ele><time>2026-09-04T18:37:23Z</time></trkpt>
			<trkpt lat="43.198290" lon="46.722930"><ele>162.9</ele><time>2026-09-04T18:37:33Z</time></trkpt>
			<trkpt lat="43.198920" lon="46.718350"><ele>165.5</ele><time>2026-09-04T18:37:43Z</time></trkpt>
			<trkpt lat="43.200660" lon="46.705840"><ele>178.6</ele><time>2026-09-04T18:37:53Z</time></trkpt>
			<trkpt lat="43.201840" lon="46.697430"><ele>188.9</ele><time>2026-09-04T18:38:04Z</time></trkpt>
			<trkpt lat="43.202170" lon="46.695330"><ele>190.5</ele><time>2026-09-04T18:38:14Z</time></trkpt>
			<trkpt lat="43.202230" lon="46.694940"><ele>190.8</ele><time>2026-09-04T18:38:24Z</time></trkpt>
			<trkpt lat="43.202530" lon="46.693360"><ele>192.0</ele><time>2026-09-04T18:38:35Z</time></trkpt>
			<trkpt lat="43.202840" lon="46.691880"><ele>193.1</ele><time>2026-09-04T18:38:45Z</time></trkpt>
			<trkpt lat="43.203310" lon="46.689720"><ele>195.1</ele><time>2026-09-04T18:38:55Z</time></trkpt>
			<trkpt lat="43.203620" lon="46.688260"><ele>196.9</ele><time>2026-09-04T18:39:06Z</time></trkpt>
			<trkpt lat="43.203920" lon="46.686860"><ele>198.6</ele><time>2026-09-04T18:39:16Z</time></trkpt>
			<trkpt lat="43.204450" lon="46.684410"><ele>201.6</ele><time>2026-09-04T18:39:26Z</time></trkpt>
			<trkpt lat="43.204750" lon="46.683000"><ele>202.7</ele><time>2026-09-04T18:39:36Z</time></trkpt>
			<trkpt lat="43.205130" lon="46.681240"><ele>202.2</ele><time>2026-09-04T18:39:47Z</time></trkpt>
			<trkpt lat="43.205620" lon="46.679010"><ele>201.6</ele><time>2026-09-04T18:39:57Z</time></trkpt>
			<trkpt lat="43.205840" lon="46.678040"><ele>201.3</ele><time>2026-09-04T18:40:07Z</time></trkpt>
			<trkpt lat="43.205960" lon="46.677500"><ele>201.2</ele><time>2026-09-04T18:40:18Z</time></trkpt>
			<trkpt lat="43.206290" lon="46.675990"><ele>200.9</ele><time>2026-09-04T18:40:28Z</time></trkpt>
			<trkpt lat="43.206350" lon="46.675720"><ele>201.0</ele><time>2026-09-04T18:40:38Z</time></trkpt>
			<trkpt lat="43.206610" lon="46.674520"><ele>201.5</ele><time>2026-09-04T18:40:48Z</time></trkpt>
			<trkpt lat="43.206650" lon="46.674330"><ele>201.6</ele><time>2026-09-04T18:40:59Z</time></trkpt>
			<trkpt lat="43.206860" lon="46.673390"><ele>201.9</ele><time>2026-09-04T18:41:09Z</time></trkpt>
			<trkpt lat="43.207260" lon="46.671600"><ele>202.6</ele><time>2026-09-04T18:41:19Z</time></trkpt>
			<trkpt lat="43.208450" lon="46.665980"><ele>200.7</ele><time>2026-09-04T18:41:30Z</time></trkpt>
			<trkpt lat="43.209050" lon="46.663190"><ele>198.2</ele><time>2026-09-04T18:41:40Z</time></trkpt>
			<trkpt lat="43.209260" lon="46.662210"><ele>197.3</ele><time>2026-09-04T18:41:50Z</time></trkpt>
			<trkpt lat="43.209380" lon="46.661660"><ele>196.9</ele><time>2026-09-04T18:42:01Z</time></trkpt>
			<trkpt lat="43.209510" lon="46.661270"><ele>196.6</ele><time>2026-09-04T18:42:11Z</time></trkpt>
			<trkpt lat="43.209630" lon="46.660510"><ele>196.2</ele><time>2026-09-04T18:42:21Z</time></trkpt>
			<trkpt lat="43.209700" lon="46.659860"><ele>195.9</ele><time>2026-09-04T18:42:31Z</time></trkpt>
			<trkpt lat="43.209740" lon="46.659210"><ele>195.6</ele><time>2026-09-04T18:42:42Z</time></trkpt>
			<trkpt lat="43.209760" lon="46.658380"><ele>195.1</ele><time>2026-09-04T18:42:52Z</time></trkpt>
			<trkpt lat="43.209720" lon="46.656500"><ele>194.2</ele><time>2026-09-04T18:43:02Z</time></trkpt>
			<trkpt lat="43.209740" lon="46.656340"><ele>194.1</ele><time>2026-09-04T18:43:13Z</time></trkpt>
			<trkpt lat="43.209730" lon="46.656170"><ele>194.0</ele><time>2026-09-04T18:43:23Z</time></trkpt>
			<trkpt lat="43.209710" lon="46.656010"><ele>193.9</ele><time>2026-09-04T18:43:33Z</time></trkpt>
			<trkpt lat="43.209680" lon="46.655900"><ele>193.8</ele><time>2026-09-04T18:43:44Z</time></trkpt>
			<trkpt lat="43.209630" lon="46.655780"><ele>193.8</ele><time>2026-09-04T18:43:54Z</time></trkpt>
			<trkpt lat="43.209570" lon="46.655450"><ele>193.6</ele><time>2026-09-04T18:44:04Z</time></trkpt>
			<trkpt lat="43.209510" lon="46.654910"><ele>193.3</ele><time>2026-09-04T18:44:14Z</time></trkpt>
			<trkpt lat="43.209420" lon="46.653830"><ele>194.5</ele><time>2026-09-04T18:44:25Z</time></trkpt>
			<trkpt lat="43.209370" lon="46.653200"><ele>195.5</ele><time>2026-09-04T18:44:35Z</time></trkpt>
			<trkpt lat="43.209320" lon="46.652290"><ele>197.1</ele><time>2026-09-04T18:44:45Z</time></trkpt>
			<trkpt lat="43.209340" lon="46.651540"><ele>198.4</ele><time>2026-09-04T18:44:56Z</time></trkpt>
			<trkpt lat="43.209420" lon="46.650710"><ele>199.8</ele><time>2026-09-04T18:45:06Z</time></trkpt>
			<trkpt lat="43.209470" lon="46.650350"><ele>200.4</ele><time>2026-09-04T18:45:16Z</time></trkpt>
			<trkpt lat="43.209530" lon="46.649980"><ele>201.1</ele><time>2026-09-04T18:45:26Z</time></trkpt>
			<trkpt lat="43.209630" lon="46.649580"><ele>201.8</ele><time>2026-09-04T18:45:37Z</time></trkpt>
			<trkpt lat="43.209870" lon="46.648640"><ele>203.5</ele><time>2026-09-04T18:45:47Z</time></trkpt>
			<trkpt lat="43.210040" lon="46.648080"><ele>204.5</ele><time>2026-09-04T18:45:57Z</time></trkpt>
			<trkpt lat="43.210150" lon="46.647770"><ele>205.1</ele><time>2026-09-04T18:46:08Z</time></trkpt>
			<trkpt lat="43.210280" lon="46.647440"><ele>205.7</ele><time>2026-09-04T18:46:18Z</time></trkpt>
			<trkpt lat="43.210610" lon="46.646690"><ele>205.2</ele><time>2026-09-04T18:46:28Z</time></trkpt>
			<trkpt lat="43.211270" lon="46.645180"><ele>203.9</ele><time>2026-09-04T18:46:39Z</time></trkpt>
			<trkpt lat="43.211420" lon="46.644910"><ele>203.6</ele><time>2026-09-04T18:46:49Z</time></trkpt>
			<trkpt lat="43.213850" lon="46.640070"><ele>197.9</ele><time>2026-09-04T18:46:59Z</time></trkpt>
			<trkpt lat="43.214760" lon="46.638340"><ele>194.5</ele><time>2026-09-04T18:47:09Z</time></trkpt>
			<trkpt lat="43.216490" lon="46.634850"><ele>187.6</ele><time>2026-09-04T18:47:20Z</time></trkpt>
			<trkpt lat="43.218400" lon="46.631120"><ele>180.3</ele><time>2026-09-04T18:47:30Z</time></trkpt>
			<trkpt lat="43.218450" lon="46.631020"><ele>180.1</ele><time>2026-09-04T18:47:40Z</time></trkpt>
			<trkpt lat="43.218780" lon="46.630310"><ele>178.7</ele><time>2026-09-04T18:47:51Z</time></trkpt>
			<trkpt lat="43.219370" lon="46.629140"><ele>176.4</ele><time>2026-09-04T18:48:01Z</time></trkpt>
			<trkpt lat="43.219620" lon="46.628640"><ele>176.0</ele><time>2026-09-04T18:48:11Z</time></trkpt>
			<trkpt lat="43.219720" lon="46.628450"><ele>176.1</ele><time>2026-09-04T18:48:21Z</time></trkpt>
			<trkpt lat="43.221120" lon="46.625670"><ele>177.5</ele><time>2026-09-04T18:48:32Z</time></trkpt>
			<trkpt lat="43.221390" lon="46.625130"><ele>177.8</ele><time>2026-09-04T18:48:42Z</time></trkpt>
			<trkpt lat="43.221660" lon="46.624590"><ele>178.1</ele><time>2026-09-04T18:48:52Z</time></trkpt>
			<trkpt lat="43.221710" lon="46.624510"><ele>178.1</ele><time>2026-09-04T18:49:03Z</time></trkpt>
			<trkpt lat="43.222030" lon="46.623880"><ele>178.5</ele><time>2026-09-04T18:49:13Z</time></trkpt>
			<trkpt lat="43.222290" lon="46.623380"><ele>178.7</ele><time>2026-09-04T18:49:23Z</time></trkpt>
			<trkpt lat="43.222430" lon="46.623100"><ele>178.9</ele><time>2026-09-04T18:49:34Z</time></trkpt>
			<trkpt lat="43.222560" lon="46.622830"><ele>179.0</ele><time>2026-09-04T18:49:44Z</time></trkpt>
			<trkpt lat="43.223230" lon="46.621480"><ele>178.3</ele><time>2026-09-04T18:49:54Z</time></trkpt>
			<trkpt lat="43.223850" lon="46.619990"><ele>177.4</ele><time>2026-09-04T18:50:04Z</time></trkpt>
			<trkpt lat="43.224610" lon="46.617830"><ele>176.2</ele><time>2026-09-04T18:50:15Z</time></trkpt>
			<trkpt lat="43.224750" lon="46.617420"><ele>176.0</ele><time>2026-09-04T18:50:25Z</time></trkpt>
			<trkpt lat="43.225060" lon="46.616440"><ele>175.5</ele><time>2026-09-04T18:50:35Z</time></trkpt>
			<trkpt lat="43.225180" lon="46.616050"><ele>175.3</ele><time>2026-09-04T18:50:46Z</time></trkpt>
			<trkpt lat="43.226080" lon="46.613100"><ele>174.1</ele><time>2026-09-04T18:50:56Z</time></trkpt>
			<trkpt lat="43.226330" lon="46.612240"><ele>173.7</ele><time>2026-09-04T18:51:06Z</time></trkpt>
			<trkpt lat="43.226510" lon="46.611950"><ele>173.6</ele><time>2026-09-04T18:51:17Z</time></trkpt>
			<trkpt lat="43.226740" lon="46.611600"><ele>173.4</ele><time>2026-09-04T18:51:27Z</time></trkpt>
			<trkpt lat="43.226820" lon="46.611590"><ele>173.4</ele><time>2026-09-04T18:51:37Z</time></trkpt>
			<trkpt lat="43.226900" lon="46.611550"><ele>173.3</ele><time>2026-09-04T18:51:47Z</time></trkpt>
			<trkpt lat="43.226970" lon="46.611490"><ele>173.3</ele><time>2026-09-04T18:51:58Z</time></trkpt>
			<trkpt lat="43.227030" lon="46.611410"><ele>173.2</ele><time>2026-09-04T18:52:08Z</time></trkpt>
			<trkpt lat="43.227070" lon="46.611320"><ele>173.2</ele><time>2026-09-04T18:52:18Z</time></trkpt>
			<trkpt lat="43.227100" lon="46.611210"><ele>173.2</ele><time>2026-09-04T18:52:29Z</time></trkpt>
			<trkpt lat="43.227120" lon="46.611100"><ele>173.1</ele><time>2026-09-04T18:52:39Z</time></trkpt>
			<trkpt lat="43.227110" lon="46.610930"><ele>173.1</ele><time>2026-09-04T18:52:49Z</time></trkpt>
			<trkpt lat="43.227100" lon="46.610860"><ele>173.0</ele><time>2026-09-04T18:52:59Z</time></trkpt>
			<trkpt lat="43.227030" lon="46.610690"><ele>173.0</ele><time>2026-09-04T18:53:10Z</time></trkpt>
			<trkpt lat="43.227040" lon="46.610210"><ele>172.8</ele><time>2026-09-04T18:53:20Z</time></trkpt>
			<trkpt lat="43.227070" lon="46.609850"><ele>172.7</ele><time>2026-09-04T18:53:30Z</time></trkpt>
			<trkpt lat="43.228370" lon="46.605690"><ele>169.8</ele><time>2026-09-04T18:53:41Z</time></trkpt>
			<trkpt lat="43.228960" lon="46.603830"><ele>168.5</ele><time>2026-09-04T18:53:51Z</time></trkpt>
			<trkpt lat="43.229820" lon="46.601120"><ele>168.0</ele><time>2026-09-04T18:54:01Z</time></trkpt>
			<trkpt lat="43.229970" lon="46.600640"><ele>168.1</ele><time>2026-09-04T18:54:12Z</time></trkpt>
			<trkpt lat="43.230650" lon="46.598490"><ele>168.4</ele><time>2026-09-04T18:54:22Z</time></trkpt>
			<trkpt lat="43.231360" lon="46.596220"><ele>168.9</ele><time>2026-09-04T18:54:32Z</time></trkpt>
			<trkpt lat="43.231710" lon="46.595020"><ele>169.1</ele><time>2026-09-04T18:54:42Z</time></trkpt>
			<trkpt lat="43.231790" lon="46.594780"><ele>169.1</ele><time>2026-09-04T18:54:53Z</time></trkpt>
			<trkpt lat="43.232560" lon="46.592350"><ele>169.6</ele><time>2026-09-04T18:55:03Z</time></trkpt>
			<trkpt lat="43.232740" lon="46.591660"><ele>169.7</ele><time>2026-09-04T18:55:13Z</time></trkpt>
			<trkpt lat="43.232820" lon="46.590750"><ele>169.8</ele><time>2026-09-04T18:55:24Z</time></trkpt>
			<trkpt lat="43.232840" lon="46.590250"><ele>169.9</ele><time>2026-09-04T18:55:34Z</time></trkpt>
			<trkpt lat="43.232820" lon="46.589890"><ele>170.0</ele><time>2026-09-04T18:55:44Z</time></trkpt>
			<trkpt lat="43.232750" lon="46.589390"><ele>170.1</ele><time>2026-09-04T18:55:54Z</time></trkpt>
			<trkpt lat="43.232750" lon="46.588730"><ele>170.2</ele><time>2026-09-04T18:56:05Z</time></trkpt>
			<trkpt lat="43.232890" lon="46.588100"><ele>169.8</ele><time>2026-09-04T18:56:15Z</time></trkpt>
			<trkpt lat="43.232940" lon="46.587980"><ele>169.8</ele><time>2026-09-04T18:56:25Z</time></trkpt>
			<trkpt lat="43.232980" lon="46.587850"><ele>169.7</ele><time>2026-09-04T18:56:36Z</time></trkpt>
			<trkpt lat="43.233010" lon="46.587660"><ele>169.6</ele><time>2026-09-04T18:56:46Z</time></trkpt>
			<trkpt lat="43.233000" lon="46.587460"><ele>169.5</ele><time>2026-09-04T18:56:56Z</time></trkpt>
			<trkpt lat="43.232960" lon="46.587270"><ele>169.4</ele><time>2026-09-04T18:57:07Z</time></trkpt>
			<trkpt lat="43.232880" lon="46.587100"><ele>169.3</ele><time>2026-09-04T18:57:17Z</time></trkpt>
			<trkpt lat="43.232780" lon="46.586960"><ele>169.2</ele><time>2026-09-04T18:57:27Z</time></trkpt>
			<trkpt lat="43.232640" lon="46.586870"><ele>169.1</ele><time>2026-09-04T18:57:37Z</time></trkpt>
			<trkpt lat="43.232500" lon="46.586630"><ele>168.9</ele><time>2026-09-04T18:57:48Z</time></trkpt>
			<trkpt lat="43.232420" lon="46.586450"><ele>168.8</ele><time>2026-09-04T18:57:58Z</time></trkpt>
			<trkpt lat="43.232380" lon="46.586260"><ele>168.7</ele><time>2026-09-04T18:58:08Z</time></trkpt>
			<trkpt lat="43.232360" lon="46.585920"><ele>168.5</ele><time>2026-09-04T18:58:19Z</time></trkpt>
			<trkpt lat="43.232520" lon="46.584770"><ele>167.9</ele><time>2026-09-04T18:58:29Z</time></trkpt>
			<trkpt lat="43.232690" lon="46.584200"><ele>167.6</ele><time>2026-09-04T18:58:39Z</time></trkpt>
			<trkpt lat="43.232950" lon="46.583570"><ele>167.2</ele><time>2026-09-04T18:58:50Z</time></trkpt>
			<trkpt lat="43.233180" lon="46.583140"><ele>166.9</ele><time>2026-09-04T18:59:00Z</time></trkpt>
			<trkpt lat="43.233620" lon="46.582380"><ele>166.4</ele><time>2026-09-04T18:59:10Z</time></trkpt>
			<trkpt lat="43.234020" lon="46.581680"><ele>165.0</ele><time>2026-09-04T18:59:20Z</time></trkpt>
			<trkpt lat="43.234120" lon="46.581520"><ele>164.5</ele><time>2026-09-04T18:59:31Z</time></trkpt>
			<trkpt lat="43.234500" lon="46.580600"><ele>162.3</ele><time>2026-09-04T18:59:41Z</time></trkpt>
			<trkpt lat="43.235310" lon="46.578490"><ele>157.2</ele><time>2026-09-04T18:59:51Z</time></trkpt>
			<trkpt lat="43.235480" lon="46.578020"><ele>156.1</ele><time>2026-09-04T19:00:02Z</time></trkpt>
			<trkpt lat="43.236220" lon="46.575850"><ele>151.1</ele><time>2026-09-04T19:00:12Z</time></trkpt>
			<trkpt lat="43.236310" lon="46.575580"><ele>150.5</ele><time>2026-09-04T19:00:22Z</time></trkpt>
			<trkpt lat="43.236620" lon="46.574700"><ele>151.0</ele><time>2026-09-04T19:00:32Z</time></trkpt>
			<trkpt lat="43.237410" lon="46.572430"><ele>152.5</ele><time>2026-09-04T19:00:43Z</time></trkpt>
			<trkpt lat="43.238360" lon="46.569880"><ele>154.1</ele><time>2026-09-04T19:00:53Z</time></trkpt>
			<trkpt lat="43.238410" lon="46.569740"><ele>154.2</ele><time>2026-09-04T19:01:03Z</time></trkpt>
			<trkpt lat="43.238460" lon="46.569590"><ele>154.3</ele><time>2026-09-04T19:01:14Z</time></trkpt>
			<trkpt lat="43.238980" lon="46.568220"><ele>155.4</ele><time>2026-09-04T19:01:24Z</time></trkpt>
			<trkpt lat="43.239200" lon="46.567660"><ele>155.9</ele><time>2026-09-04T19:01:34Z</time></trkpt>
			<trkpt lat="43.239480" lon="46.566770"><ele>156.7</ele><time>2026-09-04T19:01:45Z</time></trkpt>
			<trkpt lat="43.239620" lon="46.566290"><ele>157.1</ele><time>2026-09-04T19:01:55Z</time></trkpt>
			<trkpt lat="43.239730" lon="46.566060"><ele>157.4</ele><time>2026-09-04T19:02:05Z</time></trkpt>
			<trkpt lat="43.239850" lon="46.565890"><ele>157.6</ele><time>2026-09-04T19:02:15Z</time></trkpt>
			<trkpt lat="43.239950" lon="46.565770"><ele>157.7</ele><time>2026-09-04T19:02:26Z</time></trkpt>
			<trkpt lat="43.240000" lon="46.565680"><ele>157.8</ele><time>2026-09-04T19:02:36Z</time></trkpt>
			<trkpt lat="43.240050" lon="46.565540"><ele>157.9</ele><time>2026-09-04T19:02:46Z</time></trkpt>
			<trkpt lat="43.240100" lon="46.565380"><ele>158.1</ele><time>2026-09-04T19:02:57Z</time></trkpt>
			<trkpt lat="43.240110" lon="46.565240"><ele>158.2</ele><time>2026-09-04T19:03:07Z</time></trkpt>
			<trkpt lat="43.240150" lon="46.564930"><ele>158.4</ele><time>2026-09-04T19:03:17Z</time></trkpt>
			<trkpt lat="43.240210" lon="46.564700"><ele>158.6</ele><time>2026-09-04T19:03:27Z</time></trkpt>
			<trkpt lat="43.240520" lon="46.563930"><ele>159.4</ele><time>2026-09-04T19:03:38Z</time></trkpt>
			<trkpt lat="43.240810" lon="46.562950"><ele>160.2</ele><time>2026-09-04T19:03:48Z</time></trkpt>
			<trkpt lat="43.240960" lon="46.562180"><ele>160.9</ele><time>2026-09-04T19:03:58Z</time></trkpt>
			<trkpt lat="43.241040" lon="46.561310"><ele>161.2</ele><time>2026-09-04T19:04:09Z</time></trkpt>
			<trkpt lat="43.241020" lon="46.560430"><ele>161.4</ele><time>2026-09-04T19:04:19Z</time></trkpt>
			<trkpt lat="43.240980" lon="46.559660"><ele>161.6</ele><time>2026-09-04T19:04:29Z</time></trkpt>
			<trkpt lat="43.240790" lon="46.558650"><ele>161.9</ele><time>2026-09-04T19:04:40Z</time></trkpt>
			<trkpt lat="43.240090" lon="46.554730"><ele>163.1</ele><time>2026-09-04T19:04:50Z</time></trkpt>
			<trkpt lat="43.239130" lon="46.549660"><ele>165.7</ele><time>2026-09-04T19:05:00Z</time></trkpt>
			<trkpt lat="43.238520" lon="46.546400"><ele>164.9</ele><time>2026-09-04T19:05:10Z</time></trkpt>
			<trkpt lat="43.238130" lon="46.542980"><ele>159.7</ele><time>2026-09-04T19:05:21Z</time></trkpt>
			<trkpt lat="43.238070" lon="46.542430"><ele>158.9</ele><time>2026-09-04T19:05:31Z</time></trkpt>
			<trkpt lat="43.238050" lon="46.541990"><ele>158.3</ele><time>2026-09-04T19:05:41Z</time></trkpt>
			<trkpt lat="43.237990" lon="46.541280"><ele>157.2</ele><time>2026-09-04T19:05:52Z</time></trkpt>
			<trkpt lat="43.237960" lon="46.540570"><ele>156.1</ele><time>2026-09-04T19:06:02Z</time></trkpt>
			<trkpt lat="43.237960" lon="46.539620"><ele>153.6</ele><time>2026-09-04T19:06:12Z</time></trkpt>
			<trkpt lat="43.237970" lon="46.538960"><ele>151.3</ele><time>2026-09-04T19:06:23Z</time></trkpt>
			<trkpt lat="43.238040" lon="46.538120"><ele>148.5</ele><time>2026-09-04T19:06:33Z</time></trkpt>
			<trkpt lat="43.238110" lon="46.537290"><ele>145.7</ele><time>2026-09-04T19:06:43Z</time></trkpt>
			<trkpt lat="43.238470" lon="46.535270"><ele>138.8</ele><time>2026-09-04T19:06:53Z</time></trkpt>
			<trkpt lat="43.238660" lon="46.533950"><ele>134.2</ele><time>2026-09-04T19:07:04Z</time></trkpt>
			<trkpt lat="43.239010" lon="46.532240"><ele>132.9</ele><time>2026-09-04T19:07:14Z</time></trkpt>
			<trkpt lat="43.239170" lon="46.531540"><ele>135.3</ele><time>2026-09-04T19:07:24Z</time></trkpt>
			<trkpt lat="43.239450" lon="46.529810"><ele>141.2</ele><time>2026-09-04T19:07:35Z</time></trkpt>
			<trkpt lat="43.239500" lon="46.529440"><ele>142.5</ele><time>2026-09-04T19:07:45Z</time></trkpt>
			<trkpt lat="43.240050" lon="46.525440"><ele>155.6</ele><time>2026-09-04T19:07:55Z</time></trkpt>
			<trkpt lat="43.240230" lon="46.523480"><ele>156.6</ele><time>2026-09-04T19:08:05Z</time></trkpt>
			<trkpt lat="43.240330" lon="46.521930"><ele>157.5</ele><time>2026-09-04T19:08:16Z</time></trkpt>
			<trkpt lat="43.240510" lon="46.518270"><ele>159.5</ele><time>2026-09-04T19:08:26Z</time></trkpt>
			<trkpt lat="43.240800" lon="46.516510"><ele>161.0</ele><time>2026-09-04T19:08:36Z</time></trkpt>
			<trkpt lat="43.240940" lon="46.514610"><ele>162.7</ele><time>2026-09-04T19:08:47Z</time></trkpt>
			<trkpt lat="43.240920" lon="46.512580"><ele>164.4</ele><time>2026-09-04T19:08:57Z</time></trkpt>
			<trkpt lat="43.240830" lon="46.510810"><ele>166.0</ele><time>2026-09-04T19:09:07Z</time></trkpt>
			<trkpt lat="43.240810" lon="46.510280"><ele>166.2</ele><time>2026-09-04T19:09:18Z</time></trkpt>
			<trkpt lat="43.241380" lon="46.496660"><ele>171.3</ele><time>2026-09-04T19:09:28Z</time></trkpt>
			<trkpt lat="43.242010" lon="46.482410"><ele>173.9</ele><time>2026-09-04T19:09:38Z</time></trkpt>
			<trkpt lat="43.242280" lon="46.475920"><ele>173.1</ele><time>2026-09-04T19:09:48Z</time></trkpt>
			<trkpt lat="43.242440" lon="46.471400"><ele>172.6</ele><time>2026-09-04T19:09:59Z</time></trkpt>
			<trkpt lat="43.242190" lon="46.461660"><ele>172.7</ele><time>2026-09-04T19:10:09Z</time></trkpt>
			<trkpt lat="43.241830" lon="46.447550"><ele>174.0</ele><time>2026-09-04T19:10:19Z</time></trkpt>
			<trkpt lat="43.241550" lon="46.436140"><ele>168.7</ele><time>2026-09-04T19:10:30Z</time></trkpt>
			<trkpt lat="43.241720" lon="46.433200"><ele>164.2</ele><time>2026-09-04T19:10:40Z</time></trkpt>
			<trkpt lat="43.241710" lon="46.432180"><ele>162.6</ele><time>2026-09-04T19:10:50Z</time></trkpt>
			<trkpt lat="43.241710" lon="46.431920"><ele>162.2</ele><time>2026-09-04T19:11:00Z</time></trkpt>
			<trkpt lat="43.241620" lon="46.430540"><ele>160.0</ele><time>2026-09-04T19:11:11Z</time></trkpt>
			<trkpt lat="43.241500" lon="46.429080"><ele>157.7</ele><time>2026-09-04T19:11:21Z</time></trkpt>
			<trkpt lat="43.241370" lon="46.428290"><ele>157.2</ele><time>2026-09-04T19:11:31Z</time></trkpt>
			<trkpt lat="43.241260" lon="46.425370"><ele>157.9</ele><time>2026-09-04T19:11:42Z</time></trkpt>
			<trkpt lat="43.241210" lon="46.422270"><ele>158.7</ele><time>2026-09-04T19:11:52Z</time></trkpt>
			<trkpt lat="43.241240" lon="46.421200"><ele>158.9</ele><time>2026-09-04T19:12:02Z</time></trkpt>
			<trkpt lat="43.241460" lon="46.419390"><ele>154.0</ele><time>2026-09-04T19:12:13Z</time></trkpt>
			<trkpt lat="43.241690" lon="46.418000"><ele>150.2</ele><time>2026-09-04T19:12:23Z</time></trkpt>
			<trkpt lat="43.241800" lon="46.417380"><ele>148.5</ele><time>2026-09-04T19:12:33Z</time></trkpt>
			<trkpt lat="43.242160" lon="46.415370"><ele>143.0</ele><time>2026-09-04T19:12:43Z</time></trkpt>
			<trkpt lat="43.242620" lon="46.412790"><ele>140.4</ele><time>2026-09-04T19:12:54Z</time></trkpt>
			<trkpt lat="43.242770" lon="46.412020"><ele>141.4</ele><time>2026-09-04T19:13:04Z</time></trkpt>
			<trkpt lat="43.243220" lon="46.409530"><ele>144.7</ele><time>2026-09-04T19:13:14Z</time></trkpt>
			<trkpt lat="43.243460" lon="46.408090"><ele>146.6</ele><time>2026-09-04T19:13:25Z</time></trkpt>
			<trkpt lat="43.243710" lon="46.406490"><ele>148.6</ele><time>2026-09-04T19:13:35Z</time></trkpt>
			<trkpt lat="43.243900" lon="46.404910"><ele>150.0</ele><time>2026-09-04T19:13:45Z</time></trkpt>
			<trkpt lat="43.244030" lon="46.403730"><ele>151.0</ele><time>2026-09-04T19:13:56Z</time></trkpt>
			<trkpt lat="43.244080" lon="46.403140"><ele>151.5</ele><time>2026-09-04T19:14:06Z</time></trkpt>
			<trkpt lat="43.244250" lon="46.401330"><ele>153.0</ele><time>2026-09-04T19:14:16Z</time></trkpt>
			<trkpt lat="43.244290" lon="46.400880"><ele>153.4</ele><time>2026-09-04T19:14:26Z</time></trkpt>
			<trkpt lat="43.244330" lon="46.400460"><ele>153.8</ele><time>2026-09-04T19:14:37Z</time></trkpt>
			<trkpt lat="43.244530" lon="46.398500"><ele>154.3</ele><time>2026-09-04T19:14:47Z</time></trkpt>
			<trkpt lat="43.244740" lon="46.396080"><ele>152.6</ele><time>2026-09-04T19:14:57Z</time></trkpt>
			<trkpt lat="43.244950" lon="46.394500"><ele>151.5</ele><time>2026-09-04T19:15:08Z</time></trkpt>
			<trkpt lat="43.246750" lon="46.368650"><ele>132.0</ele><time>2026-09-04T19:15:18Z</time></trkpt>
			<trkpt lat="43.247030" lon="46.364240"><ele>130.0</ele><time>2026-09-04T19:15:28Z</time></trkpt>
			<trkpt lat="43.247280" lon="46.360720"><ele>128.6</ele><time>2026-09-04T19:15:38Z</time></trkpt>
			<trkpt lat="43.247600" lon="46.356650"><ele>127.1</ele><time>2026-09-04T19:15:49Z</time></trkpt>
			<trkpt lat="43.247970" lon="46.352370"><ele>125.1</ele><time>2026-09-04T19:15:59Z</time></trkpt>
			<trkpt lat="43.248020" lon="46.351870"><ele>124.8</ele><time>2026-09-04T19:16:09Z</time></trkpt>
			<trkpt lat="43.248790" lon="46.344130"><ele>119.8</ele><time>2026-09-04T19:16:20Z</time></trkpt>
			<trkpt lat="43.249200" lon="46.339890"><ele>116.6</ele><time>2026-09-04T19:16:30Z</time></trkpt>
			<trkpt lat="43.249590" lon="46.336880"><ele>114.5</ele><time>2026-09-04T19:16:40Z</time></trkpt>
			<trkpt lat="43.249960" lon="46.334660"><ele>113.0</ele><time>2026-09-04T19:16:51Z</time></trkpt>
			<trkpt lat="43.250540" lon="46.331330"><ele>110.5</ele><time>2026-09-04T19:17:01Z</time></trkpt>
			<trkpt lat="43.250610" lon="46.330950"><ele>110.2</ele><time>2026-09-04T19:17:11Z</time></trkpt>
			<trkpt lat="43.250950" lon="46.329000"><ele>108.4</ele><time>2026-09-04T19:17:21Z</time></trkpt>
			<trkpt lat="43.252020" lon="46.322780"><ele>102.8</ele><time>2026-09-04T19:17:32Z</time></trkpt>
			<trkpt lat="43.252880" lon="46.317750"><ele>98.2</ele><time>2026-09-04T19:17:42Z</time></trkpt>
			<trkpt lat="43.255850" lon="46.300720"><ele>94.8</ele><time>2026-09-04T19:17:52Z</time></trkpt>
			<trkpt lat="43.256170" lon="46.299160"><ele>94.7</ele><time>2026-09-04T19:18:03Z</time></trkpt>
			<trkpt lat="43.256710" lon="46.296940"><ele>94.5</ele><time>2026-09-04T19:18:13Z</time></trkpt>
			<trkpt lat="43.257220" lon="46.295180"><ele>94.1</ele><time>2026-09-04T19:18:23Z</time></trkpt>
			<trkpt lat="43.258370" lon="46.291980"><ele>92.9</ele><time>2026-09-04T19:18:33Z</time></trkpt>
			<trkpt lat="43.259020" lon="46.290420"><ele>92.3</ele><time>2026-09-04T19:18:44Z</time></trkpt>
			<trkpt lat="43.259450" lon="46.289280"><ele>91.8</ele><time>2026-09-04T19:18:54Z</time></trkpt>
			<trkpt lat="43.260060" lon="46.287700"><ele>90.8</ele><time>2026-09-04T19:19:04Z</time></trkpt>
			<trkpt lat="43.260090" lon="46.287640"><ele>90.8</ele><time>2026-09-04T19:19:15Z</time></trkpt>
			<trkpt lat="43.261260" lon="46.284580"><ele>88.8</ele><time>2026-09-04T19:19:25Z</time></trkpt>
			<trkpt lat="43.261940" lon="46.282830"><ele>87.6</ele><time>2026-09-04T19:19:35Z</time></trkpt>
			<trkpt lat="43.262300" lon="46.281930"><ele>86.9</ele><time>2026-09-04T19:19:46Z</time></trkpt>
			<trkpt lat="43.262440" lon="46.281600"><ele>86.6</ele><time>2026-09-04T19:19:56Z</time></trkpt>
			<trkpt lat="43.262520" lon="46.281380"><ele>86.4</ele><time>2026-09-04T19:20:06Z</time></trkpt>
			<trkpt lat="43.264620" lon="46.275920"><ele>81.9</ele><time>2026-09-04T19:20:16Z</time></trkpt>
			<trkpt lat="43.265040" lon="46.274790"><ele>81.5</ele><time>2026-09-04T19:20:27Z</time></trkpt>
			<trkpt lat="43.265790" lon="46.272900"><ele>80.9</ele><time>2026-09-04T19:20:37Z</time></trkpt>
			<trkpt lat="43.267050" lon="46.269560"><ele>79.8</ele><time>2026-09-04T19:20:47Z</time></trkpt>
			<trkpt lat="43.267120" lon="46.269330"><ele>79.7</ele><time>2026-09-04T19:20:58Z</time></trkpt>
			<trkpt lat="43.269380" lon="46.263480"><ele>76.3</ele><time>2026-09-04T19:21:08Z</time></trkpt>
			<trkpt lat="43.270790" lon="46.259840"><ele>75.3</ele><time>2026-09-04T19:21:18Z</time></trkpt>
			<trkpt lat="43.270950" lon="46.259430"><ele>75.2</ele><time>2026-09-04T19:21:29Z</time></trkpt>
			<trkpt lat="43.271560" lon="46.257840"><ele>74.8</ele><time>2026-09-04T19:21:39Z</time></trkpt>
			<trkpt lat="43.272930" lon="46.254250"><ele>73.3</ele><time>2026-09-04T19:21:49Z</time></trkpt>
			<trkpt lat="43.275830" lon="46.246770"><ele>70.6</ele><time>2026-09-04T19:21:59Z</time></trkpt>
			<trkpt lat="43.276360" lon="46.245380"><ele>70.4</ele><time>2026-09-04T19:22:10Z</time></trkpt>
			<trkpt lat="43.293680" lon="46.200410"><ele>59.0</ele><time>2026-09-04T19:22:20Z</time></trkpt>
			<trkpt lat="43.294100" lon="46.199300"><ele>59.7</ele><time>2026-09-04T19:22:30Z</time></trkpt>
			<trkpt lat="43.294510" lon="46.198260"><ele>60.4</ele><time>2026-09-04T19:22:41Z</time></trkpt>
			<trkpt lat="43.296330" lon="46.193520"><ele>64.2</ele><time>2026-09-04T19:22:51Z</time></trkpt>
			<trkpt lat="43.296830" lon="46.192330"><ele>65.2</ele><time>2026-09-04T19:23:01Z</time></trkpt>
			<trkpt lat="43.297470" lon="46.191010"><ele>66.4</ele><time>2026-09-04T19:23:11Z</time></trkpt>
			<trkpt lat="43.298050" lon="46.189880"><ele>67.1</ele><time>2026-09-04T19:23:22Z</time></trkpt>
			<trkpt lat="43.298850" lon="46.188460"><ele>67.7</ele><time>2026-09-04T19:23:32Z</time></trkpt>
			<trkpt lat="43.302270" lon="46.182710"><ele>73.2</ele><time>2026-09-04T19:23:42Z</time></trkpt>
			<trkpt lat="43.304700" lon="46.178660"><ele>81.0</ele><time>2026-09-04T19:23:53Z</time></trkpt>
			<trkpt lat="43.304990" lon="46.178150"><ele>80.7</ele><time>2026-09-04T19:24:03Z</time></trkpt>
			<trkpt lat="43.305270" lon="46.177700"><ele>80.5</ele><time>2026-09-04T19:24:13Z</time></trkpt>
			<trkpt lat="43.307670" lon="46.173610"><ele>78.7</ele><time>2026-09-04T19:24:24Z</time></trkpt>
			<trkpt lat="43.308250" lon="46.172640"><ele>78.3</ele><time>2026-09-04T19:24:34Z</time></trkpt>
			<trkpt lat="43.308820" lon="46.171660"><ele>78.1</ele><time>2026-09-04T19:24:44Z</time></trkpt>
			<trkpt lat="43.309170" lon="46.171000"><ele>78.0</ele><time>2026-09-04T19:24:54Z</time></trkpt>
			<trkpt lat="43.309510" lon="46.170340"><ele>77.8</ele><time>2026-09-04T19:25:05Z</time></trkpt>
			<trkpt lat="43.309760" lon="46.169850"><ele>77.7</ele><time>2026-09-04T19:25:15Z</time></trkpt>
			<trkpt lat="43.309990" lon="46.169350"><ele>77.6</ele><time>2026-09-04T19:25:25Z</time></trkpt>
			<trkpt lat="43.310440" lon="46.168380"><ele>77.4</ele><time>2026-09-04T19:25:36Z</time></trkpt>
			<trkpt lat="43.314200" lon="46.159800"><ele>77.8</ele><time>2026-09-04T19:25:46Z</time></trkpt>
			<trkpt lat="43.320970" lon="46.144410"><ele>80.0</ele><time>2026-09-04T19:25:56Z</time></trkpt>
			<trkpt lat="43.321070" lon="46.144190"><ele>80.0</ele><time>2026-09-04T19:26:07Z</time></trkpt>
			<trkpt lat="43.321780" lon="46.142580"><ele>80.3</ele><time>2026-09-04T19:26:17Z</time></trkpt>
			<trkpt lat="43.322800" lon="46.140240"><ele>81.0</ele><time>2026-09-04T19:26:27Z</time></trkpt>
			<trkpt lat="43.323590" lon="46.138370"><ele>81.8</ele><time>2026-09-04T19:26:37Z</time></trkpt>
			<trkpt lat="43.324060" lon="46.137200"><ele>82.3</ele><time>2026-09-04T19:26:48Z</time></trkpt>
			<trkpt lat="43.324130" lon="46.137030"><ele>82.4</ele><time>2026-09-04T19:26:58Z</time></trkpt>
			<trkpt lat="43.324270" lon="46.136570"><ele>82.5</ele><time>2026-09-04T19:27:08Z</time></trkpt>
			<trkpt lat="43.325980" lon="46.132590"><ele>82.9</ele><time>2026-09-04T19:27:19Z</time></trkpt>
			<trkpt lat="43.326120" lon="46.132260"><ele>82.9</ele><time>2026-09-04T19:27:29Z</time></trkpt>
			<trkpt lat="43.326470" lon="46.131450"><ele>82.7</ele><time>2026-09-04T19:27:39Z</time></trkpt>
			<trkpt lat="43.326790" lon="46.130700"><ele>82.6</ele><time>2026-09-04T19:27:49Z</time></trkpt>
			<trkpt lat="43.327140" lon="46.129900"><ele>82.5</ele><time>2026-09-04T19:28:00Z</time></trkpt>
			<trkpt lat="43.327500" lon="46.129040"><ele>82.3</ele><time>2026-09-04T19:28:10Z</time></trkpt>
			<trkpt lat="43.327830" lon="46.128280"><ele>82.2</ele><time>2026-09-04T19:28:20Z</time></trkpt>
			<trkpt lat="43.328160" lon="46.127510"><ele>82.1</ele><time>2026-09-04T19:28:31Z</time></trkpt>
			<trkpt lat="43.328540" lon="46.126630"><ele>82.1</ele><time>2026-09-04T19:28:41Z</time></trkpt>
			<trkpt lat="43.330240" lon="46.122650"><ele>81.7</ele><time>2026-09-04T19:28:51Z</time></trkpt>
			<trkpt lat="43.331980" lon="46.118620"><ele>77.8</ele><time>2026-09-04T19:29:02Z</time></trkpt>
			<trkpt lat="43.333850" lon="46.114450"><ele>74.2</ele><time>2026-09-04T19:29:12Z</time></trkpt>
			<trkpt lat="43.335190" lon="46.111460"><ele>74.1</ele><time>2026-09-04T19:29:22Z</time></trkpt>
			<trkpt lat="43.335390" lon="46.110990"><ele>74.0</ele><time>2026-09-04T19:29:32Z</time></trkpt>
			<trkpt lat="43.337200" lon="46.106810"><ele>73.4</ele><time>2026-09-04T19:29:43Z</time></trkpt>
			<trkpt lat="43.337470" lon="46.106210"><ele>73.2</ele><time>2026-09-04T19:29:53Z</time></trkpt>
			<trkpt lat="43.337520" lon="46.106090"><ele>73.2</ele><time>2026-09-04T19:30:03Z</time></trkpt>
			<trkpt lat="43.338110" lon="46.104790"><ele>72.9</ele><time>2026-09-04T19:30:14Z</time></trkpt>
			<trkpt lat="43.339260" lon="46.102320"><ele>71.7</ele><time>2026-09-04T19:30:24Z</time></trkpt>
			<trkpt lat="43.339540" lon="46.101790"><ele>70.9</ele><time>2026-09-04T19:30:34Z</time></trkpt>
			<trkpt lat="43.339810" lon="46.101350"><ele>70.2</ele><time>2026-09-04T19:30:44Z</time></trkpt>
			<trkpt lat="43.340510" lon="46.100290"><ele>68.4</ele><time>2026-09-04T19:30:55Z</time></trkpt>
			<trkpt lat="43.341370" lon="46.098980"><ele>66.2</ele><time>2026-09-04T19:31:05Z</time></trkpt>
			<trkpt lat="43.341430" lon="46.098870"><ele>66.1</ele><time>2026-09-04T19:31:15Z</time></trkpt>
			<trkpt lat="43.342320" lon="46.097310"><ele>63.6</ele><time>2026-09-04T19:31:26Z</time></trkpt>
			<trkpt lat="43.342630" lon="46.096620"><ele>62.8</ele><time>2026-09-04T19:31:36Z</time></trkpt>
			<trkpt lat="43.342970" lon="46.096900"><ele>62.4</ele><time>2026-09-04T19:31:46Z</time></trkpt>
			<trkpt lat="43.344490" lon="46.098130"><ele>60.5</ele><time>2026-09-04T19:31:57Z</time></trkpt>
			<trkpt lat="43.344930" lon="46.098500"><ele>60.0</ele><time>2026-09-04T19:32:07Z</time></trkpt>
			<trkpt lat="43.345260" lon="46.098760"><ele>59.6</ele><time>2026-09-04T19:32:17Z</time></trkpt>
			<trkpt lat="43.345640" lon="46.099070"><ele>59.1</ele><time>2026-09-04T19:32:27Z</time></trkpt>
			<trkpt lat="43.345880" lon="46.099250"><ele>58.8</ele><time>2026-09-04T19:32:38Z</time></trkpt>
			<trkpt lat="43.346140" lon="46.099420"><ele>58.5</ele><time>2026-09-04T19:32:48Z</time></trkpt>
			<trkpt lat="43.346210" lon="46.099460"><ele>58.4</ele><time>2026-09-04T19:32:58Z</time></trkpt>
			<trkpt lat="43.346280" lon="46.099540"><ele>58.3</ele><time>2026-09-04T19:33:09Z</time></trkpt>
			<trkpt lat="43.346350" lon="46.099530"><ele>58.3</ele><time>2026-09-04T19:33:19Z</time></trkpt>
			<trkpt lat="43.346410" lon="46.099550"><ele>58.2</ele><time>2026-09-04T19:33:29Z</time></trkpt>
			<trkpt lat="43.346640" lon="46.099640"><ele>57.9</ele><time>2026-09-04T19:33:40Z</time></trkpt>
			<trkpt lat="43.347530" lon="46.099960"><ele>57.3</ele><time>2026-09-04T19:33:50Z</time></trkpt>
			<trkpt lat="43.347600" lon="46.099980"><ele>57.2</ele><time>2026-09-04T19:34:00Z</time></trkpt>
			<trkpt lat="43.348640" lon="46.100330"><ele>57.0</ele><time>2026-09-04T19:34:10Z</time></trkpt>
			<trkpt lat="43.348740" lon="46.100360"><ele>56.9</ele><time>2026-09-04T19:34:21Z</time></trkpt>
			<trkpt lat="43.350230" lon="46.100860"><ele>56.5</ele><time>2026-09-04T19:34:31Z</time></trkpt>
			<trkpt lat="43.351320" lon="46.101250"><ele>56.2</ele><time>2026-09-04T19:34:41Z</time></trkpt>
			<trkpt lat="43.352570" lon="46.101700"><ele>55.9</ele><time>2026-09-04T19:34:52Z</time></trkpt>
			<trkpt lat="43.352800" lon="46.101780"><ele>55.9</ele><time>2026-09-04T19:35:02Z</time></trkpt>
			<trkpt lat="43.353470" lon="46.102060"><ele>55.8</ele><time>2026-09-04T19:35:12Z</time></trkpt>
			<trkpt lat="43.354400" lon="46.102440"><ele>55.8</ele><time>2026-09-04T19:35:22Z</time></trkpt>
			<trkpt lat="43.354650" lon="46.102540"><ele>55.8</ele><time>2026-09-04T19:35:33Z</time></trkpt>
			<trkpt lat="43.355960" lon="46.103170"><ele>55.7</ele><time>2026-09-04T19:35:43Z</time></trkpt>
			<trkpt lat="43.357300" lon="46.103890"><ele>55.6</ele><time>2026-09-04T19:35:53Z</time></trkpt>
			<trkpt lat="43.357340" lon="46.103780"><ele>55.6</ele><time>2026-09-04T19:36:04Z</time></trkpt>
			<trkpt lat="43.357380" lon="46.103640"><ele>55.6</ele><time>2026-09-04T19:36:14Z</time></trkpt>
			<trkpt lat="43.357380" lon="46.103640"><ele>55.6</ele><time>2026-09-04T19:36:20Z</time></trkpt>
			<trkpt lat="43.357550" lon="46.103040"><ele>55.5</ele><time>2026-09-04T19:36:26Z</time></trkpt>
			<trkpt lat="43.357870" lon="46.101770"><ele>55.3</ele><time>2026-09-04T19:36:32Z</time></trkpt>
			<trkpt lat="43.358440" lon="46.099460"><ele>55.0</ele><time>2026-09-04T19:36:38Z</time></trkpt>
			<trkpt lat="43.359110" lon="46.096880"><ele>54.6</ele><time>2026-09-04T19:36:44Z</time></trkpt>
			<trkpt lat="43.359160" lon="46.096700"><ele>54.6</ele><time>2026-09-04T19:36:50Z</time></trkpt>
			<trkpt lat="43.359390" lon="46.095860"><ele>54.3</ele><time>2026-09-04T19:36:56Z</time></trkpt>
			<trkpt lat="43.359500" lon="46.095600"><ele>54.2</ele><time>2026-09-04T19:37:02Z</time></trkpt>
			<trkpt lat="43.359680" lon="46.095410"><ele>54.1</ele><time>2026-09-04T19:37:08Z</time></trkpt>
			<trkpt lat="43.359970" lon="46.095170"><ele>53.9</ele><time>2026-09-04T19:37:14Z</time></trkpt>
			<trkpt lat="43.360780" lon="46.094510"><ele>53.5</ele><time>2026-09-04T19:37:20Z</time></trkpt>
			<trkpt lat="43.361210" lon="46.094140"><ele>53.2</ele><time>2026-09-04T19:37:26Z</time></trkpt>
			<trkpt lat="43.361390" lon="46.093990"><ele>53.1</ele><time>2026-09-04T19:37:32Z</time></trkpt>
			<trkpt lat="43.361580" lon="46.093820"><ele>53.0</ele><time>2026-09-04T19:37:38Z</time></trkpt>
			<trkpt lat="43.361750" lon="46.093680"><ele>52.9</ele><time>2026-09-04T19:37:44Z</time></trkpt>
			<trkpt lat="43.364350" lon="46.091530"><ele>51.8</ele><time>2026-09-04T19:37:50Z</time></trkpt>
			<trkpt lat="43.364570" lon="46.091350"><ele>51.8</ele><time>2026-09-04T19:37:56Z</time></trkpt>
			<trkpt lat="43.366280" lon="46.089990"><ele>51.9</ele><time>2026-09-04T19:38:02Z</time></trkpt>
			<trkpt lat="43.366310" lon="46.089970"><ele>51.9</ele><time>2026-09-04T19:38:08Z</time></trkpt>
			<trkpt lat="43.366850" lon="46.089520"><ele>51.9</ele><time>2026-09-04T19:38:14Z</time></trkpt>
			<trkpt lat="43.367380" lon="46.089130"><ele>51.9</ele><time>2026-09-04T19:38:20Z</time></trkpt>
			<trkpt lat="43.367540" lon="46.089000"><ele>51.9</ele><time>2026-09-04T19:38:26Z</time></trkpt>
			<trkpt lat="43.368470" lon="46.088250"><ele>51.8</ele><time>2026-09-04T19:38:32Z</time></trkpt>
			<trkpt lat="43.368530" lon="46.088200"><ele>51.8</ele><time>2026-09-04T19:38:38Z</time></trkpt>
			<trkpt lat="43.368780" lon="46.087990"><ele>51.6</ele><time>2026-09-04T19:38:44Z</time></trkpt>
			<trkpt lat="43.369900" lon="46.087070"><ele>50.7</ele><time>2026-09-04T19:38:50Z</time></trkpt>
			<trkpt lat="43.370580" lon="46.086520"><ele>50.1</ele><time>2026-09-04T19:38:56Z</time></trkpt>
			<trkpt lat="43.371190" lon="46.086010"><ele>49.6</ele><time>2026-09-04T19:39:02Z</time></trkpt>
			<trkpt lat="43.371300" lon="46.085930"><ele>49.5</ele><time>2026-09-04T19:39:08Z</time></trkpt>
			<trkpt lat="43.371830" lon="46.085490"><ele>49.1</ele><time>2026-09-04T19:39:14Z</time></trkpt>
			<trkpt lat="43.371900" lon="46.085430"><ele>49.1</ele><time>2026-09-04T19:39:20Z</time></trkpt>
			<trkpt lat="43.372020" lon="46.085330"><ele>49.0</ele><time>2026-09-04T19:39:26Z</time></trkpt>
			<trkpt lat="43.372080" lon="46.085280"><ele>48.9</ele><time>2026-09-04T19:39:32Z</time></trkpt>
			<trkpt lat="43.374060" lon="46.083630"><ele>47.7</ele><time>2026-09-04T19:39:38Z</time></trkpt>
			<trkpt lat="43.374990" lon="46.082860"><ele>47.3</ele><time>2026-09-04T19:39:44Z</time></trkpt>
			<trkpt lat="43.375110" lon="46.082750"><ele>47.2</ele><time>2026-09-04T19:39:50Z</time></trkpt>
			<trkpt lat="43.375250" lon="46.082600"><ele>47.1</ele><time>2026-09-04T19:39:56Z</time></trkpt>
			<trkpt lat="43.375400" lon="46.082390"><ele>47.1</ele><time>2026-09-04T19:40:02Z</time></trkpt>
			<trkpt lat="43.375540" lon="46.082150"><ele>47.0</ele><time>2026-09-04T19:40:08Z</time></trkpt>
			<trkpt lat="43.375670" lon="46.081840"><ele>46.9</ele><time>2026-09-04T19:40:14Z</time></trkpt>
			<trkpt lat="43.375770" lon="46.081540"><ele>46.8</ele><time>2026-09-04T19:40:20Z</time></trkpt>
			<trkpt lat="43.375900" lon="46.081130"><ele>46.6</ele><time>2026-09-04T19:40:26Z</time></trkpt>
			<trkpt lat="43.376840" lon="46.078290"><ele>46.2</ele><time>2026-09-04T19:40:32Z</time></trkpt>
			<trkpt lat="43.377060" lon="46.077670"><ele>46.3</ele><time>2026-09-04T19:40:38Z</time></trkpt>
			<trkpt lat="43.377280" lon="46.077180"><ele>46.4</ele><time>2026-09-04T19:40:44Z</time></trkpt>
			<trkpt lat="43.377500" lon="46.076770"><ele>46.5</ele><time>2026-09-04T19:40:50Z</time></trkpt>
			<trkpt lat="43.377640" lon="46.076540"><ele>46.5</ele><time>2026-09-04T19:40:56Z</time></trkpt>
			<trkpt lat="43.377780" lon="46.076340"><ele>46.6</ele><time>2026-09-04T19:41:02Z</time></trkpt>
			<trkpt lat="43.377990" lon="46.076070"><ele>46.6</ele><time>2026-09-04T19:41:08Z</time></trkpt>
			<trkpt lat="43.378160" lon="46.075880"><ele>46.7</ele><time>2026-09-04T19:41:14Z</time></trkpt>
			<trkpt lat="43.378330" lon="46.075720"><ele>46.7</ele><time>2026-09-04T19:41:20Z</time></trkpt>
			<trkpt lat="43.379460" lon="46.074850"><ele>47.0</ele><time>2026-09-04T19:41:26Z</time></trkpt>
			<trkpt lat="43.383490" lon="46.072110"><ele>47.7</ele><time>2026-09-04T19:41:32Z</time></trkpt>
			<trkpt lat="43.384160" lon="46.071630"><ele>47.8</ele><time>2026-09-04T19:41:38Z</time></trkpt>
			<trkpt lat="43.384270" lon="46.071560"><ele>47.8</ele><time>2026-09-04T19:41:44Z</time></trkpt>
			<trkpt lat="43.384560" lon="46.071390"><ele>47.9</ele><time>2026-09-04T19:41:50Z</time></trkpt>
			<trkpt lat="43.384690" lon="46.071260"><ele>47.9</ele><time>2026-09-04T19:41:56Z</time></trkpt>
			<trkpt lat="43.384790" lon="46.071120"><ele>47.9</ele><time>2026-09-04T19:42:02Z</time></trkpt>
			<trkpt lat="43.384860" lon="46.070990"><ele>47.9</ele><time>2026-09-04T19:42:08Z</time></trkpt>
			<trkpt lat="43.384930" lon="46.070850"><ele>48.0</ele><time>2026-09-04T19:42:14Z</time></trkpt>
			<trkpt lat="43.385020" lon="46.070520"><ele>48.0</ele><time>2026-09-04T19:42:19Z</time></trkpt>
			<trkpt lat="43.385040" lon="46.070280"><ele>48.0</ele><time>2026-09-04T19:42:25Z</time></trkpt>
			<trkpt lat="43.385030" lon="46.070100"><ele>48.0</ele><time>2026-09-04T19:42:31Z</time></trkpt>
			<trkpt lat="43.384990" lon="46.069940"><ele>48.0</ele><time>2026-09-04T19:42:37Z</time></trkpt>
			<trkpt lat="43.384900" lon="46.069810"><ele>48.1</ele><time>2026-09-04T19:42:43Z</time></trkpt>
			<trkpt lat="43.384790" lon="46.069730"><ele>48.1</ele><time>2026-09-04T19:42:49Z</time></trkpt>
			<trkpt lat="43.384650" lon="46.069680"><ele>48.1</ele><time>2026-09-04T19:42:55Z</time></trkpt>
			<trkpt lat="43.384310" lon="46.069600"><ele>48.1</ele><time>2026-09-04T19:43:01Z</time></trkpt>
			<trkpt lat="43.384150" lon="46.069530"><ele>48.1</ele><time>2026-09-04T19:43:07Z</time></trkpt>
			<trkpt lat="43.384010" lon="46.069420"><ele>48.2</ele><time>2026-09-04T19:43:13Z</time></trkpt>
			<trkpt lat="43.383880" lon="46.069280"><ele>48.2</ele><time>2026-09-04T19:43:19Z</time></trkpt>
			<trkpt lat="43.383770" lon="46.069130"><ele>48.2</ele><time>2026-09-04T19:43:25Z</time></trkpt>
			<trkpt lat="43.383350" lon="46.068440"><ele>48.3</ele><time>2026-09-04T19:43:31Z</time></trkpt>
			<trkpt lat="43.383170" lon="46.068050"><ele>48.3</ele><time>2026-09-04T19:43:37Z</time></trkpt>
			<trkpt lat="43.382990" lon="46.067570"><ele>48.3</ele><time>2026-09-04T19:43:43Z</time></trkpt>
			<trkpt lat="43.382850" lon="46.067120"><ele>48.4</ele><time>2026-09-04T19:43:49Z</time></trkpt>
			<trkpt lat="43.382730" lon="46.066590"><ele>48.4</ele><time>2026-09-04T19:43:55Z</time></trkpt>
			<trkpt lat="43.382680" lon="46.066350"><ele>48.4</ele><time>2026-09-04T19:44:01Z</time></trkpt>
			<trkpt lat="43.382660" lon="46.066030"><ele>48.5</ele><time>2026-09-04T19:44:07Z</time></trkpt>
			<trkpt lat="43.382650" lon="46.065720"><ele>48.5</ele><time>2026-09-04T19:44:13Z</time></trkpt>
			<trkpt lat="43.382650" lon="46.065450"><ele>48.5</ele><time>2026-09-04T19:44:19Z</time></trkpt>
			<trkpt lat="43.382670" lon="46.065120"><ele>48.5</ele><time>2026-09-04T19:44:25Z</time></trkpt>
			<trkpt lat="43.382720" lon="46.064700"><ele>48.6</ele><time>2026-09-04T19:44:31Z</time></trkpt>
			<trkpt lat="43.382800" lon="46.064230"><ele>48.4</ele><time>2026-09-04T19:44:37Z</time></trkpt>
			<trkpt lat="43.382920" lon="46.063710"><ele>48.2</ele><time>2026-09-04T19:44:43Z</time></trkpt>
			<trkpt lat="43.384440" lon="46.057740"><ele>45.8</ele><time>2026-09-04T19:44:49Z</time></trkpt>
			<trkpt lat="43.384640" lon="46.057030"><ele>45.8</ele><time>2026-09-04T19:44:55Z</time></trkpt>
			<trkpt lat="43.384870" lon="46.056390"><ele>45.9</ele><time>2026-09-04T19:45:01Z</time></trkpt>
			<trkpt lat="43.385070" lon="46.055920"><ele>46.0</ele><time>2026-09-04T19:45:07Z</time></trkpt>
			<trkpt lat="43.385320" lon="46.055390"><ele>46.1</ele><time>2026-09-04T19:45:13Z</time></trkpt>
			<trkpt lat="43.385650" lon="46.054790"><ele>46.2</ele><time>2026-09-04T19:45:19Z</time></trkpt>
			<trkpt lat="43.385860" lon="46.054410"><ele>46.2</ele><time>2026-09-04T19:45:25Z</time></trkpt>
			<trkpt lat="43.386820" lon="46.052910"><ele>46.5</ele><time>2026-09-04T19:45:31Z</time></trkpt>
			<trkpt lat="43.387300" lon="46.052210"><ele>46.6</ele><time>2026-09-04T19:45:37Z</time></trkpt>
			<trkpt lat="43.387620" lon="46.051760"><ele>46.7</ele><time>2026-09-04T19:45:43Z</time></trkpt>
			<trkpt lat="43.387920" lon="46.051410"><ele>47.0</ele><time>2026-09-04T19:45:49Z</time></trkpt>
			<trkpt lat="43.388180" lon="46.051160"><ele>47.3</ele><time>2026-09-04T19:45:55Z</time></trkpt>
			<trkpt lat="43.388550" lon="46.050860"><ele>47.7</ele><time>2026-09-04T19:46:01Z</time></trkpt>
			<trkpt lat="43.388930" lon="46.050590"><ele>48.1</ele><time>2026-09-04T19:46:07Z</time></trkpt>
			<trkpt lat="43.389520" lon="46.050210"><ele>48.6</ele><time>2026-09-04T19:46:13Z</time></trkpt>
			<trkpt lat="43.390690" lon="46.049470"><ele>49.8</ele><time>2026-09-04T19:46:19Z</time></trkpt>
			<trkpt lat="43.391320" lon="46.049110"><ele>50.4</ele><time>2026-09-04T19:46:25Z</time></trkpt>
			<trkpt lat="43.391660" lon="46.048880"><ele>50.8</ele><time>2026-09-04T19:46:31Z</time></trkpt>
			<trkpt lat="43.392170" lon="46.048490"><ele>51.3</ele><time>2026-09-04T19:46:37Z</time></trkpt>
			<trkpt lat="43.392330" lon="46.048290"><ele>51.5</ele><time>2026-09-04T19:46:43Z</time></trkpt>
			<trkpt lat="43.392470" lon="46.048060"><ele>51.7</ele><time>2026-09-04T19:46:49Z</time></trkpt>
			<trkpt lat="43.392590" lon="46.047840"><ele>51.9</ele><time>2026-09-04T19:46:55Z</time></trkpt>
			<trkpt lat="43.392760" lon="46.047510"><ele>52.3</ele><time>2026-09-04T19:47:01Z</time></trkpt>
			<trkpt lat="43.392860" lon="46.047210"><ele>52.6</ele><time>2026-09-04T19:47:07Z</time></trkpt>
			<trkpt lat="43.392910" lon="46.047010"><ele>52.8</ele><time>2026-09-04T19:47:13Z</time></trkpt>
			<trkpt lat="43.392920" lon="46.046920"><ele>52.9</ele><time>2026-09-04T19:47:19Z</time></trkpt>
			<trkpt lat="43.392930" lon="46.046790"><ele>53.0</ele><time>2026-09-04T19:47:25Z</time></trkpt>
			<trkpt lat="43.392900" lon="46.046610"><ele>53.2</ele><time>2026-09-04T19:47:31Z</time></trkpt>
			<trkpt lat="43.392860" lon="46.046490"><ele>53.3</ele><time>2026-09-04T19:47:37Z</time></trkpt>
			<trkpt lat="43.392470" lon="46.045940"><ele>54.0</ele><time>2026-09-04T19:47:43Z</time></trkpt>
			<trkpt lat="43.392350" lon="46.045690"><ele>54.2</ele><time>2026-09-04T19:47:49Z</time></trkpt>
			<trkpt lat="43.392270" lon="46.045440"><ele>54.5</ele><time>2026-09-04T19:47:55Z</time></trkpt>
			<trkpt lat="43.392220" lon="46.045160"><ele>54.7</ele><time>2026-09-04T19:48:01Z</time></trkpt>
			<trkpt lat="43.392200" lon="46.044880"><ele>55.0</ele><time>2026-09-04T19:48:07Z</time></trkpt>
			<trkpt lat="43.392210" lon="46.044620"><ele>55.2</ele><time>2026-09-04T19:48:13Z</time></trkpt>
			<trkpt lat="43.392260" lon="46.044310"><ele>55.5</ele><time>2026-09-04T19:48:19Z</time></trkpt>
			<trkpt lat="43.392740" lon="46.043050"><ele>56.8</ele><time>2026-09-04T19:48:25Z</time></trkpt>
			<trkpt lat="43.393010" lon="46.042350"><ele>57.5</ele><time>2026-09-04T19:48:31Z</time></trkpt>
			<trkpt lat="43.393360" lon="46.041460"><ele>58.4</ele><time>2026-09-04T19:48:37Z</time></trkpt>
			<trkpt lat="43.393670" lon="46.040670"><ele>58.2</ele><time>2026-09-04T19:48:43Z</time></trkpt>
			<trkpt lat="43.393970" lon="46.039880"><ele>58.0</ele><time>2026-09-04T19:48:49Z</time></trkpt>
			<trkpt lat="43.394720" lon="46.038430"><ele>57.7</ele><time>2026-09-04T19:48:55Z</time></trkpt>
			<trkpt lat="43.396050" lon="46.035800"><ele>57.1</ele><time>2026-09-04T19:49:01Z</time></trkpt>
			<trkpt lat="43.396470" lon="46.035000"><ele>57.1</ele><time>2026-09-04T19:49:07Z</time></trkpt>
			<trkpt lat="43.396850" lon="46.034260"><ele>57.6</ele><time>2026-09-04T19:49:13Z</time></trkpt>
			<trkpt lat="43.397830" lon="46.032310"><ele>59.0</ele><time>2026-09-04T19:49:19Z</time></trkpt>
			<trkpt lat="43.398980" lon="46.030030"><ele>60.6</ele><time>2026-09-04T19:49:25Z</time></trkpt>
			<trkpt lat="43.399750" lon="46.028570"><ele>61.3</ele><time>2026-09-04T19:49:31Z</time></trkpt>
			<trkpt lat="43.400300" lon="46.027470"><ele>61.5</ele><time>2026-09-04T19:49:37Z</time></trkpt>
			<trkpt lat="43.400500" lon="46.027010"><ele>61.6</ele><time>2026-09-04T19:49:43Z</time></trkpt>
			<trkpt lat="43.400690" lon="46.026460"><ele>61.7</ele><time>2026-09-04T19:49:49Z</time></trkpt>
			<trkpt lat="43.401290" lon="46.024650"><ele>62.0</ele><time>2026-09-04T19:49:55Z</time></trkpt>
			<trkpt lat="43.401330" lon="46.024540"><ele>62.0</ele><time>2026-09-04T19:50:01Z</time></trkpt>
			<trkpt lat="43.401950" lon="46.022680"><ele>62.3</ele><time>2026-09-04T19:50:07Z</time></trkpt>
			<trkpt lat="43.402270" lon="46.021710"><ele>62.3</ele><time>2026-09-04T19:50:13Z</time></trkpt>
			<trkpt lat="43.402340" lon="46.021470"><ele>62.3</ele><time>2026-09-04T19:50:19Z</time></trkpt>
			<trkpt lat="43.402540" lon="46.020960"><ele>62.3</ele><time>2026-09-04T19:50:25Z</time></trkpt>
			<trkpt lat="43.402760" lon="46.020550"><ele>62.2</ele><time>2026-09-04T19:50:31Z</time></trkpt>
			<trkpt lat="43.402950" lon="46.020270"><ele>62.2</ele><time>2026-09-04T19:50:37Z</time></trkpt>
			<trkpt lat="43.403210" lon="46.019970"><ele>62.2</ele><time>2026-09-04T19:50:43Z</time></trkpt>
			<trkpt lat="43.403450" lon="46.019750"><ele>62.2</ele><time>2026-09-04T19:50:49Z</time></trkpt>
			<trkpt lat="43.403700" lon="46.019550"><ele>62.1</ele><time>2026-09-04T19:50:55Z</time></trkpt>
			<trkpt lat="43.405040" lon="46.018730"><ele>62.0</ele><time>2026-09-04T19:51:01Z</time></trkpt>
			<trkpt lat="43.405440" lon="46.018460"><ele>62.0</ele><time>2026-09-04T19:51:07Z</time></trkpt>
			<trkpt lat="43.405760" lon="46.018180"><ele>61.9</ele><time>2026-09-04T19:51:13Z</time></trkpt>
			<trkpt lat="43.406010" lon="46.017900"><ele>61.9</ele><time>2026-09-04T19:51:19Z</time></trkpt>
			<trkpt lat="43.406230" lon="46.017620"><ele>61.5</ele><time>2026-09-04T19:51:25Z</time></trkpt>
			<trkpt lat="43.406440" lon="46.017320"><ele>61.0</ele><time>2026-09-04T19:51:31Z</time></trkpt>
			<trkpt lat="43.406660" lon="46.016920"><ele>60.4</ele><time>2026-09-04T19:51:37Z</time></trkpt>
			<trkpt lat="43.406830" lon="46.016560"><ele>59.9</ele><time>2026-09-04T19:51:43Z</time></trkpt>
			<trkpt lat="43.408310" lon="46.013110"><ele>55.1</ele><time>2026-09-04T19:51:49Z</time></trkpt>
			<trkpt lat="43.408800" lon="46.011920"><ele>53.4</ele><time>2026-09-04T19:51:55Z</time></trkpt>
			<trkpt lat="43.408920" lon="46.011580"><ele>53.0</ele><time>2026-09-04T19:52:01Z</time></trkpt>
			<trkpt lat="43.409020" lon="46.011240"><ele>53.3</ele><time>2026-09-04T19:52:07Z</time></trkpt>
			<trkpt lat="43.409080" lon="46.010900"><ele>53.7</ele><time>2026-09-04T19:52:13Z</time></trkpt>
			<trkpt lat="43.409140" lon="46.010530"><ele>54.1</ele><time>2026-09-04T19:52:19Z</time></trkpt>
			<trkpt lat="43.409160" lon="46.010160"><ele>54.5</ele><time>2026-09-04T19:52:25Z</time></trkpt>
			<trkpt lat="43.409250" lon="46.005080"><ele>59.9</ele><time>2026-09-04T19:52:31Z</time></trkpt>
			<trkpt lat="43.409270" lon="46.004780"><ele>60.3</ele><time>2026-09-04T19:52:37Z</time></trkpt>
			<trkpt lat="43.409300" lon="46.004550"><ele>60.5</ele><time>2026-09-04T19:52:43Z</time></trkpt>
			<trkpt lat="43.409340" lon="46.004280"><ele>60.8</ele><time>2026-09-04T19:52:49Z</time></trkpt>
			<trkpt lat="43.412270" lon="45.992130"><ele>64.7</ele><time>2026-09-04T19:52:55Z</time></trkpt>
			<trkpt lat="43.412490" lon="45.991310"><ele>65.3</ele><time>2026-09-04T19:53:01Z</time></trkpt>
			<trkpt lat="43.412720" lon="45.990580"><ele>65.9</ele><time>2026-09-04T19:53:07Z</time></trkpt>
			<trkpt lat="43.412880" lon="45.990110"><ele>66.3</ele><time>2026-09-04T19:53:13Z</time></trkpt>
			<trkpt lat="43.413230" lon="45.989260"><ele>66.4</ele><time>2026-09-04T19:53:19Z</time></trkpt>
			<trkpt lat="43.416210" lon="45.982180"><ele>68.0</ele><time>2026-09-04T19:53:25Z</time></trkpt>
			<trkpt lat="43.416640" lon="45.981360"><ele>69.0</ele><time>2026-09-04T19:53:31Z</time></trkpt>
			<trkpt lat="43.417700" lon="45.979690"><ele>71.2</ele><time>2026-09-04T19:53:37Z</time></trkpt>
			<trkpt lat="43.417930" lon="45.979310"><ele>71.7</ele><time>2026-09-04T19:53:43Z</time></trkpt>
			<trkpt lat="43.418090" lon="45.979020"><ele>72.1</ele><time>2026-09-04T19:53:49Z</time></trkpt>
			<trkpt lat="43.418730" lon="45.977380"><ele>74.0</ele><time>2026-09-04T19:53:55Z</time></trkpt>
			<trkpt lat="43.418910" lon="45.976940"><ele>73.7</ele><time>2026-09-04T19:54:01Z</time></trkpt>
			<trkpt lat="43.419110" lon="45.976530"><ele>73.3</ele><time>2026-09-04T19:54:07Z</time></trkpt>
			<trkpt lat="43.419400" lon="45.976060"><ele>72.9</ele><time>2026-09-04T19:54:13Z</time></trkpt>
			<trkpt lat="43.419800" lon="45.975530"><ele>72.3</ele><time>2026-09-04T19:54:19Z</time></trkpt>
			<trkpt lat="43.420500" lon="45.974650"><ele>71.4</ele><time>2026-09-04T19:54:25Z</time></trkpt>
			<trkpt lat="43.420760" lon="45.974280"><ele>71.0</ele><time>2026-09-04T19:54:31Z</time></trkpt>
			<trkpt lat="43.421000" lon="45.973900"><ele>70.7</ele><time>2026-09-04T19:54:37Z</time></trkpt>
			<trkpt lat="43.421360" lon="45.973280"><ele>70.1</ele><time>2026-09-04T19:54:43Z</time></trkpt>
			<trkpt lat="43.421500" lon="45.972980"><ele>69.9</ele><time>2026-09-04T19:54:49Z</time></trkpt>
			<trkpt lat="43.421630" lon="45.972680"><ele>69.6</ele><time>2026-09-04T19:54:55Z</time></trkpt>
			<trkpt lat="43.421770" lon="45.972360"><ele>69.3</ele><time>2026-09-04T19:55:01Z</time></trkpt>
			<trkpt lat="43.421920" lon="45.971940"><ele>69.0</ele><time>2026-09-04T19:55:07Z</time></trkpt>
			<trkpt lat="43.422140" lon="45.971220"><ele>68.9</ele><time>2026-09-04T19:55:13Z</time></trkpt>
			<trkpt lat="43.422240" lon="45.970880"><ele>69.1</ele><time>2026-09-04T19:55:19Z</time></trkpt>
			<trkpt lat="43.423150" lon="45.966960"><ele>71.8</ele><time>2026-09-04T19:55:25Z</time></trkpt>
			<trkpt lat="43.423260" lon="45.966570"><ele>72.1</ele><time>2026-09-04T19:55:31Z</time></trkpt>
			<trkpt lat="43.423390" lon="45.966200"><ele>72.3</ele><time>2026-09-04T19:55:37Z</time></trkpt>
			<trkpt lat="43.423510" lon="45.965900"><ele>72.6</ele><time>2026-09-04T19:55:43Z</time></trkpt>
			<trkpt lat="43.423670" lon="45.965580"><ele>72.8</ele><time>2026-09-04T19:55:49Z</time></trkpt>
			<trkpt lat="43.423840" lon="45.965310"><ele>73.1</ele><time>2026-09-04T19:55:55Z</time></trkpt>
			<trkpt lat="43.424010" lon="45.965080"><ele>73.3</ele><time>2026-09-04T19:56:01Z</time></trkpt>
			<trkpt lat="43.425280" lon="45.963480"><ele>70.6</ele><time>2026-09-04T19:56:06Z</time></trkpt>
			<trkpt lat="43.425610" lon="45.963040"><ele>69.6</ele><time>2026-09-04T19:56:12Z</time></trkpt>
			<trkpt lat="43.425950" lon="45.962540"><ele>68.6</ele><time>2026-09-04T19:56:18Z</time></trkpt>
			<trkpt lat="43.426280" lon="45.962010"><ele>67.5</ele><time>2026-09-04T19:56:24Z</time></trkpt>
			<trkpt lat="43.426590" lon="45.961460"><ele>66.4</ele><time>2026-09-04T19:56:30Z</time></trkpt>
			<trkpt lat="43.426960" lon="45.960750"><ele>65.0</ele><time>2026-09-04T19:56:36Z</time></trkpt>
			<trkpt lat="43.427140" lon="45.960340"><ele>64.3</ele><time>2026-09-04T19:56:42Z</time></trkpt>
			<trkpt lat="43.427510" lon="45.959440"><ele>62.7</ele><time>2026-09-04T19:56:48Z</time></trkpt>
			<trkpt lat="43.428700" lon="45.956480"><ele>64.5</ele><time>2026-09-04T19:56:54Z</time></trkpt>
			<trkpt lat="43.428880" lon="45.955960"><ele>65.0</ele><time>2026-09-04T19:57:00Z</time></trkpt>
			<trkpt lat="43.429280" lon="45.954410"><ele>66.5</ele><time>2026-09-04T19:57:06Z</time></trkpt>
			<trkpt lat="43.429390" lon="45.954120"><ele>66.8</ele><time>2026-09-04T19:57:12Z</time></trkpt>
			<trkpt lat="43.429520" lon="45.953820"><ele>67.1</ele><time>2026-09-04T19:57:18Z</time></trkpt>
			<trkpt lat="43.429680" lon="45.953550"><ele>67.4</ele><time>2026-09-04T19:57:24Z</time></trkpt>
			<trkpt lat="43.429840" lon="45.953330"><ele>67.7</ele><time>2026-09-04T19:57:30Z</time></trkpt>
			<trkpt lat="43.429990" lon="45.953170"><ele>67.9</ele><time>2026-09-04T19:57:36Z</time></trkpt>
			<trkpt lat="43.430160" lon="45.953020"><ele>68.2</ele><time>2026-09-04T19:57:42Z</time></trkpt>
			<trkpt lat="43.430350" lon="45.952870"><ele>68.5</ele><time>2026-09-04T19:57:48Z</time></trkpt>
			<trkpt lat="43.430540" lon="45.952740"><ele>68.4</ele><time>2026-09-04T19:57:54Z</time></trkpt>
			<trkpt lat="43.432100" lon="45.951870"><ele>61.0</ele><time>2026-09-04T19:58:00Z</time></trkpt>
			<trkpt lat="43.432410" lon="45.951680"><ele>59.5</ele><time>2026-09-04T19:58:06Z</time></trkpt>
			<trkpt lat="43.432650" lon="45.951490"><ele>58.3</ele><time>2026-09-04T19:58:12Z</time></trkpt>
			<trkpt lat="43.432850" lon="45.951310"><ele>57.3</ele><time>2026-09-04T19:58:18Z</time></trkpt>
			<trkpt lat="43.433060" lon="45.951090"><ele>56.1</ele><time>2026-09-04T19:58:24Z</time></trkpt>
			<trkpt lat="43.433280" lon="45.950820"><ele>54.8</ele><time>2026-09-04T19:58:30Z</time></trkpt>
			<trkpt lat="43.434230" lon="45.949490"><ele>48.9</ele><time>2026-09-04T19:58:36Z</time></trkpt>
			<trkpt lat="43.434420" lon="45.949190"><ele>47.6</ele><time>2026-09-04T19:58:42Z</time></trkpt>
			<trkpt lat="43.434590" lon="45.948870"><ele>46.3</ele><time>2026-09-04T19:58:48Z</time></trkpt>
			<trkpt lat="43.434720" lon="45.948560"><ele>45.2</ele><time>2026-09-04T19:58:54Z</time></trkpt>
			<trkpt lat="43.434830" lon="45.948240"><ele>44.8</ele><time>2026-09-04T19:59:00Z</time></trkpt>
			<trkpt lat="43.434930" lon="45.947860"><ele>44.9</ele><time>2026-09-04T19:59:06Z</time></trkpt>
			<trkpt lat="43.436060" lon="45.942750"><ele>46.8</ele><time>2026-09-04T19:59:12Z</time></trkpt>
			<trkpt lat="43.436290" lon="45.941750"><ele>47.2</ele><time>2026-09-04T19:59:18Z</time></trkpt>
			<trkpt lat="43.436380" lon="45.941390"><ele>47.3</ele><time>2026-09-04T19:59:24Z</time></trkpt>
			<trkpt lat="43.436490" lon="45.941050"><ele>47.3</ele><time>2026-09-04T19:59:30Z</time></trkpt>
			<trkpt lat="43.436640" lon="45.940660"><ele>47.2</ele><time>2026-09-04T19:59:36Z</time></trkpt>
			<trkpt lat="43.437360" lon="45.939260"><ele>47.0</ele><time>2026-09-04T19:59:42Z</time></trkpt>
			<trkpt lat="43.437620" lon="45.938670"><ele>46.9</ele><time>2026-09-04T19:59:48Z</time></trkpt>
			<trkpt lat="43.437860" lon="45.938050"><ele>46.8</ele><time>2026-09-04T19:59:54Z</time></trkpt>
			<trkpt lat="43.438070" lon="45.937430"><ele>46.7</ele><time>2026-09-04T20:00:00Z</time></trkpt>
			<trkpt lat="43.439860" lon="45.931250"><ele>46.2</ele><time>2026-09-04T20:00:06Z</time></trkpt>
			<trkpt lat="43.440100" lon="45.930350"><ele>46.1</ele><time>2026-09-04T20:00:12Z</time></trkpt>
			<trkpt lat="43.440580" lon="45.928240"><ele>46.1</ele><time>2026-09-04T20:00:18Z</time></trkpt>
			<trkpt lat="43.440740" lon="45.927600"><ele>46.1</ele><time>2026-09-04T20:00:24Z</time></trkpt>
			<trkpt lat="43.440900" lon="45.927000"><ele>46.2</ele><time>2026-09-04T20:00:30Z</time></trkpt>
			<trkpt lat="43.441040" lon="45.926560"><ele>46.3</ele><time>2026-09-04T20:00:36Z</time></trkpt>
			<trkpt lat="43.442790" lon="45.921900"><ele>47.6</ele><time>2026-09-04T20:00:42Z</time></trkpt>
			<trkpt lat="43.442920" lon="45.921610"><ele>47.7</ele><time>2026-09-04T20:00:48Z</time></trkpt>
			<trkpt lat="43.443050" lon="45.921350"><ele>47.8</ele><time>2026-09-04T20:00:54Z</time></trkpt>
			<trkpt lat="43.443960" lon="45.919800"><ele>47.6</ele><time>2026-09-04T20:01:00Z</time></trkpt>
			<trkpt lat="43.444180" lon="45.919400"><ele>47.5</ele><time>2026-09-04T20:01:06Z</time></trkpt>
			<trkpt lat="43.444340" lon="45.919060"><ele>47.4</ele><time>2026-09-04T20:01:12Z</time></trkpt>
			<trkpt lat="43.444490" lon="45.918690"><ele>47.3</ele><time>2026-09-04T20:01:18Z</time></trkpt>
			<trkpt lat="43.444620" lon="45.918280"><ele>47.3</ele><time>2026-09-04T20:01:24Z</time></trkpt>
			<trkpt lat="43.444660" lon="45.918030"><ele>47.2</ele><time>2026-09-04T20:01:30Z</time></trkpt>
			<trkpt lat="43.444870" lon="45.916350"><ele>46.9</ele><time>2026-09-04T20:01:36Z</time></trkpt>
			<trkpt lat="43.444960" lon="45.915870"><ele>46.8</ele><time>2026-09-04T20:01:42Z</time></trkpt>
			<trkpt lat="43.445110" lon="45.915350"><ele>46.7</ele><time>2026-09-04T20:01:48Z</time></trkpt>
			<trkpt lat="43.446280" lon="45.911740"><ele>46.2</ele><time>2026-09-04T20:01:54Z</time></trkpt>
			<trkpt lat="43.446470" lon="45.911220"><ele>46.1</ele><time>2026-09-04T20:02:00Z</time></trkpt>
			<trkpt lat="43.446660" lon="45.910750"><ele>46.0</ele><time>2026-09-04T20:02:06Z</time></trkpt>
			<trkpt lat="43.446880" lon="45.910350"><ele>46.0</ele><time>2026-09-04T20:02:12Z</time></trkpt>
			<trkpt lat="43.449050" lon="45.907170"><ele>46.1</ele><time>2026-09-04T20:02:18Z</time></trkpt>
			<trkpt lat="43.450580" lon="45.904810"><ele>47.1</ele><time>2026-09-04T20:02:24Z</time></trkpt>
			<trkpt lat="43.454250" lon="45.898830"><ele>47.4</ele><time>2026-09-04T20:02:30Z</time></trkpt>
			<trkpt lat="43.454570" lon="45.898330"><ele>47.3</ele><time>2026-09-04T20:02:36Z</time></trkpt>
			<trkpt lat="43.454830" lon="45.898020"><ele>47.3</ele><time>2026-09-04T20:02:42Z</time></trkpt>
			<trkpt lat="43.455120" lon="45.897750"><ele>47.2</ele><time>2026-09-04T20:02:48Z</time></trkpt>
			<trkpt lat="43.457180" lon="45.896230"><ele>47.3</ele><time>2026-09-04T20:02:54Z</time></trkpt>
			<trkpt lat="43.457760" lon="45.895670"><ele>47.4</ele><time>2026-09-04T20:03:00Z</time></trkpt>
			<trkpt lat="43.458010" lon="45.895380"><ele>47.5</ele><time>2026-09-04T20:03:06Z</time></trkpt>
			<trkpt lat="43.458230" lon="45.895070"><ele>47.5</ele><time>2026-09-04T20:03:12Z</time></trkpt>
			<trkpt lat="43.458420" lon="45.894700"><ele>47.6</ele><time>2026-09-04T20:03:18Z</time></trkpt>
			<trkpt lat="43.458550" lon="45.894280"><ele>47.6</ele><time>2026-09-04T20:03:24Z</time></trkpt>
			<trkpt lat="43.461840" lon="45.881770"><ele>50.8</ele><time>2026-09-04T20:03:30Z</time></trkpt>
			<trkpt lat="43.461900" lon="45.881180"><ele>51.0</ele><time>2026-09-04T20:03:36Z</time></trkpt>
			<trkpt lat="43.461890" lon="45.880550"><ele>51.3</ele><time>2026-09-04T20:03:42Z</time></trkpt>
			<trkpt lat="43.461840" lon="45.879030"><ele>51.9</ele><time>2026-09-04T20:03:48Z</time></trkpt>
			<trkpt lat="43.461840" lon="45.879030"><ele>51.9</ele><time>2026-09-04T20:04:02Z</time></trkpt>
			<trkpt lat="43.461830" lon="45.878940"><ele>51.9</ele><time>2026-09-04T20:04:16Z</time></trkpt>
			<trkpt lat="43.461650" lon="45.877990"><ele>52.3</ele><time>2026-09-04T20:04:30Z</time></trkpt>
			<trkpt lat="43.461310" lon="45.877090"><ele>52.4</ele><time>2026-09-04T20:04:45Z</time></trkpt>
			<trkpt lat="43.461870" lon="45.876500"><ele>52.2</ele><time>2026-09-04T20:04:59Z</time></trkpt>
			<trkpt lat="43.462160" lon="45.876120"><ele>52.1</ele><time>2026-09-04T20:05:13Z</time></trkpt>
			<trkpt lat="43.462380" lon="45.875700"><ele>52.0</ele><time>2026-09-04T20:05:27Z</time></trkpt>
			<trkpt lat="43.462530" lon="45.875240"><ele>51.9</ele><time>2026-09-04T20:05:41Z</time></trkpt>
			<trkpt lat="43.463250" lon="45.871820"><ele>51.2</ele><time>2026-09-04T20:05:55Z</time></trkpt>
			<trkpt lat="43.463360" lon="45.870860"><ele>51.0</ele><time>2026-09-04T20:06:10Z</time></trkpt>
			<trkpt lat="43.463390" lon="45.870150"><ele>51.2</ele><time>2026-09-04T20:06:24Z</time></trkpt>
			<trkpt lat="43.463410" lon="45.869840"><ele>51.3</ele><time>2026-09-04T20:06:38Z</time></trkpt>
			<trkpt lat="43.463480" lon="45.869440"><ele>51.4</ele><time>2026-09-04T20:06:52Z</time></trkpt>
			<trkpt lat="43.463650" lon="45.868840"><ele>51.6</ele><time>2026-09-04T20:07:06Z</time></trkpt>
			<trkpt lat="43.464660" lon="45.865690"><ele>52.6</ele><time>2026-09-04T20:07:20Z</time></trkpt>
			<trkpt lat="43.465550" lon="45.863010"><ele>53.3</ele><time>2026-09-04T20:07:35Z</time></trkpt>
			<trkpt lat="43.466250" lon="45.860830"><ele>53.5</ele><time>2026-09-04T20:07:49Z</time></trkpt>
			<trkpt lat="43.466710" lon="45.859050"><ele>53.7</ele><time>2026-09-04T20:08:03Z</time></trkpt>
			<trkpt lat="43.466990" lon="45.857050"><ele>53.9</ele><time>2026-09-04T20:08:17Z</time></trkpt>
			<trkpt lat="43.467300" lon="45.855220"><ele>53.1</ele><time>2026-09-04T20:08:31Z</time></trkpt>
			<trkpt lat="43.467460" lon="45.854210"><ele>52.6</ele><time>2026-09-04T20:08:45Z</time></trkpt>
			<trkpt lat="43.467750" lon="45.852350"><ele>51.7</ele><time>2026-09-04T20:08:59Z</time></trkpt>
			<trkpt lat="43.467840" lon="45.852100"><ele>51.5</ele><time>2026-09-04T20:09:14Z</time></trkpt>
			<trkpt lat="43.467960" lon="45.851820"><ele>51.4</ele><time>2026-09-04T20:09:28Z</time></trkpt>
			<trkpt lat="43.468400" lon="45.851040"><ele>50.9</ele><time>2026-09-04T20:09:42Z</time></trkpt>
			<trkpt lat="43.468940" lon="45.849980"><ele>50.3</ele><time>2026-09-04T20:09:56Z</time></trkpt>
			<trkpt lat="43.469180" lon="45.849480"><ele>50.4</ele><time>2026-09-04T20:10:10Z</time></trkpt>
			<trkpt lat="43.472150" lon="45.843370"><ele>50.8</ele><time>2026-09-04T20:10:24Z</time></trkpt>
			<trkpt lat="43.473810" lon="45.840030"><ele>51.4</ele><time>2026-09-04T20:10:39Z</time></trkpt>
			<trkpt lat="43.474510" lon="45.838630"><ele>51.7</ele><time>2026-09-04T20:10:53Z</time></trkpt>
			<trkpt lat="43.474810" lon="45.838020"><ele>51.8</ele><time>2026-09-04T20:11:07Z</time></trkpt>
			<trkpt lat="43.474840" lon="45.837960"><ele>51.9</ele><time>2026-09-04T20:11:21Z</time></trkpt>
			<trkpt lat="43.474840" lon="45.837960"><ele>51.9</ele><time>2026-09-04T20:11:27Z</time></trkpt>
			<trkpt lat="43.478780" lon="45.830050"><ele>54.2</ele><time>2026-09-04T20:11:33Z</time></trkpt>
			<trkpt lat="43.478960" lon="45.829690"><ele>54.1</ele><time>2026-09-04T20:11:39Z</time></trkpt>
			<trkpt lat="43.479510" lon="45.830220"><ele>53.9</ele><time>2026-09-04T20:11:45Z</time></trkpt>
			<trkpt lat="43.479840" lon="45.830470"><ele>53.8</ele><time>2026-09-04T20:11:50Z</time></trkpt>
			<trkpt lat="43.480130" lon="45.830650"><ele>53.7</ele><time>2026-09-04T20:11:56Z</time></trkpt>
			<trkpt lat="43.480750" lon="45.831020"><ele>53.5</ele><time>2026-09-04T20:12:02Z</time></trkpt>
			<trkpt lat="43.483960" lon="45.832890"><ele>51.5</ele><time>2026-09-04T20:12:08Z</time></trkpt>
			<trkpt lat="43.485720" lon="45.833910"><ele>49.7</ele><time>2026-09-04T20:12:14Z</time></trkpt>
			<trkpt lat="43.489360" lon="45.836060"><ele>47.9</ele><time>2026-09-04T20:12:20Z</time></trkpt>
			<trkpt lat="43.491730" lon="45.837600"><ele>47.9</ele><time>2026-09-04T20:12:26Z</time></trkpt>
			<trkpt lat="43.492160" lon="45.837980"><ele>47.9</ele><time>2026-09-04T20:12:31Z</time></trkpt>
			<trkpt lat="43.492720" lon="45.838620"><ele>47.8</ele><time>2026-09-04T20:12:37Z</time></trkpt>
			<trkpt lat="43.494490" lon="45.840630"><ele>47.7</ele><time>2026-09-04T20:12:43Z</time></trkpt>
			<trkpt lat="43.497900" lon="45.844420"><ele>47.1</ele><time>2026-09-04T20:12:49Z</time></trkpt>
			<trkpt lat="43.499580" lon="45.846050"><ele>46.5</ele><time>2026-09-04T20:12:55Z</time></trkpt>
			<trkpt lat="43.501340" lon="45.847300"><ele>46.0</ele><time>2026-09-04T20:13:01Z</time></trkpt>
			<trkpt lat="43.503210" lon="45.848580"><ele>46.4</ele><time>2026-09-04T20:13:07Z</time></trkpt>
			<trkpt lat="43.504250" lon="45.849370"><ele>46.6</ele><time>2026-09-04T20:13:12Z</time></trkpt>
			<trkpt lat="43.504630" lon="45.849900"><ele>46.7</ele><time>2026-09-04T20:13:18Z</time></trkpt>
			<trkpt lat="43.504890" lon="45.850360"><ele>46.7</ele><time>2026-09-04T20:13:24Z</time></trkpt>
			<trkpt lat="43.504990" lon="45.850610"><ele>46.8</ele><time>2026-09-04T20:13:30Z</time></trkpt>
			<trkpt lat="43.505040" lon="45.850850"><ele>46.8</ele><time>2026-09-04T20:13:36Z</time></trkpt>
			<trkpt lat="43.505040" lon="45.851050"><ele>46.8</ele><time>2026-09-04T20:13:42Z</time></trkpt>
			<trkpt lat="43.505020" lon="45.851220"><ele>46.8</ele><time>2026-09-04T20:13:48Z</time></trkpt>
			<trkpt lat="43.504960" lon="45.851400"><ele>46.8</ele><time>2026-09-04T20:13:53Z</time></trkpt>
			<trkpt lat="43.504460" lon="45.852790"><ele>46.7</ele><time>2026-09-04T20:13:59Z</time></trkpt>
			<trkpt lat="43.503080" lon="45.856560"><ele>46.2</ele><time>2026-09-04T20:14:05Z</time></trkpt>
			<trkpt lat="43.503050" lon="45.857270"><ele>46.1</ele><time>2026-09-04T20:14:11Z</time></trkpt>
			<trkpt lat="43.503200" lon="45.857980"><ele>46.0</ele><time>2026-09-04T20:14:17Z</time></trkpt>
			<trkpt lat="43.503700" lon="45.858840"><ele>45.9</ele><time>2026-09-04T20:14:23Z</time></trkpt>
			<trkpt lat="43.504080" lon="45.859200"><ele>46.0</ele><time>2026-09-04T20:14:29Z</time></trkpt>
			<trkpt lat="43.504480" lon="45.859860"><ele>46.0</ele><time>2026-09-04T20:14:34Z</time></trkpt>
			<trkpt lat="43.504630" lon="45.860820"><ele>46.0</ele><time>2026-09-04T20:14:40Z</time></trkpt>
			<trkpt lat="43.504650" lon="45.861310"><ele>46.1</ele><time>2026-09-04T20:14:46Z</time></trkpt>
			<trkpt lat="43.504680" lon="45.861970"><ele>46.1</ele><time>2026-09-04T20:14:52Z</time></trkpt>
			<trkpt lat="43.504690" lon="45.862150"><ele>46.1</ele><time>2026-09-04T20:14:58Z</time></trkpt>
			<trkpt lat="43.504740" lon="45.863290"><ele>46.1</ele><time>2026-09-04T20:15:04Z</time></trkpt>
			<trkpt lat="43.504760" lon="45.863790"><ele>46.2</ele><time>2026-09-04T20:15:10Z</time></trkpt>
			<trkpt lat="43.504770" lon="45.864060"><ele>46.2</ele><time>2026-09-04T20:15:15Z</time></trkpt>
			<trkpt lat="43.504800" lon="45.864560"><ele>46.2</ele><time>2026-09-04T20:15:21Z</time></trkpt>
			<trkpt lat="43.504830" lon="45.865430"><ele>46.3</ele><time>2026-09-04T20:15:27Z</time></trkpt>
			<trkpt lat="43.504860" lon="45.866180"><ele>46.4</ele><time>2026-09-04T20:15:33Z</time></trkpt>
			<trkpt lat="43.504880" lon="45.867020"><ele>46.5</ele><time>2026-09-04T20:15:39Z</time></trkpt>
			<trkpt lat="43.504920" lon="45.867640"><ele>46.6</ele><time>2026-09-04T20:15:45Z</time></trkpt>
			<trkpt lat="43.504870" lon="45.867670"><ele>46.6</ele><time>2026-09-04T20:15:51Z</time></trkpt>
			<trkpt lat="43.504830" lon="45.867710"><ele>46.6</ele><time>2026-09-04T20:15:56Z</time></trkpt>
			<trkpt lat="43.504810" lon="45.867770"><ele>46.6</ele><time>2026-09-04T20:16:02Z</time></trkpt>
			<trkpt lat="43.504810" lon="45.867850"><ele>46.6</ele><time>2026-09-04T20:16:08Z</time></trkpt>
			<trkpt lat="43.504820" lon="45.867920"><ele>46.6</ele><time>2026-09-04T20:16:14Z</time></trkpt>
			<trkpt lat="43.504850" lon="45.867970"><ele>46.6</ele><time>2026-09-04T20:16:20Z</time></trkpt>
			<trkpt lat="43.504900" lon="45.868020"><ele>46.7</ele><time>2026-09-04T20:16:26Z</time></trkpt>
			<trkpt lat="43.504950" lon="45.868020"><ele>46.7</ele><time>2026-09-04T20:16:32Z</time></trkpt>
			<trkpt lat="43.505000" lon="45.868010"><ele>46.7</ele><time>2026-09-04T20:16:37Z</time></trkpt>
			<trkpt lat="43.505050" lon="45.867970"><ele>46.7</ele><time>2026-09-04T20:16:43Z</time></trkpt>
			<trkpt lat="43.505080" lon="45.867910"><ele>46.7</ele><time>2026-09-04T20:16:49Z</time></trkpt>
			<trkpt lat="43.505080" lon="45.867880"><ele>46.7</ele><time>2026-09-04T20:16:55Z</time></trkpt>
			<trkpt lat="43.505080" lon="45.867880"><ele>46.7</ele><time>2026-09-04T20:17:18Z</time></trkpt>
			<trkpt lat="43.505090" lon="45.867840"><ele>46.7</ele><time>2026-09-04T20:17:41Z</time></trkpt>
			<trkpt lat="43.505080" lon="45.867770"><ele>46.7</ele><time>2026-09-04T20:18:04Z</time></trkpt>
			<trkpt lat="43.505050" lon="45.867700"><ele>46.7</ele><time>2026-09-04T20:18:28Z</time></trkpt>
			<trkpt lat="43.505320" lon="45.867400"><ele>46.8</ele><time>2026-09-04T20:18:51Z</time></trkpt>
			<trkpt lat="43.507010" lon="45.865270"><ele>47.3</ele><time>2026-09-04T20:19:14Z</time></trkpt>
			<trkpt lat="43.509300" lon="45.862380"><ele>46.8</ele><time>2026-09-04T20:19:37Z</time></trkpt>
			<trkpt lat="43.512270" lon="45.858980"><ele>46.7</ele><time>2026-09-04T20:20:00Z</time></trkpt>
			<trkpt lat="43.518720" lon="45.851940"><ele>48.6</ele><time>2026-09-04T20:20:23Z</time></trkpt>
			<trkpt lat="43.521540" lon="45.849160"><ele>50.0</ele><time>2026-09-04T20:20:46Z</time></trkpt>
			<trkpt lat="43.522220" lon="45.848240"><ele>50.6</ele><time>2026-09-04T20:21:10Z</time></trkpt>
			<trkpt lat="43.522860" lon="45.846710"><ele>51.4</ele><time>2026-09-04T20:21:33Z</time></trkpt>
			<trkpt lat="43.523390" lon="45.844890"><ele>52.1</ele><time>2026-09-04T20:21:56Z</time></trkpt>
			<trkpt lat="43.524800" lon="45.836700"><ele>53.7</ele><time>2026-09-04T20:22:19Z</time></trkpt>
			<trkpt lat="43.526280" lon="45.828190"><ele>54.3</ele><time>2026-09-04T20:22:42Z</time></trkpt>
			<trkpt lat="43.529490" lon="45.816630"><ele>59.3</ele><time>2026-09-04T20:23:05Z</time></trkpt>
			<trkpt lat="43.532320" lon="45.806530"><ele>59.7</ele><time>2026-09-04T20:23:28Z</time></trkpt>
			<trkpt lat="43.533840" lon="45.798930"><ele>57.6</ele><time>2026-09-04T20:23:52Z</time></trkpt>
			<trkpt lat="43.534890" lon="45.793680"><ele>56.7</ele><time>2026-09-04T20:24:15Z</time></trkpt>
			<trkpt lat="43.535840" lon="45.789050"><ele>56.8</ele><time>2026-09-04T20:24:38Z</time></trkpt>
			<trkpt lat="43.535860" lon="45.788330"><ele>56.8</ele><time>2026-09-04T20:25:01Z</time></trkpt>
			<trkpt lat="43.535500" lon="45.787890"><ele>56.8</ele><time>2026-09-04T20:25:24Z</time></trkpt>
			<trkpt lat="43.534980" lon="45.787410"><ele>56.9</ele><time>2026-09-04T20:25:47Z</time></trkpt>
			<trkpt lat="43.534740" lon="45.787020"><ele>56.9</ele><time>2026-09-04T20:26:10Z</time></trkpt>
			<trkpt lat="43.534860" lon="45.786360"><ele>57.0</ele><time>2026-09-04T20:26:34Z</time></trkpt>
			<trkpt lat="43.537140" lon="45.778530"><ele>57.6</ele><time>2026-09-04T20:26:57Z</time></trkpt>
			<trkpt lat="43.537990" lon="45.775640"><ele>57.9</ele><time>2026-09-04T20:27:20Z</time></trkpt>
			<trkpt lat="43.538700" lon="45.773310"><ele>58.2</ele><time>2026-09-04T20:27:43Z</time></trkpt>
			<trkpt lat="43.541970" lon="45.767000"><ele>59.5</ele><time>2026-09-04T20:28:06Z</time></trkpt>
			<trkpt lat="43.544280" lon="45.762590"><ele>60.1</ele><time>2026-09-04T20:28:29Z</time></trkpt>
			<trkpt lat="43.547930" lon="45.753050"><ele>59.6</ele><time>2026-09-04T20:28:52Z</time></trkpt>
			<trkpt lat="43.550760" lon="45.742960"><ele>60.1</ele><time>2026-09-04T20:29:15Z</time></trkpt>
			<trkpt lat="43.552760" lon="45.736200"><ele>61.1</ele><time>2026-09-04T20:29:39Z</time></trkpt>
			<trkpt lat="43.555650" lon="45.727000"><ele>61.1</ele><time>2026-09-04T20:30:02Z</time></trkpt>
			<trkpt lat="43.556540" lon="45.723960"><ele>60.0</ele><time>2026-09-04T20:30:25Z</time></trkpt>
			<trkpt lat="43.558540" lon="45.718980"><ele>59.6</ele><time>2026-09-04T20:30:48Z</time></trkpt>
			<trkpt lat="43.563040" lon="45.706880"><ele>61.6</ele><time>2026-09-04T20:31:11Z</time></trkpt>
			<trkpt lat="43.564190" lon="45.703570"><ele>62.4</ele><time>2026-09-04T20:31:34Z</time></trkpt>
			<trkpt lat="43.564990" lon="45.700180"><ele>63.1</ele><time>2026-09-04T20:31:57Z</time></trkpt>
			<trkpt lat="43.568980" lon="45.686990"><ele>62.8</ele><time>2026-09-04T20:32:21Z</time></trkpt>
			<trkpt lat="43.573530" lon="45.672040"><ele>65.6</ele><time>2026-09-04T20:32:44Z</time></trkpt>
			<trkpt lat="43.575010" lon="45.667060"><ele>65.0</ele><time>2026-09-04T20:33:07Z</time></trkpt>
			<trkpt lat="43.575390" lon="45.665030"><ele>64.9</ele><time>2026-09-04T20:33:30Z</time></trkpt>
			<trkpt lat="43.583250" lon="45.638320"><ele>66.3</ele><time>2026-09-04T20:33:53Z</time></trkpt>
			<trkpt lat="43.584920" lon="45.632560"><ele>66.8</ele><time>2026-09-04T20:34:16Z</time></trkpt>
			<trkpt lat="43.585310" lon="45.630850"><ele>66.9</ele><time>2026-09-04T20:34:39Z</time></trkpt>
			<trkpt lat="43.585570" lon="45.629740"><ele>66.9</ele><time>2026-09-04T20:35:03Z</time></trkpt>
			<trkpt lat="43.585660" lon="45.629330"><ele>66.9</ele><time>2026-09-04T20:35:26Z</time></trkpt>
			<trkpt lat="43.586390" lon="45.626700"><ele>66.9</ele><time>2026-09-04T20:35:49Z</time></trkpt>
			<trkpt lat="43.590840" lon="45.610940"><ele>69.1</ele><time>2026-09-04T20:36:12Z</time></trkpt>
			<trkpt lat="43.593320" lon="45.602560"><ele>68.6</ele><time>2026-09-04T20:36:35Z</time></trkpt>
			<trkpt lat="43.596390" lon="45.591370"><ele>69.3</ele><time>2026-09-04T20:36:58Z</time></trkpt>
			<trkpt lat="43.596790" lon="45.586300"><ele>70.2</ele><time>2026-09-04T20:37:21Z</time></trkpt>
			<trkpt lat="43.597910" lon="45.582710"><ele>71.4</ele><time>2026-09-04T20:37:45Z</time></trkpt>
			<trkpt lat="43.600380" lon="45.574960"><ele>71.7</ele><time>2026-09-04T20:38:08Z</time></trkpt>
			<trkpt lat="43.605760" lon="45.559010"><ele>71.8</ele><time>2026-09-04T20:38:31Z</time></trkpt>
			<trkpt lat="43.614520" lon="45.528460"><ele>74.3</ele><time>2026-09-04T20:38:54Z</time></trkpt>
			<trkpt lat="43.615490" lon="45.525540"><ele>74.1</ele><time>2026-09-04T20:39:17Z</time></trkpt>
			<trkpt lat="43.616540" lon="45.522230"><ele>75.1</ele><time>2026-09-04T20:39:40Z</time></trkpt>
			<trkpt lat="43.619130" lon="45.513100"><ele>76.7</ele><time>2026-09-04T20:40:03Z</time></trkpt>
			<trkpt lat="43.622220" lon="45.502310"><ele>76.0</ele><time>2026-09-04T20:40:27Z</time></trkpt>
			<trkpt lat="43.624420" lon="45.494530"><ele>76.9</ele><time>2026-09-04T20:40:50Z</time></trkpt>
			<trkpt lat="43.625520" lon="45.491000"><ele>76.8</ele><time>2026-09-04T20:41:13Z</time></trkpt>
			<trkpt lat="43.629350" lon="45.482070"><ele>76.0</ele><time>2026-09-04T20:41:36Z</time></trkpt>
			<trkpt lat="43.631750" lon="45.476400"><ele>76.4</ele><time>2026-09-04T20:41:59Z</time></trkpt>
			<trkpt lat="43.637220" lon="45.463580"><ele>76.9</ele><time>2026-09-04T20:42:22Z</time></trkpt>
			<trkpt lat="43.638920" lon="45.459220"><ele>77.0</ele><time>2026-09-04T20:42:45Z</time></trkpt>
			<trkpt lat="43.639650" lon="45.456880"><ele>77.1</ele><time>2026-09-04T20:43:09Z</time></trkpt>
			<trkpt lat="43.643310" lon="45.448440"><ele>78.4</ele><time>2026-09-04T20:43:32Z</time></trkpt>
			<trkpt lat="43.645150" lon="45.444760"><ele>79.0</ele><time>2026-09-04T20:43:55Z</time></trkpt>
			<trkpt lat="43.645340" lon="45.444390"><ele>79.0</ele><time>2026-09-04T20:44:18Z</time></trkpt>
			<trkpt lat="43.659020" lon="45.418450"><ele>81.0</ele><time>2026-09-04T20:44:41Z</time></trkpt>
			<trkpt lat="43.659820" lon="45.416780"><ele>80.8</ele><time>2026-09-04T20:45:04Z</time></trkpt>
			<trkpt lat="43.660110" lon="45.415770"><ele>80.6</ele><time>2026-09-04T20:45:27Z</time></trkpt>
			<trkpt lat="43.660220" lon="45.414990"><ele>80.6</ele><time>2026-09-04T20:45:51Z</time></trkpt>
			<trkpt lat="43.660720" lon="45.412950"><ele>80.6</ele><time>2026-09-04T20:46:14Z</time></trkpt>
			<trkpt lat="43.661800" lon="45.409480"><ele>80.7</ele><time>2026-09-04T20:46:37Z</time></trkpt>
			<trkpt lat="43.666110" lon="45.401300"><ele>81.7</ele><time>2026-09-04T20:47:00Z</time></trkpt>
			<trkpt lat="43.667220" lon="45.399090"><ele>82.1</ele><time>2026-09-04T20:47:23Z</time></trkpt>
			<trkpt lat="43.667560" lon="45.398080"><ele>82.3</ele><time>2026-09-04T20:47:46Z</time></trkpt>
			<trkpt lat="43.667720" lon="45.397110"><ele>82.4</ele><time>2026-09-04T20:48:09Z</time></trkpt>
			<trkpt lat="43.667870" lon="45.394170"><ele>82.6</ele><time>2026-09-04T20:48:33Z</time></trkpt>
			<trkpt lat="43.668020" lon="45.391220"><ele>82.6</ele><time>2026-09-04T20:48:56Z</time></trkpt>
			<trkpt lat="43.668120" lon="45.387910"><ele>82.7</ele><time>2026-09-04T20:49:19Z</time></trkpt>
			<trkpt lat="43.668260" lon="45.383370"><ele>83.7</ele><time>2026-09-04T20:49:42Z</time></trkpt>
			<trkpt lat="43.668220" lon="45.380890"><ele>84.2</ele><time>2026-09-04T20:50:05Z</time></trkpt>
			<trkpt lat="43.668220" lon="45.380720"><ele>84.3</ele><time>2026-09-04T20:50:28Z</time></trkpt>
			<trkpt lat="43.668110" lon="45.378470"><ele>84.0</ele><time>2026-09-04T20:50:51Z</time></trkpt>
			<trkpt lat="43.668150" lon="45.377760"><ele>83.8</ele><time>2026-09-04T20:51:15Z</time></trkpt>
			<trkpt lat="43.668240" lon="45.377420"><ele>83.8</ele><time>2026-09-04T20:51:38Z</time></trkpt>
			<trkpt lat="43.668560" lon="45.376830"><ele>83.7</ele><time>2026-09-04T20:52:01Z</time></trkpt>
			<trkpt lat="43.668830" lon="45.376430"><ele>83.6</ele><time>2026-09-04T20:52:24Z</time></trkpt>
			<trkpt lat="43.669220" lon="45.375810"><ele>83.5</ele><time>2026-09-04T20:52:47Z</time></trkpt>
			<trkpt lat="43.669420" lon="45.375390"><ele>83.4</ele><time>2026-09-04T20:53:10Z</time></trkpt>
			<trkpt lat="43.669520" lon="45.375040"><ele>83.4</ele><time>2026-09-04T20:53:33Z</time></trkpt>
			<trkpt lat="43.669650" lon="45.374510"><ele>83.3</ele><time>2026-09-04T20:53:57Z</time></trkpt>
			<trkpt lat="43.669800" lon="45.373730"><ele>83.2</ele><time>2026-09-04T20:54:20Z</time></trkpt>
			<trkpt lat="43.669800" lon="45.373700"><ele>83.2</ele><time>2026-09-04T20:54:43Z</time></trkpt>
			<trkpt lat="43.669950" lon="45.372930"><ele>83.3</ele><time>2026-09-04T20:55:06Z</time></trkpt>
			<trkpt lat="43.670250" lon="45.371340"><ele>83.5</ele><time>2026-09-04T20:55:29Z</time></trkpt>
			<trkpt lat="43.670430" lon="45.370400"><ele>83.7</ele><time>2026-09-04T20:55:52Z</time></trkpt>
			<trkpt lat="43.670550" lon="45.369740"><ele>83.8</ele><time>2026-09-04T20:56:15Z</time></trkpt>
			<trkpt lat="43.670900" lon="45.367930"><ele>84.0</ele><time>2026-09-04T20:56:39Z</time></trkpt>
			<trkpt lat="43.672810" lon="45.357850"><ele>85.4</ele><time>2026-09-04T20:57:02Z</time></trkpt>
			<trkpt lat="43.673020" lon="45.356960"><ele>85.1</ele><time>2026-09-04T20:57:25Z</time></trkpt>
			<trkpt lat="43.673100" lon="45.356720"><ele>85.0</ele><time>2026-09-04T20:57:48Z</time></trkpt>
			<trkpt lat="43.673900" lon="45.354260"><ele>84.2</ele><time>2026-09-04T20:58:11Z</time></trkpt>
			<trkpt lat="43.674390" lon="45.352630"><ele>83.7</ele><time>2026-09-04T20:58:34Z</time></trkpt>
			<trkpt lat="43.674770" lon="45.351130"><ele>84.0</ele><time>2026-09-04T20:58:57Z</time></trkpt>
			<trkpt lat="43.693120" lon="45.256330"><ele>91.3</ele><time>2026-09-04T20:59:21Z</time></trkpt>
			<trkpt lat="43.693420" lon="45.253650"><ele>93.1</ele><time>2026-09-04T20:59:44Z</time></trkpt>
			<trkpt lat="43.693700" lon="45.251120"><ele>94.8</ele><time>2026-09-04T21:00:07Z</time></trkpt>
			<trkpt lat="43.694380" lon="45.247600"><ele>94.9</ele><time>2026-09-04T21:00:30Z</time></trkpt>
			<trkpt lat="43.695070" lon="45.244110"><ele>94.3</ele><time>2026-09-04T21:00:53Z</time></trkpt>
			<trkpt lat="43.695820" lon="45.240280"><ele>93.3</ele><time>2026-09-04T21:01:16Z</time></trkpt>
			<trkpt lat="43.696450" lon="45.237060"><ele>92.4</ele><time>2026-09-04T21:01:39Z</time></trkpt>
			<trkpt lat="43.696570" lon="45.236480"><ele>92.2</ele><time>2026-09-04T21:02:03Z</time></trkpt>
			<trkpt lat="43.696870" lon="45.235120"><ele>92.3</ele><time>2026-09-04T21:02:26Z</time></trkpt>
			<trkpt lat="43.697260" lon="45.233380"><ele>93.0</ele><time>2026-09-04T21:02:49Z</time></trkpt>
			<trkpt lat="43.699400" lon="45.223650"><ele>95.5</ele><time>2026-09-04T21:03:12Z</time></trkpt>
			<trkpt lat="43.701540" lon="45.212520"><ele>94.7</ele><time>2026-09-04T21:03:35Z</time></trkpt>
			<trkpt lat="43.704300" lon="45.201290"><ele>95.5</ele><time>2026-09-04T21:03:58Z</time></trkpt>
			<trkpt lat="43.709340" lon="45.180870"><ele>97.6</ele><time>2026-09-04T21:04:21Z</time></trkpt>
			<trkpt lat="43.712070" lon="45.169970"><ele>98.3</ele><time>2026-09-04T21:04:45Z</time></trkpt>
			<trkpt lat="43.713970" lon="45.162300"><ele>98.2</ele><time>2026-09-04T21:05:08Z</time></trkpt>
			<trkpt lat="43.714380" lon="45.160120"><ele>98.2</ele><time>2026-09-04T21:05:31Z</time></trkpt>
			<trkpt lat="43.715080" lon="45.152490"><ele>100.5</ele><time>2026-09-04T21:05:54Z</time></trkpt>
			<trkpt lat="43.715130" lon="45.151840"><ele>100.8</ele><time>2026-09-04T21:06:17Z</time></trkpt>
			<trkpt lat="43.715370" lon="45.149020"><ele>102.0</ele><time>2026-09-04T21:06:40Z</time></trkpt>
			<trkpt lat="43.715530" lon="45.146940"><ele>102.0</ele><time>2026-09-04T21:07:03Z</time></trkpt>
			<trkpt lat="43.715760" lon="45.144120"><ele>102.0</ele><time>2026-09-04T21:07:27Z</time></trkpt>
			<trkpt lat="43.716010" lon="45.141090"><ele>102.0</ele><time>2026-09-04T21:07:50Z</time></trkpt>
			<trkpt lat="43.716160" lon="45.139190"><ele>102.0</ele><time>2026-09-04T21:08:13Z</time></trkpt>
			<trkpt lat="43.716350" lon="45.136940"><ele>102.0</ele><time>2026-09-04T21:08:36Z</time></trkpt>
			<trkpt lat="43.716760" lon="45.131930"><ele>101.8</ele><time>2026-09-04T21:08:59Z</time></trkpt>
			<trkpt lat="43.716850" lon="45.130810"><ele>101.7</ele><time>2026-09-04T21:09:22Z</time></trkpt>
			<trkpt lat="43.716940" lon="45.129660"><ele>101.7</ele><time>2026-09-04T21:09:45Z</time></trkpt>
			<trkpt lat="43.717060" lon="45.128180"><ele>101.6</ele><time>2026-09-04T21:10:09Z</time></trkpt>
			<trkpt lat="43.717110" lon="45.127530"><ele>101.6</ele><time>2026-09-04T21:10:32Z</time></trkpt>
			<trkpt lat="43.717160" lon="45.127230"><ele>101.6</ele><time>2026-09-04T21:10:55Z</time></trkpt>
			<trkpt lat="43.717230" lon="45.126830"><ele>101.6</ele><time>2026-09-04T21:11:18Z</time></trkpt>
			<trkpt lat="43.717270" lon="45.126640"><ele>101.6</ele><time>2026-09-04T21:11:41Z</time></trkpt>
			<trkpt lat="43.717340" lon="45.126450"><ele>101.6</ele><time>2026-09-04T21:12:04Z</time></trkpt>
			<trkpt lat="43.717560" lon="45.125950"><ele>101.6</ele><time>2026-09-04T21:12:27Z</time></trkpt>
			<trkpt lat="43.717770" lon="45.125570"><ele>101.6</ele><time>2026-09-04T21:12:51Z</time></trkpt>
			<trkpt lat="43.717890" lon="45.125360"><ele>101.6</ele><time>2026-09-04T21:13:14Z</time></trkpt>
			<trkpt lat="43.718050" lon="45.125120"><ele>101.7</ele><time>2026-09-04T21:13:37Z</time></trkpt>
			<trkpt lat="43.719940" lon="45.122460"><ele>101.8</ele><time>2026-09-04T21:14:00Z</time></trkpt>
			<trkpt lat="43.720950" lon="45.121030"><ele>102.0</ele><time>2026-09-04T21:14:23Z</time></trkpt>
			<trkpt lat="43.721200" lon="45.120640"><ele>102.1</ele><time>2026-09-04T21:14:46Z</time></trkpt>
			<trkpt lat="43.722230" lon="45.119180"><ele>102.6</ele><time>2026-09-04T21:15:09Z</time></trkpt>
			<trkpt lat="43.722340" lon="45.119030"><ele>102.7</ele><time>2026-09-04T21:15:33Z</time></trkpt>
			<trkpt lat="43.724260" lon="45.116300"><ele>103.6</ele><time>2026-09-04T21:15:56Z</time></trkpt>
			<trkpt lat="43.725510" lon="45.114530"><ele>104.4</ele><time>2026-09-04T21:16:19Z</time></trkpt>
			<trkpt lat="43.725810" lon="45.114050"><ele>104.6</ele><time>2026-09-04T21:16:42Z</time></trkpt>
			<trkpt lat="43.725930" lon="45.113820"><ele>104.7</ele><time>2026-09-04T21:17:05Z</time></trkpt>
			<trkpt lat="43.726180" lon="45.113200"><ele>105.0</ele><time>2026-09-04T21:17:28Z</time></trkpt>
			<trkpt lat="43.726270" lon="45.112930"><ele>105.1</ele><time>2026-09-04T21:17:51Z</time></trkpt>
			<trkpt lat="43.726370" lon="45.112560"><ele>105.2</ele><time>2026-09-04T21:18:15Z</time></trkpt>
			<trkpt lat="43.726440" lon="45.112260"><ele>105.3</ele><time>2026-09-04T21:18:38Z</time></trkpt>
			<trkpt lat="43.726470" lon="45.112050"><ele>105.4</ele><time>2026-09-04T21:19:01Z</time></trkpt>
			<trkpt lat="43.726650" lon="45.110650"><ele>105.9</ele><time>2026-09-04T21:19:24Z</time></trkpt>
			<trkpt lat="43.728500" lon="45.095130"><ele>106.8</ele><time>2026-09-04T21:19:47Z</time></trkpt>
			<trkpt lat="43.729770" lon="45.084460"><ele>106.7</ele><time>2026-09-04T21:20:10Z</time></trkpt>
			<trkpt lat="43.731030" lon="45.073690"><ele>108.9</ele><time>2026-09-04T21:20:33Z</time></trkpt>
			<trkpt lat="43.731950" lon="45.065710"><ele>106.1</ele><time>2026-09-04T21:20:57Z</time></trkpt>
			<trkpt lat="43.732080" lon="45.064620"><ele>105.7</ele><time>2026-09-04T21:21:20Z</time></trkpt>
			<trkpt lat="43.732140" lon="45.064040"><ele>105.8</ele><time>2026-09-04T21:21:43Z</time></trkpt>
			<trkpt lat="43.732210" lon="45.063410"><ele>106.0</ele><time>2026-09-04T21:22:06Z</time></trkpt>
			<trkpt lat="43.732850" lon="45.057830"><ele>107.4</ele><time>2026-09-04T21:22:29Z</time></trkpt>
			<trkpt lat="43.735920" lon="45.031550"><ele>108.7</ele><time>2026-09-04T21:22:52Z</time></trkpt>
			<trkpt lat="43.736130" lon="45.029910"><ele>108.6</ele><time>2026-09-04T21:23:15Z</time></trkpt>
			<trkpt lat="43.736180" lon="45.029200"><ele>108.6</ele><time>2026-09-04T21:23:39Z</time></trkpt>
			<trkpt lat="43.736200" lon="45.028340"><ele>108.5</ele><time>2026-09-04T21:24:02Z</time></trkpt>
			<trkpt lat="43.736200" lon="45.027530"><ele>108.4</ele><time>2026-09-04T21:24:25Z</time></trkpt>
			<trkpt lat="43.736190" lon="45.026100"><ele>108.8</ele><time>2026-09-04T21:24:48Z</time></trkpt>
			<trkpt lat="43.736170" lon="45.014080"><ele>109.9</ele><time>2026-09-04T21:25:11Z</time></trkpt>
			<trkpt lat="43.736170" lon="45.014080"><ele>109.9</ele><time>2026-09-04T21:25:23Z</time></trkpt>
			<trkpt lat="43.736160" lon="45.007910"><ele>109.2</ele><time>2026-09-04T21:25:34Z</time></trkpt>
			<trkpt lat="43.736160" lon="45.002120"><ele>109.7</ele><time>2026-09-04T21:25:46Z</time></trkpt>
			<trkpt lat="43.736160" lon="45.001660"><ele>109.8</ele><time>2026-09-04T21:25:58Z</time></trkpt>
			<trkpt lat="43.736150" lon="45.001300"><ele>109.9</ele><time>2026-09-04T21:26:10Z</time></trkpt>
			<trkpt lat="43.736110" lon="45.000820"><ele>110.1</ele><time>2026-09-04T21:26:21Z</time></trkpt>
			<trkpt lat="43.735990" lon="45.000090"><ele>110.3</ele><time>2026-09-04T21:26:33Z</time></trkpt>
			<trkpt lat="43.735740" lon="44.998730"><ele>110.7</ele><time>2026-09-04T21:26:45Z</time></trkpt>
			<trkpt lat="43.735690" lon="44.998290"><ele>110.8</ele><time>2026-09-04T21:26:56Z</time></trkpt>
			<trkpt lat="43.735670" lon="44.998080"><ele>110.9</ele><time>2026-09-04T21:27:08Z</time></trkpt>
			<trkpt lat="43.735670" lon="44.997960"><ele>110.9</ele><time>2026-09-04T21:27:20Z</time></trkpt>
			<trkpt lat="43.735760" lon="44.991760"><ele>111.9</ele><time>2026-09-04T21:27:31Z</time></trkpt>
			<trkpt lat="43.735840" lon="44.985480"><ele>113.3</ele><time>2026-09-04T21:27:43Z</time></trkpt>
			<trkpt lat="43.735880" lon="44.982940"><ele>114.0</ele><time>2026-09-04T21:27:55Z</time></trkpt>
			<trkpt lat="43.735900" lon="44.982240"><ele>114.2</ele><time>2026-09-04T21:28:06Z</time></trkpt>
			<trkpt lat="43.735940" lon="44.981700"><ele>114.2</ele><time>2026-09-04T21:28:18Z</time></trkpt>
			<trkpt lat="43.736000" lon="44.981000"><ele>114.3</ele><time>2026-09-04T21:28:30Z</time></trkpt>
			<trkpt lat="43.736170" lon="44.979350"><ele>114.5</ele><time>2026-09-04T21:28:41Z</time></trkpt>
			<trkpt lat="43.736250" lon="44.978380"><ele>114.6</ele><time>2026-09-04T21:28:53Z</time></trkpt>
			<trkpt lat="43.736470" lon="44.973630"><ele>114.7</ele><time>2026-09-04T21:29:05Z</time></trkpt>
			<trkpt lat="43.737350" lon="44.952540"><ele>116.1</ele><time>2026-09-04T21:29:16Z</time></trkpt>
			<trkpt lat="43.737570" lon="44.945850"><ele>118.4</ele><time>2026-09-04T21:29:28Z</time></trkpt>
			<trkpt lat="43.737750" lon="44.939650"><ele>117.6</ele><time>2026-09-04T21:29:40Z</time></trkpt>
			<trkpt lat="43.737950" lon="44.933510"><ele>116.8</ele><time>2026-09-04T21:29:51Z</time></trkpt>
			<trkpt lat="43.738010" lon="44.931900"><ele>116.6</ele><time>2026-09-04T21:30:03Z</time></trkpt>
			<trkpt lat="43.738070" lon="44.930320"><ele>116.5</ele><time>2026-09-04T21:30:15Z</time></trkpt>
			<trkpt lat="43.738140" lon="44.928690"><ele>116.8</ele><time>2026-09-04T21:30:26Z</time></trkpt>
			<trkpt lat="43.738170" lon="44.927920"><ele>117.0</ele><time>2026-09-04T21:30:38Z</time></trkpt>
			<trkpt lat="43.738200" lon="44.927390"><ele>117.1</ele><time>2026-09-04T21:30:50Z</time></trkpt>
			<trkpt lat="43.739190" lon="44.904490"><ele>117.9</ele><time>2026-09-04T21:31:02Z</time></trkpt>
			<trkpt lat="43.739500" lon="44.896940"><ele>118.9</ele><time>2026-09-04T21:31:13Z</time></trkpt>
			<trkpt lat="43.740250" lon="44.877630"><ele>120.2</ele><time>2026-09-04T21:31:25Z</time></trkpt>
			<trkpt lat="43.740410" lon="44.873040"><ele>120.3</ele><time>2026-09-04T21:31:37Z</time></trkpt>
			<trkpt lat="43.740470" lon="44.871230"><ele>120.2</ele><time>2026-09-04T21:31:48Z</time></trkpt>
			<trkpt lat="43.740460" lon="44.870900"><ele>120.2</ele><time>2026-09-04T21:32:00Z</time></trkpt>
			<trkpt lat="43.740410" lon="44.870170"><ele>120.2</ele><time>2026-09-04T21:32:12Z</time></trkpt>
			<trkpt lat="43.740270" lon="44.868810"><ele>120.4</ele><time>2026-09-04T21:32:23Z</time></trkpt>
			<trkpt lat="43.740250" lon="44.868530"><ele>120.5</ele><time>2026-09-04T21:32:35Z</time></trkpt>
			<trkpt lat="43.740240" lon="44.868200"><ele>120.6</ele><time>2026-09-04T21:32:47Z</time></trkpt>
			<trkpt lat="43.740240" lon="44.867630"><ele>120.8</ele><time>2026-09-04T21:32:58Z</time></trkpt>
			<trkpt lat="43.740340" lon="44.864640"><ele>121.7</ele><time>2026-09-04T21:33:10Z</time></trkpt>
			<trkpt lat="43.740550" lon="44.859050"><ele>122.9</ele><time>2026-09-04T21:33:22Z</time></trkpt>
			<trkpt lat="43.740790" lon="44.852420"><ele>123.5</ele><time>2026-09-04T21:33:33Z</time></trkpt>
			<trkpt lat="43.740830" lon="44.851870"><ele>123.5</ele><time>2026-09-04T21:33:45Z</time></trkpt>
			<trkpt lat="43.740870" lon="44.851550"><ele>123.5</ele><time>2026-09-04T21:33:57Z</time></trkpt>
			<trkpt lat="43.740930" lon="44.851170"><ele>123.5</ele><time>2026-09-04T21:34:08Z</time></trkpt>
			<trkpt lat="43.741170" lon="44.849930"><ele>123.5</ele><time>2026-09-04T21:34:20Z</time></trkpt>
			<trkpt lat="43.741300" lon="44.849330"><ele>123.4</ele><time>2026-09-04T21:34:32Z</time></trkpt>
			<trkpt lat="43.741360" lon="44.848860"><ele>123.4</ele><time>2026-09-04T21:34:43Z</time></trkpt>
			<trkpt lat="43.741420" lon="44.848350"><ele>123.4</ele><time>2026-09-04T21:34:55Z</time></trkpt>
			<trkpt lat="43.741490" lon="44.847600"><ele>123.4</ele><time>2026-09-04T21:35:07Z</time></trkpt>
			<trkpt lat="43.741770" lon="44.840120"><ele>123.6</ele><time>2026-09-04T21:35:19Z</time></trkpt>
			<trkpt lat="43.742110" lon="44.830580"><ele>124.6</ele><time>2026-09-04T21:35:30Z</time></trkpt>
			<trkpt lat="43.743110" lon="44.803790"><ele>127.1</ele><time>2026-09-04T21:35:42Z</time></trkpt>
			<trkpt lat="43.743120" lon="44.803480"><ele>127.1</ele><time>2026-09-04T21:35:54Z</time></trkpt>
			<trkpt lat="43.743240" lon="44.800100"><ele>127.7</ele><time>2026-09-04T21:36:05Z</time></trkpt>
			<trkpt lat="43.743370" lon="44.796660"><ele>128.7</ele><time>2026-09-04T21:36:17Z</time></trkpt>
			<trkpt lat="43.743510" lon="44.793120"><ele>128.9</ele><time>2026-09-04T21:36:29Z</time></trkpt>
			<trkpt lat="43.743680" lon="44.789490"><ele>127.5</ele><time>2026-09-04T21:36:40Z</time></trkpt>
			<trkpt lat="43.743920" lon="44.783030"><ele>126.2</ele><time>2026-09-04T21:36:52Z</time></trkpt>
			<trkpt lat="43.744090" lon="44.778530"><ele>126.0</ele><time>2026-09-04T21:37:04Z</time></trkpt>
			<trkpt lat="43.744130" lon="44.777890"><ele>126.2</ele><time>2026-09-04T21:37:15Z</time></trkpt>
			<trkpt lat="43.744170" lon="44.777490"><ele>126.3</ele><time>2026-09-04T21:37:27Z</time></trkpt>
			<trkpt lat="43.744280" lon="44.776790"><ele>126.4</ele><time>2026-09-04T21:37:39Z</time></trkpt>
			<trkpt lat="43.744400" lon="44.776150"><ele>126.6</ele><time>2026-09-04T21:37:50Z</time></trkpt>
			<trkpt lat="43.744580" lon="44.775440"><ele>126.7</ele><time>2026-09-04T21:38:02Z</time></trkpt>
			<trkpt lat="43.744650" lon="44.775180"><ele>126.8</ele><time>2026-09-04T21:38:14Z</time></trkpt>
			<trkpt lat="43.744700" lon="44.775030"><ele>126.8</ele><time>2026-09-04T21:38:25Z</time></trkpt>
			<trkpt lat="43.745080" lon="44.773880"><ele>127.1</ele><time>2026-09-04T21:38:37Z</time></trkpt>
			<trkpt lat="43.745440" lon="44.772880"><ele>127.4</ele><time>2026-09-04T21:38:49Z</time></trkpt>
			<trkpt lat="43.745970" lon="44.771480"><ele>127.5</ele><time>2026-09-04T21:39:00Z</time></trkpt>
			<trkpt lat="43.748890" lon="44.763610"><ele>127.1</ele><time>2026-09-04T21:39:12Z</time></trkpt>
			<trkpt lat="43.751140" lon="44.758080"><ele>127.3</ele><time>2026-09-04T21:39:24Z</time></trkpt>
			<trkpt lat="43.751270" lon="44.757740"><ele>127.3</ele><time>2026-09-04T21:39:36Z</time></trkpt>
			<trkpt lat="43.751410" lon="44.757400"><ele>127.3</ele><time>2026-09-04T21:39:47Z</time></trkpt>
			<trkpt lat="43.752020" lon="44.755870"><ele>127.5</ele><time>2026-09-04T21:39:59Z</time></trkpt>
			<trkpt lat="43.752590" lon="44.754490"><ele>127.6</ele><time>2026-09-04T21:40:11Z</time></trkpt>
			<trkpt lat="43.753140" lon="44.753220"><ele>127.7</ele><time>2026-09-04T21:40:22Z</time></trkpt>
			<trkpt lat="43.753700" lon="44.751780"><ele>128.2</ele><time>2026-09-04T21:40:34Z</time></trkpt>
			<trkpt lat="43.753860" lon="44.751310"><ele>128.5</ele><time>2026-09-04T21:40:46Z</time></trkpt>
			<trkpt lat="43.754440" lon="44.748500"><ele>130.5</ele><time>2026-09-04T21:40:57Z</time></trkpt>
			<trkpt lat="43.754480" lon="44.748260"><ele>130.7</ele><time>2026-09-04T21:41:09Z</time></trkpt>
			<trkpt lat="43.754610" lon="44.747710"><ele>131.1</ele><time>2026-09-04T21:41:21Z</time></trkpt>
			<trkpt lat="43.755050" lon="44.746690"><ele>131.9</ele><time>2026-09-04T21:41:32Z</time></trkpt>
			<trkpt lat="43.755440" lon="44.746100"><ele>132.4</ele><time>2026-09-04T21:41:44Z</time></trkpt>
			<trkpt lat="43.755600" lon="44.745930"><ele>132.6</ele><time>2026-09-04T21:41:56Z</time></trkpt>
			<trkpt lat="43.755980" lon="44.745600"><ele>132.8</ele><time>2026-09-04T21:42:07Z</time></trkpt>
			<trkpt lat="43.756770" lon="44.745170"><ele>132.7</ele><time>2026-09-04T21:42:19Z</time></trkpt>
			<trkpt lat="43.757880" lon="44.745000"><ele>132.5</ele><time>2026-09-04T21:42:31Z</time></trkpt>
			<trkpt lat="43.758380" lon="44.744780"><ele>132.4</ele><time>2026-09-04T21:42:42Z</time></trkpt>
			<trkpt lat="43.758810" lon="44.744440"><ele>132.4</ele><time>2026-09-04T21:42:54Z</time></trkpt>
			<trkpt lat="43.759240" lon="44.744050"><ele>132.3</ele><time>2026-09-04T21:43:06Z</time></trkpt>
			<trkpt lat="43.759600" lon="44.743420"><ele>132.2</ele><time>2026-09-04T21:43:17Z</time></trkpt>
			<trkpt lat="43.759820" lon="44.742920"><ele>132.1</ele><time>2026-09-04T21:43:29Z</time></trkpt>
			<trkpt lat="43.759940" lon="44.742450"><ele>132.1</ele><time>2026-09-04T21:43:41Z</time></trkpt>
			<trkpt lat="43.760200" lon="44.741380"><ele>132.0</ele><time>2026-09-04T21:43:53Z</time></trkpt>
			<trkpt lat="43.760790" lon="44.739450"><ele>132.1</ele><time>2026-09-04T21:44:04Z</time></trkpt>
			<trkpt lat="43.760920" lon="44.739170"><ele>132.1</ele><time>2026-09-04T21:44:16Z</time></trkpt>
			<trkpt lat="43.761140" lon="44.738700"><ele>132.1</ele><time>2026-09-04T21:44:28Z</time></trkpt>
			<trkpt lat="43.761630" lon="44.737690"><ele>132.1</ele><time>2026-09-04T21:44:39Z</time></trkpt>
			<trkpt lat="43.761880" lon="44.737170"><ele>132.1</ele><time>2026-09-04T21:44:51Z</time></trkpt>
			<trkpt lat="43.762120" lon="44.736980"><ele>132.1</ele><time>2026-09-04T21:45:03Z</time></trkpt>
			<trkpt lat="43.762420" lon="44.736910"><ele>132.1</ele><time>2026-09-04T21:45:14Z</time></trkpt>
			<trkpt lat="43.762550" lon="44.736960"><ele>132.1</ele><time>2026-09-04T21:45:26Z</time></trkpt>
			<trkpt lat="43.762680" lon="44.736940"><ele>132.1</ele><time>2026-09-04T21:45:38Z</time></trkpt>
			<trkpt lat="43.762800" lon="44.736870"><ele>132.1</ele><time>2026-09-04T21:45:49Z</time></trkpt>
			<trkpt lat="43.762890" lon="44.736780"><ele>132.1</ele><time>2026-09-04T21:46:01Z</time></trkpt>
			<trkpt lat="43.762950" lon="44.736650"><ele>132.1</ele><time>2026-09-04T21:46:13Z</time></trkpt>
			<trkpt lat="43.762980" lon="44.736510"><ele>132.1</ele><time>2026-09-04T21:46:24Z</time></trkpt>
			<trkpt lat="43.762990" lon="44.736360"><ele>132.1</ele><time>2026-09-04T21:46:36Z</time></trkpt>
			<trkpt lat="43.762980" lon="44.736240"><ele>132.1</ele><time>2026-09-04T21:46:48Z</time></trkpt>
			<trkpt lat="43.762940" lon="44.736120"><ele>132.2</ele><time>2026-09-04T21:46:59Z</time></trkpt>
			<trkpt lat="43.762890" lon="44.736020"><ele>132.2</ele><time>2026-09-04T21:47:11Z</time></trkpt>
			<trkpt lat="43.762840" lon="44.735780"><ele>132.2</ele><time>2026-09-04T21:47:23Z</time></trkpt>
			<trkpt lat="43.762830" lon="44.735570"><ele>132.3</ele><time>2026-09-04T21:47:34Z</time></trkpt>
			<trkpt lat="43.762840" lon="44.735480"><ele>132.3</ele><time>2026-09-04T21:47:46Z</time></trkpt>
			<trkpt lat="43.762890" lon="44.735260"><ele>132.3</ele><time>2026-09-04T21:47:58Z</time></trkpt>
			<trkpt lat="43.763500" lon="44.733990"><ele>132.6</ele><time>2026-09-04T21:48:10Z</time></trkpt>
			<trkpt lat="43.763630" lon="44.733700"><ele>132.7</ele><time>2026-09-04T21:48:21Z</time></trkpt>
			<trkpt lat="43.763890" lon="44.732930"><ele>132.9</ele><time>2026-09-04T21:48:33Z</time></trkpt>
			<trkpt lat="43.764080" lon="44.732360"><ele>133.0</ele><time>2026-09-04T21:48:45Z</time></trkpt>
			<trkpt lat="43.764140" lon="44.732150"><ele>133.0</ele><time>2026-09-04T21:48:56Z</time></trkpt>
			<trkpt lat="43.764250" lon="44.731910"><ele>133.1</ele><time>2026-09-04T21:49:08Z</time></trkpt>
			<trkpt lat="43.764750" lon="44.730480"><ele>133.4</ele><time>2026-09-04T21:49:20Z</time></trkpt>
			<trkpt lat="43.765060" lon="44.729580"><ele>133.6</ele><time>2026-09-04T21:49:31Z</time></trkpt>
			<trkpt lat="43.765280" lon="44.728900"><ele>133.7</ele><time>2026-09-04T21:49:43Z</time></trkpt>
			<trkpt lat="43.765880" lon="44.727160"><ele>134.1</ele><time>2026-09-04T21:49:55Z</time></trkpt>
			<trkpt lat="43.766460" lon="44.725510"><ele>134.5</ele><time>2026-09-04T21:50:06Z</time></trkpt>
			<trkpt lat="43.766500" lon="44.725390"><ele>134.5</ele><time>2026-09-04T21:50:18Z</time></trkpt>
			<trkpt lat="43.767180" lon="44.723540"><ele>135.0</ele><time>2026-09-04T21:50:30Z</time></trkpt>
			<trkpt lat="43.767630" lon="44.722270"><ele>135.2</ele><time>2026-09-04T21:50:41Z</time></trkpt>
			<trkpt lat="43.767660" lon="44.722200"><ele>135.2</ele><time>2026-09-04T21:50:53Z</time></trkpt>
			<trkpt lat="43.768340" lon="44.720370"><ele>135.1</ele><time>2026-09-04T21:51:05Z</time></trkpt>
			<trkpt lat="43.768620" lon="44.719580"><ele>135.1</ele><time>2026-09-04T21:51:16Z</time></trkpt>
			<trkpt lat="43.769160" lon="44.718080"><ele>135.1</ele><time>2026-09-04T21:51:28Z</time></trkpt>
			<trkpt lat="43.769260" lon="44.717770"><ele>135.1</ele><time>2026-09-04T21:51:40Z</time></trkpt>
			<trkpt lat="43.769300" lon="44.717400"><ele>135.1</ele><time>2026-09-04T21:51:51Z</time></trkpt>
			<trkpt lat="43.769110" lon="44.717010"><ele>135.1</ele><time>2026-09-04T21:52:03Z</time></trkpt>
			<trkpt lat="43.768610" lon="44.715920"><ele>135.1</ele><time>2026-09-04T21:52:15Z</time></trkpt>
			<trkpt lat="43.768600" lon="44.715580"><ele>135.1</ele><time>2026-09-04T21:52:27Z</time></trkpt>
			<trkpt lat="43.768600" lon="44.715280"><ele>135.2</ele><time>2026-09-04T21:52:38Z</time></trkpt>
			<trkpt lat="43.768630" lon="44.715040"><ele>135.2</ele><time>2026-09-04T21:52:50Z</time></trkpt>
			<trkpt lat="43.768710" lon="44.714220"><ele>135.3</ele><time>2026-09-04T21:53:02Z</time></trkpt>
			<trkpt lat="43.768990" lon="44.711400"><ele>135.6</ele><time>2026-09-04T21:53:13Z</time></trkpt>
			<trkpt lat="43.769420" lon="44.707360"><ele>135.7</ele><time>2026-09-04T21:53:25Z</time></trkpt>
			<trkpt lat="43.769850" lon="44.703220"><ele>134.8</ele><time>2026-09-04T21:53:37Z</time></trkpt>
			<trkpt lat="43.769960" lon="44.702060"><ele>134.5</ele><time>2026-09-04T21:53:48Z</time></trkpt>
			<trkpt lat="43.770080" lon="44.700990"><ele>134.4</ele><time>2026-09-04T21:54:00Z</time></trkpt>
			<trkpt lat="43.770190" lon="44.700540"><ele>134.4</ele><time>2026-09-04T21:54:12Z</time></trkpt>
			<trkpt lat="43.770350" lon="44.700290"><ele>134.5</ele><time>2026-09-04T21:54:23Z</time></trkpt>
			<trkpt lat="43.770700" lon="44.699900"><ele>134.6</ele><time>2026-09-04T21:54:35Z</time></trkpt>
			<trkpt lat="43.770830" lon="44.699690"><ele>134.6</ele><time>2026-09-04T21:54:47Z</time></trkpt>
			<trkpt lat="43.770910" lon="44.699440"><ele>134.7</ele><time>2026-09-04T21:54:58Z</time></trkpt>
			<trkpt lat="43.770630" lon="44.698820"><ele>134.8</ele><time>2026-09-04T21:55:10Z</time></trkpt>
			<trkpt lat="43.770350" lon="44.698000"><ele>135.0</ele><time>2026-09-04T21:55:22Z</time></trkpt>
			<trkpt lat="43.770060" lon="44.696520"><ele>135.2</ele><time>2026-09-04T21:55:33Z</time></trkpt>
			<trkpt lat="43.769960" lon="44.695500"><ele>135.4</ele><time>2026-09-04T21:55:45Z</time></trkpt>
			<trkpt lat="43.769300" lon="44.687240"><ele>136.2</ele><time>2026-09-04T21:55:57Z</time></trkpt>
			<trkpt lat="43.769040" lon="44.684250"><ele>136.5</ele><time>2026-09-04T21:56:08Z</time></trkpt>
			<trkpt lat="43.768340" lon="44.676100"><ele>137.1</ele><time>2026-09-04T21:56:20Z</time></trkpt>
			<trkpt lat="43.767500" lon="44.666050"><ele>138.0</ele><time>2026-09-04T21:56:32Z</time></trkpt>
			<trkpt lat="43.767410" lon="44.664890"><ele>138.2</ele><time>2026-09-04T21:56:44Z</time></trkpt>
			<trkpt lat="43.767170" lon="44.662920"><ele>138.6</ele><time>2026-09-04T21:56:55Z</time></trkpt>
			<trkpt lat="43.766380" lon="44.659360"><ele>139.7</ele><time>2026-09-04T21:57:07Z</time></trkpt>
			<trkpt lat="43.766130" lon="44.657850"><ele>140.2</ele><time>2026-09-04T21:57:19Z</time></trkpt>
			<trkpt lat="43.766030" lon="44.656840"><ele>140.3</ele><time>2026-09-04T21:57:30Z</time></trkpt>
			<trkpt lat="43.766040" lon="44.655700"><ele>139.8</ele><time>2026-09-04T21:57:42Z</time></trkpt>
			<trkpt lat="43.766330" lon="44.651650"><ele>137.9</ele><time>2026-09-04T21:57:54Z</time></trkpt>
			<trkpt lat="43.766540" lon="44.648440"><ele>137.7</ele><time>2026-09-04T21:58:05Z</time></trkpt>
			<trkpt lat="43.767380" lon="44.643090"><ele>141.7</ele><time>2026-09-04T21:58:17Z</time></trkpt>
			<trkpt lat="43.767640" lon="44.641660"><ele>142.2</ele><time>2026-09-04T21:58:29Z</time></trkpt>
			<trkpt lat="43.767740" lon="44.640990"><ele>142.0</ele><time>2026-09-04T21:58:40Z</time></trkpt>
			<trkpt lat="43.767990" lon="44.638870"><ele>141.2</ele><time>2026-09-04T21:58:52Z</time></trkpt>
			<trkpt lat="43.768080" lon="44.637110"><ele>140.5</ele><time>2026-09-04T21:59:04Z</time></trkpt>
			<trkpt lat="43.768180" lon="44.627490"><ele>142.9</ele><time>2026-09-04T21:59:15Z</time></trkpt>
			<trkpt lat="43.768100" lon="44.626420"><ele>142.9</ele><time>2026-09-04T21:59:27Z</time></trkpt>
			<trkpt lat="43.767820" lon="44.624820"><ele>142.5</ele><time>2026-09-04T21:59:39Z</time></trkpt>
			<trkpt lat="43.767400" lon="44.623490"><ele>142.2</ele><time>2026-09-04T21:59:50Z</time></trkpt>
			<trkpt lat="43.767000" lon="44.622470"><ele>142.0</ele><time>2026-09-04T22:00:02Z</time></trkpt>
			<trkpt lat="43.766310" lon="44.621180"><ele>141.6</ele><time>2026-09-04T22:00:14Z</time></trkpt>
			<trkpt lat="43.765420" lon="44.619810"><ele>141.4</ele><time>2026-09-04T22:00:25Z</time></trkpt>
			<trkpt lat="43.764170" lon="44.618380"><ele>141.1</ele><time>2026-09-04T22:00:37Z</time></trkpt>
			<trkpt lat="43.763020" lon="44.617120"><ele>141.0</ele><time>2026-09-04T22:00:49Z</time></trkpt>
			<trkpt lat="43.762410" lon="44.616360"><ele>140.9</ele><time>2026-09-04T22:01:01Z</time></trkpt>
			<trkpt lat="43.761870" lon="44.615400"><ele>140.7</ele><time>2026-09-04T22:01:12Z</time></trkpt>
			<trkpt lat="43.761240" lon="44.614090"><ele>140.4</ele><time>2026-09-04T22:01:24Z</time></trkpt>
			<trkpt lat="43.760520" lon="44.612500"><ele>140.0</ele><time>2026-09-04T22:01:36Z</time></trkpt>
			<trkpt lat="43.760000" lon="44.611360"><ele>139.7</ele><time>2026-09-04T22:01:47Z</time></trkpt>
			<trkpt lat="43.759790" lon="44.610930"><ele>139.5</ele><time>2026-09-04T22:01:59Z</time></trkpt>
			<trkpt lat="43.759600" lon="44.610480"><ele>139.4</ele><time>2026-09-04T22:02:11Z</time></trkpt>
			<trkpt lat="43.759360" lon="44.610020"><ele>139.3</ele><time>2026-09-04T22:02:22Z</time></trkpt>
			<trkpt lat="43.759330" lon="44.609940"><ele>139.3</ele><time>2026-09-04T22:02:34Z</time></trkpt>
			<trkpt lat="43.759090" lon="44.609450"><ele>139.1</ele><time>2026-09-04T22:02:46Z</time></trkpt>
			<trkpt lat="43.758980" lon="44.609190"><ele>139.1</ele><time>2026-09-04T22:02:57Z</time></trkpt>
			<trkpt lat="43.758670" lon="44.608550"><ele>138.9</ele><time>2026-09-04T22:03:09Z</time></trkpt>
			<trkpt lat="43.758070" lon="44.607230"><ele>138.7</ele><time>2026-09-04T22:03:21Z</time></trkpt>
			<trkpt lat="43.757980" lon="44.607070"><ele>138.7</ele><time>2026-09-04T22:03:32Z</time></trkpt>
			<trkpt lat="43.757170" lon="44.605690"><ele>138.5</ele><time>2026-09-04T22:03:44Z</time></trkpt>
			<trkpt lat="43.756620" lon="44.604970"><ele>138.3</ele><time>2026-09-04T22:03:56Z</time></trkpt>
			<trkpt lat="43.755840" lon="44.604190"><ele>138.1</ele><time>2026-09-04T22:04:07Z</time></trkpt>
			<trkpt lat="43.754920" lon="44.603540"><ele>138.1</ele><time>2026-09-04T22:04:19Z</time></trkpt>
			<trkpt lat="43.753970" lon="44.603070"><ele>138.2</ele><time>2026-09-04T22:04:31Z</time></trkpt>
			<trkpt lat="43.753260" lon="44.602860"><ele>138.4</ele><time>2026-09-04T22:04:42Z</time></trkpt>
			<trkpt lat="43.752870" lon="44.602770"><ele>138.5</ele><time>2026-09-04T22:04:54Z</time></trkpt>
			<trkpt lat="43.752600" lon="44.602760"><ele>138.5</ele><time>2026-09-04T22:05:06Z</time></trkpt>
			<trkpt lat="43.751840" lon="44.602750"><ele>138.6</ele><time>2026-09-04T22:05:18Z</time></trkpt>
			<trkpt lat="43.751560" lon="44.602730"><ele>138.7</ele><time>2026-09-04T22:05:29Z</time></trkpt>
			<trkpt lat="43.751380" lon="44.602760"><ele>138.7</ele><time>2026-09-04T22:05:41Z</time></trkpt>
			<trkpt lat="43.751190" lon="44.602910"><ele>138.8</ele><time>2026-09-04T22:05:53Z</time></trkpt>
			<trkpt lat="43.751080" lon="44.603080"><ele>138.8</ele><time>2026-09-04T22:06:04Z</time></trkpt>
			<trkpt lat="43.751010" lon="44.603260"><ele>138.8</ele><time>2026-09-04T22:06:16Z</time></trkpt>
			<trkpt lat="43.750960" lon="44.603560"><ele>138.9</ele><time>2026-09-04T22:06:28Z</time></trkpt>
			<trkpt lat="43.751010" lon="44.603810"><ele>138.9</ele><time>2026-09-04T22:06:39Z</time></trkpt>
			<trkpt lat="43.751080" lon="44.604020"><ele>138.9</ele><time>2026-09-04T22:06:51Z</time></trkpt>
			<trkpt lat="43.751200" lon="44.604170"><ele>139.0</ele><time>2026-09-04T22:07:03Z</time></trkpt>
			<trkpt lat="43.751250" lon="44.604220"><ele>139.0</ele><time>2026-09-04T22:07:14Z</time></trkpt>
			<trkpt lat="43.751360" lon="44.604350"><ele>139.0</ele><time>2026-09-04T22:07:26Z</time></trkpt>
			<trkpt lat="43.751540" lon="44.604480"><ele>139.0</ele><time>2026-09-04T22:07:38Z</time></trkpt>
			<trkpt lat="43.751940" lon="44.604670"><ele>139.1</ele><time>2026-09-04T22:07:49Z</time></trkpt>
			<trkpt lat="43.752070" lon="44.604710"><ele>139.1</ele><time>2026-09-04T22:08:01Z</time></trkpt>
			<trkpt lat="43.752110" lon="44.604260"><ele>139.2</ele><time>2026-09-04T22:08:13Z</time></trkpt>
			<trkpt lat="43.752150" lon="44.603600"><ele>139.3</ele><time>2026-09-04T22:08:24Z</time></trkpt>
			<trkpt lat="43.752160" lon="44.602850"><ele>139.4</ele><time>2026-09-04T22:08:36Z</time></trkpt>
			<trkpt lat="43.752110" lon="44.601880"><ele>139.5</ele><time>2026-09-04T22:08:48Z</time></trkpt>
			<trkpt lat="43.752060" lon="44.601320"><ele>139.6</ele><time>2026-09-04T22:08:59Z</time></trkpt>
			<trkpt lat="43.751970" lon="44.600230"><ele>139.7</ele><time>2026-09-04T22:09:11Z</time></trkpt>
			<trkpt lat="43.751910" lon="44.599160"><ele>139.9</ele><time>2026-09-04T22:09:23Z</time></trkpt>
			<trkpt lat="43.752170" lon="44.564780"><ele>144.0</ele><time>2026-09-04T22:09:35Z</time></trkpt>
			<trkpt lat="43.752170" lon="44.564010"><ele>144.4</ele><time>2026-09-04T22:09:46Z</time></trkpt>
			<trkpt lat="43.752180" lon="44.563530"><ele>144.6</ele><time>2026-09-04T22:09:58Z</time></trkpt>
			<trkpt lat="43.752090" lon="44.561640"><ele>145.4</ele><time>2026-09-04T22:10:10Z</time></trkpt>
			<trkpt lat="43.751910" lon="44.560330"><ele>145.9</ele><time>2026-09-04T22:10:21Z</time></trkpt>
			<trkpt lat="43.751860" lon="44.559510"><ele>146.0</ele><time>2026-09-04T22:10:33Z</time></trkpt>
			<trkpt lat="43.751870" lon="44.558750"><ele>146.1</ele><time>2026-09-04T22:10:45Z</time></trkpt>
			<trkpt lat="43.751920" lon="44.552940"><ele>146.9</ele><time>2026-09-04T22:10:56Z</time></trkpt>
			<trkpt lat="43.751990" lon="44.547590"><ele>146.1</ele><time>2026-09-04T22:11:08Z</time></trkpt>
			<trkpt lat="43.752050" lon="44.546810"><ele>146.0</ele><time>2026-09-04T22:11:20Z</time></trkpt>
			<trkpt lat="43.752170" lon="44.544380"><ele>146.8</ele><time>2026-09-04T22:11:31Z</time></trkpt>
			<trkpt lat="43.752220" lon="44.543550"><ele>147.5</ele><time>2026-09-04T22:11:43Z</time></trkpt>
			<trkpt lat="43.752220" lon="44.542540"><ele>148.5</ele><time>2026-09-04T22:11:55Z</time></trkpt>
			<trkpt lat="43.752400" lon="44.509180"><ele>153.8</ele><time>2026-09-04T22:12:06Z</time></trkpt>
			<trkpt lat="43.752550" lon="44.489260"><ele>154.5</ele><time>2026-09-04T22:12:18Z</time></trkpt>
			<trkpt lat="43.752660" lon="44.469140"><ele>156.3</ele><time>2026-09-04T22:12:30Z</time></trkpt>
			<trkpt lat="43.752730" lon="44.466270"><ele>156.8</ele><time>2026-09-04T22:12:41Z</time></trkpt>
			<trkpt lat="43.752710" lon="44.449740"><ele>157.0</ele><time>2026-09-04T22:12:53Z</time></trkpt>
			<trkpt lat="43.752330" lon="44.446930"><ele>157.0</ele><time>2026-09-04T22:13:05Z</time></trkpt>
			<trkpt lat="43.752360" lon="44.429950"><ele>158.4</ele><time>2026-09-04T22:13:16Z</time></trkpt>
			<trkpt lat="43.752410" lon="44.429430"><ele>158.5</ele><time>2026-09-04T22:13:28Z</time></trkpt>
			<trkpt lat="43.752690" lon="44.428080"><ele>158.6</ele><time>2026-09-04T22:13:40Z</time></trkpt>
			<trkpt lat="43.752770" lon="44.427460"><ele>158.7</ele><time>2026-09-04T22:13:52Z</time></trkpt>
			<trkpt lat="43.752850" lon="44.426310"><ele>158.8</ele><time>2026-09-04T22:14:03Z</time></trkpt>
			<trkpt lat="43.752930" lon="44.420390"><ele>159.6</ele><time>2026-09-04T22:14:15Z</time></trkpt>
			<trkpt lat="43.753250" lon="44.417030"><ele>160.0</ele><time>2026-09-04T22:14:27Z</time></trkpt>
			<trkpt lat="43.753490" lon="44.415110"><ele>160.0</ele><time>2026-09-04T22:14:38Z</time></trkpt>
			<trkpt lat="43.755120" lon="44.404090"><ele>162.2</ele><time>2026-09-04T22:14:50Z</time></trkpt>
			<trkpt lat="43.761580" lon="44.355800"><ele>166.2</ele><time>2026-09-04T22:15:02Z</time></trkpt>
			<trkpt lat="43.761610" lon="44.355020"><ele>166.5</ele><time>2026-09-04T22:15:13Z</time></trkpt>
			<trkpt lat="43.761640" lon="44.353030"><ele>167.1</ele><time>2026-09-04T22:15:25Z</time></trkpt>
			<trkpt lat="43.761720" lon="44.351370"><ele>167.6</ele><time>2026-09-04T22:15:37Z</time></trkpt>
			<trkpt lat="43.761730" lon="44.351170"><ele>167.6</ele><time>2026-09-04T22:15:48Z</time></trkpt>
			<trkpt lat="43.762350" lon="44.346210"><ele>169.9</ele><time>2026-09-04T22:16:00Z</time></trkpt>
			<trkpt lat="43.762540" lon="44.344830"><ele>170.5</ele><time>2026-09-04T22:16:12Z</time></trkpt>
			<trkpt lat="43.762680" lon="44.343820"><ele>171.0</ele><time>2026-09-04T22:16:23Z</time></trkpt>
			<trkpt lat="43.762790" lon="44.342810"><ele>171.1</ele><time>2026-09-04T22:16:35Z</time></trkpt>
			<trkpt lat="43.762930" lon="44.341740"><ele>170.6</ele><time>2026-09-04T22:16:47Z</time></trkpt>
			<trkpt lat="43.763070" lon="44.340630"><ele>170.2</ele><time>2026-09-04T22:16:58Z</time></trkpt>
			<trkpt lat="43.763220" lon="44.339510"><ele>169.7</ele><time>2026-09-04T22:17:10Z</time></trkpt>
			<trkpt lat="43.763250" lon="44.339240"><ele>169.6</ele><time>2026-09-04T22:17:22Z</time></trkpt>
			<trkpt lat="43.763350" lon="44.338420"><ele>169.3</ele><time>2026-09-04T22:17:33Z</time></trkpt>
			<trkpt lat="43.763460" lon="44.337420"><ele>168.9</ele><time>2026-09-04T22:17:45Z</time></trkpt>
			<trkpt lat="43.763890" lon="44.333980"><ele>168.6</ele><time>2026-09-04T22:17:57Z</time></trkpt>
			<trkpt lat="43.764040" lon="44.333110"><ele>168.7</ele><time>2026-09-04T22:18:09Z</time></trkpt>
			<trkpt lat="43.765030" lon="44.329440"><ele>169.2</ele><time>2026-09-04T22:18:20Z</time></trkpt>
			<trkpt lat="43.765130" lon="44.329030"><ele>169.3</ele><time>2026-09-04T22:18:32Z</time></trkpt>
			<trkpt lat="43.765260" lon="44.328420"><ele>169.4</ele><time>2026-09-04T22:18:44Z</time></trkpt>
			<trkpt lat="43.768420" lon="44.304680"><ele>170.7</ele><time>2026-09-04T22:18:55Z</time></trkpt>
			<trkpt lat="43.773340" lon="44.267520"><ele>172.9</ele><time>2026-09-04T22:19:07Z</time></trkpt>
			<trkpt lat="43.775850" lon="44.248520"><ele>175.3</ele><time>2026-09-04T22:19:19Z</time></trkpt>
			<trkpt lat="43.776590" lon="44.242840"><ele>175.8</ele><time>2026-09-04T22:19:30Z</time></trkpt>
			<trkpt lat="43.776630" lon="44.241930"><ele>175.8</ele><time>2026-09-04T22:19:42Z</time></trkpt>
			<trkpt lat="43.776740" lon="44.238650"><ele>176.2</ele><time>2026-09-04T22:19:54Z</time></trkpt>
			<trkpt lat="43.776770" lon="44.238130"><ele>176.4</ele><time>2026-09-04T22:20:05Z</time></trkpt>
			<trkpt lat="43.777240" lon="44.234440"><ele>177.3</ele><time>2026-09-04T22:20:17Z</time></trkpt>
			<trkpt lat="43.778340" lon="44.226070"><ele>177.6</ele><time>2026-09-04T22:20:29Z</time></trkpt>
			<trkpt lat="43.778420" lon="44.225640"><ele>177.6</ele><time>2026-09-04T22:20:40Z</time></trkpt>
			<trkpt lat="43.778480" lon="44.225440"><ele>177.6</ele><time>2026-09-04T22:20:52Z</time></trkpt>
			<trkpt lat="43.778560" lon="44.225320"><ele>177.6</ele><time>2026-09-04T22:21:04Z</time></trkpt>
			<trkpt lat="43.778720" lon="44.225100"><ele>177.6</ele><time>2026-09-04T22:21:15Z</time></trkpt>
			<trkpt lat="43.778900" lon="44.224970"><ele>177.6</ele><time>2026-09-04T22:21:27Z</time></trkpt>
			<trkpt lat="43.779060" lon="44.224970"><ele>177.6</ele><time>2026-09-04T22:21:39Z</time></trkpt>
			<trkpt lat="43.779250" lon="44.225000"><ele>177.5</ele><time>2026-09-04T22:21:50Z</time></trkpt>
			<trkpt lat="43.779470" lon="44.225060"><ele>177.5</ele><time>2026-09-04T22:22:02Z</time></trkpt>
			<trkpt lat="43.779740" lon="44.225090"><ele>177.5</ele><time>2026-09-04T22:22:14Z</time></trkpt>
			<trkpt lat="43.779820" lon="44.225070"><ele>177.5</ele><time>2026-09-04T22:22:26Z</time></trkpt>
			<trkpt lat="43.779920" lon="44.225030"><ele>177.5</ele><time>2026-09-04T22:22:37Z</time></trkpt>
			<trkpt lat="43.780030" lon="44.224880"><ele>177.4</ele><time>2026-09-04T22:22:49Z</time></trkpt>
			<trkpt lat="43.780120" lon="44.224670"><ele>177.4</ele><time>2026-09-04T22:23:01Z</time></trkpt>
			<trkpt lat="43.780170" lon="44.224390"><ele>177.4</ele><time>2026-09-04T22:23:12Z</time></trkpt>
			<trkpt lat="43.780780" lon="44.219680"><ele>177.0</ele><time>2026-09-04T22:23:24Z</time></trkpt>
			<trkpt lat="43.784340" lon="44.192350"><ele>180.9</ele><time>2026-09-04T22:23:36Z</time></trkpt>
			<trkpt lat="43.787110" lon="44.170600"><ele>185.1</ele><time>2026-09-04T22:23:47Z</time></trkpt>
			<trkpt lat="43.787210" lon="44.169650"><ele>185.1</ele><time>2026-09-04T22:23:59Z</time></trkpt>
			<trkpt lat="43.787280" lon="44.168620"><ele>185.1</ele><time>2026-09-04T22:24:11Z</time></trkpt>
			<trkpt lat="43.787380" lon="44.160000"><ele>185.9</ele><time>2026-09-04T22:24:22Z</time></trkpt>
			<trkpt lat="43.787370" lon="44.159120"><ele>186.3</ele><time>2026-09-04T22:24:34Z</time></trkpt>
			<trkpt lat="43.787260" lon="44.158200"><ele>186.7</ele><time>2026-09-04T22:24:46Z</time></trkpt>
			<trkpt lat="43.787120" lon="44.157460"><ele>187.1</ele><time>2026-09-04T22:24:57Z</time></trkpt>
			<trkpt lat="43.786590" lon="44.155820"><ele>188.1</ele><time>2026-09-04T22:25:09Z</time></trkpt>
			<trkpt lat="43.777350" lon="44.128190"><ele>193.7</ele><time>2026-09-04T22:25:21Z</time></trkpt>
			<trkpt lat="43.775080" lon="44.121650"><ele>195.3</ele><time>2026-09-04T22:25:32Z</time></trkpt>
			<trkpt lat="43.774140" lon="44.118730"><ele>196.1</ele><time>2026-09-04T22:25:44Z</time></trkpt>
			<trkpt lat="43.765000" lon="44.091970"><ele>200.3</ele><time>2026-09-04T22:25:56Z</time></trkpt>
			<trkpt lat="43.764370" lon="44.090400"><ele>200.5</ele><time>2026-09-04T22:26:07Z</time></trkpt>
			<trkpt lat="43.763660" lon="44.089040"><ele>200.3</ele><time>2026-09-04T22:26:19Z</time></trkpt>
			<trkpt lat="43.762880" lon="44.087690"><ele>200.2</ele><time>2026-09-04T22:26:31Z</time></trkpt>
			<trkpt lat="43.761570" lon="44.085430"><ele>199.8</ele><time>2026-09-04T22:26:43Z</time></trkpt>
			<trkpt lat="43.760620" lon="44.083800"><ele>199.8</ele><time>2026-09-04T22:26:54Z</time></trkpt>
			<trkpt lat="43.760500" lon="44.083580"><ele>199.8</ele><time>2026-09-04T22:27:06Z</time></trkpt>
			<trkpt lat="43.759290" lon="44.081610"><ele>199.8</ele><time>2026-09-04T22:27:18Z</time></trkpt>
			<trkpt lat="43.758330" lon="44.080670"><ele>199.8</ele><time>2026-09-04T22:27:29Z</time></trkpt>
			<trkpt lat="43.757460" lon="44.079820"><ele>199.8</ele><time>2026-09-04T22:27:41Z</time></trkpt>
			<trkpt lat="43.755530" lon="44.078340"><ele>200.0</ele><time>2026-09-04T22:27:53Z</time></trkpt>
			<trkpt lat="43.754030" lon="44.077020"><ele>200.0</ele><time>2026-09-04T22:28:04Z</time></trkpt>
			<trkpt lat="43.753430" lon="44.076480"><ele>200.1</ele><time>2026-09-04T22:28:16Z</time></trkpt>
			<trkpt lat="43.753380" lon="44.076450"><ele>200.1</ele><time>2026-09-04T22:28:28Z</time></trkpt>
			<trkpt lat="43.753350" lon="44.076450"><ele>200.1</ele><time>2026-09-04T22:28:39Z</time></trkpt>
			<trkpt lat="43.753300" lon="44.076470"><ele>200.1</ele><time>2026-09-04T22:28:51Z</time></trkpt>
			<trkpt lat="43.753250" lon="44.076500"><ele>200.1</ele><time>2026-09-04T22:29:03Z</time></trkpt>
			<trkpt lat="43.753110" lon="44.076750"><ele>200.1</ele><time>2026-09-04T22:29:14Z</time></trkpt>
			<trkpt lat="43.752980" lon="44.076950"><ele>200.1</ele><time>2026-09-04T22:29:26Z</time></trkpt>
			<trkpt lat="43.752950" lon="44.076980"><ele>200.0</ele><time>2026-09-04T22:29:38Z</time></trkpt>
			<trkpt lat="43.752880" lon="44.077000"><ele>200.0</ele><time>2026-09-04T22:29:49Z</time></trkpt>
			<trkpt lat="43.752830" lon="44.077010"><ele>199.9</ele><time>2026-09-04T22:30:01Z</time></trkpt>
			<trkpt lat="43.752760" lon="44.077000"><ele>199.9</ele><time>2026-09-04T22:30:13Z</time></trkpt>
			<trkpt lat="43.752280" lon="44.076710"><ele>199.3</ele><time>2026-09-04T22:30:24Z</time></trkpt>
			<trkpt lat="43.750770" lon="44.075640"><ele>197.7</ele><time>2026-09-04T22:30:36Z</time></trkpt>
			<trkpt lat="43.750620" lon="44.075520"><ele>197.6</ele><time>2026-09-04T22:30:48Z</time></trkpt>
			<trkpt lat="43.750460" lon="44.075400"><ele>197.4</ele><time>2026-09-04T22:31:00Z</time></trkpt>
			<trkpt lat="43.749390" lon="44.074190"><ele>196.1</ele><time>2026-09-04T22:31:11Z</time></trkpt>
			<trkpt lat="43.748040" lon="44.072660"><ele>195.5</ele><time>2026-09-04T22:31:23Z</time></trkpt>
			<trkpt lat="43.747980" lon="44.072580"><ele>195.6</ele><time>2026-09-04T22:31:35Z</time></trkpt>
			<trkpt lat="43.747440" lon="44.071840"><ele>196.4</ele><time>2026-09-04T22:31:46Z</time></trkpt>
			<trkpt lat="43.746990" lon="44.071230"><ele>197.2</ele><time>2026-09-04T22:31:58Z</time></trkpt>
			<trkpt lat="43.746530" lon="44.070600"><ele>197.9</ele><time>2026-09-04T22:32:10Z</time></trkpt>
			<trkpt lat="43.746330" lon="44.070310"><ele>198.2</ele><time>2026-09-04T22:32:21Z</time></trkpt>
			<trkpt lat="43.745840" lon="44.069600"><ele>199.0</ele><time>2026-09-04T22:32:33Z</time></trkpt>
			<trkpt lat="43.745760" lon="44.069530"><ele>199.2</ele><time>2026-09-04T22:32:45Z</time></trkpt>
			<trkpt lat="43.745580" lon="44.069370"><ele>199.4</ele><time>2026-09-04T22:32:56Z</time></trkpt>
			<trkpt lat="43.745120" lon="44.068990"><ele>200.0</ele><time>2026-09-04T22:33:08Z</time></trkpt>
			<trkpt lat="43.745020" lon="44.068950"><ele>200.1</ele><time>2026-09-04T22:33:20Z</time></trkpt>
			<trkpt lat="43.744930" lon="44.068940"><ele>200.2</ele><time>2026-09-04T22:33:31Z</time></trkpt>
			<trkpt lat="43.744810" lon="44.068950"><ele>200.4</ele><time>2026-09-04T22:33:43Z</time></trkpt>
			<trkpt lat="43.744660" lon="44.069010"><ele>200.6</ele><time>2026-09-04T22:33:55Z</time></trkpt>
			<trkpt lat="43.743440" lon="44.070720"><ele>198.0</ele><time>2026-09-04T22:34:06Z</time></trkpt>
			<trkpt lat="43.743360" lon="44.070830"><ele>197.7</ele><time>2026-09-04T22:34:18Z</time></trkpt>
			<trkpt lat="43.743060" lon="44.070980"><ele>196.9</ele><time>2026-09-04T22:34:30Z</time></trkpt>
			<trkpt lat="43.742930" lon="44.070990"><ele>196.6</ele><time>2026-09-04T22:34:41Z</time></trkpt>
			<trkpt lat="43.742890" lon="44.070960"><ele>196.5</ele><time>2026-09-04T22:34:53Z</time></trkpt>
			<trkpt lat="43.742830" lon="44.070960"><ele>196.4</ele><time>2026-09-04T22:35:05Z</time></trkpt>
			<trkpt lat="43.742800" lon="44.070970"><ele>196.3</ele><time>2026-09-04T22:35:17Z</time></trkpt>
			<trkpt lat="43.742760" lon="44.071030"><ele>196.1</ele><time>2026-09-04T22:35:28Z</time></trkpt>
			<trkpt lat="43.742340" lon="44.071540"><ele>194.7</ele><time>2026-09-04T22:35:40Z</time></trkpt>
			<trkpt lat="43.742110" lon="44.071910"><ele>193.9</ele><time>2026-09-04T22:35:52Z</time></trkpt>
			<trkpt lat="43.741930" lon="44.072120"><ele>193.3</ele><time>2026-09-04T22:36:03Z</time></trkpt>
			<trkpt lat="43.741410" lon="44.072640"><ele>191.7</ele><time>2026-09-04T22:36:15Z</time></trkpt>
			<trkpt lat="43.741000" lon="44.072980"><ele>190.5</ele><time>2026-09-04T22:36:27Z</time></trkpt>
			<trkpt lat="43.740510" lon="44.073280"><ele>189.2</ele><time>2026-09-04T22:36:38Z</time></trkpt>
			<trkpt lat="43.740100" lon="44.073490"><ele>188.1</ele><time>2026-09-04T22:36:50Z</time></trkpt>
			<trkpt lat="43.739820" lon="44.073610"><ele>187.6</ele><time>2026-09-04T22:37:02Z</time></trkpt>
			<trkpt lat="43.739510" lon="44.073700"><ele>187.7</ele><time>2026-09-04T22:37:13Z</time></trkpt>
			<trkpt lat="43.739180" lon="44.073740"><ele>187.7</ele><time>2026-09-04T22:37:25Z</time></trkpt>
			<trkpt lat="43.738530" lon="44.073800"><ele>187.9</ele><time>2026-09-04T22:37:37Z</time></trkpt>
			<trkpt lat="43.737830" lon="44.073750"><ele>188.0</ele><time>2026-09-04T22:37:48Z</time></trkpt>
			<trkpt lat="43.737110" lon="44.073690"><ele>188.1</ele><time>2026-09-04T22:38:00Z</time></trkpt>
			<trkpt lat="43.735330" lon="44.073590"><ele>188.5</ele><time>2026-09-04T22:38:12Z</time></trkpt>
			<trkpt lat="43.734570" lon="44.073580"><ele>188.6</ele><time>2026-09-04T22:38:23Z</time></trkpt>
			<trkpt lat="43.734250" lon="44.073570"><ele>188.6</ele><time>2026-09-04T22:38:35Z</time></trkpt>
			<trkpt lat="43.733990" lon="44.073550"><ele>188.6</ele><time>2026-09-04T22:38:47Z</time></trkpt>
			<trkpt lat="43.733990" lon="44.073550"><ele>188.6</ele><time>2026-09-04T22:38:53Z</time></trkpt>
			<trkpt lat="43.731820" lon="44.073410"><ele>188.5</ele><time>2026-09-04T22:38:58Z</time></trkpt>
			<trkpt lat="43.731660" lon="44.073410"><ele>188.5</ele><time>2026-09-04T22:39:04Z</time></trkpt>
			<trkpt lat="43.731490" lon="44.073430"><ele>188.5</ele><time>2026-09-04T22:39:10Z</time></trkpt>
			<trkpt lat="43.731120" lon="44.073510"><ele>188.5</ele><time>2026-09-04T22:39:15Z</time></trkpt>
			<trkpt lat="43.730360" lon="44.073690"><ele>188.5</ele><time>2026-09-04T22:39:21Z</time></trkpt>
			<trkpt lat="43.729550" lon="44.073910"><ele>188.4</ele><time>2026-09-04T22:39:27Z</time></trkpt>
			<trkpt lat="43.722700" lon="44.075580"><ele>191.7</ele><time>2026-09-04T22:39:33Z</time></trkpt>
			<trkpt lat="43.720330" lon="44.076190"><ele>191.3</ele><time>2026-09-04T22:39:38Z</time></trkpt>
			<trkpt lat="43.719390" lon="44.076400"><ele>191.1</ele><time>2026-09-04T22:39:44Z</time></trkpt>
			<trkpt lat="43.718750" lon="44.076570"><ele>191.0</ele><time>2026-09-04T22:39:50Z</time></trkpt>
			<trkpt lat="43.718510" lon="44.076610"><ele>191.0</ele><time>2026-09-04T22:39:56Z</time></trkpt>
			<trkpt lat="43.717950" lon="44.076730"><ele>190.9</ele><time>2026-09-04T22:40:01Z</time></trkpt>
			<trkpt lat="43.717050" lon="44.076950"><ele>190.7</ele><time>2026-09-04T22:40:07Z</time></trkpt>
			<trkpt lat="43.716860" lon="44.077020"><ele>190.7</ele><time>2026-09-04T22:40:13Z</time></trkpt>
			<trkpt lat="43.716680" lon="44.077100"><ele>190.7</ele><time>2026-09-04T22:40:19Z</time></trkpt>
			<trkpt lat="43.716410" lon="44.077250"><ele>190.6</ele><time>2026-09-04T22:40:24Z</time></trkpt>
			<trkpt lat="43.716150" lon="44.077440"><ele>190.6</ele><time>2026-09-04T22:40:30Z</time></trkpt>
			<trkpt lat="43.715940" lon="44.077600"><ele>190.5</ele><time>2026-09-04T22:40:36Z</time></trkpt>
			<trkpt lat="43.715720" lon="44.077810"><ele>190.5</ele><time>2026-09-04T22:40:42Z</time></trkpt>
			<trkpt lat="43.715290" lon="44.078300"><ele>190.4</ele><time>2026-09-04T22:40:47Z</time></trkpt>
			<trkpt lat="43.714350" lon="44.079620"><ele>190.2</ele><time>2026-09-04T22:40:53Z</time></trkpt>
			<trkpt lat="43.713440" lon="44.080880"><ele>190.1</ele><time>2026-09-04T22:40:59Z</time></trkpt>
			<trkpt lat="43.711580" lon="44.083560"><ele>190.5</ele><time>2026-09-04T22:41:05Z</time></trkpt>
			<trkpt lat="43.711020" lon="44.084230"><ele>190.6</ele><time>2026-09-04T22:41:10Z</time></trkpt>
			<trkpt lat="43.710780" lon="44.084460"><ele>190.7</ele><time>2026-09-04T22:41:16Z</time></trkpt>
			<trkpt lat="43.710280" lon="44.084870"><ele>190.8</ele><time>2026-09-04T22:41:22Z</time></trkpt>
			<trkpt lat="43.710000" lon="44.085070"><ele>190.8</ele><time>2026-09-04T22:41:28Z</time></trkpt>
			<trkpt lat="43.709130" lon="44.085520"><ele>191.3</ele><time>2026-09-04T22:41:33Z</time></trkpt>
			<trkpt lat="43.708980" lon="44.085580"><ele>191.5</ele><time>2026-09-04T22:41:39Z</time></trkpt>
			<trkpt lat="43.708300" lon="44.085760"><ele>192.0</ele><time>2026-09-04T22:41:45Z</time></trkpt>
			<trkpt lat="43.708090" lon="44.085810"><ele>192.2</ele><time>2026-09-04T22:41:51Z</time></trkpt>
			<trkpt lat="43.707850" lon="44.085840"><ele>192.3</ele><time>2026-09-04T22:41:56Z</time></trkpt>
			<trkpt lat="43.707590" lon="44.085840"><ele>192.5</ele><time>2026-09-04T22:42:02Z</time></trkpt>
			<trkpt lat="43.701980" lon="44.085400"><ele>195.2</ele><time>2026-09-04T22:42:08Z</time></trkpt>
			<trkpt lat="43.699240" lon="44.085120"><ele>195.5</ele><time>2026-09-04T22:42:13Z</time></trkpt>
			<trkpt lat="43.696510" lon="44.084870"><ele>196.9</ele><time>2026-09-04T22:42:19Z</time></trkpt>
			<trkpt lat="43.695700" lon="44.084780"><ele>197.3</ele><time>2026-09-04T22:42:25Z</time></trkpt>
			<trkpt lat="43.693310" lon="44.084570"><ele>198.5</ele><time>2026-09-04T22:42:31Z</time></trkpt>
			<trkpt lat="43.687490" lon="44.083970"><ele>196.9</ele><time>2026-09-04T22:42:36Z</time></trkpt>
			<trkpt lat="43.685340" lon="44.083750"><ele>198.0</ele><time>2026-09-04T22:42:42Z</time></trkpt>
			<trkpt lat="43.682580" lon="44.083490"><ele>199.2</ele><time>2026-09-04T22:42:48Z</time></trkpt>
			<trkpt lat="43.677250" lon="44.082950"><ele>198.9</ele><time>2026-09-04T22:42:54Z</time></trkpt>
			<trkpt lat="43.676060" lon="44.082830"><ele>198.7</ele><time>2026-09-04T22:42:59Z</time></trkpt>
			<trkpt lat="43.674830" lon="44.082730"><ele>198.6</ele><time>2026-09-04T22:43:05Z</time></trkpt>
			<trkpt lat="43.673170" lon="44.082550"><ele>198.4</ele><time>2026-09-04T22:43:11Z</time></trkpt>
			<trkpt lat="43.671610" lon="44.082400"><ele>198.3</ele><time>2026-09-04T22:43:17Z</time></trkpt>
			<trkpt lat="43.670230" lon="44.082400"><ele>198.7</ele><time>2026-09-04T22:43:22Z</time></trkpt>
			<trkpt lat="43.668850" lon="44.082450"><ele>199.2</ele><time>2026-09-04T22:43:28Z</time></trkpt>
			<trkpt lat="43.665560" lon="44.082420"><ele>200.5</ele><time>2026-09-04T22:43:34Z</time></trkpt>
			<trkpt lat="43.663800" lon="44.082400"><ele>201.4</ele><time>2026-09-04T22:43:40Z</time></trkpt>
			<trkpt lat="43.662800" lon="44.082410"><ele>202.0</ele><time>2026-09-04T22:43:45Z</time></trkpt>
			<trkpt lat="43.661780" lon="44.082400"><ele>202.6</ele><time>2026-09-04T22:43:51Z</time></trkpt>
			<trkpt lat="43.661230" lon="44.082420"><ele>202.9</ele><time>2026-09-04T22:43:57Z</time></trkpt>
			<trkpt lat="43.660980" lon="44.082420"><ele>203.0</ele><time>2026-09-04T22:44:03Z</time></trkpt>
			<trkpt lat="43.660420" lon="44.082430"><ele>203.1</ele><time>2026-09-04T22:44:08Z</time></trkpt>
			<trkpt lat="43.659920" lon="44.082390"><ele>203.2</ele><time>2026-09-04T22:44:14Z</time></trkpt>
			<trkpt lat="43.659790" lon="44.082380"><ele>203.2</ele><time>2026-09-04T22:44:20Z</time></trkpt>
			<trkpt lat="43.659760" lon="44.082370"><ele>203.2</ele><time>2026-09-04T22:44:26Z</time></trkpt>
			<trkpt lat="43.659590" lon="44.082340"><ele>203.2</ele><time>2026-09-04T22:44:31Z</time></trkpt>
			<trkpt lat="43.659550" lon="44.082320"><ele>203.2</ele><time>2026-09-04T22:44:37Z</time></trkpt>
			<trkpt lat="43.659500" lon="44.082330"><ele>203.2</ele><time>2026-09-04T22:44:43Z</time></trkpt>
			<trkpt lat="43.659440" lon="44.082360"><ele>203.2</ele><time>2026-09-04T22:44:49Z</time></trkpt>
			<trkpt lat="43.659400" lon="44.082420"><ele>203.2</ele><time>2026-09-04T22:44:54Z</time></trkpt>
			<trkpt lat="43.659370" lon="44.082490"><ele>203.3</ele><time>2026-09-04T22:45:00Z</time></trkpt>
			<trkpt lat="43.659370" lon="44.082570"><ele>203.3</ele><time>2026-09-04T22:45:06Z</time></trkpt>
			<trkpt lat="43.659380" lon="44.082630"><ele>203.3</ele><time>2026-09-04T22:45:11Z</time></trkpt>
			<trkpt lat="43.659300" lon="44.082920"><ele>203.3</ele><time>2026-09-04T22:45:17Z</time></trkpt>
			<trkpt lat="43.659230" lon="44.083120"><ele>203.3</ele><time>2026-09-04T22:45:23Z</time></trkpt>
			<trkpt lat="43.659030" lon="44.083540"><ele>203.4</ele><time>2026-09-04T22:45:29Z</time></trkpt>
			<trkpt lat="43.658800" lon="44.083900"><ele>203.4</ele><time>2026-09-04T22:45:34Z</time></trkpt>
			<trkpt lat="43.657960" lon="44.085200"><ele>203.6</ele><time>2026-09-04T22:45:40Z</time></trkpt>
			<trkpt lat="43.657120" lon="44.086490"><ele>203.7</ele><time>2026-09-04T22:45:46Z</time></trkpt>
			<trkpt lat="43.656950" lon="44.086740"><ele>203.7</ele><time>2026-09-04T22:45:52Z</time></trkpt>
			<trkpt lat="43.656880" lon="44.086850"><ele>203.6</ele><time>2026-09-04T22:45:57Z</time></trkpt>
			<trkpt lat="43.656840" lon="44.086910"><ele>203.5</ele><time>2026-09-04T22:46:03Z</time></trkpt>
			<trkpt lat="43.656750" lon="44.087040"><ele>203.4</ele><time>2026-09-04T22:46:09Z</time></trkpt>
			<trkpt lat="43.656270" lon="44.087720"><ele>202.8</ele><time>2026-09-04T22:46:15Z</time></trkpt>
			<trkpt lat="43.656180" lon="44.087850"><ele>202.7</ele><time>2026-09-04T22:46:20Z</time></trkpt>
			<trkpt lat="43.655440" lon="44.089000"><ele>201.7</ele><time>2026-09-04T22:46:26Z</time></trkpt>
			<trkpt lat="43.655260" lon="44.089260"><ele>201.5</ele><time>2026-09-04T22:46:32Z</time></trkpt>
			<trkpt lat="43.654950" lon="44.089740"><ele>201.1</ele><time>2026-09-04T22:46:38Z</time></trkpt>
			<trkpt lat="43.654630" lon="44.090280"><ele>200.6</ele><time>2026-09-04T22:46:43Z</time></trkpt>
			<trkpt lat="43.654460" lon="44.090530"><ele>200.4</ele><time>2026-09-04T22:46:49Z</time></trkpt>
			<trkpt lat="43.654170" lon="44.090850"><ele>200.1</ele><time>2026-09-04T22:46:55Z</time></trkpt>
			<trkpt lat="43.653740" lon="44.091300"><ele>199.6</ele><time>2026-09-04T22:47:01Z</time></trkpt>
			<trkpt lat="43.653410" lon="44.091610"><ele>199.2</ele><time>2026-09-04T22:47:06Z</time></trkpt>
			<trkpt lat="43.653150" lon="44.091820"><ele>199.0</ele><time>2026-09-04T22:47:12Z</time></trkpt>
			<trkpt lat="43.652980" lon="44.091940"><ele>199.1</ele><time>2026-09-04T22:47:18Z</time></trkpt>
			<trkpt lat="43.652590" lon="44.092180"><ele>199.5</ele><time>2026-09-04T22:47:24Z</time></trkpt>
			<trkpt lat="43.652430" lon="44.092250"><ele>199.6</ele><time>2026-09-04T22:47:29Z</time></trkpt>
			<trkpt lat="43.652200" lon="44.092350"><ele>199.9</ele><time>2026-09-04T22:47:35Z</time></trkpt>
			<trkpt lat="43.651790" lon="44.092480"><ele>200.3</ele><time>2026-09-04T22:47:41Z</time></trkpt>
			<trkpt lat="43.651630" lon="44.092530"><ele>200.4</ele><time>2026-09-04T22:47:47Z</time></trkpt>
			<trkpt lat="43.651490" lon="44.092550"><ele>200.5</ele><time>2026-09-04T22:47:52Z</time></trkpt>
			<trkpt lat="43.651090" lon="44.092590"><ele>200.9</ele><time>2026-09-04T22:47:58Z</time></trkpt>
			<trkpt lat="43.650630" lon="44.092610"><ele>201.3</ele><time>2026-09-04T22:48:04Z</time></trkpt>
			<trkpt lat="43.650430" lon="44.092610"><ele>201.5</ele><time>2026-09-04T22:48:09Z</time></trkpt>
			<trkpt lat="43.650070" lon="44.092590"><ele>201.9</ele><time>2026-09-04T22:48:15Z</time></trkpt>
			<trkpt lat="43.649700" lon="44.092530"><ele>202.2</ele><time>2026-09-04T22:48:21Z</time></trkpt>
			<trkpt lat="43.649130" lon="44.092360"><ele>202.8</ele><time>2026-09-04T22:48:27Z</time></trkpt>
			<trkpt lat="43.648650" lon="44.092180"><ele>203.2</ele><time>2026-09-04T22:48:32Z</time></trkpt>
			<trkpt lat="43.648180" lon="44.091980"><ele>203.7</ele><time>2026-09-04T22:48:38Z</time></trkpt>
			<trkpt lat="43.647220" lon="44.091660"><ele>204.0</ele><time>2026-09-04T22:48:44Z</time></trkpt>
			<trkpt lat="43.646460" lon="44.091350"><ele>203.8</ele><time>2026-09-04T22:48:50Z</time></trkpt>
			<trkpt lat="43.645440" lon="44.090930"><ele>203.7</ele><time>2026-09-04T22:48:55Z</time></trkpt>
			<trkpt lat="43.644720" lon="44.090670"><ele>203.6</ele><time>2026-09-04T22:49:01Z</time></trkpt>
			<trkpt lat="43.644150" lon="44.090480"><ele>203.5</ele><time>2026-09-04T22:49:07Z</time></trkpt>
			<trkpt lat="43.643050" lon="44.090070"><ele>203.4</ele><time>2026-09-04T22:49:13Z</time></trkpt>
			<trkpt lat="43.642850" lon="44.090000"><ele>203.3</ele><time>2026-09-04T22:49:18Z</time></trkpt>
			<trkpt lat="43.642370" lon="44.089820"><ele>203.4</ele><time>2026-09-04T22:49:24Z</time></trkpt>
			<trkpt lat="43.641780" lon="44.089630"><ele>203.6</ele><time>2026-09-04T22:49:30Z</time></trkpt>
			<trkpt lat="43.641140" lon="44.089380"><ele>203.8</ele><time>2026-09-04T22:49:36Z</time></trkpt>
			<trkpt lat="43.637900" lon="44.088240"><ele>205.1</ele><time>2026-09-04T22:49:41Z</time></trkpt>
			<trkpt lat="43.637070" lon="44.087960"><ele>205.6</ele><time>2026-09-04T22:49:47Z</time></trkpt>
			<trkpt lat="43.636260" lon="44.087650"><ele>206.6</ele><time>2026-09-04T22:49:53Z</time></trkpt>
			<trkpt lat="43.635520" lon="44.087400"><ele>207.5</ele><time>2026-09-04T22:49:59Z</time></trkpt>
			<trkpt lat="43.635060" lon="44.087250"><ele>208.0</ele><time>2026-09-04T22:50:04Z</time></trkpt>
			<trkpt lat="43.632890" lon="44.086440"><ele>210.6</ele><time>2026-09-04T22:50:10Z</time></trkpt>
			<trkpt lat="43.632400" lon="44.086340"><ele>211.2</ele><time>2026-09-04T22:50:16Z</time></trkpt>
			<trkpt lat="43.632380" lon="44.086340"><ele>211.2</ele><time>2026-09-04T22:50:22Z</time></trkpt>
			<trkpt lat="43.632260" lon="44.086380"><ele>211.4</ele><time>2026-09-04T22:50:27Z</time></trkpt>
			<trkpt lat="43.631450" lon="44.086710"><ele>211.6</ele><time>2026-09-04T22:50:33Z</time></trkpt>
			<trkpt lat="43.628420" lon="44.087990"><ele>211.1</ele><time>2026-09-04T22:50:39Z</time></trkpt>
			<trkpt lat="43.628080" lon="44.088120"><ele>211.1</ele><time>2026-09-04T22:50:45Z</time></trkpt>
			<trkpt lat="43.627620" lon="44.088250"><ele>211.0</ele><time>2026-09-04T22:50:50Z</time></trkpt>
			<trkpt lat="43.627430" lon="44.088290"><ele>211.0</ele><time>2026-09-04T22:50:56Z</time></trkpt>
			<trkpt lat="43.627270" lon="44.088320"><ele>210.9</ele><time>2026-09-04T22:51:02Z</time></trkpt>
			<trkpt lat="43.627030" lon="44.088330"><ele>210.9</ele><time>2026-09-04T22:51:07Z</time></trkpt>
			<trkpt lat="43.626740" lon="44.088340"><ele>210.9</ele><time>2026-09-04T22:51:13Z</time></trkpt>
			<trkpt lat="43.624860" lon="44.088300"><ele>212.7</ele><time>2026-09-04T22:51:19Z</time></trkpt>
			<trkpt lat="43.624680" lon="44.088310"><ele>212.9</ele><time>2026-09-04T22:51:25Z</time></trkpt>
			<trkpt lat="43.624520" lon="44.088330"><ele>213.0</ele><time>2026-09-04T22:51:30Z</time></trkpt>
			<trkpt lat="43.624350" lon="44.088390"><ele>213.2</ele><time>2026-09-04T22:51:36Z</time></trkpt>
			<trkpt lat="43.624230" lon="44.088460"><ele>213.3</ele><time>2026-09-04T22:51:42Z</time></trkpt>
			<trkpt lat="43.624140" lon="44.088520"><ele>213.4</ele><time>2026-09-04T22:51:48Z</time></trkpt>
			<trkpt lat="43.624030" lon="44.088640"><ele>213.5</ele><time>2026-09-04T22:51:53Z</time></trkpt>
			<trkpt lat="43.623930" lon="44.088800"><ele>213.7</ele><time>2026-09-04T22:51:59Z</time></trkpt>
			<trkpt lat="43.623720" lon="44.089260"><ele>214.0</ele><time>2026-09-04T22:52:05Z</time></trkpt>
			<trkpt lat="43.623640" lon="44.089470"><ele>214.2</ele><time>2026-09-04T22:52:11Z</time></trkpt>
			<trkpt lat="43.623520" lon="44.089790"><ele>214.5</ele><time>2026-09-04T22:52:16Z</time></trkpt>
			<trkpt lat="43.623200" lon="44.090850"><ele>215.2</ele><time>2026-09-04T22:52:22Z</time></trkpt>
			<trkpt lat="43.623080" lon="44.091140"><ele>215.5</ele><time>2026-09-04T22:52:28Z</time></trkpt>
			<trkpt lat="43.622920" lon="44.091500"><ele>215.8</ele><time>2026-09-04T22:52:34Z</time></trkpt>
			<trkpt lat="43.622810" lon="44.091810"><ele>216.0</ele><time>2026-09-04T22:52:39Z</time></trkpt>
			<trkpt lat="43.622540" lon="44.092680"><ele>217.3</ele><time>2026-09-04T22:52:45Z</time></trkpt>
			<trkpt lat="43.622460" lon="44.092970"><ele>217.8</ele><time>2026-09-04T22:52:51Z</time></trkpt>
			<trkpt lat="43.622400" lon="44.093360"><ele>218.3</ele><time>2026-09-04T22:52:57Z</time></trkpt>
			<trkpt lat="43.622350" lon="44.093860"><ele>219.1</ele><time>2026-09-04T22:53:02Z</time></trkpt>
			<trkpt lat="43.622330" lon="44.094140"><ele>219.5</ele><time>2026-09-04T22:53:08Z</time></trkpt>
			<trkpt lat="43.622140" lon="44.095790"><ele>221.9</ele><time>2026-09-04T22:53:14Z</time></trkpt>
			<trkpt lat="43.622080" lon="44.096180"><ele>222.5</ele><time>2026-09-04T22:53:20Z</time></trkpt>
			<trkpt lat="43.621930" lon="44.096880"><ele>223.5</ele><time>2026-09-04T22:53:25Z</time></trkpt>
			<trkpt lat="43.621750" lon="44.097660"><ele>224.7</ele><time>2026-09-04T22:53:31Z</time></trkpt>
			<trkpt lat="43.621460" lon="44.099150"><ele>226.9</ele><time>2026-09-04T22:53:37Z</time></trkpt>
			<trkpt lat="43.621310" lon="44.099950"><ele>225.4</ele><time>2026-09-04T22:53:43Z</time></trkpt>
			<trkpt lat="43.621290" lon="44.100090"><ele>225.2</ele><time>2026-09-04T22:53:48Z</time></trkpt>
			<trkpt lat="43.621280" lon="44.100260"><ele>224.9</ele><time>2026-09-04T22:53:54Z</time></trkpt>
			<trkpt lat="43.621280" lon="44.100480"><ele>224.5</ele><time>2026-09-04T22:54:00Z</time></trkpt>
			<trkpt lat="43.621310" lon="44.100830"><ele>223.9</ele><time>2026-09-04T22:54:05Z</time></trkpt>
			<trkpt lat="43.621400" lon="44.101420"><ele>222.8</ele><time>2026-09-04T22:54:11Z</time></trkpt>
			<trkpt lat="43.621510" lon="44.101920"><ele>221.9</ele><time>2026-09-04T22:54:17Z</time></trkpt>
			<trkpt lat="43.621660" lon="44.102460"><ele>220.9</ele><time>2026-09-04T22:54:23Z</time></trkpt>
			<trkpt lat="43.621980" lon="44.103430"><ele>219.0</ele><time>2026-09-04T22:54:28Z</time></trkpt>
			<trkpt lat="43.622690" lon="44.105300"><ele>215.3</ele><time>2026-09-04T22:54:34Z</time></trkpt>
			<trkpt lat="43.622960" lon="44.106030"><ele>213.8</ele><time>2026-09-04T22:54:40Z</time></trkpt>
			<trkpt lat="43.623510" lon="44.107490"><ele>213.2</ele><time>2026-09-04T22:54:46Z</time></trkpt>
			<trkpt lat="43.623910" lon="44.108580"><ele>212.9</ele><time>2026-09-04T22:54:51Z</time></trkpt>
			<trkpt lat="43.624070" lon="44.108980"><ele>212.8</ele><time>2026-09-04T22:54:57Z</time></trkpt>
			<trkpt lat="43.625120" lon="44.111790"><ele>211.9</ele><time>2026-09-04T22:55:03Z</time></trkpt>
			<trkpt lat="43.625380" lon="44.112430"><ele>211.7</ele><time>2026-09-04T22:55:09Z</time></trkpt>
			<trkpt lat="43.625620" lon="44.113110"><ele>211.5</ele><time>2026-09-04T22:55:14Z</time></trkpt>
			<trkpt lat="43.625880" lon="44.113780"><ele>211.4</ele><time>2026-09-04T22:55:20Z</time></trkpt>
			<trkpt lat="43.626190" lon="44.114650"><ele>211.2</ele><time>2026-09-04T22:55:26Z</time></trkpt>
			<trkpt lat="43.626530" lon="44.115510"><ele>211.1</ele><time>2026-09-04T22:55:32Z</time></trkpt>
			<trkpt lat="43.627400" lon="44.117840"><ele>210.6</ele><time>2026-09-04T22:55:37Z</time></trkpt>
			<trkpt lat="43.629540" lon="44.123270"><ele>211.1</ele><time>2026-09-04T22:55:43Z</time></trkpt>
			<trkpt lat="43.629610" lon="44.123470"><ele>211.1</ele><time>2026-09-04T22:55:49Z</time></trkpt>
			<trkpt lat="43.629660" lon="44.123660"><ele>211.2</ele><time>2026-09-04T22:55:55Z</time></trkpt>
			<trkpt lat="43.629690" lon="44.123830"><ele>211.2</ele><time>2026-09-04T22:56:00Z</time></trkpt>
			<trkpt lat="43.629720" lon="44.124120"><ele>211.3</ele><time>2026-09-04T22:56:06Z</time></trkpt>
			<trkpt lat="43.629730" lon="44.124410"><ele>211.3</ele><time>2026-09-04T22:56:12Z</time></trkpt>
			<trkpt lat="43.629680" lon="44.125170"><ele>211.5</ele><time>2026-09-04T22:56:18Z</time></trkpt>
			<trkpt lat="43.629620" lon="44.125930"><ele>211.6</ele><time>2026-09-04T22:56:23Z</time></trkpt>
			<trkpt lat="43.629500" lon="44.126760"><ele>211.6</ele><time>2026-09-04T22:56:29Z</time></trkpt>
			<trkpt lat="43.629170" lon="44.128300"><ele>211.4</ele><time>2026-09-04T22:56:35Z</time></trkpt>
			<trkpt lat="43.628720" lon="44.130190"><ele>211.1</ele><time>2026-09-04T22:56:41Z</time></trkpt>
			<trkpt lat="43.628590" lon="44.130770"><ele>211.0</ele><time>2026-09-04T22:56:46Z</time></trkpt>
			<trkpt lat="43.628010" lon="44.133340"><ele>210.6</ele><time>2026-09-04T22:56:52Z</time></trkpt>
			<trkpt lat="43.627930" lon="44.133940"><ele>210.6</ele><time>2026-09-04T22:56:58Z</time></trkpt>
			<trkpt lat="43.627740" lon="44.135410"><ele>211.0</ele><time>2026-09-04T22:57:03Z</time></trkpt>
			<trkpt lat="43.627730" lon="44.135600"><ele>211.0</ele><time>2026-09-04T22:57:09Z</time></trkpt>
			<trkpt lat="43.627750" lon="44.135840"><ele>211.1</ele><time>2026-09-04T22:57:15Z</time></trkpt>
			<trkpt lat="43.627830" lon="44.136020"><ele>211.1</ele><time>2026-09-04T22:57:21Z</time></trkpt>
			<trkpt lat="43.627980" lon="44.136280"><ele>211.2</ele><time>2026-09-04T22:57:26Z</time></trkpt>
			<trkpt lat="43.627680" lon="44.136530"><ele>211.3</ele><time>2026-09-04T22:57:32Z</time></trkpt>
			<trkpt lat="43.627420" lon="44.136590"><ele>211.4</ele><time>2026-09-04T22:57:38Z</time></trkpt>
			<trkpt lat="43.627220" lon="44.136550"><ele>211.4</ele><time>2026-09-04T22:57:44Z</time></trkpt>
			<trkpt lat="43.626990" lon="44.136420"><ele>211.5</ele><time>2026-09-04T22:57:49Z</time></trkpt>
			<trkpt lat="43.622850" lon="44.133410"><ele>214.3</ele><time>2026-09-04T22:57:55Z</time></trkpt>
			<trkpt lat="43.621370" lon="44.132380"><ele>215.8</ele><time>2026-09-04T22:58:01Z</time></trkpt>
			<trkpt lat="43.621020" lon="44.132140"><ele>216.2</ele><time>2026-09-04T22:58:07Z</time></trkpt>
			<trkpt lat="43.619790" lon="44.131310"><ele>217.4</ele><time>2026-09-04T22:58:12Z</time></trkpt>
			<trkpt lat="43.619160" lon="44.130890"><ele>218.0</ele><time>2026-09-04T22:58:18Z</time></trkpt>
			<trkpt lat="43.616420" lon="44.129090"><ele>220.4</ele><time>2026-09-04T22:58:24Z</time></trkpt>
			<trkpt lat="43.614130" lon="44.127900"><ele>222.2</ele><time>2026-09-04T22:58:30Z</time></trkpt>
			<trkpt lat="43.610820" lon="44.126270"><ele>224.4</ele><time>2026-09-04T22:58:35Z</time></trkpt>
			<trkpt lat="43.608620" lon="44.125140"><ele>225.5</ele><time>2026-09-04T22:58:41Z</time></trkpt>
			<trkpt lat="43.604600" lon="44.122930"><ele>226.6</ele><time>2026-09-04T22:58:47Z</time></trkpt>
			<trkpt lat="43.604320" lon="44.122830"><ele>226.5</ele><time>2026-09-04T22:58:53Z</time></trkpt>
			<trkpt lat="43.604220" lon="44.122830"><ele>226.4</ele><time>2026-09-04T22:58:58Z</time></trkpt>
			<trkpt lat="43.601080" lon="44.122560"><ele>224.4</ele><time>2026-09-04T22:59:04Z</time></trkpt>
			<trkpt lat="43.600380" lon="44.122530"><ele>224.0</ele><time>2026-09-04T22:59:10Z</time></trkpt>
			<trkpt lat="43.599720" lon="44.122560"><ele>223.6</ele><time>2026-09-04T22:59:16Z</time></trkpt>
			<trkpt lat="43.596910" lon="44.122890"><ele>224.9</ele><time>2026-09-04T22:59:21Z</time></trkpt>
			<trkpt lat="43.595940" lon="44.122910"><ele>225.5</ele><time>2026-09-04T22:59:27Z</time></trkpt>
			<trkpt lat="43.595510" lon="44.122800"><ele>225.7</ele><time>2026-09-04T22:59:33Z</time></trkpt>
			<trkpt lat="43.595090" lon="44.122600"><ele>225.9</ele><time>2026-09-04T22:59:39Z</time></trkpt>
			<trkpt lat="43.594860" lon="44.122470"><ele>226.1</ele><time>2026-09-04T22:59:44Z</time></trkpt>
			<trkpt lat="43.593160" lon="44.121390"><ele>226.3</ele><time>2026-09-04T22:59:50Z</time></trkpt>
			<trkpt lat="43.590970" lon="44.120000"><ele>226.1</ele><time>2026-09-04T22:59:56Z</time></trkpt>
			<trkpt lat="43.590360" lon="44.119480"><ele>226.0</ele><time>2026-09-04T23:00:01Z</time></trkpt>
			<trkpt lat="43.590210" lon="44.119360"><ele>226.0</ele><time>2026-09-04T23:00:07Z</time></trkpt>
			<trkpt lat="43.589350" lon="44.118770"><ele>225.9</ele><time>2026-09-04T23:00:13Z</time></trkpt>
			<trkpt lat="43.589010" lon="44.118680"><ele>226.1</ele><time>2026-09-04T23:00:19Z</time></trkpt>
			<trkpt lat="43.588800" lon="44.118590"><ele>226.2</ele><time>2026-09-04T23:00:24Z</time></trkpt>
			<trkpt lat="43.588660" lon="44.118520"><ele>226.3</ele><time>2026-09-04T23:00:30Z</time></trkpt>
			<trkpt lat="43.588480" lon="44.118420"><ele>226.4</ele><time>2026-09-04T23:00:36Z</time></trkpt>
			<trkpt lat="43.587720" lon="44.118030"><ele>226.8</ele><time>2026-09-04T23:00:42Z</time></trkpt>
			<trkpt lat="43.585800" lon="44.117020"><ele>228.0</ele><time>2026-09-04T23:00:47Z</time></trkpt>
			<trkpt lat="43.583060" lon="44.115640"><ele>229.1</ele><time>2026-09-04T23:00:53Z</time></trkpt>
			<trkpt lat="43.581550" lon="44.114820"><ele>229.4</ele><time>2026-09-04T23:00:59Z</time></trkpt>
			<trkpt lat="43.581420" lon="44.114790"><ele>229.4</ele><time>2026-09-04T23:01:05Z</time></trkpt>
			<trkpt lat="43.581270" lon="44.114790"><ele>229.4</ele><time>2026-09-04T23:01:10Z</time></trkpt>
			<trkpt lat="43.581140" lon="44.114830"><ele>229.5</ele><time>2026-09-04T23:01:16Z</time></trkpt>
			<trkpt lat="43.581010" lon="44.114920"><ele>229.5</ele><time>2026-09-04T23:01:22Z</time></trkpt>
			<trkpt lat="43.579450" lon="44.116180"><ele>229.8</ele><time>2026-09-04T23:01:28Z</time></trkpt>
			<trkpt lat="43.579390" lon="44.116210"><ele>229.8</ele><time>2026-09-04T23:01:33Z</time></trkpt>
			<trkpt lat="43.578200" lon="44.117270"><ele>229.0</ele><time>2026-09-04T23:01:39Z</time></trkpt>
			<trkpt lat="43.577700" lon="44.117720"><ele>228.6</ele><time>2026-09-04T23:01:45Z</time></trkpt>
			<trkpt lat="43.576670" lon="44.118530"><ele>227.8</ele><time>2026-09-04T23:01:51Z</time></trkpt>
			<trkpt lat="43.576440" lon="44.118560"><ele>227.6</ele><time>2026-09-04T23:01:56Z</time></trkpt>
			<trkpt lat="43.574810" lon="44.117710"><ele>226.4</ele><time>2026-09-04T23:02:02Z</time></trkpt>
			<trkpt lat="43.574640" lon="44.117640"><ele>226.3</ele><time>2026-09-04T23:02:08Z</time></trkpt>
			<trkpt lat="43.574410" lon="44.117600"><ele>226.2</ele><time>2026-09-04T23:02:14Z</time></trkpt>
			<trkpt lat="43.573640" lon="44.117600"><ele>226.0</ele><time>2026-09-04T23:02:19Z</time></trkpt>
			<trkpt lat="43.573510" lon="44.117610"><ele>226.0</ele><time>2026-09-04T23:02:25Z</time></trkpt>
			<trkpt lat="43.573090" lon="44.117620"><ele>226.0</ele><time>2026-09-04T23:02:31Z</time></trkpt>
			<trkpt lat="43.572960" lon="44.117610"><ele>226.0</ele><time>2026-09-04T23:02:37Z</time></trkpt>
			<trkpt lat="43.571180" lon="44.117610"><ele>225.7</ele><time>2026-09-04T23:02:42Z</time></trkpt>
			<trkpt lat="43.569530" lon="44.117240"><ele>225.5</ele><time>2026-09-04T23:02:48Z</time></trkpt>
			<trkpt lat="43.569090" lon="44.117190"><ele>225.5</ele><time>2026-09-04T23:02:54Z</time></trkpt>
			<trkpt lat="43.569030" lon="44.117190"><ele>225.4</ele><time>2026-09-04T23:02:59Z</time></trkpt>
			<trkpt lat="43.568280" lon="44.117270"><ele>225.9</ele><time>2026-09-04T23:03:05Z</time></trkpt>
			<trkpt lat="43.565160" lon="44.117750"><ele>228.1</ele><time>2026-09-04T23:03:11Z</time></trkpt>
			<trkpt lat="43.561160" lon="44.118420"><ele>229.9</ele><time>2026-09-04T23:03:17Z</time></trkpt>
			<trkpt lat="43.559460" lon="44.118720"><ele>230.3</ele><time>2026-09-04T23:03:22Z</time></trkpt>
			<trkpt lat="43.557480" lon="44.119180"><ele>231.0</ele><time>2026-09-04T23:03:28Z</time></trkpt>
			<trkpt lat="43.554090" lon="44.119230"><ele>232.5</ele><time>2026-09-04T23:03:34Z</time></trkpt>
			<trkpt lat="43.552520" lon="44.119300"><ele>233.2</ele><time>2026-09-04T23:03:40Z</time></trkpt>
			<trkpt lat="43.551200" lon="44.119490"><ele>233.7</ele><time>2026-09-04T23:03:45Z</time></trkpt>
			<trkpt lat="43.549490" lon="44.120010"><ele>234.4</ele><time>2026-09-04T23:03:51Z</time></trkpt>
			<trkpt lat="43.548640" lon="44.120160"><ele>234.7</ele><time>2026-09-04T23:03:57Z</time></trkpt>
			<trkpt lat="43.543270" lon="44.120270"><ele>238.3</ele><time>2026-09-04T23:04:03Z</time></trkpt>
			<trkpt lat="43.535400" lon="44.118880"><ele>239.8</ele><time>2026-09-04T23:04:08Z</time></trkpt>
			<trkpt lat="43.533480" lon="44.118310"><ele>240.5</ele><time>2026-09-04T23:04:14Z</time></trkpt>
			<trkpt lat="43.526910" lon="44.116120"><ele>241.0</ele><time>2026-09-04T23:04:20Z</time></trkpt>
			<trkpt lat="43.522400" lon="44.114250"><ele>242.1</ele><time>2026-09-04T23:04:26Z</time></trkpt>
			<trkpt lat="43.522070" lon="44.114130"><ele>242.2</ele><time>2026-09-04T23:04:31Z</time></trkpt>
			<trkpt lat="43.521780" lon="44.114130"><ele>242.3</ele><time>2026-09-04T23:04:37Z</time></trkpt>
			<trkpt lat="43.521460" lon="44.114260"><ele>242.4</ele><time>2026-09-04T23:04:43Z</time></trkpt>
			<trkpt lat="43.521220" lon="44.114380"><ele>242.5</ele><time>2026-09-04T23:04:49Z</time></trkpt>
			<trkpt lat="43.503770" lon="44.122250"><ele>252.4</ele><time>2026-09-04T23:04:54Z</time></trkpt>
			<trkpt lat="43.502930" lon="44.122530"><ele>252.6</ele><time>2026-09-04T23:05:00Z</time></trkpt>
			<trkpt lat="43.502180" lon="44.122630"><ele>252.8</ele><time>2026-09-04T23:05:06Z</time></trkpt>
			<trkpt lat="43.502090" lon="44.122630"><ele>252.9</ele><time>2026-09-04T23:05:12Z</time></trkpt>
			<trkpt lat="43.502000" lon="44.122670"><ele>252.9</ele><time>2026-09-04T23:05:17Z</time></trkpt>
			<trkpt lat="43.501830" lon="44.122730"><ele>252.9</ele><time>2026-09-04T23:05:23Z</time></trkpt>
			<trkpt lat="43.501090" lon="44.123050"><ele>253.1</ele><time>2026-09-04T23:05:29Z</time></trkpt>
			<trkpt lat="43.500410" lon="44.123390"><ele>253.3</ele><time>2026-09-04T23:05:35Z</time></trkpt>
			<trkpt lat="43.500340" lon="44.123410"><ele>253.3</ele><time>2026-09-04T23:05:40Z</time></trkpt>
			<trkpt lat="43.500280" lon="44.123450"><ele>253.4</ele><time>2026-09-04T23:05:46Z</time></trkpt>
			<trkpt lat="43.500250" lon="44.123480"><ele>253.4</ele><time>2026-09-04T23:05:52Z</time></trkpt>
			<trkpt lat="43.500100" lon="44.123570"><ele>253.4</ele><time>2026-09-04T23:05:57Z</time></trkpt>
			<trkpt lat="43.499790" lon="44.123880"><ele>253.7</ele><time>2026-09-04T23:06:03Z</time></trkpt>
			<trkpt lat="43.499360" lon="44.124230"><ele>254.2</ele><time>2026-09-04T23:06:09Z</time></trkpt>
			<trkpt lat="43.498350" lon="44.124670"><ele>255.4</ele><time>2026-09-04T23:06:15Z</time></trkpt>
			<trkpt lat="43.493030" lon="44.127100"><ele>258.2</ele><time>2026-09-04T23:06:20Z</time></trkpt>
			<trkpt lat="43.492130" lon="44.127510"><ele>257.5</ele><time>2026-09-04T23:06:26Z</time></trkpt>
			<trkpt lat="43.491710" lon="44.127690"><ele>257.2</ele><time>2026-09-04T23:06:32Z</time></trkpt>
			<trkpt lat="43.490690" lon="44.128140"><ele>256.4</ele><time>2026-09-04T23:06:38Z</time></trkpt>
			<trkpt lat="43.489720" lon="44.128560"><ele>255.6</ele><time>2026-09-04T23:06:43Z</time></trkpt>
			<trkpt lat="43.489430" lon="44.128670"><ele>255.7</ele><time>2026-09-04T23:06:49Z</time></trkpt>
			<trkpt lat="43.487630" lon="44.129240"><ele>256.0</ele><time>2026-09-04T23:06:55Z</time></trkpt>
			<trkpt lat="43.487050" lon="44.129410"><ele>256.2</ele><time>2026-09-04T23:07:01Z</time></trkpt>
			<trkpt lat="43.486940" lon="44.129440"><ele>256.2</ele><time>2026-09-04T23:07:06Z</time></trkpt>
			<trkpt lat="43.486700" lon="44.129550"><ele>256.2</ele><time>2026-09-04T23:07:12Z</time></trkpt>
			<trkpt lat="43.486440" lon="44.129680"><ele>256.3</ele><time>2026-09-04T23:07:18Z</time></trkpt>
			<trkpt lat="43.485690" lon="44.130100"><ele>256.4</ele><time>2026-09-04T23:07:24Z</time></trkpt>
			<trkpt lat="43.485600" lon="44.130120"><ele>256.5</ele><time>2026-09-04T23:07:29Z</time></trkpt>
			<trkpt lat="43.485490" lon="44.130160"><ele>256.5</ele><time>2026-09-04T23:07:35Z</time></trkpt>
			<trkpt lat="43.484550" lon="44.130720"><ele>256.7</ele><time>2026-09-04T23:07:41Z</time></trkpt>
			<trkpt lat="43.483710" lon="44.131220"><ele>257.4</ele><time>2026-09-04T23:07:47Z</time></trkpt>
			<trkpt lat="43.481800" lon="44.132370"><ele>259.2</ele><time>2026-09-04T23:07:52Z</time></trkpt>
			<trkpt lat="43.481750" lon="44.132420"><ele>259.3</ele><time>2026-09-04T23:07:58Z</time></trkpt>
			<trkpt lat="43.481700" lon="44.132490"><ele>259.3</ele><time>2026-09-04T23:08:04Z</time></trkpt>
			<trkpt lat="43.481690" lon="44.132570"><ele>259.4</ele><time>2026-09-04T23:08:10Z</time></trkpt>
			<trkpt lat="43.481690" lon="44.132630"><ele>259.4</ele><time>2026-09-04T23:08:15Z</time></trkpt>
			<trkpt lat="43.481800" lon="44.133000"><ele>259.7</ele><time>2026-09-04T23:08:21Z</time></trkpt>
			<trkpt lat="43.482230" lon="44.134370"><ele>260.6</ele><time>2026-09-04T23:08:27Z</time></trkpt>
			<trkpt lat="43.482270" lon="44.134470"><ele>260.7</ele><time>2026-09-04T23:08:33Z</time></trkpt>
			<trkpt lat="43.482270" lon="44.134470"><ele>260.7</ele><time>2026-09-04T23:08:38Z</time></trkpt>
			<trkpt lat="43.482800" lon="44.136090"><ele>260.9</ele><time>2026-09-04T23:08:44Z</time></trkpt>
			<trkpt lat="43.483330" lon="44.137770"><ele>259.8</ele><time>2026-09-04T23:08:50Z</time></trkpt>
			<trkpt lat="43.483500" lon="44.138240"><ele>259.4</ele><time>2026-09-04T23:08:56Z</time></trkpt>
			<trkpt lat="43.483590" lon="44.138570"><ele>259.2</ele><time>2026-09-04T23:09:02Z</time></trkpt>
			<trkpt lat="43.483740" lon="44.139200"><ele>258.8</ele><time>2026-09-04T23:09:08Z</time></trkpt>
			<trkpt lat="43.483780" lon="44.139360"><ele>258.7</ele><time>2026-09-04T23:09:14Z</time></trkpt>
			<trkpt lat="43.484020" lon="44.140400"><ele>258.0</ele><time>2026-09-04T23:09:20Z</time></trkpt>
			<trkpt lat="43.484210" lon="44.141210"><ele>257.5</ele><time>2026-09-04T23:09:26Z</time></trkpt>
			<trkpt lat="43.484390" lon="44.142020"><ele>256.9</ele><time>2026-09-04T23:09:32Z</time></trkpt>
			<trkpt lat="43.484530" lon="44.142620"><ele>256.7</ele><time>2026-09-04T23:09:38Z</time></trkpt>
			<trkpt lat="43.484880" lon="44.144120"><ele>257.7</ele><time>2026-09-04T23:09:44Z</time></trkpt>
			<trkpt lat="43.484930" lon="44.144360"><ele>257.9</ele><time>2026-09-04T23:09:50Z</time></trkpt>
			<trkpt lat="43.485110" lon="44.145110"><ele>258.4</ele><time>2026-09-04T23:09:55Z</time></trkpt>
			<trkpt lat="43.485290" lon="44.145860"><ele>258.9</ele><time>2026-09-04T23:10:01Z</time></trkpt>
			<trkpt lat="43.485380" lon="44.146270"><ele>259.2</ele><time>2026-09-04T23:10:07Z</time></trkpt>
			<trkpt lat="43.485730" lon="44.147840"><ele>260.3</ele><time>2026-09-04T23:10:13Z</time></trkpt>
			<trkpt lat="43.486030" lon="44.149190"><ele>261.2</ele><time>2026-09-04T23:10:19Z</time></trkpt>
			<trkpt lat="43.486610" lon="44.151700"><ele>259.9</ele><time>2026-09-04T23:10:25Z</time></trkpt>
			<trkpt lat="43.487070" lon="44.153790"><ele>258.3</ele><time>2026-09-04T23:10:31Z</time></trkpt>
			<trkpt lat="43.487170" lon="44.154230"><ele>257.9</ele><time>2026-09-04T23:10:37Z</time></trkpt>
			<trkpt lat="43.487260" lon="44.154670"><ele>257.6</ele><time>2026-09-04T23:10:43Z</time></trkpt>
			<trkpt lat="43.487420" lon="44.155370"><ele>257.0</ele><time>2026-09-04T23:10:49Z</time></trkpt>
			<trkpt lat="43.487510" lon="44.155800"><ele>256.7</ele><time>2026-09-04T23:10:55Z</time></trkpt>
			<trkpt lat="43.487610" lon="44.156330"><ele>256.2</ele><time>2026-09-04T23:11:01Z</time></trkpt>
			<trkpt lat="43.487630" lon="44.156420"><ele>256.2</ele><time>2026-09-04T23:11:07Z</time></trkpt>
			<trkpt lat="43.487630" lon="44.156460"><ele>256.1</ele><time>2026-09-04T23:11:13Z</time></trkpt>
			<trkpt lat="43.487680" lon="44.156770"><ele>255.9</ele><time>2026-09-04T23:11:18Z</time></trkpt>
			<trkpt lat="43.487690" lon="44.156930"><ele>255.9</ele><time>2026-09-04T23:11:24Z</time></trkpt>
			<trkpt lat="43.487680" lon="44.157140"><ele>256.1</ele><time>2026-09-04T23:11:30Z</time></trkpt>
			<trkpt lat="43.487630" lon="44.157560"><ele>256.5</ele><time>2026-09-04T23:11:36Z</time></trkpt>
			<trkpt lat="43.487610" lon="44.157790"><ele>256.7</ele><time>2026-09-04T23:11:42Z</time></trkpt>
			<trkpt lat="43.487450" lon="44.158420"><ele>257.3</ele><time>2026-09-04T23:11:48Z</time></trkpt>
			<trkpt lat="43.487340" lon="44.158920"><ele>257.8</ele><time>2026-09-04T23:11:54Z</time></trkpt>
			<trkpt lat="43.487280" lon="44.159280"><ele>258.1</ele><time>2026-09-04T23:12:00Z</time></trkpt>
			<trkpt lat="43.487250" lon="44.159670"><ele>258.5</ele><time>2026-09-04T23:12:06Z</time></trkpt>
			<trkpt lat="43.487230" lon="44.159980"><ele>258.8</ele><time>2026-09-04T23:12:12Z</time></trkpt>
			<trkpt lat="43.487220" lon="44.160530"><ele>259.3</ele><time>2026-09-04T23:12:18Z</time></trkpt>
			<trkpt lat="43.487240" lon="44.162160"><ele>260.7</ele><time>2026-09-04T23:12:24Z</time></trkpt>
			<trkpt lat="43.484660" lon="44.162290"><ele>262.9</ele><time>2026-09-04T23:12:30Z</time></trkpt>
			<trkpt lat="43.482010" lon="44.162360"><ele>263.6</ele><time>2026-09-04T23:12:35Z</time></trkpt>
			<trkpt lat="43.479020" lon="44.162520"><ele>264.5</ele><time>2026-09-04T23:12:41Z</time></trkpt>
			<trkpt lat="43.478910" lon="44.162530"><ele>264.5</ele><time>2026-09-04T23:12:47Z</time></trkpt>
			<trkpt lat="43.477810" lon="44.162600"><ele>264.9</ele><time>2026-09-04T23:12:53Z</time></trkpt>
			<trkpt lat="43.477670" lon="44.162610"><ele>265.0</ele><time>2026-09-04T23:12:59Z</time></trkpt>
			<trkpt lat="43.475090" lon="44.163040"><ele>266.0</ele><time>2026-09-04T23:13:05Z</time></trkpt>
			<trkpt lat="43.474560" lon="44.163130"><ele>266.2</ele><time>2026-09-04T23:13:11Z</time></trkpt>
			<trkpt lat="43.473570" lon="44.163280"><ele>266.5</ele><time>2026-09-04T23:13:17Z</time></trkpt>
			<trkpt lat="43.472670" lon="44.163440"><ele>266.7</ele><time>2026-09-04T23:13:23Z</time></trkpt>
			<trkpt lat="43.471360" lon="44.163650"><ele>267.0</ele><time>2026-09-04T23:13:29Z</time></trkpt>
			<trkpt lat="43.469100" lon="44.164000"><ele>267.6</ele><time>2026-09-04T23:13:35Z</time></trkpt>
			<trkpt lat="43.468630" lon="44.164210"><ele>267.8</ele><time>2026-09-04T23:13:41Z</time></trkpt>
			<trkpt lat="43.467350" lon="44.165090"><ele>268.4</ele><time>2026-09-04T23:13:47Z</time></trkpt>
			<trkpt lat="43.466550" lon="44.165670"><ele>268.7</ele><time>2026-09-04T23:13:52Z</time></trkpt>
			<trkpt lat="43.464010" lon="44.167480"><ele>269.7</ele><time>2026-09-04T23:13:58Z</time></trkpt>
			<trkpt lat="43.462190" lon="44.168910"><ele>270.4</ele><time>2026-09-04T23:14:04Z</time></trkpt>
			<trkpt lat="43.461560" lon="44.169410"><ele>270.6</ele><time>2026-09-04T23:14:10Z</time></trkpt>
			<trkpt lat="43.460760" lon="44.169880"><ele>270.8</ele><time>2026-09-04T23:14:16Z</time></trkpt>
			<trkpt lat="43.459620" lon="44.170470"><ele>271.2</ele><time>2026-09-04T23:14:22Z</time></trkpt>
			<trkpt lat="43.459230" lon="44.170620"><ele>271.3</ele><time>2026-09-04T23:14:28Z</time></trkpt>
			<trkpt lat="43.458630" lon="44.170810"><ele>271.6</ele><time>2026-09-04T23:14:34Z</time></trkpt>
			<trkpt lat="43.457860" lon="44.171000"><ele>271.8</ele><time>2026-09-04T23:14:40Z</time></trkpt>
			<trkpt lat="43.457110" lon="44.171140"><ele>272.1</ele><time>2026-09-04T23:14:46Z</time></trkpt>
			<trkpt lat="43.456840" lon="44.171250"><ele>272.2</ele><time>2026-09-04T23:14:52Z</time></trkpt>
			<trkpt lat="43.456550" lon="44.171480"><ele>272.3</ele><time>2026-09-04T23:14:58Z</time></trkpt>
			<trkpt lat="43.455540" lon="44.172430"><ele>272.8</ele><time>2026-09-04T23:15:04Z</time></trkpt>
			<trkpt lat="43.454810" lon="44.173050"><ele>273.1</ele><time>2026-09-04T23:15:10Z</time></trkpt>
			<trkpt lat="43.454580" lon="44.173190"><ele>273.2</ele><time>2026-09-04T23:15:15Z</time></trkpt>
			<trkpt lat="43.454580" lon="44.173190"><ele>273.2</ele><time>2026-09-04T23:15:24Z</time></trkpt>
			<trkpt lat="43.454480" lon="44.173250"><ele>273.3</ele><time>2026-09-04T23:15:32Z</time></trkpt>
			<trkpt lat="43.453710" lon="44.173650"><ele>273.9</ele><time>2026-09-04T23:15:40Z</time></trkpt>
			<trkpt lat="43.453640" lon="44.173670"><ele>273.9</ele><time>2026-09-04T23:15:49Z</time></trkpt>
			<trkpt lat="43.449730" lon="44.175590"><ele>276.9</ele><time>2026-09-04T23:15:57Z</time></trkpt>
			<trkpt lat="43.448580" lon="44.176150"><ele>277.0</ele><time>2026-09-04T23:16:06Z</time></trkpt>
			<trkpt lat="43.434100" lon="44.183240"><ele>280.2</ele><time>2026-09-04T23:16:14Z</time></trkpt>
			<trkpt lat="43.432910" lon="44.183820"><ele>280.8</ele><time>2026-09-04T23:16:22Z</time></trkpt>
			<trkpt lat="43.426330" lon="44.186990"><ele>283.9</ele><time>2026-09-04T23:16:31Z</time></trkpt>
			<trkpt lat="43.416290" lon="44.191830"><ele>287.5</ele><time>2026-09-04T23:16:39Z</time></trkpt>
			<trkpt lat="43.415720" lon="44.192130"><ele>287.8</ele><time>2026-09-04T23:16:47Z</time></trkpt>
			<trkpt lat="43.415390" lon="44.192260"><ele>287.9</ele><time>2026-09-04T23:16:56Z</time></trkpt>
			<trkpt lat="43.412210" lon="44.193210"><ele>289.4</ele><time>2026-09-04T23:17:04Z</time></trkpt>
			<trkpt lat="43.409030" lon="44.194180"><ele>290.9</ele><time>2026-09-04T23:17:12Z</time></trkpt>
			<trkpt lat="43.405810" lon="44.195100"><ele>292.1</ele><time>2026-09-04T23:17:21Z</time></trkpt>
			<trkpt lat="43.402500" lon="44.196070"><ele>293.1</ele><time>2026-09-04T23:17:29Z</time></trkpt>
			<trkpt lat="43.399240" lon="44.197010"><ele>294.4</ele><time>2026-09-04T23:17:37Z</time></trkpt>
			<trkpt lat="43.396030" lon="44.197990"><ele>295.4</ele><time>2026-09-04T23:17:46Z</time></trkpt>
			<trkpt lat="43.392730" lon="44.198920"><ele>295.9</ele><time>2026-09-04T23:17:54Z</time></trkpt>
			<trkpt lat="43.389480" lon="44.199910"><ele>296.9</ele><time>2026-09-04T23:18:02Z</time></trkpt>
			<trkpt lat="43.386120" lon="44.200830"><ele>297.9</ele><time>2026-09-04T23:18:11Z</time></trkpt>
			<trkpt lat="43.383480" lon="44.201650"><ele>298.9</ele><time>2026-09-04T23:18:19Z</time></trkpt>
			<trkpt lat="43.383170" lon="44.201710"><ele>299.0</ele><time>2026-09-04T23:18:28Z</time></trkpt>
			<trkpt lat="43.383000" lon="44.201730"><ele>299.0</ele><time>2026-09-04T23:18:36Z</time></trkpt>
			<trkpt lat="43.382850" lon="44.201720"><ele>299.1</ele><time>2026-09-04T23:18:44Z</time></trkpt>
			<trkpt lat="43.382690" lon="44.201630"><ele>299.1</ele><time>2026-09-04T23:18:53Z</time></trkpt>
			<trkpt lat="43.382590" lon="44.201490"><ele>299.2</ele><time>2026-09-04T23:19:01Z</time></trkpt>
			<trkpt lat="43.382350" lon="44.200560"><ele>299.4</ele><time>2026-09-04T23:19:09Z</time></trkpt>
			<trkpt lat="43.382100" lon="44.199510"><ele>299.2</ele><time>2026-09-04T23:19:18Z</time></trkpt>
			<trkpt lat="43.382050" lon="44.199330"><ele>299.1</ele><time>2026-09-04T23:19:26Z</time></trkpt>
			<trkpt lat="43.381450" lon="44.196860"><ele>298.0</ele><time>2026-09-04T23:19:34Z</time></trkpt>
			<trkpt lat="43.380950" lon="44.194720"><ele>297.0</ele><time>2026-09-04T23:19:43Z</time></trkpt>
			<trkpt lat="43.380850" lon="44.194170"><ele>296.7</ele><time>2026-09-04T23:19:51Z</time></trkpt>
			<trkpt lat="43.380690" lon="44.193790"><ele>296.5</ele><time>2026-09-04T23:19:59Z</time></trkpt>
			<trkpt lat="43.380610" lon="44.193670"><ele>296.4</ele><time>2026-09-04T23:20:08Z</time></trkpt>
			<trkpt lat="43.380450" lon="44.193510"><ele>296.3</ele><time>2026-09-04T23:20:16Z</time></trkpt>
			<trkpt lat="43.380270" lon="44.193470"><ele>296.2</ele><time>2026-09-04T23:20:24Z</time></trkpt>
			<trkpt lat="43.380040" lon="44.193480"><ele>296.4</ele><time>2026-09-04T23:20:33Z</time></trkpt>
			<trkpt lat="43.377980" lon="44.194110"><ele>298.0</ele><time>2026-09-04T23:20:41Z</time></trkpt>
			<trkpt lat="43.376690" lon="44.194480"><ele>299.0</ele><time>2026-09-04T23:20:50Z</time></trkpt>
			<trkpt lat="43.376610" lon="44.194470"><ele>299.1</ele><time>2026-09-04T23:20:58Z</time></trkpt>
			<trkpt lat="43.376520" lon="44.194410"><ele>299.2</ele><time>2026-09-04T23:21:06Z</time></trkpt>
			<trkpt lat="43.376480" lon="44.194330"><ele>299.2</ele><time>2026-09-04T23:21:15Z</time></trkpt>
			<trkpt lat="43.376460" lon="44.194160"><ele>299.3</ele><time>2026-09-04T23:21:23Z</time></trkpt>
			<trkpt lat="43.376290" lon="44.193520"><ele>299.7</ele><time>2026-09-04T23:21:31Z</time></trkpt>
			<trkpt lat="43.376200" lon="44.193320"><ele>299.8</ele><time>2026-09-04T23:21:40Z</time></trkpt>
			<trkpt lat="43.376110" lon="44.193120"><ele>300.0</ele><time>2026-09-04T23:21:48Z</time></trkpt>
			<trkpt lat="43.375990" lon="44.192970"><ele>300.1</ele><time>2026-09-04T23:21:56Z</time></trkpt>
			<trkpt lat="43.375840" lon="44.192860"><ele>300.2</ele><time>2026-09-04T23:22:05Z</time></trkpt>
			<trkpt lat="43.375720" lon="44.192840"><ele>300.3</ele><time>2026-09-04T23:22:13Z</time></trkpt>
			<trkpt lat="43.375590" lon="44.192850"><ele>300.4</ele><time>2026-09-04T23:22:21Z</time></trkpt>
			<trkpt lat="43.375150" lon="44.192950"><ele>300.5</ele><time>2026-09-04T23:22:30Z</time></trkpt>
			<trkpt lat="43.374330" lon="44.193180"><ele>300.6</ele><time>2026-09-04T23:22:38Z</time></trkpt>
			<trkpt lat="43.372660" lon="44.193660"><ele>300.9</ele><time>2026-09-04T23:22:46Z</time></trkpt>
			<trkpt lat="43.372420" lon="44.193890"><ele>301.0</ele><time>2026-09-04T23:22:55Z</time></trkpt>
			<trkpt lat="43.372080" lon="44.194250"><ele>301.0</ele><time>2026-09-04T23:23:03Z</time></trkpt>
			<trkpt lat="43.371320" lon="44.194940"><ele>301.2</ele><time>2026-09-04T23:23:11Z</time></trkpt>
			<trkpt lat="43.370610" lon="44.195360"><ele>301.3</ele><time>2026-09-04T23:23:20Z</time></trkpt>
			<trkpt lat="43.369980" lon="44.195660"><ele>301.3</ele><time>2026-09-04T23:23:28Z</time></trkpt>
			<trkpt lat="43.369130" lon="44.195900"><ele>301.2</ele><time>2026-09-04T23:23:37Z</time></trkpt>
			<trkpt lat="43.367740" lon="44.196340"><ele>301.1</ele><time>2026-09-04T23:23:45Z</time></trkpt>
			<trkpt lat="43.362810" lon="44.197780"><ele>302.2</ele><time>2026-09-04T23:23:53Z</time></trkpt>
			<trkpt lat="43.360530" lon="44.198420"><ele>303.3</ele><time>2026-09-04T23:24:02Z</time></trkpt>
			<trkpt lat="43.357570" lon="44.199320"><ele>304.4</ele><time>2026-09-04T23:24:10Z</time></trkpt>
			<trkpt lat="43.357660" lon="44.199690"><ele>304.5</ele><time>2026-09-04T23:24:18Z</time></trkpt>
			<trkpt lat="43.357690" lon="44.199800"><ele>304.5</ele><time>2026-09-04T23:24:27Z</time></trkpt>
			<trkpt lat="43.357770" lon="44.200040"><ele>304.6</ele><time>2026-09-04T23:24:35Z</time></trkpt>
			<trkpt lat="43.358080" lon="44.200710"><ele>304.7</ele><time>2026-09-04T23:24:43Z</time></trkpt>
			<trkpt lat="43.358960" lon="44.202890"><ele>305.3</ele><time>2026-09-04T23:24:52Z</time></trkpt>
			<trkpt lat="43.359430" lon="44.204170"><ele>305.4</ele><time>2026-09-04T23:25:00Z</time></trkpt>
			<trkpt lat="43.359450" lon="44.204260"><ele>305.4</ele><time>2026-09-04T23:25:08Z</time></trkpt>
			<trkpt lat="43.359450" lon="44.204380"><ele>305.4</ele><time>2026-09-04T23:25:17Z</time></trkpt>
			<trkpt lat="43.359420" lon="44.204570"><ele>305.5</ele><time>2026-09-04T23:25:25Z</time></trkpt>
			<trkpt lat="43.359390" lon="44.204650"><ele>305.5</ele><time>2026-09-04T23:25:33Z</time></trkpt>
			<trkpt lat="43.359350" lon="44.204720"><ele>305.5</ele><time>2026-09-04T23:25:42Z</time></trkpt>
			<trkpt lat="43.359220" lon="44.204850"><ele>305.5</ele><time>2026-09-04T23:25:50Z</time></trkpt>
			<trkpt lat="43.357080" lon="44.206340"><ele>305.7</ele><time>2026-09-04T23:25:59Z</time></trkpt>
			<trkpt lat="43.352260" lon="44.209570"><ele>307.8</ele><time>2026-09-04T23:26:07Z</time></trkpt>
			<trkpt lat="43.351100" lon="44.210440"><ele>308.5</ele><time>2026-09-04T23:26:15Z</time></trkpt>
			<trkpt lat="43.349900" lon="44.211480"><ele>309.8</ele><time>2026-09-04T23:26:24Z</time></trkpt>
			<trkpt lat="43.349180" lon="44.212140"><ele>310.8</ele><time>2026-09-04T23:26:32Z</time></trkpt>
			<trkpt lat="43.347750" lon="44.213370"><ele>312.6</ele><time>2026-09-04T23:26:40Z</time></trkpt>
			<trkpt lat="43.347140" lon="44.213900"><ele>313.4</ele><time>2026-09-04T23:26:49Z</time></trkpt>
			<trkpt lat="43.345470" lon="44.214860"><ele>314.4</ele><time>2026-09-04T23:26:57Z</time></trkpt>
			<trkpt lat="43.345340" lon="44.214930"><ele>314.4</ele><time>2026-09-04T23:27:05Z</time></trkpt>
			<trkpt lat="43.342900" lon="44.216360"><ele>314.5</ele><time>2026-09-04T23:27:14Z</time></trkpt>
			<trkpt lat="43.341690" lon="44.217050"><ele>314.5</ele><time>2026-09-04T23:27:22Z</time></trkpt>
			<trkpt lat="43.341110" lon="44.217280"><ele>314.5</ele><time>2026-09-04T23:27:30Z</time></trkpt>
			<trkpt lat="43.340220" lon="44.217530"><ele>314.9</ele><time>2026-09-04T23:27:39Z</time></trkpt>
			<trkpt lat="43.339370" lon="44.217730"><ele>315.3</ele><time>2026-09-04T23:27:47Z</time></trkpt>
			<trkpt lat="43.337880" lon="44.218090"><ele>316.0</ele><time>2026-09-04T23:27:55Z</time></trkpt>
			<trkpt lat="43.335290" lon="44.218790"><ele>317.4</ele><time>2026-09-04T23:28:04Z</time></trkpt>
			<trkpt lat="43.334570" lon="44.219060"><ele>318.2</ele><time>2026-09-04T23:28:12Z</time></trkpt>
			<trkpt lat="43.332720" lon="44.220100"><ele>320.1</ele><time>2026-09-04T23:28:21Z</time></trkpt>
			<trkpt lat="43.330470" lon="44.221400"><ele>322.3</ele><time>2026-09-04T23:28:29Z</time></trkpt>
			<trkpt lat="43.330430" lon="44.221430"><ele>322.3</ele><time>2026-09-04T23:28:37Z</time></trkpt>
			<trkpt lat="43.328220" lon="44.222680"><ele>323.5</ele><time>2026-09-04T23:28:46Z</time></trkpt>
			<trkpt lat="43.325660" lon="44.224090"><ele>325.0</ele><time>2026-09-04T23:28:54Z</time></trkpt>
			<trkpt lat="43.324400" lon="44.224820"><ele>326.1</ele><time>2026-09-04T23:29:02Z</time></trkpt>
			<trkpt lat="43.320100" lon="44.227160"><ele>330.2</ele><time>2026-09-04T23:29:11Z</time></trkpt>
			<trkpt lat="43.319570" lon="44.227330"><ele>330.8</ele><time>2026-09-04T23:29:19Z</time></trkpt>
			<trkpt lat="43.319360" lon="44.227390"><ele>331.1</ele><time>2026-09-04T23:29:27Z</time></trkpt>
			<trkpt lat="43.319150" lon="44.227420"><ele>331.3</ele><time>2026-09-04T23:29:36Z</time></trkpt>
			<trkpt lat="43.318940" lon="44.227410"><ele>331.6</ele><time>2026-09-04T23:29:44Z</time></trkpt>
			<trkpt lat="43.318780" lon="44.227340"><ele>331.8</ele><time>2026-09-04T23:29:52Z</time></trkpt>
			<trkpt lat="43.318710" lon="44.227240"><ele>331.9</ele><time>2026-09-04T23:30:01Z</time></trkpt>
			<trkpt lat="43.318550" lon="44.227410"><ele>332.1</ele><time>2026-09-04T23:30:09Z</time></trkpt>
			<trkpt lat="43.318050" lon="44.228000"><ele>332.9</ele><time>2026-09-04T23:30:17Z</time></trkpt>
			<trkpt lat="43.317980" lon="44.228090"><ele>333.1</ele><time>2026-09-04T23:30:26Z</time></trkpt>
			<trkpt lat="43.317980" lon="44.228090"><ele>333.1</ele><time>2026-09-04T23:30:35Z</time></trkpt>
			<trkpt lat="43.317830" lon="44.228270"><ele>333.3</ele><time>2026-09-04T23:30:45Z</time></trkpt>
			<trkpt lat="43.317260" lon="44.228900"><ele>334.2</ele><time>2026-09-04T23:30:55Z</time></trkpt>
			<trkpt lat="43.317120" lon="44.229050"><ele>334.4</ele><time>2026-09-04T23:31:04Z</time></trkpt>
			<trkpt lat="43.316520" lon="44.229670"><ele>335.3</ele><time>2026-09-04T23:31:14Z</time></trkpt>
			<trkpt lat="43.316380" lon="44.229850"><ele>335.5</ele><time>2026-09-04T23:31:24Z</time></trkpt>
			<trkpt lat="43.315690" lon="44.230560"><ele>336.4</ele><time>2026-09-04T23:31:33Z</time></trkpt>
			<trkpt lat="43.315230" lon="44.231100"><ele>336.9</ele><time>2026-09-04T23:31:43Z</time></trkpt>
			<trkpt lat="43.314690" lon="44.231700"><ele>337.5</ele><time>2026-09-04T23:31:53Z</time></trkpt>
			<trkpt lat="43.314570" lon="44.231840"><ele>337.7</ele><time>2026-09-04T23:32:02Z</time></trkpt>
			<trkpt lat="43.314300" lon="44.232130"><ele>338.0</ele><time>2026-09-04T23:32:12Z</time></trkpt>
			<trkpt lat="43.312560" lon="44.234070"><ele>340.0</ele><time>2026-09-04T23:32:22Z</time></trkpt>
			<trkpt lat="43.311700" lon="44.235030"><ele>340.9</ele><time>2026-09-04T23:32:31Z</time></trkpt>
			<trkpt lat="43.311400" lon="44.235380"><ele>341.2</ele><time>2026-09-04T23:32:41Z</time></trkpt>
			<trkpt lat="43.310010" lon="44.236920"><ele>342.2</ele><time>2026-09-04T23:32:51Z</time></trkpt>
			<trkpt lat="43.302590" lon="44.243430"><ele>349.4</ele><time>2026-09-04T23:33:00Z</time></trkpt>
			<trkpt lat="43.300700" lon="44.245040"><ele>345.6</ele><time>2026-09-04T23:33:10Z</time></trkpt>
			<trkpt lat="43.299920" lon="44.245580"><ele>344.1</ele><time>2026-09-04T23:33:19Z</time></trkpt>
			<trkpt lat="43.298350" lon="44.246380"><ele>341.2</ele><time>2026-09-04T23:33:29Z</time></trkpt>
			<trkpt lat="43.296710" lon="44.247080"><ele>339.1</ele><time>2026-09-04T23:33:39Z</time></trkpt>
			<trkpt lat="43.288710" lon="44.249870"><ele>341.7</ele><time>2026-09-04T23:33:48Z</time></trkpt>
			<trkpt lat="43.277010" lon="44.257280"><ele>341.0</ele><time>2026-09-04T23:33:58Z</time></trkpt>
			<trkpt lat="43.275840" lon="44.257790"><ele>340.7</ele><time>2026-09-04T23:34:08Z</time></trkpt>
			<trkpt lat="43.274990" lon="44.258250"><ele>340.6</ele><time>2026-09-04T23:34:17Z</time></trkpt>
			<trkpt lat="43.274350" lon="44.258670"><ele>340.4</ele><time>2026-09-04T23:34:27Z</time></trkpt>
			<trkpt lat="43.273900" lon="44.259000"><ele>340.3</ele><time>2026-09-04T23:34:37Z</time></trkpt>
			<trkpt lat="43.272860" lon="44.259960"><ele>340.0</ele><time>2026-09-04T23:34:46Z</time></trkpt>
			<trkpt lat="43.271820" lon="44.261370"><ele>343.5</ele><time>2026-09-04T23:34:56Z</time></trkpt>
			<trkpt lat="43.271320" lon="44.262220"><ele>345.7</ele><time>2026-09-04T23:35:06Z</time></trkpt>
			<trkpt lat="43.271090" lon="44.262690"><ele>346.8</ele><time>2026-09-04T23:35:15Z</time></trkpt>
			<trkpt lat="43.270860" lon="44.263170"><ele>347.9</ele><time>2026-09-04T23:35:25Z</time></trkpt>
			<trkpt lat="43.270750" lon="44.263370"><ele>348.4</ele><time>2026-09-04T23:35:35Z</time></trkpt>
			<trkpt lat="43.270480" lon="44.263980"><ele>349.8</ele><time>2026-09-04T23:35:44Z</time></trkpt>
			<trkpt lat="43.270340" lon="44.264320"><ele>350.6</ele><time>2026-09-04T23:35:54Z</time></trkpt>
			<trkpt lat="43.270220" lon="44.264740"><ele>351.5</ele><time>2026-09-04T23:36:04Z</time></trkpt>
			<trkpt lat="43.270120" lon="44.265150"><ele>352.4</ele><time>2026-09-04T23:36:13Z</time></trkpt>
			<trkpt lat="43.270030" lon="44.265540"><ele>353.2</ele><time>2026-09-04T23:36:23Z</time></trkpt>
			<trkpt lat="43.269960" lon="44.266100"><ele>354.3</ele><time>2026-09-04T23:36:32Z</time></trkpt>
			<trkpt lat="43.269910" lon="44.266630"><ele>355.5</ele><time>2026-09-04T23:36:42Z</time></trkpt>
			<trkpt lat="43.269920" lon="44.267460"><ele>357.7</ele><time>2026-09-04T23:36:52Z</time></trkpt>
			<trkpt lat="43.270010" lon="44.268100"><ele>359.4</ele><time>2026-09-04T23:37:01Z</time></trkpt>
			<trkpt lat="43.270080" lon="44.268490"><ele>360.5</ele><time>2026-09-04T23:37:11Z</time></trkpt>
			<trkpt lat="43.270240" lon="44.269060"><ele>362.1</ele><time>2026-09-04T23:37:21Z</time></trkpt>
			<trkpt lat="43.270460" lon="44.269640"><ele>363.8</ele><time>2026-09-04T23:37:30Z</time></trkpt>
			<trkpt lat="43.270650" lon="44.270040"><ele>365.0</ele><time>2026-09-04T23:37:40Z</time></trkpt>
			<trkpt lat="43.271040" lon="44.270660"><ele>367.2</ele><time>2026-09-04T23:37:50Z</time></trkpt>
			<trkpt lat="43.271530" lon="44.271340"><ele>369.7</ele><time>2026-09-04T23:37:59Z</time></trkpt>
			<trkpt lat="43.271620" lon="44.271530"><ele>370.3</ele><time>2026-09-04T23:38:09Z</time></trkpt>
			<trkpt lat="43.271800" lon="44.271940"><ele>371.5</ele><time>2026-09-04T23:38:19Z</time></trkpt>
			<trkpt lat="43.272040" lon="44.272590"><ele>373.5</ele><time>2026-09-04T23:38:28Z</time></trkpt>
			<trkpt lat="43.272440" lon="44.273970"><ele>375.5</ele><time>2026-09-04T23:38:38Z</time></trkpt>
			<trkpt lat="43.272550" lon="44.274310"><ele>375.8</ele><time>2026-09-04T23:38:48Z</time></trkpt>
			<trkpt lat="43.272630" lon="44.274620"><ele>376.1</ele><time>2026-09-04T23:38:57Z</time></trkpt>
			<trkpt lat="43.273060" lon="44.276300"><ele>377.8</ele><time>2026-09-04T23:39:07Z</time></trkpt>
			<trkpt lat="43.274570" lon="44.282200"><ele>382.7</ele><time>2026-09-04T23:39:17Z</time></trkpt>
			<trkpt lat="43.274780" lon="44.283330"><ele>383.3</ele><time>2026-09-04T23:39:26Z</time></trkpt>
			<trkpt lat="43.274890" lon="44.284530"><ele>383.8</ele><time>2026-09-04T23:39:36Z</time></trkpt>
			<trkpt lat="43.274890" lon="44.285870"><ele>384.5</ele><time>2026-09-04T23:39:45Z</time></trkpt>
			<trkpt lat="43.274880" lon="44.286150"><ele>384.6</ele><time>2026-09-04T23:39:55Z</time></trkpt>
			<trkpt lat="43.274840" lon="44.286880"><ele>385.0</ele><time>2026-09-04T23:40:05Z</time></trkpt>
			<trkpt lat="43.274500" lon="44.289800"><ele>383.4</ele><time>2026-09-04T23:40:14Z</time></trkpt>
			<trkpt lat="43.274470" lon="44.290340"><ele>383.0</ele><time>2026-09-04T23:40:24Z</time></trkpt>
			<trkpt lat="43.274470" lon="44.290900"><ele>382.7</ele><time>2026-09-04T23:40:34Z</time></trkpt>
			<trkpt lat="43.274510" lon="44.291550"><ele>382.2</ele><time>2026-09-04T23:40:43Z</time></trkpt>
			<trkpt lat="43.274660" lon="44.292410"><ele>381.6</ele><time>2026-09-04T23:40:53Z</time></trkpt>
			<trkpt lat="43.274930" lon="44.293180"><ele>381.1</ele><time>2026-09-04T23:41:03Z</time></trkpt>
			<trkpt lat="43.276170" lon="44.296050"><ele>380.4</ele><time>2026-09-04T23:41:12Z</time></trkpt>
			<trkpt lat="43.276770" lon="44.297620"><ele>380.7</ele><time>2026-09-04T23:41:22Z</time></trkpt>
			<trkpt lat="43.276870" lon="44.297910"><ele>380.8</ele><time>2026-09-04T23:41:32Z</time></trkpt>
			<trkpt lat="43.276990" lon="44.298280"><ele>380.8</ele><time>2026-09-04T23:41:41Z</time></trkpt>
			<trkpt lat="43.277240" lon="44.299100"><ele>381.0</ele><time>2026-09-04T23:41:51Z</time></trkpt>
			<trkpt lat="43.277810" lon="44.301190"><ele>381.4</ele><time>2026-09-04T23:42:01Z</time></trkpt>
			<trkpt lat="43.277930" lon="44.301610"><ele>381.6</ele><time>2026-09-04T23:42:10Z</time></trkpt>
			<trkpt lat="43.278680" lon="44.303640"><ele>382.7</ele><time>2026-09-04T23:42:20Z</time></trkpt>
			<trkpt lat="43.279360" lon="44.305680"><ele>383.8</ele><time>2026-09-04T23:42:30Z</time></trkpt>
			<trkpt lat="43.280160" lon="44.308230"><ele>384.5</ele><time>2026-09-04T23:42:39Z</time></trkpt>
			<trkpt lat="43.280500" lon="44.309580"><ele>382.6</ele><time>2026-09-04T23:42:49Z</time></trkpt>
			<trkpt lat="43.280650" lon="44.310390"><ele>381.5</ele><time>2026-09-04T23:42:58Z</time></trkpt>
			<trkpt lat="43.280750" lon="44.311430"><ele>380.1</ele><time>2026-09-04T23:43:08Z</time></trkpt>
			<trkpt lat="43.280780" lon="44.312170"><ele>379.1</ele><time>2026-09-04T23:43:18Z</time></trkpt>
			<trkpt lat="43.280640" lon="44.313630"><ele>377.1</ele><time>2026-09-04T23:43:27Z</time></trkpt>
			<trkpt lat="43.280490" lon="44.314150"><ele>376.4</ele><time>2026-09-04T23:43:37Z</time></trkpt>
			<trkpt lat="43.280470" lon="44.314230"><ele>376.3</ele><time>2026-09-04T23:43:47Z</time></trkpt>
			<trkpt lat="43.280300" lon="44.314710"><ele>375.5</ele><time>2026-09-04T23:43:56Z</time></trkpt>
			<trkpt lat="43.279770" lon="44.315840"><ele>373.8</ele><time>2026-09-04T23:44:06Z</time></trkpt>
			<trkpt lat="43.277680" lon="44.319840"><ele>367.8</ele><time>2026-09-04T23:44:16Z</time></trkpt>
			<trkpt lat="43.277380" lon="44.320430"><ele>366.9</ele><time>2026-09-04T23:44:25Z</time></trkpt>
			<trkpt lat="43.274630" lon="44.325790"><ele>371.6</ele><time>2026-09-04T23:44:35Z</time></trkpt>
			<trkpt lat="43.271550" lon="44.331730"><ele>374.6</ele><time>2026-09-04T23:44:45Z</time></trkpt>
			<trkpt lat="43.271040" lon="44.332890"><ele>374.9</ele><time>2026-09-04T23:44:54Z</time></trkpt>
			<trkpt lat="43.270620" lon="44.334030"><ele>375.1</ele><time>2026-09-04T23:45:04Z</time></trkpt>
			<trkpt lat="43.270390" lon="44.334830"><ele>375.3</ele><time>2026-09-04T23:45:14Z</time></trkpt>
			<trkpt lat="43.270110" lon="44.336110"><ele>375.6</ele><time>2026-09-04T23:45:23Z</time></trkpt>
			<trkpt lat="43.269350" lon="44.340110"><ele>376.5</ele><time>2026-09-04T23:45:33Z</time></trkpt>
			<trkpt lat="43.269110" lon="44.342310"><ele>377.3</ele><time>2026-09-04T23:45:43Z</time></trkpt>
			<trkpt lat="43.269050" lon="44.343160"><ele>377.6</ele><time>2026-09-04T23:45:52Z</time></trkpt>
			<trkpt lat="43.268660" lon="44.348940"><ele>380.0</ele><time>2026-09-04T23:46:02Z</time></trkpt>
			<trkpt lat="43.268470" lon="44.353940"><ele>382.3</ele><time>2026-09-04T23:46:11Z</time></trkpt>
			<trkpt lat="43.268460" lon="44.354170"><ele>382.4</ele><time>2026-09-04T23:46:21Z</time></trkpt>
			<trkpt lat="43.268170" lon="44.357420"><ele>383.7</ele><time>2026-09-04T23:46:31Z</time></trkpt>
			<trkpt lat="43.268160" lon="44.357620"><ele>383.8</ele><time>2026-09-04T23:46:40Z</time></trkpt>
			<trkpt lat="43.268160" lon="44.361070"><ele>385.1</ele><time>2026-09-04T23:46:50Z</time></trkpt>
			<trkpt lat="43.268140" lon="44.363790"><ele>386.2</ele><time>2026-09-04T23:47:00Z</time></trkpt>
			<trkpt lat="43.268100" lon="44.365460"><ele>386.9</ele><time>2026-09-04T23:47:09Z</time></trkpt>
			<trkpt lat="43.267980" lon="44.369840"><ele>389.0</ele><time>2026-09-04T23:47:19Z</time></trkpt>
			<trkpt lat="43.267850" lon="44.374530"><ele>390.4</ele><time>2026-09-04T23:47:29Z</time></trkpt>
			<trkpt lat="43.267850" lon="44.374760"><ele>390.5</ele><time>2026-09-04T23:47:38Z</time></trkpt>
			<trkpt lat="43.267730" lon="44.378420"><ele>391.6</ele><time>2026-09-04T23:47:48Z</time></trkpt>
			<trkpt lat="43.267530" lon="44.380440"><ele>392.6</ele><time>2026-09-04T23:47:58Z</time></trkpt>
			<trkpt lat="43.267320" lon="44.382620"><ele>393.7</ele><time>2026-09-04T23:48:07Z</time></trkpt>
			<trkpt lat="43.267280" lon="44.384020"><ele>394.3</ele><time>2026-09-04T23:48:17Z</time></trkpt>
			<trkpt lat="43.267260" lon="44.386340"><ele>395.3</ele><time>2026-09-04T23:48:27Z</time></trkpt>
			<trkpt lat="43.267170" lon="44.392440"><ele>397.2</ele><time>2026-09-04T23:48:36Z</time></trkpt>
			<trkpt lat="43.266870" lon="44.402540"><ele>402.6</ele><time>2026-09-04T23:48:46Z</time></trkpt>
			<trkpt lat="43.266780" lon="44.413190"><ele>407.3</ele><time>2026-09-04T23:48:55Z</time></trkpt>
			<trkpt lat="43.266850" lon="44.415160"><ele>407.8</ele><time>2026-09-04T23:49:05Z</time></trkpt>
			<trkpt lat="43.268650" lon="44.434960"><ele>418.1</ele><time>2026-09-04T23:49:15Z</time></trkpt>
			<trkpt lat="43.268960" lon="44.438630"><ele>419.3</ele><time>2026-09-04T23:49:24Z</time></trkpt>
			<trkpt lat="43.268970" lon="44.438820"><ele>419.3</ele><time>2026-09-04T23:49:34Z</time></trkpt>
			<trkpt lat="43.269430" lon="44.446600"><ele>419.2</ele><time>2026-09-04T23:49:44Z</time></trkpt>
			<trkpt lat="43.269610" lon="44.449250"><ele>422.3</ele><time>2026-09-04T23:49:53Z</time></trkpt>
			<trkpt lat="43.269610" lon="44.450060"><ele>423.2</ele><time>2026-09-04T23:50:03Z</time></trkpt>
			<trkpt lat="43.269600" lon="44.450590"><ele>423.9</ele><time>2026-09-04T23:50:13Z</time></trkpt>
			<trkpt lat="43.269570" lon="44.451080"><ele>424.4</ele><time>2026-09-04T23:50:22Z</time></trkpt>
			<trkpt lat="43.269500" lon="44.451860"><ele>425.4</ele><time>2026-09-04T23:50:32Z</time></trkpt>
			<trkpt lat="43.269410" lon="44.452450"><ele>426.1</ele><time>2026-09-04T23:50:42Z</time></trkpt>
			<trkpt lat="43.269060" lon="44.454020"><ele>427.9</ele><time>2026-09-04T23:50:51Z</time></trkpt>
			<trkpt lat="43.268800" lon="44.454990"><ele>429.1</ele><time>2026-09-04T23:51:01Z</time></trkpt>
			<trkpt lat="43.268530" lon="44.455800"><ele>430.1</ele><time>2026-09-04T23:51:11Z</time></trkpt>
			<trkpt lat="43.268210" lon="44.456530"><ele>431.1</ele><time>2026-09-04T23:51:20Z</time></trkpt>
			<trkpt lat="43.267920" lon="44.457080"><ele>431.9</ele><time>2026-09-04T23:51:30Z</time></trkpt>
			<trkpt lat="43.266120" lon="44.460240"><ele>435.2</ele><time>2026-09-04T23:51:40Z</time></trkpt>
			<trkpt lat="43.260020" lon="44.470870"><ele>438.0</ele><time>2026-09-04T23:51:49Z</time></trkpt>
			<trkpt lat="43.253440" lon="44.482480"><ele>444.2</ele><time>2026-09-04T23:51:59Z</time></trkpt>
			<trkpt lat="43.252980" lon="44.483300"><ele>444.3</ele><time>2026-09-04T23:52:08Z</time></trkpt>
			<trkpt lat="43.252160" lon="44.484760"><ele>444.6</ele><time>2026-09-04T23:52:18Z</time></trkpt>
			<trkpt lat="43.250770" lon="44.487250"><ele>444.9</ele><time>2026-09-04T23:52:28Z</time></trkpt>
			<trkpt lat="43.249120" lon="44.490210"><ele>447.1</ele><time>2026-09-04T23:52:37Z</time></trkpt>
			<trkpt lat="43.239600" lon="44.507240"><ele>452.0</ele><time>2026-09-04T23:52:47Z</time></trkpt>
			<trkpt lat="43.239210" lon="44.507840"><ele>452.0</ele><time>2026-09-04T23:52:57Z</time></trkpt>
			<trkpt lat="43.238990" lon="44.508130"><ele>452.0</ele><time>2026-09-04T23:53:06Z</time></trkpt>
			<trkpt lat="43.238720" lon="44.508440"><ele>452.0</ele><time>2026-09-04T23:53:16Z</time></trkpt>
			<trkpt lat="43.238440" lon="44.508720"><ele>452.0</ele><time>2026-09-04T23:53:26Z</time></trkpt>
			<trkpt lat="43.237990" lon="44.509040"><ele>452.0</ele><time>2026-09-04T23:53:35Z</time></trkpt>
			<trkpt lat="43.237520" lon="44.509330"><ele>452.0</ele><time>2026-09-04T23:53:45Z</time></trkpt>
			<trkpt lat="43.235250" lon="44.510250"><ele>452.6</ele><time>2026-09-04T23:53:55Z</time></trkpt>
			<trkpt lat="43.234790" lon="44.510440"><ele>453.2</ele><time>2026-09-04T23:54:04Z</time></trkpt>
			<trkpt lat="43.233690" lon="44.510920"><ele>454.5</ele><time>2026-09-04T23:54:14Z</time></trkpt>
			<trkpt lat="43.233280" lon="44.511120"><ele>455.0</ele><time>2026-09-04T23:54:24Z</time></trkpt>
			<trkpt lat="43.232570" lon="44.511570"><ele>456.0</ele><time>2026-09-04T23:54:33Z</time></trkpt>
			<trkpt lat="43.230240" lon="44.513320"><ele>458.5</ele><time>2026-09-04T23:54:43Z</time></trkpt>
			<trkpt lat="43.228820" lon="44.514390"><ele>458.7</ele><time>2026-09-04T23:54:53Z</time></trkpt>
			<trkpt lat="43.227440" lon="44.515430"><ele>459.0</ele><time>2026-09-04T23:55:02Z</time></trkpt>
			<trkpt lat="43.226120" lon="44.516490"><ele>459.2</ele><time>2026-09-04T23:55:12Z</time></trkpt>
			<trkpt lat="43.225800" lon="44.516790"><ele>459.4</ele><time>2026-09-04T23:55:21Z</time></trkpt>
			<trkpt lat="43.225610" lon="44.517010"><ele>459.6</ele><time>2026-09-04T23:55:31Z</time></trkpt>
			<trkpt lat="43.225540" lon="44.517090"><ele>459.7</ele><time>2026-09-04T23:55:41Z</time></trkpt>
			<trkpt lat="43.225310" lon="44.517430"><ele>460.0</ele><time>2026-09-04T23:55:50Z</time></trkpt>
			<trkpt lat="43.225260" lon="44.517490"><ele>460.0</ele><time>2026-09-04T23:56:00Z</time></trkpt>
			<trkpt lat="43.224850" lon="44.518250"><ele>460.6</ele><time>2026-09-04T23:56:10Z</time></trkpt>
			<trkpt lat="43.224420" lon="44.519050"><ele>461.2</ele><time>2026-09-04T23:56:19Z</time></trkpt>
			<trkpt lat="43.224250" lon="44.519360"><ele>461.4</ele><time>2026-09-04T23:56:29Z</time></trkpt>
			<trkpt lat="43.223860" lon="44.520100"><ele>462.0</ele><time>2026-09-04T23:56:39Z</time></trkpt>
			<trkpt lat="43.223720" lon="44.520390"><ele>462.2</ele><time>2026-09-04T23:56:48Z</time></trkpt>
			<trkpt lat="43.222930" lon="44.521940"><ele>463.3</ele><time>2026-09-04T23:56:58Z</time></trkpt>
			<trkpt lat="43.222750" lon="44.522120"><ele>463.5</ele><time>2026-09-04T23:57:08Z</time></trkpt>
			<trkpt lat="43.221200" lon="44.524870"><ele>465.4</ele><time>2026-09-04T23:57:17Z</time></trkpt>
			<trkpt lat="43.220810" lon="44.525470"><ele>465.9</ele><time>2026-09-04T23:57:27Z</time></trkpt>
			<trkpt lat="43.219970" lon="44.526650"><ele>466.8</ele><time>2026-09-04T23:57:37Z</time></trkpt>
			<trkpt lat="43.219500" lon="44.527190"><ele>467.2</ele><time>2026-09-04T23:57:46Z</time></trkpt>
			<trkpt lat="43.218800" lon="44.527840"><ele>467.9</ele><time>2026-09-04T23:57:56Z</time></trkpt>
			<trkpt lat="43.216960" lon="44.529430"><ele>469.9</ele><time>2026-09-04T23:58:06Z</time></trkpt>
			<trkpt lat="43.215730" lon="44.530490"><ele>471.3</ele><time>2026-09-04T23:58:15Z</time></trkpt>
			<trkpt lat="43.215190" lon="44.531050"><ele>472.0</ele><time>2026-09-04T23:58:25Z</time></trkpt>
			<trkpt lat="43.214840" lon="44.531480"><ele>472.4</ele><time>2026-09-04T23:58:34Z</time></trkpt>
			<trkpt lat="43.214500" lon="44.531970"><ele>472.9</ele><time>2026-09-04T23:58:44Z</time></trkpt>
			<trkpt lat="43.214050" lon="44.532720"><ele>473.5</ele><time>2026-09-04T23:58:54Z</time></trkpt>
			<trkpt lat="43.213480" lon="44.533950"><ele>474.4</ele><time>2026-09-04T23:59:03Z</time></trkpt>
			<trkpt lat="43.213100" lon="44.535070"><ele>475.2</ele><time>2026-09-04T23:59:13Z</time></trkpt>
			<trkpt lat="43.212720" lon="44.536650"><ele>476.3</ele><time>2026-09-04T23:59:23Z</time></trkpt>
			<trkpt lat="43.212670" lon="44.537050"><ele>476.5</ele><time>2026-09-04T23:59:32Z</time></trkpt>
			<trkpt lat="43.212540" lon="44.538650"><ele>477.6</ele><time>2026-09-04T23:59:42Z</time></trkpt>
			<trkpt lat="43.212370" lon="44.543670"><ele>487.9</ele><time>2026-09-04T23:59:52Z</time></trkpt>
			<trkpt lat="43.212180" lon="44.547650"><ele>493.9</ele><time>2026-09-05T00:00:01Z</time></trkpt>
			<trkpt lat="43.211840" lon="44.551090"><ele>494.4</ele><time>2026-09-05T00:00:11Z</time></trkpt>
			<trkpt lat="43.211420" lon="44.554010"><ele>494.8</ele><time>2026-09-05T00:00:21Z</time></trkpt>
			<trkpt lat="43.210900" lon="44.556760"><ele>494.0</ele><time>2026-09-05T00:00:30Z</time></trkpt>
			<trkpt lat="43.210140" lon="44.559910"><ele>493.0</ele><time>2026-09-05T00:00:40Z</time></trkpt>
			<trkpt lat="43.209360" lon="44.562540"><ele>493.4</ele><time>2026-09-05T00:00:50Z</time></trkpt>
			<trkpt lat="43.205320" lon="44.574010"><ele>499.0</ele><time>2026-09-05T00:00:59Z</time></trkpt>
			<trkpt lat="43.203750" lon="44.578680"><ele>498.2</ele><time>2026-09-05T00:01:09Z</time></trkpt>
			<trkpt lat="43.203510" lon="44.579360"><ele>498.0</ele><time>2026-09-05T00:01:19Z</time></trkpt>
			<trkpt lat="43.203370" lon="44.579790"><ele>497.9</ele><time>2026-09-05T00:01:28Z</time></trkpt>
			<trkpt lat="43.203270" lon="44.580090"><ele>497.9</ele><time>2026-09-05T00:01:38Z</time></trkpt>
			<trkpt lat="43.202980" lon="44.580900"><ele>497.7</ele><time>2026-09-05T00:01:47Z</time></trkpt>
			<trkpt lat="43.202430" lon="44.582500"><ele>498.5</ele><time>2026-09-05T00:01:57Z</time></trkpt>
			<trkpt lat="43.201930" lon="44.583900"><ele>499.4</ele><time>2026-09-05T00:02:07Z</time></trkpt>
			<trkpt lat="43.201490" lon="44.585070"><ele>500.1</ele><time>2026-09-05T00:02:16Z</time></trkpt>
			<trkpt lat="43.200830" lon="44.586450"><ele>501.1</ele><time>2026-09-05T00:02:26Z</time></trkpt>
			<trkpt lat="43.200270" lon="44.587470"><ele>501.8</ele><time>2026-09-05T00:02:36Z</time></trkpt>
			<trkpt lat="43.199640" lon="44.588480"><ele>502.4</ele><time>2026-09-05T00:02:45Z</time></trkpt>
			<trkpt lat="43.199020" lon="44.589320"><ele>503.0</ele><time>2026-09-05T00:02:55Z</time></trkpt>
			<trkpt lat="43.198400" lon="44.590090"><ele>503.5</ele><time>2026-09-05T00:03:05Z</time></trkpt>
			<trkpt lat="43.197610" lon="44.590910"><ele>504.1</ele><time>2026-09-05T00:03:14Z</time></trkpt>
			<trkpt lat="43.196980" lon="44.591440"><ele>504.6</ele><time>2026-09-05T00:03:24Z</time></trkpt>
			<trkpt lat="43.196290" lon="44.591980"><ele>505.1</ele><time>2026-09-05T00:03:34Z</time></trkpt>
			<trkpt lat="43.195380" lon="44.592650"><ele>505.8</ele><time>2026-09-05T00:03:43Z</time></trkpt>
			<trkpt lat="43.195220" lon="44.592750"><ele>505.9</ele><time>2026-09-05T00:03:53Z</time></trkpt>
			<trkpt lat="43.194370" lon="44.593160"><ele>506.5</ele><time>2026-09-05T00:04:03Z</time></trkpt>
			<trkpt lat="43.193360" lon="44.593590"><ele>507.3</ele><time>2026-09-05T00:04:12Z</time></trkpt>
			<trkpt lat="43.192600" lon="44.593840"><ele>507.8</ele><time>2026-09-05T00:04:22Z</time></trkpt>
			<trkpt lat="43.191550" lon="44.594060"><ele>508.6</ele><time>2026-09-05T00:04:32Z</time></trkpt>
			<trkpt lat="43.190610" lon="44.594180"><ele>509.3</ele><time>2026-09-05T00:04:41Z</time></trkpt>
			<trkpt lat="43.189940" lon="44.594200"><ele>510.0</ele><time>2026-09-05T00:04:51Z</time></trkpt>
			<trkpt lat="43.188870" lon="44.594140"><ele>511.1</ele><time>2026-09-05T00:05:00Z</time></trkpt>
			<trkpt lat="43.187290" lon="44.593990"><ele>512.6</ele><time>2026-09-05T00:05:10Z</time></trkpt>
			<trkpt lat="43.185550" lon="44.593800"><ele>514.4</ele><time>2026-09-05T00:05:20Z</time></trkpt>
			<trkpt lat="43.182940" lon="44.593530"><ele>515.2</ele><time>2026-09-05T00:05:29Z</time></trkpt>
			<trkpt lat="43.182130" lon="44.593460"><ele>515.4</ele><time>2026-09-05T00:05:39Z</time></trkpt>
			<trkpt lat="43.181680" lon="44.593550"><ele>515.5</ele><time>2026-09-05T00:05:49Z</time></trkpt>
			<trkpt lat="43.181260" lon="44.593610"><ele>515.6</ele><time>2026-09-05T00:05:58Z</time></trkpt>
			<trkpt lat="43.180800" lon="44.593720"><ele>515.7</ele><time>2026-09-05T00:06:08Z</time></trkpt>
			<trkpt lat="43.180380" lon="44.593890"><ele>515.8</ele><time>2026-09-05T00:06:18Z</time></trkpt>
			<trkpt lat="43.180040" lon="44.594030"><ele>515.9</ele><time>2026-09-05T00:06:27Z</time></trkpt>
			<trkpt lat="43.179370" lon="44.594450"><ele>516.7</ele><time>2026-09-05T00:06:37Z</time></trkpt>
			<trkpt lat="43.178910" lon="44.594830"><ele>517.3</ele><time>2026-09-05T00:06:47Z</time></trkpt>
			<trkpt lat="43.178250" lon="44.595570"><ele>518.4</ele><time>2026-09-05T00:06:56Z</time></trkpt>
			<trkpt lat="43.177920" lon="44.596050"><ele>519.0</ele><time>2026-09-05T00:07:06Z</time></trkpt>
			<trkpt lat="43.177580" lon="44.596630"><ele>519.6</ele><time>2026-09-05T00:07:16Z</time></trkpt>
			<trkpt lat="43.177300" lon="44.597220"><ele>520.2</ele><time>2026-09-05T00:07:25Z</time></trkpt>
			<trkpt lat="43.176990" lon="44.598030"><ele>521.1</ele><time>2026-09-05T00:07:35Z</time></trkpt>
			<trkpt lat="43.176810" lon="44.598640"><ele>521.6</ele><time>2026-09-05T00:07:45Z</time></trkpt>
			<trkpt lat="43.176660" lon="44.599400"><ele>522.3</ele><time>2026-09-05T00:07:54Z</time></trkpt>
			<trkpt lat="43.176570" lon="44.600220"><ele>522.7</ele><time>2026-09-05T00:08:04Z</time></trkpt>
			<trkpt lat="43.176400" lon="44.604320"><ele>524.1</ele><time>2026-09-05T00:08:13Z</time></trkpt>
			<trkpt lat="43.173610" lon="44.663950"><ele>541.0</ele><time>2026-09-05T00:08:23Z</time></trkpt>
			<trkpt lat="43.173000" lon="44.676620"><ele>544.0</ele><time>2026-09-05T00:08:33Z</time></trkpt>
			<trkpt lat="43.172190" lon="44.695340"><ele>549.0</ele><time>2026-09-05T00:08:42Z</time></trkpt>
			<trkpt lat="43.172170" lon="44.695800"><ele>549.0</ele><time>2026-09-05T00:08:52Z</time></trkpt>
			<trkpt lat="43.172050" lon="44.697410"><ele>549.7</ele><time>2026-09-05T00:09:02Z</time></trkpt>
			<trkpt lat="43.172000" lon="44.698150"><ele>550.4</ele><time>2026-09-05T00:09:11Z</time></trkpt>
			<trkpt lat="43.171610" lon="44.705850"><ele>554.2</ele><time>2026-09-05T00:09:21Z</time></trkpt>
			<trkpt lat="43.171610" lon="44.707040"><ele>553.5</ele><time>2026-09-05T00:09:31Z</time></trkpt>
			<trkpt lat="43.171610" lon="44.708010"><ele>553.0</ele><time>2026-09-05T00:09:40Z</time></trkpt>
			<trkpt lat="43.171660" lon="44.708930"><ele>552.5</ele><time>2026-09-05T00:09:50Z</time></trkpt>
			<trkpt lat="43.171720" lon="44.709810"><ele>552.0</ele><time>2026-09-05T00:10:00Z</time></trkpt>
			<trkpt lat="43.172030" lon="44.712300"><ele>551.4</ele><time>2026-09-05T00:10:09Z</time></trkpt>
			<trkpt lat="43.172030" lon="44.712740"><ele>551.4</ele><time>2026-09-05T00:10:19Z</time></trkpt>
			<trkpt lat="43.171990" lon="44.712800"><ele>551.4</ele><time>2026-09-05T00:10:29Z</time></trkpt>
			<trkpt lat="43.171970" lon="44.712870"><ele>551.5</ele><time>2026-09-05T00:10:38Z</time></trkpt>
			<trkpt lat="43.171970" lon="44.712950"><ele>551.5</ele><time>2026-09-05T00:10:48Z</time></trkpt>
			<trkpt lat="43.171980" lon="44.713020"><ele>551.5</ele><time>2026-09-05T00:10:57Z</time></trkpt>
			<trkpt lat="43.172020" lon="44.713080"><ele>551.5</ele><time>2026-09-05T00:11:07Z</time></trkpt>
			<trkpt lat="43.172070" lon="44.713130"><ele>551.5</ele><time>2026-09-05T00:11:17Z</time></trkpt>
			<trkpt lat="43.172160" lon="44.713360"><ele>551.6</ele><time>2026-09-05T00:11:26Z</time></trkpt>
			<trkpt lat="43.172160" lon="44.713360"><ele>551.6</ele><time>2026-09-05T00:11:38Z</time></trkpt>
			<trkpt lat="43.172240" lon="44.713560"><ele>551.6</ele><time>2026-09-05T00:11:49Z</time></trkpt>
			<trkpt lat="43.172360" lon="44.714230"><ele>551.7</ele><time>2026-09-05T00:12:00Z</time></trkpt>
			<trkpt lat="43.172530" lon="44.715220"><ele>551.9</ele><time>2026-09-05T00:12:12Z</time></trkpt>
			<trkpt lat="43.172590" lon="44.715520"><ele>552.0</ele><time>2026-09-05T00:12:23Z</time></trkpt>
			<trkpt lat="43.172700" lon="44.716170"><ele>552.1</ele><time>2026-09-05T00:12:34Z</time></trkpt>
			<trkpt lat="43.173130" lon="44.718560"><ele>552.5</ele><time>2026-09-05T00:12:45Z</time></trkpt>
			<trkpt lat="43.173260" lon="44.719270"><ele>552.6</ele><time>2026-09-05T00:12:57Z</time></trkpt>
			<trkpt lat="43.173400" lon="44.719930"><ele>552.6</ele><time>2026-09-05T00:13:08Z</time></trkpt>
			<trkpt lat="43.173610" lon="44.720810"><ele>552.7</ele><time>2026-09-05T00:13:19Z</time></trkpt>
			<trkpt lat="43.173730" lon="44.721280"><ele>552.7</ele><time>2026-09-05T00:13:30Z</time></trkpt>
			<trkpt lat="43.173930" lon="44.721950"><ele>552.7</ele><time>2026-09-05T00:13:42Z</time></trkpt>
			<trkpt lat="43.174200" lon="44.722870"><ele>552.8</ele><time>2026-09-05T00:13:53Z</time></trkpt>
			<trkpt lat="43.174630" lon="44.724080"><ele>552.8</ele><time>2026-09-05T00:14:04Z</time></trkpt>
			<trkpt lat="43.175090" lon="44.725220"><ele>552.9</ele><time>2026-09-05T00:14:16Z</time></trkpt>
			<trkpt lat="43.175580" lon="44.726300"><ele>552.0</ele><time>2026-09-05T00:14:27Z</time></trkpt>
			<trkpt lat="43.175920" lon="44.727000"><ele>551.3</ele><time>2026-09-05T00:14:38Z</time></trkpt>
			<trkpt lat="43.176290" lon="44.727700"><ele>550.6</ele><time>2026-09-05T00:14:49Z</time></trkpt>
			<trkpt lat="43.176740" lon="44.728480"><ele>549.8</ele><time>2026-09-05T00:15:01Z</time></trkpt>
			<trkpt lat="43.178260" lon="44.730950"><ele>547.1</ele><time>2026-09-05T00:15:12Z</time></trkpt>
			<trkpt lat="43.180120" lon="44.734000"><ele>547.8</ele><time>2026-09-05T00:15:23Z</time></trkpt>
			<trkpt lat="43.180330" lon="44.734320"><ele>547.9</ele><time>2026-09-05T00:15:34Z</time></trkpt>
			<trkpt lat="43.180560" lon="44.734730"><ele>548.1</ele><time>2026-09-05T00:15:46Z</time></trkpt>
			<trkpt lat="43.180820" lon="44.735190"><ele>548.3</ele><time>2026-09-05T00:15:57Z</time></trkpt>
			<trkpt lat="43.182040" lon="44.737170"><ele>549.0</ele><time>2026-09-05T00:16:08Z</time></trkpt>
			<trkpt lat="43.183630" lon="44.739810"><ele>547.6</ele><time>2026-09-05T00:16:20Z</time></trkpt>
			<trkpt lat="43.185240" lon="44.742470"><ele>546.3</ele><time>2026-09-05T00:16:31Z</time></trkpt>
			<trkpt lat="43.185670" lon="44.743220"><ele>545.9</ele><time>2026-09-05T00:16:42Z</time></trkpt>
			<trkpt lat="43.185820" lon="44.743560"><ele>545.7</ele><time>2026-09-05T00:16:53Z</time></trkpt>
			<trkpt lat="43.186720" lon="44.745130"><ele>544.8</ele><time>2026-09-05T00:17:05Z</time></trkpt>
			<trkpt lat="43.187320" lon="44.746110"><ele>544.3</ele><time>2026-09-05T00:17:16Z</time></trkpt>
			<trkpt lat="43.189280" lon="44.749150"><ele>541.5</ele><time>2026-09-05T00:17:27Z</time></trkpt>
			<trkpt lat="43.189540" lon="44.749620"><ele>540.6</ele><time>2026-09-05T00:17:38Z</time></trkpt>
			<trkpt lat="43.190140" lon="44.750650"><ele>538.5</ele><time>2026-09-05T00:17:50Z</time></trkpt>
			<trkpt lat="43.191250" lon="44.752450"><ele>534.8</ele><time>2026-09-05T00:18:01Z</time></trkpt>
			<trkpt lat="43.191580" lon="44.752980"><ele>533.7</ele><time>2026-09-05T00:18:12Z</time></trkpt>
			<trkpt lat="43.191770" lon="44.753310"><ele>533.1</ele><time>2026-09-05T00:18:24Z</time></trkpt>
			<trkpt lat="43.192410" lon="44.754390"><ele>531.0</ele><time>2026-09-05T00:18:35Z</time></trkpt>
			<trkpt lat="43.192930" lon="44.755340"><ele>530.9</ele><time>2026-09-05T00:18:46Z</time></trkpt>
			<trkpt lat="43.193250" lon="44.755990"><ele>530.9</ele><time>2026-09-05T00:18:57Z</time></trkpt>
			<trkpt lat="43.193440" lon="44.756360"><ele>530.8</ele><time>2026-09-05T00:19:09Z</time></trkpt>
			<trkpt lat="43.193820" lon="44.757180"><ele>530.7</ele><time>2026-09-05T00:19:20Z</time></trkpt>
			<trkpt lat="43.194200" lon="44.758040"><ele>530.7</ele><time>2026-09-05T00:19:31Z</time></trkpt>
			<trkpt lat="43.194410" lon="44.758590"><ele>530.6</ele><time>2026-09-05T00:19:42Z</time></trkpt>
			<trkpt lat="43.194770" lon="44.759570"><ele>530.5</ele><time>2026-09-05T00:19:54Z</time></trkpt>
			<trkpt lat="43.195120" lon="44.760630"><ele>530.4</ele><time>2026-09-05T00:20:05Z</time></trkpt>
			<trkpt lat="43.195420" lon="44.761580"><ele>530.1</ele><time>2026-09-05T00:20:16Z</time></trkpt>
			<trkpt lat="43.196360" lon="44.764440"><ele>529.1</ele><time>2026-09-05T00:20:27Z</time></trkpt>
			<trkpt lat="43.196570" lon="44.765120"><ele>528.9</ele><time>2026-09-05T00:20:39Z</time></trkpt>
			<trkpt lat="43.197510" lon="44.768000"><ele>528.4</ele><time>2026-09-05T00:20:50Z</time></trkpt>
			<trkpt lat="43.201770" lon="44.781390"><ele>530.2</ele><time>2026-09-05T00:21:01Z</time></trkpt>
			<trkpt lat="43.201890" lon="44.781750"><ele>530.5</ele><time>2026-09-05T00:21:13Z</time></trkpt>
			<trkpt lat="43.202550" lon="44.783550"><ele>532.0</ele><time>2026-09-05T00:21:24Z</time></trkpt>
			<trkpt lat="43.203970" lon="44.786610"><ele>534.6</ele><time>2026-09-05T00:21:35Z</time></trkpt>
			<trkpt lat="43.204240" lon="44.787060"><ele>535.1</ele><time>2026-09-05T00:21:46Z</time></trkpt>
			<trkpt lat="43.204980" lon="44.788330"><ele>535.3</ele><time>2026-09-05T00:21:58Z</time></trkpt>
			<trkpt lat="43.205850" lon="44.789570"><ele>534.9</ele><time>2026-09-05T00:22:09Z</time></trkpt>
			<trkpt lat="43.207140" lon="44.791150"><ele>534.2</ele><time>2026-09-05T00:22:20Z</time></trkpt>
			<trkpt lat="43.208260" lon="44.792200"><ele>533.8</ele><time>2026-09-05T00:22:31Z</time></trkpt>
			<trkpt lat="43.209510" lon="44.793340"><ele>533.6</ele><time>2026-09-05T00:22:43Z</time></trkpt>
			<trkpt lat="43.209990" lon="44.793710"><ele>533.6</ele><time>2026-09-05T00:22:54Z</time></trkpt>
			<trkpt lat="43.211540" lon="44.794840"><ele>533.5</ele><time>2026-09-05T00:23:05Z</time></trkpt>
			<trkpt lat="43.213320" lon="44.795690"><ele>533.5</ele><time>2026-09-05T00:23:17Z</time></trkpt>
			<trkpt lat="43.214160" lon="44.796020"><ele>534.4</ele><time>2026-09-05T00:23:28Z</time></trkpt>
			<trkpt lat="43.215130" lon="44.796450"><ele>535.7</ele><time>2026-09-05T00:23:39Z</time></trkpt>
			<trkpt lat="43.215570" lon="44.796630"><ele>536.3</ele><time>2026-09-05T00:23:50Z</time></trkpt>
			<trkpt lat="43.216980" lon="44.797120"><ele>538.1</ele><time>2026-09-05T00:24:02Z</time></trkpt>
			<trkpt lat="43.218350" lon="44.797640"><ele>539.9</ele><time>2026-09-05T00:24:13Z</time></trkpt>
			<trkpt lat="43.220560" lon="44.798480"><ele>540.9</ele><time>2026-09-05T00:24:24Z</time></trkpt>
			<trkpt lat="43.221910" lon="44.799160"><ele>541.2</ele><time>2026-09-05T00:24:35Z</time></trkpt>
			<trkpt lat="43.222630" lon="44.799450"><ele>541.4</ele><time>2026-09-05T00:24:47Z</time></trkpt>
			<trkpt lat="43.224070" lon="44.799840"><ele>541.8</ele><time>2026-09-05T00:24:58Z</time></trkpt>
			<trkpt lat="43.224850" lon="44.800120"><ele>542.1</ele><time>2026-09-05T00:25:09Z</time></trkpt>
			<trkpt lat="43.225070" lon="44.800190"><ele>542.2</ele><time>2026-09-05T00:25:21Z</time></trkpt>
			<trkpt lat="43.225620" lon="44.800460"><ele>542.4</ele><time>2026-09-05T00:25:32Z</time></trkpt>
			<trkpt lat="43.226830" lon="44.801030"><ele>542.8</ele><time>2026-09-05T00:25:43Z</time></trkpt>
			<trkpt lat="43.227610" lon="44.801520"><ele>543.1</ele><time>2026-09-05T00:25:54Z</time></trkpt>
			<trkpt lat="43.228380" lon="44.802050"><ele>543.5</ele><time>2026-09-05T00:26:06Z</time></trkpt>
			<trkpt lat="43.228690" lon="44.802290"><ele>543.6</ele><time>2026-09-05T00:26:17Z</time></trkpt>
			<trkpt lat="43.229610" lon="44.803070"><ele>541.8</ele><time>2026-09-05T00:26:28Z</time></trkpt>
			<trkpt lat="43.229840" lon="44.803310"><ele>541.0</ele><time>2026-09-05T00:26:39Z</time></trkpt>
			<trkpt lat="43.230370" lon="44.803870"><ele>539.3</ele><time>2026-09-05T00:26:51Z</time></trkpt>
			<trkpt lat="43.230880" lon="44.804440"><ele>537.5</ele><time>2026-09-05T00:27:02Z</time></trkpt>
			<trkpt lat="43.231190" lon="44.804740"><ele>536.5</ele><time>2026-09-05T00:27:13Z</time></trkpt>
			<trkpt lat="43.231610" lon="44.805050"><ele>535.3</ele><time>2026-09-05T00:27:25Z</time></trkpt>
			<trkpt lat="43.232740" lon="44.805720"><ele>532.1</ele><time>2026-09-05T00:27:36Z</time></trkpt>
			<trkpt lat="43.233280" lon="44.806060"><ele>530.5</ele><time>2026-09-05T00:27:47Z</time></trkpt>
			<trkpt lat="43.233510" lon="44.806210"><ele>529.9</ele><time>2026-09-05T00:27:58Z</time></trkpt>
			<trkpt lat="43.234100" lon="44.806530"><ele>528.1</ele><time>2026-09-05T00:28:10Z</time></trkpt>
			<trkpt lat="43.234860" lon="44.807000"><ele>525.8</ele><time>2026-09-05T00:28:21Z</time></trkpt>
			<trkpt lat="43.235140" lon="44.807080"><ele>524.9</ele><time>2026-09-05T00:28:32Z</time></trkpt>
			<trkpt lat="43.236960" lon="44.808150"><ele>519.4</ele><time>2026-09-05T00:28:43Z</time></trkpt>
			<trkpt lat="43.237490" lon="44.808450"><ele>517.8</ele><time>2026-09-05T00:28:55Z</time></trkpt>
			<trkpt lat="43.238090" lon="44.808760"><ele>516.0</ele><time>2026-09-05T00:29:06Z</time></trkpt>
			<trkpt lat="43.240440" lon="44.810140"><ele>512.9</ele><time>2026-09-05T00:29:17Z</time></trkpt>
			<trkpt lat="43.240530" lon="44.810190"><ele>512.9</ele><time>2026-09-05T00:29:29Z</time></trkpt>
			<trkpt lat="43.241370" lon="44.810680"><ele>512.3</ele><time>2026-09-05T00:29:40Z</time></trkpt>
			<trkpt lat="43.242180" lon="44.811140"><ele>511.7</ele><time>2026-09-05T00:29:51Z</time></trkpt>
			<trkpt lat="43.242240" lon="44.811180"><ele>511.7</ele><time>2026-09-05T00:30:02Z</time></trkpt>
			<trkpt lat="43.243580" lon="44.811860"><ele>510.8</ele><time>2026-09-05T00:30:14Z</time></trkpt>
			<trkpt lat="43.244610" lon="44.812370"><ele>506.4</ele><time>2026-09-05T00:30:25Z</time></trkpt>
			<trkpt lat="43.245330" lon="44.812660"><ele>502.9</ele><time>2026-09-05T00:30:36Z</time></trkpt>
			<trkpt lat="43.245430" lon="44.812700"><ele>502.4</ele><time>2026-09-05T00:30:47Z</time></trkpt>
			<trkpt lat="43.246120" lon="44.813050"><ele>499.1</ele><time>2026-09-05T00:30:59Z</time></trkpt>
			<trkpt lat="43.246890" lon="44.813470"><ele>495.3</ele><time>2026-09-05T00:31:10Z</time></trkpt>
			<trkpt lat="43.247790" lon="44.813800"><ele>491.0</ele><time>2026-09-05T00:31:21Z</time></trkpt>
			<trkpt lat="43.248970" lon="44.814370"><ele>485.4</ele><time>2026-09-05T00:31:33Z</time></trkpt>
			<trkpt lat="43.250090" lon="44.815100"><ele>481.4</ele><time>2026-09-05T00:31:44Z</time></trkpt>
			<trkpt lat="43.251010" lon="44.815570"><ele>478.2</ele><time>2026-09-05T00:31:55Z</time></trkpt>
			<trkpt lat="43.251040" lon="44.815570"><ele>478.1</ele><time>2026-09-05T00:32:06Z</time></trkpt>
			<trkpt lat="43.252470" lon="44.815870"><ele>473.4</ele><time>2026-09-05T00:32:18Z</time></trkpt>
			<trkpt lat="43.253190" lon="44.816170"><ele>471.0</ele><time>2026-09-05T00:32:29Z</time></trkpt>
			<trkpt lat="43.253800" lon="44.816580"><ele>468.8</ele><time>2026-09-05T00:32:40Z</time></trkpt>
			<trkpt lat="43.254580" lon="44.817300"><ele>468.1</ele><time>2026-09-05T00:32:51Z</time></trkpt>
			<trkpt lat="43.255290" lon="44.818090"><ele>468.0</ele><time>2026-09-05T00:33:03Z</time></trkpt>
			<trkpt lat="43.255520" lon="44.818350"><ele>468.0</ele><time>2026-09-05T00:33:14Z</time></trkpt>
			<trkpt lat="43.255990" lon="44.819100"><ele>467.9</ele><time>2026-09-05T00:33:25Z</time></trkpt>
			<trkpt lat="43.256260" lon="44.819610"><ele>467.9</ele><time>2026-09-05T00:33:37Z</time></trkpt>
			<trkpt lat="43.256580" lon="44.820320"><ele>467.8</ele><time>2026-09-05T00:33:48Z</time></trkpt>
			<trkpt lat="43.256950" lon="44.821350"><ele>467.8</ele><time>2026-09-05T00:33:59Z</time></trkpt>
			<trkpt lat="43.257390" lon="44.823540"><ele>466.1</ele><time>2026-09-05T00:34:10Z</time></trkpt>
			<trkpt lat="43.257450" lon="44.824090"><ele>465.2</ele><time>2026-09-05T00:34:22Z</time></trkpt>
			<trkpt lat="43.257780" lon="44.825770"><ele>462.5</ele><time>2026-09-05T00:34:33Z</time></trkpt>
			<trkpt lat="43.257940" lon="44.826330"><ele>461.5</ele><time>2026-09-05T00:34:44Z</time></trkpt>
			<trkpt lat="43.258070" lon="44.826860"><ele>460.6</ele><time>2026-09-05T00:34:55Z</time></trkpt>
			<trkpt lat="43.258270" lon="44.827520"><ele>459.5</ele><time>2026-09-05T00:35:07Z</time></trkpt>
			<trkpt lat="43.258460" lon="44.828110"><ele>458.5</ele><time>2026-09-05T00:35:18Z</time></trkpt>
			<trkpt lat="43.258960" lon="44.829880"><ele>455.9</ele><time>2026-09-05T00:35:29Z</time></trkpt>
			<trkpt lat="43.259150" lon="44.830430"><ele>455.8</ele><time>2026-09-05T00:35:41Z</time></trkpt>
			<trkpt lat="43.259200" lon="44.830540"><ele>455.8</ele><time>2026-09-05T00:35:52Z</time></trkpt>
			<trkpt lat="43.259430" lon="44.831060"><ele>455.6</ele><time>2026-09-05T00:36:03Z</time></trkpt>
			<trkpt lat="43.259470" lon="44.831140"><ele>455.6</ele><time>2026-09-05T00:36:14Z</time></trkpt>
			<trkpt lat="43.259850" lon="44.831830"><ele>455.4</ele><time>2026-09-05T00:36:26Z</time></trkpt>
			<trkpt lat="43.260410" lon="44.832690"><ele>455.2</ele><time>2026-09-05T00:36:37Z</time></trkpt>
			<trkpt lat="43.261110" lon="44.833790"><ele>454.8</ele><time>2026-09-05T00:36:48Z</time></trkpt>
			<trkpt lat="43.261800" lon="44.834810"><ele>454.5</ele><time>2026-09-05T00:36:59Z</time></trkpt>
			<trkpt lat="43.263080" lon="44.836450"><ele>454.3</ele><time>2026-09-05T00:37:11Z</time></trkpt>
			<trkpt lat="43.263320" lon="44.836750"><ele>454.3</ele><time>2026-09-05T00:37:22Z</time></trkpt>
			<trkpt lat="43.263480" lon="44.836950"><ele>454.3</ele><time>2026-09-05T00:37:33Z</time></trkpt>
			<trkpt lat="43.264010" lon="44.837640"><ele>454.3</ele><time>2026-09-05T00:37:45Z</time></trkpt>
			<trkpt lat="43.264560" lon="44.838320"><ele>454.3</ele><time>2026-09-05T00:37:56Z</time></trkpt>
			<trkpt lat="43.266230" lon="44.840410"><ele>454.3</ele><time>2026-09-05T00:38:07Z</time></trkpt>
			<trkpt lat="43.268220" lon="44.842930"><ele>450.1</ele><time>2026-09-05T00:38:18Z</time></trkpt>
			<trkpt lat="43.268810" lon="44.843710"><ele>448.8</ele><time>2026-09-05T00:38:30Z</time></trkpt>
			<trkpt lat="43.269270" lon="44.844350"><ele>447.8</ele><time>2026-09-05T00:38:41Z</time></trkpt>
			<trkpt lat="43.269720" lon="44.845040"><ele>446.7</ele><time>2026-09-05T00:38:52Z</time></trkpt>
			<trkpt lat="43.270210" lon="44.845850"><ele>445.9</ele><time>2026-09-05T00:39:03Z</time></trkpt>
			<trkpt lat="43.270460" lon="44.846280"><ele>446.8</ele><time>2026-09-05T00:39:15Z</time></trkpt>
			<trkpt lat="43.270680" lon="44.846670"><ele>447.5</ele><time>2026-09-05T00:39:26Z</time></trkpt>
			<trkpt lat="43.271450" lon="44.848290"><ele>450.4</ele><time>2026-09-05T00:39:37Z</time></trkpt>
			<trkpt lat="43.272360" lon="44.850480"><ele>454.2</ele><time>2026-09-05T00:39:48Z</time></trkpt>
			<trkpt lat="43.273480" lon="44.853280"><ele>460.5</ele><time>2026-09-05T00:40:00Z</time></trkpt>
			<trkpt lat="43.275170" lon="44.857580"><ele>473.1</ele><time>2026-09-05T00:40:11Z</time></trkpt>
			<trkpt lat="43.276070" lon="44.859940"><ele>475.9</ele><time>2026-09-05T00:40:22Z</time></trkpt>
			<trkpt lat="43.276530" lon="44.861160"><ele>475.6</ele><time>2026-09-05T00:40:34Z</time></trkpt>
			<trkpt lat="43.277690" lon="44.864340"><ele>474.9</ele><time>2026-09-05T00:40:45Z</time></trkpt>
			<trkpt lat="43.278390" lon="44.866330"><ele>475.4</ele><time>2026-09-05T00:40:56Z</time></trkpt>
			<trkpt lat="43.279060" lon="44.868140"><ele>476.7</ele><time>2026-09-05T00:41:07Z</time></trkpt>
			<trkpt lat="43.279450" lon="44.869220"><ele>477.4</ele><time>2026-09-05T00:41:19Z</time></trkpt>
			<trkpt lat="43.281080" lon="44.873690"><ele>476.3</ele><time>2026-09-05T00:41:30Z</time></trkpt>
			<trkpt lat="43.281710" lon="44.875470"><ele>473.1</ele><time>2026-09-05T00:41:41Z</time></trkpt>
			<trkpt lat="43.282510" lon="44.877780"><ele>468.9</ele><time>2026-09-05T00:41:52Z</time></trkpt>
			<trkpt lat="43.282930" lon="44.879090"><ele>466.9</ele><time>2026-09-05T00:42:04Z</time></trkpt>
			<trkpt lat="43.283260" lon="44.880220"><ele>466.1</ele><time>2026-09-05T00:42:15Z</time></trkpt>
			<trkpt lat="43.283630" lon="44.881530"><ele>465.1</ele><time>2026-09-05T00:42:26Z</time></trkpt>
			<trkpt lat="43.284070" lon="44.883240"><ele>463.8</ele><time>2026-09-05T00:42:38Z</time></trkpt>
			<trkpt lat="43.284750" lon="44.886020"><ele>461.7</ele><time>2026-09-05T00:42:49Z</time></trkpt>
			<trkpt lat="43.285230" lon="44.887980"><ele>460.5</ele><time>2026-09-05T00:43:00Z</time></trkpt>
			<trkpt lat="43.285530" lon="44.889430"><ele>459.6</ele><time>2026-09-05T00:43:11Z</time></trkpt>
			<trkpt lat="43.285750" lon="44.890230"><ele>459.1</ele><time>2026-09-05T00:43:23Z</time></trkpt>
			<trkpt lat="43.286100" lon="44.891450"><ele>458.4</ele><time>2026-09-05T00:43:34Z</time></trkpt>
			<trkpt lat="43.286480" lon="44.893150"><ele>456.9</ele><time>2026-09-05T00:43:45Z</time></trkpt>
			<trkpt lat="43.286910" lon="44.894970"><ele>453.2</ele><time>2026-09-05T00:43:56Z</time></trkpt>
			<trkpt lat="43.286970" lon="44.895270"><ele>452.6</ele><time>2026-09-05T00:44:08Z</time></trkpt>
			<trkpt lat="43.287470" lon="44.897860"><ele>447.4</ele><time>2026-09-05T00:44:19Z</time></trkpt>
			<trkpt lat="43.287880" lon="44.900390"><ele>442.8</ele><time>2026-09-05T00:44:30Z</time></trkpt>
			<trkpt lat="43.288000" lon="44.901170"><ele>442.4</ele><time>2026-09-05T00:44:42Z</time></trkpt>
			<trkpt lat="43.288060" lon="44.901840"><ele>442.0</ele><time>2026-09-05T00:44:53Z</time></trkpt>
			<trkpt lat="43.288200" lon="44.903510"><ele>441.2</ele><time>2026-09-05T00:45:04Z</time></trkpt>
			<trkpt lat="43.288230" lon="44.903760"><ele>441.1</ele><time>2026-09-05T00:45:15Z</time></trkpt>
			<trkpt lat="43.288390" lon="44.904830"><ele>440.5</ele><time>2026-09-05T00:45:27Z</time></trkpt>
			<trkpt lat="43.288710" lon="44.906570"><ele>439.6</ele><time>2026-09-05T00:45:38Z</time></trkpt>
			<trkpt lat="43.288990" lon="44.908380"><ele>437.5</ele><time>2026-09-05T00:45:49Z</time></trkpt>
			<trkpt lat="43.290110" lon="44.916540"><ele>425.3</ele><time>2026-09-05T00:46:00Z</time></trkpt>
			<trkpt lat="43.290170" lon="44.917030"><ele>424.9</ele><time>2026-09-05T00:46:12Z</time></trkpt>
			<trkpt lat="43.290300" lon="44.918450"><ele>423.8</ele><time>2026-09-05T00:46:23Z</time></trkpt>
			<trkpt lat="43.290360" lon="44.919310"><ele>423.1</ele><time>2026-09-05T00:46:34Z</time></trkpt>
			<trkpt lat="43.290440" lon="44.921260"><ele>421.5</ele><time>2026-09-05T00:46:46Z</time></trkpt>
			<trkpt lat="43.290440" lon="44.921810"><ele>421.1</ele><time>2026-09-05T00:46:57Z</time></trkpt>
			<trkpt lat="43.290410" lon="44.923300"><ele>419.5</ele><time>2026-09-05T00:47:08Z</time></trkpt>
			<trkpt lat="43.290370" lon="44.924580"><ele>418.0</ele><time>2026-09-05T00:47:19Z</time></trkpt>
			<trkpt lat="43.290370" lon="44.925190"><ele>417.3</ele><time>2026-09-05T00:47:31Z</time></trkpt>
			<trkpt lat="43.290330" lon="44.926380"><ele>415.9</ele><time>2026-09-05T00:47:42Z</time></trkpt>
			<trkpt lat="43.290310" lon="44.926900"><ele>415.3</ele><time>2026-09-05T00:47:53Z</time></trkpt>
			<trkpt lat="43.290210" lon="44.930900"><ele>411.0</ele><time>2026-09-05T00:48:04Z</time></trkpt>
			<trkpt lat="43.290160" lon="44.931950"><ele>410.1</ele><time>2026-09-05T00:48:16Z</time></trkpt>
			<trkpt lat="43.290050" lon="44.934440"><ele>408.0</ele><time>2026-09-05T00:48:27Z</time></trkpt>
			<trkpt lat="43.289970" lon="44.935360"><ele>407.2</ele><time>2026-09-05T00:48:38Z</time></trkpt>
			<trkpt lat="43.289830" lon="44.937480"><ele>405.3</ele><time>2026-09-05T00:48:50Z</time></trkpt>
			<trkpt lat="43.289780" lon="44.938550"><ele>403.9</ele><time>2026-09-05T00:49:01Z</time></trkpt>
			<trkpt lat="43.289840" lon="44.940790"><ele>401.0</ele><time>2026-09-05T00:49:12Z</time></trkpt>
			<trkpt lat="43.289560" lon="44.950910"><ele>388.4</ele><time>2026-09-05T00:49:23Z</time></trkpt>
			<trkpt lat="43.289630" lon="44.951960"><ele>387.1</ele><time>2026-09-05T00:49:35Z</time></trkpt>
			<trkpt lat="43.289600" lon="44.953230"><ele>385.9</ele><time>2026-09-05T00:49:46Z</time></trkpt>
			<trkpt lat="43.289460" lon="44.954450"><ele>384.8</ele><time>2026-09-05T00:49:57Z</time></trkpt>
			<trkpt lat="43.289330" lon="44.957280"><ele>382.2</ele><time>2026-09-05T00:50:08Z</time></trkpt>
			<trkpt lat="43.288300" lon="44.970300"><ele>370.4</ele><time>2026-09-05T00:50:20Z</time></trkpt>
			<trkpt lat="43.288210" lon="44.971300"><ele>369.4</ele><time>2026-09-05T00:50:31Z</time></trkpt>
			<trkpt lat="43.287930" lon="44.973370"><ele>367.4</ele><time>2026-09-05T00:50:42Z</time></trkpt>
			<trkpt lat="43.287790" lon="44.974730"><ele>366.1</ele><time>2026-09-05T00:50:54Z</time></trkpt>
			<trkpt lat="43.287750" lon="44.975480"><ele>365.3</ele><time>2026-09-05T00:51:05Z</time></trkpt>
			<trkpt lat="43.287670" lon="44.976690"><ele>364.0</ele><time>2026-09-05T00:51:16Z</time></trkpt>
			<trkpt lat="43.287630" lon="44.978520"><ele>362.1</ele><time>2026-09-05T00:51:27Z</time></trkpt>
			<trkpt lat="43.287570" lon="44.979430"><ele>361.1</ele><time>2026-09-05T00:51:39Z</time></trkpt>
			<trkpt lat="43.287480" lon="44.980490"><ele>360.0</ele><time>2026-09-05T00:51:50Z</time></trkpt>
			<trkpt lat="43.285450" lon="45.005750"><ele>341.3</ele><time>2026-09-05T00:52:01Z</time></trkpt>
			<trkpt lat="43.285390" lon="45.006390"><ele>341.1</ele><time>2026-09-05T00:52:12Z</time></trkpt>
			<trkpt lat="43.285260" lon="45.008110"><ele>340.4</ele><time>2026-09-05T00:52:24Z</time></trkpt>
			<trkpt lat="43.284910" lon="45.012130"><ele>339.0</ele><time>2026-09-05T00:52:35Z</time></trkpt>
			<trkpt lat="43.284810" lon="45.013310"><ele>339.0</ele><time>2026-09-05T00:52:46Z</time></trkpt>
			<trkpt lat="43.284610" lon="45.014590"><ele>339.0</ele><time>2026-09-05T00:52:58Z</time></trkpt>
			<trkpt lat="43.284310" lon="45.015770"><ele>339.0</ele><time>2026-09-05T00:53:09Z</time></trkpt>
			<trkpt lat="43.284220" lon="45.016280"><ele>339.0</ele><time>2026-09-05T00:53:20Z</time></trkpt>
			<trkpt lat="43.284160" lon="45.016530"><ele>339.0</ele><time>2026-09-05T00:53:31Z</time></trkpt>
			<trkpt lat="43.284120" lon="45.017010"><ele>339.0</ele><time>2026-09-05T00:53:43Z</time></trkpt>
			<trkpt lat="43.284090" lon="45.017740"><ele>339.0</ele><time>2026-09-05T00:53:54Z</time></trkpt>
			<trkpt lat="43.284120" lon="45.018410"><ele>339.0</ele><time>2026-09-05T00:54:05Z</time></trkpt>
			<trkpt lat="43.284230" lon="45.019520"><ele>339.2</ele><time>2026-09-05T00:54:16Z</time></trkpt>
			<trkpt lat="43.284270" lon="45.020780"><ele>339.7</ele><time>2026-09-05T00:54:28Z</time></trkpt>
			<trkpt lat="43.283040" lon="45.050020"><ele>346.2</ele><time>2026-09-05T00:54:39Z</time></trkpt>
			<trkpt lat="43.282910" lon="45.053190"><ele>345.6</ele><time>2026-09-05T00:54:50Z</time></trkpt>
			<trkpt lat="43.282440" lon="45.064590"><ele>343.4</ele><time>2026-09-05T00:55:02Z</time></trkpt>
			<trkpt lat="43.282410" lon="45.066010"><ele>342.6</ele><time>2026-09-05T00:55:13Z</time></trkpt>
			<trkpt lat="43.282030" lon="45.075610"><ele>338.4</ele><time>2026-09-05T00:55:24Z</time></trkpt>
			<trkpt lat="43.281830" lon="45.078180"><ele>337.7</ele><time>2026-09-05T00:55:35Z</time></trkpt>
			<trkpt lat="43.281150" lon="45.084590"><ele>334.2</ele><time>2026-09-05T00:55:47Z</time></trkpt>
			<trkpt lat="43.279890" lon="45.096930"><ele>328.0</ele><time>2026-09-05T00:55:58Z</time></trkpt>
			<trkpt lat="43.279870" lon="45.097120"><ele>327.9</ele><time>2026-09-05T00:56:09Z</time></trkpt>
			<trkpt lat="43.279380" lon="45.101320"><ele>325.4</ele><time>2026-09-05T00:56:20Z</time></trkpt>
			<trkpt lat="43.277920" lon="45.114870"><ele>315.5</ele><time>2026-09-05T00:56:32Z</time></trkpt>
			<trkpt lat="43.276420" lon="45.129270"><ele>305.3</ele><time>2026-09-05T00:56:43Z</time></trkpt>
			<trkpt lat="43.275780" lon="45.133840"><ele>301.8</ele><time>2026-09-05T00:56:54Z</time></trkpt>
			<trkpt lat="43.275540" lon="45.135680"><ele>300.2</ele><time>2026-09-05T00:57:06Z</time></trkpt>
			<trkpt lat="43.275490" lon="45.136100"><ele>299.8</ele><time>2026-09-05T00:57:17Z</time></trkpt>
			<trkpt lat="43.275360" lon="45.138260"><ele>297.9</ele><time>2026-09-05T00:57:28Z</time></trkpt>
			<trkpt lat="43.275280" lon="45.140020"><ele>296.1</ele><time>2026-09-05T00:57:39Z</time></trkpt>
			<trkpt lat="43.275050" lon="45.141980"><ele>294.1</ele><time>2026-09-05T00:57:51Z</time></trkpt>
			<trkpt lat="43.274980" lon="45.142510"><ele>293.5</ele><time>2026-09-05T00:58:02Z</time></trkpt>
			<trkpt lat="43.274740" lon="45.144580"><ele>291.4</ele><time>2026-09-05T00:58:13Z</time></trkpt>
			<trkpt lat="43.274360" lon="45.147080"><ele>289.3</ele><time>2026-09-05T00:58:24Z</time></trkpt>
			<trkpt lat="43.274250" lon="45.148140"><ele>288.5</ele><time>2026-09-05T00:58:36Z</time></trkpt>
			<trkpt lat="43.274030" lon="45.150050"><ele>286.9</ele><time>2026-09-05T00:58:47Z</time></trkpt>
			<trkpt lat="43.273700" lon="45.154650"><ele>283.6</ele><time>2026-09-05T00:58:58Z</time></trkpt>
			<trkpt lat="43.273340" lon="45.158150"><ele>281.4</ele><time>2026-09-05T00:59:09Z</time></trkpt>
			<trkpt lat="43.273080" lon="45.160360"><ele>279.9</ele><time>2026-09-05T00:59:21Z</time></trkpt>
			<trkpt lat="43.272450" lon="45.166410"><ele>274.4</ele><time>2026-09-05T00:59:32Z</time></trkpt>
			<trkpt lat="43.271620" lon="45.173890"><ele>268.2</ele><time>2026-09-05T00:59:43Z</time></trkpt>
			<trkpt lat="43.270870" lon="45.180790"><ele>263.4</ele><time>2026-09-05T00:59:55Z</time></trkpt>
			<trkpt lat="43.270380" lon="45.185470"><ele>260.3</ele><time>2026-09-05T01:00:06Z</time></trkpt>
			<trkpt lat="43.269800" lon="45.190600"><ele>257.1</ele><time>2026-09-05T01:00:17Z</time></trkpt>
			<trkpt lat="43.269630" lon="45.192240"><ele>256.2</ele><time>2026-09-05T01:00:28Z</time></trkpt>
			<trkpt lat="43.269480" lon="45.193660"><ele>255.4</ele><time>2026-09-05T01:00:40Z</time></trkpt>
			<trkpt lat="43.269420" lon="45.194260"><ele>255.1</ele><time>2026-09-05T01:00:51Z</time></trkpt>
			<trkpt lat="43.268500" lon="45.203140"><ele>249.3</ele><time>2026-09-05T01:01:02Z</time></trkpt>
			<trkpt lat="43.267940" lon="45.208110"><ele>246.4</ele><time>2026-09-05T01:01:13Z</time></trkpt>
			<trkpt lat="43.267590" lon="45.210360"><ele>245.2</ele><time>2026-09-05T01:01:25Z</time></trkpt>
			<trkpt lat="43.267230" lon="45.212070"><ele>244.4</ele><time>2026-09-05T01:01:36Z</time></trkpt>
			<trkpt lat="43.266710" lon="45.213970"><ele>244.1</ele><time>2026-09-05T01:01:47Z</time></trkpt>
			<trkpt lat="43.265420" lon="45.217880"><ele>243.5</ele><time>2026-09-05T01:01:59Z</time></trkpt>
			<trkpt lat="43.264690" lon="45.220160"><ele>242.5</ele><time>2026-09-05T01:02:10Z</time></trkpt>
			<trkpt lat="43.260310" lon="45.233520"><ele>237.5</ele><time>2026-09-05T01:02:21Z</time></trkpt>
			<trkpt lat="43.260140" lon="45.234060"><ele>237.3</ele><time>2026-09-05T01:02:32Z</time></trkpt>
			<trkpt lat="43.253980" lon="45.252680"><ele>228.7</ele><time>2026-09-05T01:02:44Z</time></trkpt>
			<trkpt lat="43.253200" lon="45.254890"><ele>228.8</ele><time>2026-09-05T01:02:55Z</time></trkpt>
			<trkpt lat="43.252410" lon="45.256750"><ele>228.8</ele><time>2026-09-05T01:03:06Z</time></trkpt>
			<trkpt lat="43.251490" lon="45.258620"><ele>228.9</ele><time>2026-09-05T01:03:17Z</time></trkpt>
			<trkpt lat="43.248750" lon="45.263670"><ele>228.2</ele><time>2026-09-05T01:03:29Z</time></trkpt>
			<trkpt lat="43.248300" lon="45.264490"><ele>228.1</ele><time>2026-09-05T01:03:40Z</time></trkpt>
			<trkpt lat="43.247560" lon="45.265810"><ele>227.6</ele><time>2026-09-05T01:03:51Z</time></trkpt>
			<trkpt lat="43.247030" lon="45.266840"><ele>227.0</ele><time>2026-09-05T01:04:03Z</time></trkpt>
			<trkpt lat="43.246510" lon="45.267980"><ele>226.4</ele><time>2026-09-05T01:04:14Z</time></trkpt>
			<trkpt lat="43.246110" lon="45.268940"><ele>226.0</ele><time>2026-09-05T01:04:25Z</time></trkpt>
			<trkpt lat="43.245670" lon="45.270190"><ele>225.4</ele><time>2026-09-05T01:04:36Z</time></trkpt>
			<trkpt lat="43.245300" lon="45.271310"><ele>224.8</ele><time>2026-09-05T01:04:48Z</time></trkpt>
			<trkpt lat="43.244960" lon="45.272660"><ele>224.0</ele><time>2026-09-05T01:04:59Z</time></trkpt>
			<trkpt lat="43.244690" lon="45.273830"><ele>223.3</ele><time>2026-09-05T01:05:10Z</time></trkpt>
			<trkpt lat="43.244480" lon="45.274950"><ele>222.7</ele><time>2026-09-05T01:05:21Z</time></trkpt>
			<trkpt lat="43.244290" lon="45.276280"><ele>221.9</ele><time>2026-09-05T01:05:33Z</time></trkpt>
			<trkpt lat="43.244070" lon="45.279320"><ele>220.1</ele><time>2026-09-05T01:05:44Z</time></trkpt>
			<trkpt lat="43.243730" lon="45.286310"><ele>215.7</ele><time>2026-09-05T01:05:55Z</time></trkpt>
			<trkpt lat="43.243560" lon="45.289540"><ele>214.0</ele><time>2026-09-05T01:06:07Z</time></trkpt>
			<trkpt lat="43.243510" lon="45.290770"><ele>213.4</ele><time>2026-09-05T01:06:18Z</time></trkpt>
			<trkpt lat="43.243400" lon="45.293730"><ele>211.9</ele><time>2026-09-05T01:06:29Z</time></trkpt>
			<trkpt lat="43.240780" lon="45.351020"><ele>198.9</ele><time>2026-09-05T01:06:40Z</time></trkpt>
			<trkpt lat="43.240600" lon="45.353350"><ele>199.2</ele><time>2026-09-05T01:06:52Z</time></trkpt>
			<trkpt lat="43.240510" lon="45.354130"><ele>198.8</ele><time>2026-09-05T01:07:03Z</time></trkpt>
			<trkpt lat="43.240420" lon="45.354850"><ele>198.4</ele><time>2026-09-05T01:07:14Z</time></trkpt>
			<trkpt lat="43.240290" lon="45.355660"><ele>197.9</ele><time>2026-09-05T01:07:25Z</time></trkpt>
			<trkpt lat="43.239980" lon="45.357360"><ele>196.9</ele><time>2026-09-05T01:07:37Z</time></trkpt>
			<trkpt lat="43.239710" lon="45.358550"><ele>196.2</ele><time>2026-09-05T01:07:48Z</time></trkpt>
			<trkpt lat="43.239360" lon="45.359810"><ele>195.4</ele><time>2026-09-05T01:07:59Z</time></trkpt>
			<trkpt lat="43.235570" lon="45.371050"><ele>187.8</ele><time>2026-09-05T01:08:11Z</time></trkpt>
			<trkpt lat="43.235310" lon="45.371850"><ele>187.3</ele><time>2026-09-05T01:08:22Z</time></trkpt>
			<trkpt lat="43.234710" lon="45.373630"><ele>186.3</ele><time>2026-09-05T01:08:33Z</time></trkpt>
			<trkpt lat="43.234430" lon="45.374580"><ele>185.8</ele><time>2026-09-05T01:08:44Z</time></trkpt>
			<trkpt lat="43.234020" lon="45.376320"><ele>185.2</ele><time>2026-09-05T01:08:56Z</time></trkpt>
			<trkpt lat="43.233820" lon="45.377390"><ele>184.8</ele><time>2026-09-05T01:09:07Z</time></trkpt>
			<trkpt lat="43.233650" lon="45.378730"><ele>184.3</ele><time>2026-09-05T01:09:18Z</time></trkpt>
			<trkpt lat="43.233660" lon="45.379200"><ele>184.1</ele><time>2026-09-05T01:09:29Z</time></trkpt>
			<trkpt lat="43.233510" lon="45.381300"><ele>183.4</ele><time>2026-09-05T01:09:41Z</time></trkpt>
			<trkpt lat="43.233420" lon="45.382260"><ele>183.1</ele><time>2026-09-05T01:09:52Z</time></trkpt>
			<trkpt lat="43.233080" lon="45.386990"><ele>181.6</ele><time>2026-09-05T01:10:03Z</time></trkpt>
			<trkpt lat="43.233050" lon="45.387390"><ele>181.5</ele><time>2026-09-05T01:10:15Z</time></trkpt>
			<trkpt lat="43.232610" lon="45.392580"><ele>180.3</ele><time>2026-09-05T01:10:26Z</time></trkpt>
			<trkpt lat="43.232090" lon="45.399560"><ele>179.2</ele><time>2026-09-05T01:10:37Z</time></trkpt>
			<trkpt lat="43.231990" lon="45.400790"><ele>179.0</ele><time>2026-09-05T01:10:48Z</time></trkpt>
			<trkpt lat="43.231950" lon="45.401410"><ele>178.9</ele><time>2026-09-05T01:11:00Z</time></trkpt>
			<trkpt lat="43.231590" lon="45.406010"><ele>178.6</ele><time>2026-09-05T01:11:11Z</time></trkpt>
			<trkpt lat="43.231430" lon="45.408270"><ele>178.5</ele><time>2026-09-05T01:11:22Z</time></trkpt>
			<trkpt lat="43.231360" lon="45.409220"><ele>178.5</ele><time>2026-09-05T01:11:33Z</time></trkpt>
			<trkpt lat="43.230370" lon="45.423000"><ele>177.2</ele><time>2026-09-05T01:11:45Z</time></trkpt>
			<trkpt lat="43.230290" lon="45.424090"><ele>177.1</ele><time>2026-09-05T01:11:56Z</time></trkpt>
			<trkpt lat="43.230260" lon="45.424490"><ele>177.0</ele><time>2026-09-05T01:12:07Z</time></trkpt>
			<trkpt lat="43.228800" lon="45.445970"><ele>176.7</ele><time>2026-09-05T01:12:19Z</time></trkpt>
			<trkpt lat="43.228700" lon="45.447310"><ele>176.6</ele><time>2026-09-05T01:12:30Z</time></trkpt>
			<trkpt lat="43.228620" lon="45.448590"><ele>176.5</ele><time>2026-09-05T01:12:41Z</time></trkpt>
			<trkpt lat="43.228610" lon="45.448790"><ele>176.5</ele><time>2026-09-05T01:12:52Z</time></trkpt>
			<trkpt lat="43.228540" lon="45.450200"><ele>176.4</ele><time>2026-09-05T01:13:04Z</time></trkpt>
			<trkpt lat="43.228430" lon="45.452310"><ele>176.2</ele><time>2026-09-05T01:13:15Z</time></trkpt>
			<trkpt lat="43.228420" lon="45.452520"><ele>176.2</ele><time>2026-09-05T01:13:26Z</time></trkpt>
			<trkpt lat="43.228140" lon="45.456820"><ele>176.0</ele><time>2026-09-05T01:13:37Z</time></trkpt>
			<trkpt lat="43.228000" lon="45.459210"><ele>175.9</ele><time>2026-09-05T01:13:49Z</time></trkpt>
			<trkpt lat="43.227960" lon="45.459910"><ele>175.9</ele><time>2026-09-05T01:14:00Z</time></trkpt>
			<trkpt lat="43.227860" lon="45.461380"><ele>175.9</ele><time>2026-09-05T01:14:11Z</time></trkpt>
			<trkpt lat="43.227620" lon="45.464170"><ele>176.0</ele><time>2026-09-05T01:14:23Z</time></trkpt>
			<trkpt lat="43.225350" lon="45.489430"><ele>174.6</ele><time>2026-09-05T01:14:34Z</time></trkpt>
			<trkpt lat="43.225130" lon="45.491630"><ele>174.2</ele><time>2026-09-05T01:14:45Z</time></trkpt>
			<trkpt lat="43.223400" lon="45.510550"><ele>173.1</ele><time>2026-09-05T01:14:56Z</time></trkpt>
			<trkpt lat="43.223070" lon="45.514190"><ele>172.2</ele><time>2026-09-05T01:15:08Z</time></trkpt>
			<trkpt lat="43.222950" lon="45.515490"><ele>172.1</ele><time>2026-09-05T01:15:19Z</time></trkpt>
			<trkpt lat="43.222850" lon="45.516570"><ele>172.3</ele><time>2026-09-05T01:15:30Z</time></trkpt>
			<trkpt lat="43.222570" lon="45.519560"><ele>172.9</ele><time>2026-09-05T01:15:41Z</time></trkpt>
			<trkpt lat="43.222530" lon="45.520150"><ele>173.0</ele><time>2026-09-05T01:15:53Z</time></trkpt>
			<trkpt lat="43.221100" lon="45.535430"><ele>173.4</ele><time>2026-09-05T01:16:04Z</time></trkpt>
			<trkpt lat="43.220390" lon="45.543250"><ele>171.9</ele><time>2026-09-05T01:16:15Z</time></trkpt>
			<trkpt lat="43.219710" lon="45.550600"><ele>168.2</ele><time>2026-09-05T01:16:27Z</time></trkpt>
			<trkpt lat="43.219570" lon="45.552000"><ele>167.4</ele><time>2026-09-05T01:16:38Z</time></trkpt>
			<trkpt lat="43.219510" lon="45.552570"><ele>167.6</ele><time>2026-09-05T01:16:49Z</time></trkpt>
			<trkpt lat="43.219450" lon="45.553260"><ele>167.9</ele><time>2026-09-05T01:17:00Z</time></trkpt>
			<trkpt lat="43.219270" lon="45.555280"><ele>169.0</ele><time>2026-09-05T01:17:12Z</time></trkpt>
			<trkpt lat="43.219140" lon="45.556750"><ele>169.7</ele><time>2026-09-05T01:17:23Z</time></trkpt>
			<trkpt lat="43.219040" lon="45.558030"><ele>170.4</ele><time>2026-09-05T01:17:34Z</time></trkpt>
			<trkpt lat="43.218990" lon="45.558990"><ele>170.9</ele><time>2026-09-05T01:17:45Z</time></trkpt>
			<trkpt lat="43.218950" lon="45.561070"><ele>171.5</ele><time>2026-09-05T01:17:57Z</time></trkpt>
			<trkpt lat="43.218980" lon="45.562140"><ele>171.7</ele><time>2026-09-05T01:18:08Z</time></trkpt>
			<trkpt lat="43.219050" lon="45.563210"><ele>171.9</ele><time>2026-09-05T01:18:19Z</time></trkpt>
			<trkpt lat="43.219080" lon="45.563570"><ele>172.0</ele><time>2026-09-05T01:18:31Z</time></trkpt>
			<trkpt lat="43.219100" lon="45.563740"><ele>172.0</ele><time>2026-09-05T01:18:42Z</time></trkpt>
			<trkpt lat="43.219150" lon="45.564320"><ele>172.1</ele><time>2026-09-05T01:18:53Z</time></trkpt>
			<trkpt lat="43.219310" lon="45.565430"><ele>172.4</ele><time>2026-09-05T01:19:04Z</time></trkpt>
			<trkpt lat="43.219420" lon="45.566020"><ele>172.5</ele><time>2026-09-05T01:19:16Z</time></trkpt>
			<trkpt lat="43.220020" lon="45.569270"><ele>172.1</ele><time>2026-09-05T01:19:27Z</time></trkpt>
			<trkpt lat="43.220200" lon="45.570170"><ele>171.9</ele><time>2026-09-05T01:19:38Z</time></trkpt>
			<trkpt lat="43.220420" lon="45.571220"><ele>171.7</ele><time>2026-09-05T01:19:49Z</time></trkpt>
			<trkpt lat="43.220690" lon="45.572520"><ele>171.4</ele><time>2026-09-05T01:20:01Z</time></trkpt>
			<trkpt lat="43.221160" lon="45.574990"><ele>171.0</ele><time>2026-09-05T01:20:12Z</time></trkpt>
			<trkpt lat="43.221560" lon="45.577060"><ele>170.9</ele><time>2026-09-05T01:20:23Z</time></trkpt>
			<trkpt lat="43.221780" lon="45.578180"><ele>170.8</ele><time>2026-09-05T01:20:34Z</time></trkpt>
			<trkpt lat="43.222160" lon="45.580080"><ele>170.6</ele><time>2026-09-05T01:20:46Z</time></trkpt>
			<trkpt lat="43.222410" lon="45.581330"><ele>170.6</ele><time>2026-09-05T01:20:57Z</time></trkpt>
			<trkpt lat="43.222590" lon="45.582290"><ele>170.5</ele><time>2026-09-05T01:21:08Z</time></trkpt>
			<trkpt lat="43.222830" lon="45.583470"><ele>170.4</ele><time>2026-09-05T01:21:20Z</time></trkpt>
			<trkpt lat="43.223520" lon="45.587030"><ele>170.2</ele><time>2026-09-05T01:21:31Z</time></trkpt>
			<trkpt lat="43.223760" lon="45.588240"><ele>170.1</ele><time>2026-09-05T01:21:42Z</time></trkpt>
			<trkpt lat="43.225630" lon="45.597810"><ele>169.2</ele><time>2026-09-05T01:21:53Z</time></trkpt>
			<trkpt lat="43.226680" lon="45.603150"><ele>169.4</ele><time>2026-09-05T01:22:05Z</time></trkpt>
			<trkpt lat="43.226710" lon="45.603310"><ele>169.3</ele><time>2026-09-05T01:22:16Z</time></trkpt>
			<trkpt lat="43.226800" lon="45.603750"><ele>169.1</ele><time>2026-09-05T01:22:27Z</time></trkpt>
			<trkpt lat="43.227070" lon="45.605160"><ele>168.6</ele><time>2026-09-05T01:22:38Z</time></trkpt>
			<trkpt lat="43.227140" lon="45.605510"><ele>168.5</ele><time>2026-09-05T01:22:50Z</time></trkpt>
			<trkpt lat="43.229840" lon="45.619320"><ele>172.7</ele><time>2026-09-05T01:23:01Z</time></trkpt>
			<trkpt lat="43.230860" lon="45.624590"><ele>170.9</ele><time>2026-09-05T01:23:12Z</time></trkpt>
			<trkpt lat="43.231470" lon="45.627530"><ele>173.6</ele><time>2026-09-05T01:23:24Z</time></trkpt>
			<trkpt lat="43.232140" lon="45.631270"><ele>177.2</ele><time>2026-09-05T01:23:35Z</time></trkpt>
			<trkpt lat="43.234290" lon="45.645430"><ele>174.7</ele><time>2026-09-05T01:23:46Z</time></trkpt>
			<trkpt lat="43.234430" lon="45.646670"><ele>174.6</ele><time>2026-09-05T01:23:57Z</time></trkpt>
			<trkpt lat="43.234660" lon="45.648150"><ele>174.1</ele><time>2026-09-05T01:24:09Z</time></trkpt>
			<trkpt lat="43.234770" lon="45.648980"><ele>173.8</ele><time>2026-09-05T01:24:20Z</time></trkpt>
			<trkpt lat="43.235180" lon="45.651790"><ele>172.8</ele><time>2026-09-05T01:24:31Z</time></trkpt>
			<trkpt lat="43.235530" lon="45.654300"><ele>172.1</ele><time>2026-09-05T01:24:42Z</time></trkpt>
			<trkpt lat="43.235600" lon="45.655040"><ele>172.4</ele><time>2026-09-05T01:24:54Z</time></trkpt>
			<trkpt lat="43.235660" lon="45.655710"><ele>172.6</ele><time>2026-09-05T01:25:05Z</time></trkpt>
			<trkpt lat="43.235710" lon="45.656630"><ele>172.9</ele><time>2026-09-05T01:25:16Z</time></trkpt>
			<trkpt lat="43.235740" lon="45.657390"><ele>173.2</ele><time>2026-09-05T01:25:28Z</time></trkpt>
			<trkpt lat="43.235750" lon="45.659300"><ele>173.8</ele><time>2026-09-05T01:25:39Z</time></trkpt>
			<trkpt lat="43.235680" lon="45.660380"><ele>174.2</ele><time>2026-09-05T01:25:50Z</time></trkpt>
			<trkpt lat="43.235570" lon="45.661440"><ele>174.5</ele><time>2026-09-05T01:26:01Z</time></trkpt>
			<trkpt lat="43.235450" lon="45.662230"><ele>174.8</ele><time>2026-09-05T01:26:13Z</time></trkpt>
			<trkpt lat="43.235150" lon="45.664050"><ele>175.4</ele><time>2026-09-05T01:26:24Z</time></trkpt>
			<trkpt lat="43.235060" lon="45.664490"><ele>175.6</ele><time>2026-09-05T01:26:35Z</time></trkpt>
			<trkpt lat="43.234910" lon="45.665150"><ele>175.8</ele><time>2026-09-05T01:26:46Z</time></trkpt>
			<trkpt lat="43.234820" lon="45.665540"><ele>176.0</ele><time>2026-09-05T01:26:58Z</time></trkpt>
			<trkpt lat="43.234660" lon="45.666160"><ele>176.2</ele><time>2026-09-05T01:27:09Z</time></trkpt>
			<trkpt lat="43.233830" lon="45.668870"><ele>177.3</ele><time>2026-09-05T01:27:20Z</time></trkpt>
			<trkpt lat="43.232850" lon="45.671310"><ele>179.1</ele><time>2026-09-05T01:27:32Z</time></trkpt>
			<trkpt lat="43.231040" lon="45.674460"><ele>181.7</ele><time>2026-09-05T01:27:43Z</time></trkpt>
			<trkpt lat="43.226160" lon="45.682890"><ele>184.4</ele><time>2026-09-05T01:27:54Z</time></trkpt>
			<trkpt lat="43.209990" lon="45.710330"><ele>194.5</ele><time>2026-09-05T01:28:05Z</time></trkpt>
			<trkpt lat="43.207690" lon="45.714220"><ele>196.4</ele><time>2026-09-05T01:28:17Z</time></trkpt>
			<trkpt lat="43.205560" lon="45.717850"><ele>198.3</ele><time>2026-09-05T01:28:28Z</time></trkpt>
			<trkpt lat="43.204950" lon="45.718990"><ele>199.0</ele><time>2026-09-05T01:28:39Z</time></trkpt>
			<trkpt lat="43.203160" lon="45.722540"><ele>200.7</ele><time>2026-09-05T01:28:50Z</time></trkpt>
			<trkpt lat="43.201970" lon="45.724790"><ele>201.8</ele><time>2026-09-05T01:29:02Z</time></trkpt>
			<trkpt lat="43.198790" lon="45.731230"><ele>203.0</ele><time>2026-09-05T01:29:13Z</time></trkpt>
			<trkpt lat="43.198260" lon="45.732310"><ele>203.0</ele><time>2026-09-05T01:29:24Z</time></trkpt>
			<trkpt lat="43.197520" lon="45.733810"><ele>203.1</ele><time>2026-09-05T01:29:36Z</time></trkpt>
			<trkpt lat="43.196560" lon="45.736670"><ele>204.0</ele><time>2026-09-05T01:29:47Z</time></trkpt>
			<trkpt lat="43.196180" lon="45.738180"><ele>204.4</ele><time>2026-09-05T01:29:58Z</time></trkpt>
			<trkpt lat="43.195850" lon="45.739710"><ele>204.9</ele><time>2026-09-05T01:30:09Z</time></trkpt>
			<trkpt lat="43.194820" lon="45.746270"><ele>207.0</ele><time>2026-09-05T01:30:21Z</time></trkpt>
			<trkpt lat="43.194750" lon="45.746740"><ele>207.1</ele><time>2026-09-05T01:30:32Z</time></trkpt>
			<trkpt lat="43.194700" lon="45.747130"><ele>207.3</ele><time>2026-09-05T01:30:43Z</time></trkpt>
			<trkpt lat="43.194660" lon="45.747400"><ele>207.4</ele><time>2026-09-05T01:30:54Z</time></trkpt>
			<trkpt lat="43.194640" lon="45.747470"><ele>207.4</ele><time>2026-09-05T01:31:06Z</time></trkpt>
			<trkpt lat="43.194640" lon="45.747470"><ele>207.4</ele><time>2026-09-05T01:31:15Z</time></trkpt>
			<trkpt lat="43.194380" lon="45.749130"><ele>207.8</ele><time>2026-09-05T01:31:23Z</time></trkpt>
			<trkpt lat="43.194280" lon="45.749770"><ele>207.9</ele><time>2026-09-05T01:31:32Z</time></trkpt>
			<trkpt lat="43.194180" lon="45.750340"><ele>208.1</ele><time>2026-09-05T01:31:41Z</time></trkpt>
			<trkpt lat="43.193950" lon="45.751780"><ele>208.4</ele><time>2026-09-05T01:31:50Z</time></trkpt>
			<trkpt lat="43.193920" lon="45.752000"><ele>208.4</ele><time>2026-09-05T01:31:59Z</time></trkpt>
			<trkpt lat="43.191280" lon="45.768600"><ele>209.8</ele><time>2026-09-05T01:32:07Z</time></trkpt>
			<trkpt lat="43.190880" lon="45.771160"><ele>210.4</ele><time>2026-09-05T01:32:16Z</time></trkpt>
			<trkpt lat="43.190670" lon="45.772460"><ele>210.7</ele><time>2026-09-05T01:32:25Z</time></trkpt>
			<trkpt lat="43.190420" lon="45.773700"><ele>210.9</ele><time>2026-09-05T01:32:34Z</time></trkpt>
			<trkpt lat="43.190220" lon="45.774610"><ele>211.1</ele><time>2026-09-05T01:32:43Z</time></trkpt>
			<trkpt lat="43.190000" lon="45.775460"><ele>211.3</ele><time>2026-09-05T01:32:51Z</time></trkpt>
			<trkpt lat="43.189770" lon="45.776310"><ele>211.5</ele><time>2026-09-05T01:33:00Z</time></trkpt>
			<trkpt lat="43.189480" lon="45.777180"><ele>211.7</ele><time>2026-09-05T01:33:09Z</time></trkpt>
			<trkpt lat="43.189230" lon="45.777900"><ele>211.8</ele><time>2026-09-05T01:33:18Z</time></trkpt>
			<trkpt lat="43.189030" lon="45.778400"><ele>211.9</ele><time>2026-09-05T01:33:27Z</time></trkpt>
			<trkpt lat="43.188950" lon="45.778610"><ele>212.0</ele><time>2026-09-05T01:33:35Z</time></trkpt>
			<trkpt lat="43.188380" lon="45.779960"><ele>212.3</ele><time>2026-09-05T01:33:44Z</time></trkpt>
			<trkpt lat="43.187380" lon="45.782340"><ele>212.8</ele><time>2026-09-05T01:33:53Z</time></trkpt>
			<trkpt lat="43.186760" lon="45.783810"><ele>212.8</ele><time>2026-09-05T01:34:02Z</time></trkpt>
			<trkpt lat="43.186360" lon="45.784770"><ele>212.2</ele><time>2026-09-05T01:34:11Z</time></trkpt>
			<trkpt lat="43.185530" lon="45.786740"><ele>210.9</ele><time>2026-09-05T01:34:19Z</time></trkpt>
			<trkpt lat="43.184890" lon="45.788240"><ele>210.0</ele><time>2026-09-05T01:34:28Z</time></trkpt>
			<trkpt lat="43.184260" lon="45.789610"><ele>209.1</ele><time>2026-09-05T01:34:37Z</time></trkpt>
			<trkpt lat="43.183750" lon="45.790670"><ele>208.7</ele><time>2026-09-05T01:34:46Z</time></trkpt>
			<trkpt lat="43.183510" lon="45.791180"><ele>208.6</ele><time>2026-09-05T01:34:55Z</time></trkpt>
			<trkpt lat="43.183290" lon="45.791710"><ele>208.4</ele><time>2026-09-05T01:35:03Z</time></trkpt>
			<trkpt lat="43.183020" lon="45.792340"><ele>208.3</ele><time>2026-09-05T01:35:12Z</time></trkpt>
			<trkpt lat="43.182640" lon="45.793510"><ele>208.0</ele><time>2026-09-05T01:35:21Z</time></trkpt>
			<trkpt lat="43.182280" lon="45.794480"><ele>207.7</ele><time>2026-09-05T01:35:30Z</time></trkpt>
			<trkpt lat="43.181380" lon="45.796610"><ele>207.2</ele><time>2026-09-05T01:35:39Z</time></trkpt>
			<trkpt lat="43.181090" lon="45.797360"><ele>207.2</ele><time>2026-09-05T01:35:47Z</time></trkpt>
			<trkpt lat="43.180700" lon="45.798480"><ele>207.2</ele><time>2026-09-05T01:35:56Z</time></trkpt>
			<trkpt lat="43.180400" lon="45.799690"><ele>207.1</ele><time>2026-09-05T01:36:05Z</time></trkpt>
			<trkpt lat="43.180210" lon="45.800820"><ele>207.1</ele><time>2026-09-05T01:36:14Z</time></trkpt>
			<trkpt lat="43.180080" lon="45.802020"><ele>207.1</ele><time>2026-09-05T01:36:23Z</time></trkpt>
			<trkpt lat="43.180060" lon="45.802650"><ele>207.1</ele><time>2026-09-05T01:36:31Z</time></trkpt>
			<trkpt lat="43.180050" lon="45.803330"><ele>207.1</ele><time>2026-09-05T01:36:40Z</time></trkpt>
			<trkpt lat="43.180080" lon="45.803950"><ele>206.8</ele><time>2026-09-05T01:36:49Z</time></trkpt>
			<trkpt lat="43.180100" lon="45.804310"><ele>206.7</ele><time>2026-09-05T01:36:58Z</time></trkpt>
			<trkpt lat="43.180200" lon="45.805350"><ele>206.2</ele><time>2026-09-05T01:37:07Z</time></trkpt>
			<trkpt lat="43.180350" lon="45.806180"><ele>205.8</ele><time>2026-09-05T01:37:15Z</time></trkpt>
			<trkpt lat="43.180510" lon="45.806910"><ele>205.4</ele><time>2026-09-05T01:37:24Z</time></trkpt>
			<trkpt lat="43.180730" lon="45.807950"><ele>204.9</ele><time>2026-09-05T01:37:33Z</time></trkpt>
			<trkpt lat="43.180990" lon="45.808840"><ele>204.4</ele><time>2026-09-05T01:37:42Z</time></trkpt>
			<trkpt lat="43.181300" lon="45.809620"><ele>204.0</ele><time>2026-09-05T01:37:51Z</time></trkpt>
			<trkpt lat="43.181800" lon="45.810470"><ele>203.5</ele><time>2026-09-05T01:37:59Z</time></trkpt>
			<trkpt lat="43.182320" lon="45.811230"><ele>202.7</ele><time>2026-09-05T01:38:08Z</time></trkpt>
			<trkpt lat="43.183090" lon="45.812240"><ele>201.7</ele><time>2026-09-05T01:38:17Z</time></trkpt>
			<trkpt lat="43.183730" lon="45.812950"><ele>200.9</ele><time>2026-09-05T01:38:26Z</time></trkpt>
			<trkpt lat="43.184880" lon="45.814080"><ele>199.5</ele><time>2026-09-05T01:38:35Z</time></trkpt>
			<trkpt lat="43.185530" lon="45.814640"><ele>198.8</ele><time>2026-09-05T01:38:43Z</time></trkpt>
			<trkpt lat="43.185870" lon="45.814970"><ele>198.4</ele><time>2026-09-05T01:38:52Z</time></trkpt>
			<trkpt lat="43.186810" lon="45.815870"><ele>197.4</ele><time>2026-09-05T01:39:01Z</time></trkpt>
			<trkpt lat="43.187650" lon="45.816700"><ele>196.6</ele><time>2026-09-05T01:39:10Z</time></trkpt>
			<trkpt lat="43.188290" lon="45.817360"><ele>195.9</ele><time>2026-09-05T01:39:19Z</time></trkpt>
			<trkpt lat="43.193350" lon="45.822330"><ele>192.1</ele><time>2026-09-05T01:39:27Z</time></trkpt>
			<trkpt lat="43.194840" lon="45.823810"><ele>191.1</ele><time>2026-09-05T01:39:36Z</time></trkpt>
			<trkpt lat="43.196380" lon="45.825350"><ele>189.2</ele><time>2026-09-05T01:39:45Z</time></trkpt>
			<trkpt lat="43.196510" lon="45.825470"><ele>189.1</ele><time>2026-09-05T01:39:54Z</time></trkpt>
			<trkpt lat="43.196520" lon="45.825480"><ele>189.1</ele><time>2026-09-05T01:40:03Z</time></trkpt>
			<trkpt lat="43.197400" lon="45.826370"><ele>188.0</ele><time>2026-09-05T01:40:11Z</time></trkpt>
			<trkpt lat="43.200630" lon="45.829590"><ele>184.8</ele><time>2026-09-05T01:40:20Z</time></trkpt>
			<trkpt lat="43.203910" lon="45.832780"><ele>182.3</ele><time>2026-09-05T01:40:29Z</time></trkpt>
			<trkpt lat="43.212390" lon="45.841170"><ele>172.1</ele><time>2026-09-05T01:40:38Z</time></trkpt>
			<trkpt lat="43.212540" lon="45.841310"><ele>172.0</ele><time>2026-09-05T01:40:47Z</time></trkpt>
			<trkpt lat="43.213880" lon="45.842650"><ele>171.6</ele><time>2026-09-05T01:40:55Z</time></trkpt>
			<trkpt lat="43.220390" lon="45.849090"><ele>165.7</ele><time>2026-09-05T01:41:04Z</time></trkpt>
			<trkpt lat="43.228660" lon="45.857260"><ele>157.3</ele><time>2026-09-05T01:41:13Z</time></trkpt>
			<trkpt lat="43.231860" lon="45.860430"><ele>153.7</ele><time>2026-09-05T01:41:22Z</time></trkpt>
			<trkpt lat="43.236950" lon="45.865470"><ele>150.2</ele><time>2026-09-05T01:41:31Z</time></trkpt>
			<trkpt lat="43.237700" lon="45.866220"><ele>149.6</ele><time>2026-09-05T01:41:39Z</time></trkpt>
			<trkpt lat="43.239240" lon="45.867740"><ele>148.3</ele><time>2026-09-05T01:41:48Z</time></trkpt>
			<trkpt lat="43.240280" lon="45.868850"><ele>146.4</ele><time>2026-09-05T01:41:57Z</time></trkpt>
			<trkpt lat="43.241200" lon="45.869970"><ele>144.5</ele><time>2026-09-05T01:42:06Z</time></trkpt>
			<trkpt lat="43.241890" lon="45.870970"><ele>143.0</ele><time>2026-09-05T01:42:15Z</time></trkpt>
			<trkpt lat="43.242900" lon="45.872540"><ele>140.8</ele><time>2026-09-05T01:42:23Z</time></trkpt>
			<trkpt lat="43.243410" lon="45.873570"><ele>140.4</ele><time>2026-09-05T01:42:32Z</time></trkpt>
			<trkpt lat="43.243450" lon="45.873650"><ele>140.4</ele><time>2026-09-05T01:42:41Z</time></trkpt>
			<trkpt lat="43.245350" lon="45.877610"><ele>139.3</ele><time>2026-09-05T01:42:50Z</time></trkpt>
			<trkpt lat="43.246040" lon="45.879050"><ele>138.9</ele><time>2026-09-05T01:42:59Z</time></trkpt>
			<trkpt lat="43.248350" lon="45.883850"><ele>137.3</ele><time>2026-09-05T01:43:07Z</time></trkpt>
			<trkpt lat="43.248670" lon="45.884560"><ele>137.1</ele><time>2026-09-05T01:43:16Z</time></trkpt>
			<trkpt lat="43.249370" lon="45.886050"><ele>136.7</ele><time>2026-09-05T01:43:25Z</time></trkpt>
			<trkpt lat="43.249490" lon="45.886380"><ele>136.7</ele><time>2026-09-05T01:43:34Z</time></trkpt>
			<trkpt lat="43.249960" lon="45.887400"><ele>136.5</ele><time>2026-09-05T01:43:43Z</time></trkpt>
			<trkpt lat="43.250150" lon="45.887850"><ele>136.4</ele><time>2026-09-05T01:43:52Z</time></trkpt>
			<trkpt lat="43.250240" lon="45.888100"><ele>136.3</ele><time>2026-09-05T01:44:00Z</time></trkpt>
			<trkpt lat="43.250270" lon="45.888270"><ele>136.3</ele><time>2026-09-05T01:44:09Z</time></trkpt>
			<trkpt lat="43.250270" lon="45.888370"><ele>136.3</ele><time>2026-09-05T01:44:18Z</time></trkpt>
			<trkpt lat="43.250290" lon="45.888460"><ele>136.3</ele><time>2026-09-05T01:44:27Z</time></trkpt>
			<trkpt lat="43.250330" lon="45.888530"><ele>136.3</ele><time>2026-09-05T01:44:36Z</time></trkpt>
			<trkpt lat="43.250390" lon="45.888580"><ele>136.3</ele><time>2026-09-05T01:44:44Z</time></trkpt>
			<trkpt lat="43.250680" lon="45.888950"><ele>136.2</ele><time>2026-09-05T01:44:53Z</time></trkpt>
			<trkpt lat="43.251030" lon="45.889680"><ele>136.0</ele><time>2026-09-05T01:45:02Z</time></trkpt>
			<trkpt lat="43.251590" lon="45.890840"><ele>135.8</ele><time>2026-09-05T01:45:11Z</time></trkpt>
			<trkpt lat="43.252090" lon="45.891870"><ele>135.5</ele><time>2026-09-05T01:45:20Z</time></trkpt>
			<trkpt lat="43.252580" lon="45.892910"><ele>135.0</ele><time>2026-09-05T01:45:28Z</time></trkpt>
			<trkpt lat="43.253010" lon="45.893810"><ele>134.7</ele><time>2026-09-05T01:45:37Z</time></trkpt>
			<trkpt lat="43.253160" lon="45.894140"><ele>134.5</ele><time>2026-09-05T01:45:46Z</time></trkpt>
			<trkpt lat="43.253350" lon="45.894540"><ele>134.3</ele><time>2026-09-05T01:45:55Z</time></trkpt>
			<trkpt lat="43.254170" lon="45.896310"><ele>133.6</ele><time>2026-09-05T01:46:04Z</time></trkpt>
			<trkpt lat="43.254270" lon="45.896510"><ele>133.5</ele><time>2026-09-05T01:46:12Z</time></trkpt>
			<trkpt lat="43.254450" lon="45.896910"><ele>133.3</ele><time>2026-09-05T01:46:21Z</time></trkpt>
			<trkpt lat="43.255600" lon="45.899320"><ele>131.6</ele><time>2026-09-05T01:46:30Z</time></trkpt>
			<trkpt lat="43.255690" lon="45.899500"><ele>131.4</ele><time>2026-09-05T01:46:39Z</time></trkpt>
			<trkpt lat="43.256610" lon="45.901460"><ele>129.8</ele><time>2026-09-05T01:46:48Z</time></trkpt>
			<trkpt lat="43.258800" lon="45.906070"><ele>126.7</ele><time>2026-09-05T01:46:56Z</time></trkpt>
			<trkpt lat="43.258960" lon="45.906420"><ele>126.5</ele><time>2026-09-05T01:47:05Z</time></trkpt>
			<trkpt lat="43.260130" lon="45.908720"><ele>125.5</ele><time>2026-09-05T01:47:14Z</time></trkpt>
			<trkpt lat="43.260990" lon="45.910510"><ele>124.5</ele><time>2026-09-05T01:47:23Z</time></trkpt>
			<trkpt lat="43.261430" lon="45.911440"><ele>123.8</ele><time>2026-09-05T01:47:32Z</time></trkpt>
			<trkpt lat="43.262080" lon="45.912800"><ele>122.8</ele><time>2026-09-05T01:47:40Z</time></trkpt>
			<trkpt lat="43.262740" lon="45.914310"><ele>121.7</ele><time>2026-09-05T01:47:49Z</time></trkpt>
			<trkpt lat="43.264620" lon="45.918310"><ele>119.2</ele><time>2026-09-05T01:47:58Z</time></trkpt>
			<trkpt lat="43.265070" lon="45.919510"><ele>118.7</ele><time>2026-09-05T01:48:07Z</time></trkpt>
			<trkpt lat="43.265360" lon="45.920210"><ele>118.4</ele><time>2026-09-05T01:48:16Z</time></trkpt>
			<trkpt lat="43.265730" lon="45.921290"><ele>117.9</ele><time>2026-09-05T01:48:24Z</time></trkpt>
			<trkpt lat="43.265920" lon="45.921920"><ele>117.6</ele><time>2026-09-05T01:48:33Z</time></trkpt>
			<trkpt lat="43.266380" lon="45.923600"><ele>117.1</ele><time>2026-09-05T01:48:42Z</time></trkpt>
			<trkpt lat="43.266700" lon="45.925120"><ele>117.1</ele><time>2026-09-05T01:48:51Z</time></trkpt>
			<trkpt lat="43.266740" lon="45.925370"><ele>117.1</ele><time>2026-09-05T01:49:00Z</time></trkpt>
			<trkpt lat="43.267020" lon="45.927220"><ele>117.1</ele><time>2026-09-05T01:49:08Z</time></trkpt>
			<trkpt lat="43.267250" lon="45.929610"><ele>117.1</ele><time>2026-09-05T01:49:17Z</time></trkpt>
			<trkpt lat="43.267290" lon="45.930550"><ele>117.1</ele><time>2026-09-05T01:49:26Z</time></trkpt>
			<trkpt lat="43.267300" lon="45.931280"><ele>117.0</ele><time>2026-09-05T01:49:35Z</time></trkpt>
			<trkpt lat="43.267250" lon="45.933340"><ele>116.7</ele><time>2026-09-05T01:49:44Z</time></trkpt>
			<trkpt lat="43.267120" lon="45.935120"><ele>116.5</ele><time>2026-09-05T01:49:52Z</time></trkpt>
			<trkpt lat="43.266250" lon="45.943000"><ele>113.2</ele><time>2026-09-05T01:50:01Z</time></trkpt>
			<trkpt lat="43.264950" lon="45.954430"><ele>114.1</ele><time>2026-09-05T01:50:10Z</time></trkpt>
			<trkpt lat="43.264760" lon="45.956570"><ele>114.5</ele><time>2026-09-05T01:50:19Z</time></trkpt>
			<trkpt lat="43.264680" lon="45.958050"><ele>114.7</ele><time>2026-09-05T01:50:28Z</time></trkpt>
			<trkpt lat="43.264640" lon="45.959700"><ele>115.0</ele><time>2026-09-05T01:50:36Z</time></trkpt>
			<trkpt lat="43.264670" lon="45.961980"><ele>113.8</ele><time>2026-09-05T01:50:45Z</time></trkpt>
			<trkpt lat="43.264860" lon="45.968040"><ele>110.4</ele><time>2026-09-05T01:50:54Z</time></trkpt>
			<trkpt lat="43.264920" lon="45.970070"><ele>110.0</ele><time>2026-09-05T01:51:03Z</time></trkpt>
			<trkpt lat="43.265030" lon="45.973140"><ele>109.5</ele><time>2026-09-05T01:51:12Z</time></trkpt>
			<trkpt lat="43.265150" lon="45.976790"><ele>109.3</ele><time>2026-09-05T01:51:20Z</time></trkpt>
			<trkpt lat="43.265260" lon="45.980630"><ele>109.6</ele><time>2026-09-05T01:51:29Z</time></trkpt>
			<trkpt lat="43.265230" lon="45.982320"><ele>109.7</ele><time>2026-09-05T01:51:38Z</time></trkpt>
			<trkpt lat="43.264760" lon="45.989210"><ele>111.6</ele><time>2026-09-05T01:51:47Z</time></trkpt>
			<trkpt lat="43.263840" lon="46.001730"><ele>109.2</ele><time>2026-09-05T01:51:56Z</time></trkpt>
			<trkpt lat="43.263820" lon="46.002220"><ele>109.0</ele><time>2026-09-05T01:52:04Z</time></trkpt>
			<trkpt lat="43.263780" lon="46.003130"><ele>108.7</ele><time>2026-09-05T01:52:13Z</time></trkpt>
			<trkpt lat="43.263760" lon="46.004880"><ele>108.1</ele><time>2026-09-05T01:52:22Z</time></trkpt>
			<trkpt lat="43.263810" lon="46.009170"><ele>106.0</ele><time>2026-09-05T01:52:31Z</time></trkpt>
			<trkpt lat="43.263850" lon="46.010850"><ele>105.1</ele><time>2026-09-05T01:52:40Z</time></trkpt>
			<trkpt lat="43.264140" lon="46.024190"><ele>107.3</ele><time>2026-09-05T01:52:48Z</time></trkpt>
			<trkpt lat="43.264140" lon="46.025710"><ele>107.2</ele><time>2026-09-05T01:52:57Z</time></trkpt>
			<trkpt lat="43.264100" lon="46.027260"><ele>107.0</ele><time>2026-09-05T01:53:06Z</time></trkpt>
			<trkpt lat="43.264010" lon="46.028880"><ele>107.0</ele><time>2026-09-05T01:53:15Z</time></trkpt>
			<trkpt lat="43.263850" lon="46.030680"><ele>107.0</ele><time>2026-09-05T01:53:24Z</time></trkpt>
			<trkpt lat="43.263570" lon="46.033040"><ele>107.0</ele><time>2026-09-05T01:53:32Z</time></trkpt>
			<trkpt lat="43.263230" lon="46.036000"><ele>106.7</ele><time>2026-09-05T01:53:41Z</time></trkpt>
			<trkpt lat="43.262920" lon="46.038770"><ele>106.2</ele><time>2026-09-05T01:53:50Z</time></trkpt>
			<trkpt lat="43.262520" lon="46.042360"><ele>105.6</ele><time>2026-09-05T01:53:59Z</time></trkpt>
			<trkpt lat="43.262420" lon="46.044080"><ele>105.8</ele><time>2026-09-05T01:54:08Z</time></trkpt>
			<trkpt lat="43.262370" lon="46.045090"><ele>106.0</ele><time>2026-09-05T01:54:16Z</time></trkpt>
			<trkpt lat="43.262050" lon="46.052970"><ele>108.5</ele><time>2026-09-05T01:54:25Z</time></trkpt>
			<trkpt lat="43.261970" lon="46.054930"><ele>109.6</ele><time>2026-09-05T01:54:34Z</time></trkpt>
			<trkpt lat="43.261950" lon="46.056220"><ele>110.3</ele><time>2026-09-05T01:54:43Z</time></trkpt>
			<trkpt lat="43.261900" lon="46.057080"><ele>110.5</ele><time>2026-09-05T01:54:52Z</time></trkpt>
			<trkpt lat="43.261830" lon="46.058390"><ele>110.1</ele><time>2026-09-05T01:55:00Z</time></trkpt>
			<trkpt lat="43.261700" lon="46.062180"><ele>108.7</ele><time>2026-09-05T01:55:09Z</time></trkpt>
			<trkpt lat="43.261600" lon="46.064350"><ele>107.9</ele><time>2026-09-05T01:55:18Z</time></trkpt>
			<trkpt lat="43.261420" lon="46.066380"><ele>107.6</ele><time>2026-09-05T01:55:27Z</time></trkpt>
			<trkpt lat="43.261210" lon="46.068140"><ele>107.3</ele><time>2026-09-05T01:55:36Z</time></trkpt>
			<trkpt lat="43.260020" lon="46.075800"><ele>108.9</ele><time>2026-09-05T01:55:44Z</time></trkpt>
			<trkpt lat="43.259780" lon="46.077310"><ele>109.7</ele><time>2026-09-05T01:55:53Z</time></trkpt>
			<trkpt lat="43.259350" lon="46.080220"><ele>110.4</ele><time>2026-09-05T01:56:02Z</time></trkpt>
			<trkpt lat="43.259070" lon="46.082610"><ele>110.1</ele><time>2026-09-05T01:56:11Z</time></trkpt>
			<trkpt lat="43.258980" lon="46.083540"><ele>109.9</ele><time>2026-09-05T01:56:20Z</time></trkpt>
			<trkpt lat="43.258680" lon="46.086710"><ele>109.6</ele><time>2026-09-05T01:56:28Z</time></trkpt>
			<trkpt lat="43.258510" lon="46.088480"><ele>110.1</ele><time>2026-09-05T01:56:37Z</time></trkpt>
			<trkpt lat="43.258210" lon="46.091480"><ele>111.0</ele><time>2026-09-05T01:56:46Z</time></trkpt>
			<trkpt lat="43.257570" lon="46.098410"><ele>113.1</ele><time>2026-09-05T01:56:55Z</time></trkpt>
			<trkpt lat="43.256540" lon="46.108940"><ele>120.1</ele><time>2026-09-05T01:57:04Z</time></trkpt>
			<trkpt lat="43.256130" lon="46.113250"><ele>121.3</ele><time>2026-09-05T01:57:12Z</time></trkpt>
			<trkpt lat="43.256000" lon="46.115320"><ele>121.9</ele><time>2026-09-05T01:57:21Z</time></trkpt>
			<trkpt lat="43.255940" lon="46.117450"><ele>122.7</ele><time>2026-09-05T01:57:30Z</time></trkpt>
			<trkpt lat="43.256020" lon="46.119370"><ele>123.5</ele><time>2026-09-05T01:57:39Z</time></trkpt>
			<trkpt lat="43.256420" lon="46.124320"><ele>125.4</ele><time>2026-09-05T01:57:48Z</time></trkpt>
			<trkpt lat="43.256550" lon="46.125720"><ele>125.6</ele><time>2026-09-05T01:57:57Z</time></trkpt>
			<trkpt lat="43.256610" lon="46.127890"><ele>125.9</ele><time>2026-09-05T01:58:05Z</time></trkpt>
			<trkpt lat="43.256620" lon="46.129610"><ele>126.1</ele><time>2026-09-05T01:58:14Z</time></trkpt>
			<trkpt lat="43.256570" lon="46.131700"><ele>126.5</ele><time>2026-09-05T01:58:23Z</time></trkpt>
			<trkpt lat="43.255830" lon="46.142780"><ele>132.4</ele><time>2026-09-05T01:58:32Z</time></trkpt>
			<trkpt lat="43.255720" lon="46.145010"><ele>134.2</ele><time>2026-09-05T01:58:41Z</time></trkpt>
			<trkpt lat="43.255780" lon="46.148520"><ele>135.3</ele><time>2026-09-05T01:58:49Z</time></trkpt>
			<trkpt lat="43.255880" lon="46.150180"><ele>135.6</ele><time>2026-09-05T01:58:58Z</time></trkpt>
			<trkpt lat="43.256020" lon="46.151700"><ele>135.9</ele><time>2026-09-05T01:59:07Z</time></trkpt>
			<trkpt lat="43.256250" lon="46.153580"><ele>136.9</ele><time>2026-09-05T01:59:16Z</time></trkpt>
			<trkpt lat="43.256400" lon="46.154820"><ele>139.8</ele><time>2026-09-05T01:59:25Z</time></trkpt>
			<trkpt lat="43.256600" lon="46.156540"><ele>143.7</ele><time>2026-09-05T01:59:33Z</time></trkpt>
			<trkpt lat="43.256660" lon="46.158480"><ele>148.1</ele><time>2026-09-05T01:59:42Z</time></trkpt>
			<trkpt lat="43.256600" lon="46.162270"><ele>155.5</ele><time>2026-09-05T01:59:51Z</time></trkpt>
			<trkpt lat="43.256430" lon="46.164180"><ele>158.3</ele><time>2026-09-05T02:00:00Z</time></trkpt>
			<trkpt lat="43.256230" lon="46.165590"><ele>160.4</ele><time>2026-09-05T02:00:09Z</time></trkpt>
			<trkpt lat="43.255850" lon="46.167230"><ele>162.9</ele><time>2026-09-05T02:00:17Z</time></trkpt>
			<trkpt lat="43.255100" lon="46.170120"><ele>164.9</ele><time>2026-09-05T02:00:26Z</time></trkpt>
			<trkpt lat="43.251670" lon="46.181920"><ele>167.2</ele><time>2026-09-05T02:00:35Z</time></trkpt>
			<trkpt lat="43.245400" lon="46.204020"><ele>220.9</ele><time>2026-09-05T02:00:44Z</time></trkpt>
			<trkpt lat="43.244620" lon="46.206650"><ele>220.8</ele><time>2026-09-05T02:00:53Z</time></trkpt>
			<trkpt lat="43.244050" lon="46.208660"><ele>220.7</ele><time>2026-09-05T02:01:01Z</time></trkpt>
			<trkpt lat="43.243410" lon="46.211340"><ele>228.1</ele><time>2026-09-05T02:01:10Z</time></trkpt>
			<trkpt lat="43.243160" lon="46.212660"><ele>234.3</ele><time>2026-09-05T02:01:19Z</time></trkpt>
			<trkpt lat="43.242950" lon="46.214260"><ele>241.6</ele><time>2026-09-05T02:01:28Z</time></trkpt>
			<trkpt lat="43.242770" lon="46.217120"><ele>254.6</ele><time>2026-09-05T02:01:37Z</time></trkpt>
			<trkpt lat="43.242770" lon="46.219070"><ele>258.6</ele><time>2026-09-05T02:01:45Z</time></trkpt>
			<trkpt lat="43.242860" lon="46.220850"><ele>262.4</ele><time>2026-09-05T02:01:54Z</time></trkpt>
			<trkpt lat="43.243530" lon="46.226900"><ele>274.8</ele><time>2026-09-05T02:02:03Z</time></trkpt>
			<trkpt lat="43.243690" lon="46.231940"><ele>284.6</ele><time>2026-09-05T02:02:12Z</time></trkpt>
			<trkpt lat="43.243390" lon="46.234010"><ele>286.9</ele><time>2026-09-05T02:02:21Z</time></trkpt>
			<trkpt lat="43.242930" lon="46.236130"><ele>289.2</ele><time>2026-09-05T02:02:29Z</time></trkpt>
			<trkpt lat="43.242330" lon="46.238900"><ele>292.3</ele><time>2026-09-05T02:02:38Z</time></trkpt>
			<trkpt lat="43.242080" lon="46.240100"><ele>292.4</ele><time>2026-09-05T02:02:47Z</time></trkpt>
			<trkpt lat="43.241990" lon="46.240420"><ele>292.3</ele><time>2026-09-05T02:02:56Z</time></trkpt>
			<trkpt lat="43.241660" lon="46.241790"><ele>291.9</ele><time>2026-09-05T02:03:05Z</time></trkpt>
			<trkpt lat="43.241320" lon="46.243160"><ele>291.5</ele><time>2026-09-05T02:03:13Z</time></trkpt>
			<trkpt lat="43.241000" lon="46.245410"><ele>290.8</ele><time>2026-09-05T02:03:22Z</time></trkpt>
			<trkpt lat="43.240820" lon="46.246970"><ele>290.9</ele><time>2026-09-05T02:03:31Z</time></trkpt>
			<trkpt lat="43.240540" lon="46.250370"><ele>292.8</ele><time>2026-09-05T02:03:40Z</time></trkpt>
			<trkpt lat="43.240360" lon="46.251680"><ele>293.6</ele><time>2026-09-05T02:03:49Z</time></trkpt>
			<trkpt lat="43.239850" lon="46.253830"><ele>294.2</ele><time>2026-09-05T02:03:57Z</time></trkpt>
			<trkpt lat="43.239490" lon="46.255270"><ele>288.3</ele><time>2026-09-05T02:04:06Z</time></trkpt>
			<trkpt lat="43.239240" lon="46.256520"><ele>283.2</ele><time>2026-09-05T02:04:15Z</time></trkpt>
			<trkpt lat="43.239100" lon="46.257980"><ele>277.5</ele><time>2026-09-05T02:04:24Z</time></trkpt>
			<trkpt lat="43.239040" lon="46.259420"><ele>271.9</ele><time>2026-09-05T02:04:33Z</time></trkpt>
			<trkpt lat="43.239150" lon="46.260690"><ele>266.9</ele><time>2026-09-05T02:04:41Z</time></trkpt>
			<trkpt lat="43.239450" lon="46.262440"><ele>267.2</ele><time>2026-09-05T02:04:50Z</time></trkpt>
			<trkpt lat="43.239720" lon="46.264320"><ele>269.4</ele><time>2026-09-05T02:04:59Z</time></trkpt>
			<trkpt lat="43.239840" lon="46.266120"><ele>271.3</ele><time>2026-09-05T02:05:08Z</time></trkpt>
			<trkpt lat="43.239760" lon="46.267890"><ele>273.3</ele><time>2026-09-05T02:05:17Z</time></trkpt>
			<trkpt lat="43.239600" lon="46.269380"><ele>267.6</ele><time>2026-09-05T02:05:25Z</time></trkpt>
			<trkpt lat="43.239470" lon="46.271180"><ele>256.5</ele><time>2026-09-05T02:05:34Z</time></trkpt>
			<trkpt lat="43.239510" lon="46.272740"><ele>246.8</ele><time>2026-09-05T02:05:43Z</time></trkpt>
			<trkpt lat="43.239630" lon="46.273960"><ele>239.2</ele><time>2026-09-05T02:05:52Z</time></trkpt>
			<trkpt lat="43.239810" lon="46.274960"><ele>232.8</ele><time>2026-09-05T02:06:01Z</time></trkpt>
			<trkpt lat="43.240100" lon="46.275930"><ele>227.5</ele><time>2026-09-05T02:06:09Z</time></trkpt>
			<trkpt lat="43.240520" lon="46.276870"><ele>226.4</ele><time>2026-09-05T02:06:18Z</time></trkpt>
			<trkpt lat="43.240970" lon="46.277840"><ele>225.2</ele><time>2026-09-05T02:06:27Z</time></trkpt>
			<trkpt lat="43.241560" lon="46.279280"><ele>223.6</ele><time>2026-09-05T02:06:36Z</time></trkpt>
			<trkpt lat="43.242050" lon="46.280730"><ele>222.0</ele><time>2026-09-05T02:06:45Z</time></trkpt>
			<trkpt lat="43.242530" lon="46.282440"><ele>220.2</ele><time>2026-09-05T02:06:53Z</time></trkpt>
			<trkpt lat="43.242920" lon="46.284300"><ele>217.5</ele><time>2026-09-05T02:07:02Z</time></trkpt>
			<trkpt lat="43.243450" lon="46.287360"><ele>213.1</ele><time>2026-09-05T02:07:11Z</time></trkpt>
			<trkpt lat="43.244570" lon="46.293570"><ele>185.1</ele><time>2026-09-05T02:07:20Z</time></trkpt>
			<trkpt lat="43.245000" lon="46.295410"><ele>173.4</ele><time>2026-09-05T02:07:29Z</time></trkpt>
			<trkpt lat="43.247760" lon="46.304590"><ele>151.6</ele><time>2026-09-05T02:07:37Z</time></trkpt>
			<trkpt lat="43.249220" lon="46.309260"><ele>133.3</ele><time>2026-09-05T02:07:46Z</time></trkpt>
			<trkpt lat="43.250470" lon="46.313320"><ele>121.9</ele><time>2026-09-05T02:07:55Z</time></trkpt>
			<trkpt lat="43.250770" lon="46.315130"><ele>118.0</ele><time>2026-09-05T02:08:04Z</time></trkpt>
			<trkpt lat="43.250960" lon="46.316550"><ele>115.0</ele><time>2026-09-05T02:08:13Z</time></trkpt>
			<trkpt lat="43.251020" lon="46.318070"><ele>112.5</ele><time>2026-09-05T02:08:21Z</time></trkpt>
			<trkpt lat="43.250980" lon="46.320400"><ele>112.3</ele><time>2026-09-05T02:08:30Z</time></trkpt>
			<trkpt lat="43.250770" lon="46.322750"><ele>112.1</ele><time>2026-09-05T02:08:39Z</time></trkpt>
			<trkpt lat="43.250620" lon="46.324460"><ele>111.9</ele><time>2026-09-05T02:08:48Z</time></trkpt>
			<trkpt lat="43.250450" lon="46.325910"><ele>111.9</ele><time>2026-09-05T02:08:57Z</time></trkpt>
			<trkpt lat="43.250360" lon="46.327160"><ele>112.0</ele><time>2026-09-05T02:09:05Z</time></trkpt>
			<trkpt lat="43.250350" lon="46.329220"><ele>112.2</ele><time>2026-09-05T02:09:14Z</time></trkpt>
			<trkpt lat="43.250340" lon="46.331140"><ele>112.3</ele><time>2026-09-05T02:09:23Z</time></trkpt>
			<trkpt lat="43.250280" lon="46.332320"><ele>112.4</ele><time>2026-09-05T02:09:32Z</time></trkpt>
			<trkpt lat="43.249450" lon="46.337070"><ele>115.9</ele><time>2026-09-05T02:09:41Z</time></trkpt>
			<trkpt lat="43.249190" lon="46.338840"><ele>117.3</ele><time>2026-09-05T02:09:49Z</time></trkpt>
			<trkpt lat="43.249020" lon="46.340300"><ele>118.4</ele><time>2026-09-05T02:09:58Z</time></trkpt>
			<trkpt lat="43.248650" lon="46.344220"><ele>120.7</ele><time>2026-09-05T02:10:07Z</time></trkpt>
			<trkpt lat="43.248330" lon="46.347520"><ele>122.7</ele><time>2026-09-05T02:10:16Z</time></trkpt>
			<trkpt lat="43.247890" lon="46.351860"><ele>125.1</ele><time>2026-09-05T02:10:25Z</time></trkpt>
			<trkpt lat="43.247850" lon="46.352350"><ele>125.4</ele><time>2026-09-05T02:10:33Z</time></trkpt>
			<trkpt lat="43.247720" lon="46.353900"><ele>126.2</ele><time>2026-09-05T02:10:42Z</time></trkpt>
			<trkpt lat="43.247460" lon="46.356560"><ele>127.4</ele><time>2026-09-05T02:10:51Z</time></trkpt>
			<trkpt lat="43.247310" lon="46.358520"><ele>128.3</ele><time>2026-09-05T02:11:00Z</time></trkpt>
			<trkpt lat="43.247240" lon="46.359760"><ele>128.8</ele><time>2026-09-05T02:11:09Z</time></trkpt>
			<trkpt lat="43.246510" lon="46.370460"><ele>133.3</ele><time>2026-09-05T02:11:18Z</time></trkpt>
			<trkpt lat="43.246120" lon="46.375850"><ele>136.4</ele><time>2026-09-05T02:11:26Z</time></trkpt>
			<trkpt lat="43.244970" lon="46.392310"><ele>150.5</ele><time>2026-09-05T02:11:35Z</time></trkpt>
			<trkpt lat="43.244740" lon="46.396080"><ele>152.9</ele><time>2026-09-05T02:11:44Z</time></trkpt>
			<trkpt lat="43.244530" lon="46.398500"><ele>154.5</ele><time>2026-09-05T02:11:53Z</time></trkpt>
			<trkpt lat="43.244330" lon="46.400460"><ele>154.0</ele><time>2026-09-05T02:12:02Z</time></trkpt>
			<trkpt lat="43.244290" lon="46.400880"><ele>153.6</ele><time>2026-09-05T02:12:10Z</time></trkpt>
			<trkpt lat="43.244250" lon="46.401330"><ele>153.1</ele><time>2026-09-05T02:12:19Z</time></trkpt>
			<trkpt lat="43.244080" lon="46.403140"><ele>151.4</ele><time>2026-09-05T02:12:28Z</time></trkpt>
			<trkpt lat="43.244030" lon="46.403730"><ele>150.8</ele><time>2026-09-05T02:12:37Z</time></trkpt>
			<trkpt lat="43.243900" lon="46.404910"><ele>149.7</ele><time>2026-09-05T02:12:46Z</time></trkpt>
			<trkpt lat="43.243710" lon="46.406490"><ele>148.2</ele><time>2026-09-05T02:12:54Z</time></trkpt>
			<trkpt lat="43.243460" lon="46.408090"><ele>146.4</ele><time>2026-09-05T02:13:03Z</time></trkpt>
			<trkpt lat="43.243220" lon="46.409530"><ele>144.7</ele><time>2026-09-05T02:13:12Z</time></trkpt>
			<trkpt lat="43.242770" lon="46.412020"><ele>141.7</ele><time>2026-09-05T02:13:21Z</time></trkpt>
			<trkpt lat="43.242620" lon="46.412790"><ele>140.8</ele><time>2026-09-05T02:13:30Z</time></trkpt>
			<trkpt lat="43.242160" lon="46.415370"><ele>143.1</ele><time>2026-09-05T02:13:38Z</time></trkpt>
			<trkpt lat="43.241800" lon="46.417380"><ele>148.5</ele><time>2026-09-05T02:13:47Z</time></trkpt>
			<trkpt lat="43.241690" lon="46.418000"><ele>150.2</ele><time>2026-09-05T02:13:56Z</time></trkpt>
			<trkpt lat="43.241460" lon="46.419390"><ele>154.0</ele><time>2026-09-05T02:14:05Z</time></trkpt>
			<trkpt lat="43.241240" lon="46.421200"><ele>158.8</ele><time>2026-09-05T02:14:14Z</time></trkpt>
			<trkpt lat="43.241210" lon="46.422270"><ele>158.8</ele><time>2026-09-05T02:14:22Z</time></trkpt>
			<trkpt lat="43.241260" lon="46.425370"><ele>158.0</ele><time>2026-09-05T02:14:31Z</time></trkpt>
			<trkpt lat="43.241370" lon="46.428290"><ele>157.2</ele><time>2026-09-05T02:14:40Z</time></trkpt>
			<trkpt lat="43.241200" lon="46.430080"><ele>159.2</ele><time>2026-09-05T02:14:49Z</time></trkpt>
			<trkpt lat="43.241190" lon="46.431930"><ele>162.2</ele><time>2026-09-05T02:14:58Z</time></trkpt>
			<trkpt lat="43.241330" lon="46.434210"><ele>165.9</ele><time>2026-09-05T02:15:06Z</time></trkpt>
			<trkpt lat="43.241550" lon="46.436140"><ele>169.0</ele><time>2026-09-05T02:15:15Z</time></trkpt>
			<trkpt lat="43.241830" lon="46.447550"><ele>173.9</ele><time>2026-09-05T02:15:24Z</time></trkpt>
			<trkpt lat="43.242190" lon="46.461660"><ele>172.6</ele><time>2026-09-05T02:15:33Z</time></trkpt>
			<trkpt lat="43.242440" lon="46.471400"><ele>172.8</ele><time>2026-09-05T02:15:42Z</time></trkpt>
			<trkpt lat="43.242280" lon="46.475920"><ele>173.2</ele><time>2026-09-05T02:15:50Z</time></trkpt>
			<trkpt lat="43.242010" lon="46.482410"><ele>173.8</ele><time>2026-09-05T02:15:59Z</time></trkpt>
			<trkpt lat="43.241380" lon="46.496660"><ele>171.2</ele><time>2026-09-05T02:16:08Z</time></trkpt>
			<trkpt lat="43.240810" lon="46.510280"><ele>166.3</ele><time>2026-09-05T02:16:17Z</time></trkpt>
			<trkpt lat="43.240830" lon="46.510810"><ele>166.1</ele><time>2026-09-05T02:16:26Z</time></trkpt>
			<trkpt lat="43.240650" lon="46.512100"><ele>165.0</ele><time>2026-09-05T02:16:34Z</time></trkpt>
			<trkpt lat="43.240530" lon="46.513460"><ele>163.8</ele><time>2026-09-05T02:16:43Z</time></trkpt>
			<trkpt lat="43.240410" lon="46.514610"><ele>162.8</ele><time>2026-09-05T02:16:52Z</time></trkpt>
			<trkpt lat="43.240390" lon="46.514760"><ele>162.7</ele><time>2026-09-05T02:17:01Z</time></trkpt>
			<trkpt lat="43.240400" lon="46.517360"><ele>160.5</ele><time>2026-09-05T02:17:10Z</time></trkpt>
			<trkpt lat="43.240510" lon="46.518270"><ele>159.7</ele><time>2026-09-05T02:17:18Z</time></trkpt>
			<trkpt lat="43.240330" lon="46.521930"><ele>157.7</ele><time>2026-09-05T02:17:27Z</time></trkpt>
			<trkpt lat="43.239760" lon="46.525790"><ele>155.2</ele><time>2026-09-05T02:17:36Z</time></trkpt>
			<trkpt lat="43.239010" lon="46.529130"><ele>143.4</ele><time>2026-09-05T02:17:45Z</time></trkpt>
			<trkpt lat="43.238890" lon="46.529910"><ele>140.7</ele><time>2026-09-05T02:17:54Z</time></trkpt>
			<trkpt lat="43.238900" lon="46.530690"><ele>138.0</ele><time>2026-09-05T02:18:02Z</time></trkpt>
			<trkpt lat="43.238850" lon="46.531290"><ele>136.0</ele><time>2026-09-05T02:18:11Z</time></trkpt>
			<trkpt lat="43.238820" lon="46.532170"><ele>133.0</ele><time>2026-09-05T02:18:20Z</time></trkpt>
			<trkpt lat="43.238570" lon="46.533920"><ele>133.9</ele><time>2026-09-05T02:18:29Z</time></trkpt>
			<trkpt lat="43.238360" lon="46.535200"><ele>138.6</ele><time>2026-09-05T02:18:38Z</time></trkpt>
			<trkpt lat="43.238000" lon="46.537490"><ele>147.0</ele><time>2026-09-05T02:18:46Z</time></trkpt>
			<trkpt lat="43.237950" lon="46.537700"><ele>147.8</ele><time>2026-09-05T02:18:55Z</time></trkpt>
			<trkpt lat="43.237870" lon="46.539310"><ele>153.6</ele><time>2026-09-05T02:19:04Z</time></trkpt>
			<trkpt lat="43.237850" lon="46.540000"><ele>156.0</ele><time>2026-09-05T02:19:13Z</time></trkpt>
			<trkpt lat="43.237870" lon="46.540540"><ele>157.4</ele><time>2026-09-05T02:19:22Z</time></trkpt>
			<trkpt lat="43.237910" lon="46.541210"><ele>158.3</ele><time>2026-09-05T02:19:30Z</time></trkpt>
			<trkpt lat="43.237950" lon="46.541670"><ele>158.9</ele><time>2026-09-05T02:19:39Z</time></trkpt>
			<trkpt lat="43.238000" lon="46.542080"><ele>159.4</ele><time>2026-09-05T02:19:48Z</time></trkpt>
			<trkpt lat="43.238070" lon="46.542430"><ele>159.9</ele><time>2026-09-05T02:19:57Z</time></trkpt>
			<trkpt lat="43.238130" lon="46.542980"><ele>160.6</ele><time>2026-09-05T02:20:06Z</time></trkpt>
			<trkpt lat="43.238520" lon="46.546400"><ele>165.2</ele><time>2026-09-05T02:20:14Z</time></trkpt>
			<trkpt lat="43.239130" lon="46.549660"><ele>165.8</ele><time>2026-09-05T02:20:23Z</time></trkpt>
			<trkpt lat="43.240090" lon="46.554730"><ele>163.0</ele><time>2026-09-05T02:20:32Z</time></trkpt>
			<trkpt lat="43.240790" lon="46.558650"><ele>161.9</ele><time>2026-09-05T02:20:41Z</time></trkpt>
			<trkpt lat="43.240980" lon="46.559660"><ele>161.6</ele><time>2026-09-05T02:20:50Z</time></trkpt>
			<trkpt lat="43.241020" lon="46.560430"><ele>161.4</ele><time>2026-09-05T02:20:58Z</time></trkpt>
			<trkpt lat="43.241040" lon="46.561310"><ele>161.1</ele><time>2026-09-05T02:21:07Z</time></trkpt>
			<trkpt lat="43.240960" lon="46.562180"><ele>160.9</ele><time>2026-09-05T02:21:16Z</time></trkpt>
			<trkpt lat="43.240810" lon="46.562950"><ele>160.2</ele><time>2026-09-05T02:21:25Z</time></trkpt>
			<trkpt lat="43.240520" lon="46.563930"><ele>159.3</ele><time>2026-09-05T02:21:34Z</time></trkpt>
			<trkpt lat="43.240210" lon="46.564700"><ele>158.6</ele><time>2026-09-05T02:21:42Z</time></trkpt>
			<trkpt lat="43.240090" lon="46.564900"><ele>158.4</ele><time>2026-09-05T02:21:51Z</time></trkpt>
			<trkpt lat="43.239890" lon="46.565170"><ele>158.1</ele><time>2026-09-05T02:22:00Z</time></trkpt>
			<trkpt lat="43.239830" lon="46.565250"><ele>158.0</ele><time>2026-09-05T02:22:09Z</time></trkpt>
			<trkpt lat="43.239750" lon="46.565410"><ele>157.8</ele><time>2026-09-05T02:22:18Z</time></trkpt>
			<trkpt lat="43.239720" lon="46.565590"><ele>157.6</ele><time>2026-09-05T02:22:26Z</time></trkpt>
			<trkpt lat="43.239700" lon="46.565760"><ele>157.5</ele><time>2026-09-05T02:22:35Z</time></trkpt>
			<trkpt lat="43.239670" lon="46.565990"><ele>157.3</ele><time>2026-09-05T02:22:44Z</time></trkpt>
			<trkpt lat="43.239620" lon="46.566290"><ele>157.0</ele><time>2026-09-05T02:22:53Z</time></trkpt>
			<trkpt lat="43.239480" lon="46.566770"><ele>156.6</ele><time>2026-09-05T02:23:02Z</time></trkpt>
			<trkpt lat="43.239200" lon="46.567660"><ele>155.8</ele><time>2026-09-05T02:23:10Z</time></trkpt>
			<trkpt lat="43.238980" lon="46.568220"><ele>155.3</ele><time>2026-09-05T02:23:19Z</time></trkpt>
			<trkpt lat="43.238460" lon="46.569590"><ele>154.2</ele><time>2026-09-05T02:23:28Z</time></trkpt>
			<trkpt lat="43.238410" lon="46.569740"><ele>154.1</ele><time>2026-09-05T02:23:37Z</time></trkpt>
			<trkpt lat="43.238360" lon="46.569880"><ele>154.0</ele><time>2026-09-05T02:23:46Z</time></trkpt>
			<trkpt lat="43.237410" lon="46.572430"><ele>152.4</ele><time>2026-09-05T02:23:54Z</time></trkpt>
			<trkpt lat="43.236620" lon="46.574700"><ele>151.1</ele><time>2026-09-05T02:24:03Z</time></trkpt>
			<trkpt lat="43.236310" lon="46.575580"><ele>150.5</ele><time>2026-09-05T02:24:12Z</time></trkpt>
			<trkpt lat="43.236220" lon="46.575850"><ele>151.1</ele><time>2026-09-05T02:24:21Z</time></trkpt>
			<trkpt lat="43.235480" lon="46.578020"><ele>156.1</ele><time>2026-09-05T02:24:30Z</time></trkpt>
			<trkpt lat="43.235310" lon="46.578490"><ele>157.2</ele><time>2026-09-05T02:24:39Z</time></trkpt>
			<trkpt lat="43.234500" lon="46.580600"><ele>162.3</ele><time>2026-09-05T02:24:47Z</time></trkpt>
			<trkpt lat="43.234120" lon="46.581520"><ele>164.5</ele><time>2026-09-05T02:24:56Z</time></trkpt>
			<trkpt lat="43.234020" lon="46.581680"><ele>165.0</ele><time>2026-09-05T02:25:05Z</time></trkpt>
			<trkpt lat="43.233620" lon="46.582380"><ele>166.5</ele><time>2026-09-05T02:25:14Z</time></trkpt>
			<trkpt lat="43.233180" lon="46.583140"><ele>167.0</ele><time>2026-09-05T02:25:23Z</time></trkpt>
			<trkpt lat="43.232950" lon="46.583570"><ele>167.3</ele><time>2026-09-05T02:25:31Z</time></trkpt>
			<trkpt lat="43.232690" lon="46.584200"><ele>167.7</ele><time>2026-09-05T02:25:40Z</time></trkpt>
			<trkpt lat="43.232520" lon="46.584770"><ele>168.1</ele><time>2026-09-05T02:25:49Z</time></trkpt>
			<trkpt lat="43.232360" lon="46.585920"><ele>168.7</ele><time>2026-09-05T02:25:58Z</time></trkpt>
			<trkpt lat="43.232220" lon="46.586540"><ele>169.1</ele><time>2026-09-05T02:26:07Z</time></trkpt>
			<trkpt lat="43.232060" lon="46.586940"><ele>169.3</ele><time>2026-09-05T02:26:15Z</time></trkpt>
			<trkpt lat="43.231970" lon="46.587060"><ele>169.4</ele><time>2026-09-05T02:26:24Z</time></trkpt>
			<trkpt lat="43.231890" lon="46.587210"><ele>169.5</ele><time>2026-09-05T02:26:33Z</time></trkpt>
			<trkpt lat="43.231830" lon="46.587360"><ele>169.6</ele><time>2026-09-05T02:26:42Z</time></trkpt>
			<trkpt lat="43.231830" lon="46.587630"><ele>169.8</ele><time>2026-09-05T02:26:51Z</time></trkpt>
			<trkpt lat="43.231860" lon="46.587880"><ele>169.9</ele><time>2026-09-05T02:26:59Z</time></trkpt>
			<trkpt lat="43.231930" lon="46.588060"><ele>170.0</ele><time>2026-09-05T02:27:08Z</time></trkpt>
			<trkpt lat="43.232000" lon="46.588190"><ele>170.1</ele><time>2026-09-05T02:27:17Z</time></trkpt>
			<trkpt lat="43.232090" lon="46.588280"><ele>170.2</ele><time>2026-09-05T02:27:26Z</time></trkpt>
			<trkpt lat="43.232280" lon="46.588410"><ele>170.4</ele><time>2026-09-05T02:27:35Z</time></trkpt>
			<trkpt lat="43.232550" lon="46.588780"><ele>170.4</ele><time>2026-09-05T02:27:43Z</time></trkpt>
			<trkpt lat="43.232620" lon="46.588910"><ele>170.4</ele><time>2026-09-05T02:27:52Z</time></trkpt>
			<trkpt lat="43.232670" lon="46.589060"><ele>170.4</ele><time>2026-09-05T02:28:01Z</time></trkpt>
			<trkpt lat="43.232750" lon="46.589390"><ele>170.3</ele><time>2026-09-05T02:28:10Z</time></trkpt>
			<trkpt lat="43.232820" lon="46.589890"><ele>170.1</ele><time>2026-09-05T02:28:19Z</time></trkpt>
			<trkpt lat="43.232840" lon="46.590250"><ele>170.0</ele><time>2026-09-05T02:28:27Z</time></trkpt>
			<trkpt lat="43.232820" lon="46.590750"><ele>169.9</ele><time>2026-09-05T02:28:36Z</time></trkpt>
			<trkpt lat="43.232740" lon="46.591660"><ele>169.7</ele><time>2026-09-05T02:28:45Z</time></trkpt>
			<trkpt lat="43.232560" lon="46.592350"><ele>169.5</ele><time>2026-09-05T02:28:54Z</time></trkpt>
			<trkpt lat="43.231790" lon="46.594780"><ele>168.8</ele><time>2026-09-05T02:29:03Z</time></trkpt>
			<trkpt lat="43.231710" lon="46.595020"><ele>168.7</ele><time>2026-09-05T02:29:11Z</time></trkpt>
			<trkpt lat="43.231360" lon="46.596220"><ele>168.4</ele><time>2026-09-05T02:29:20Z</time></trkpt>
			<trkpt lat="43.230650" lon="46.598490"><ele>168.1</ele><time>2026-09-05T02:29:29Z</time></trkpt>
			<trkpt lat="43.229970" lon="46.600640"><ele>167.7</ele><time>2026-09-05T02:29:38Z</time></trkpt>
			<trkpt lat="43.229820" lon="46.601120"><ele>167.6</ele><time>2026-09-05T02:29:47Z</time></trkpt>
			<trkpt lat="43.228960" lon="46.603830"><ele>168.4</ele><time>2026-09-05T02:29:55Z</time></trkpt>
			<trkpt lat="43.228370" lon="46.605690"><ele>169.7</ele><time>2026-09-05T02:30:04Z</time></trkpt>
			<trkpt lat="43.227070" lon="46.609850"><ele>172.4</ele><time>2026-09-05T02:30:13Z</time></trkpt>
			<trkpt lat="43.226900" lon="46.610170"><ele>172.5</ele><time>2026-09-05T02:30:22Z</time></trkpt>
			<trkpt lat="43.226790" lon="46.610340"><ele>172.6</ele><time>2026-09-05T02:30:31Z</time></trkpt>
			<trkpt lat="43.226680" lon="46.610490"><ele>172.6</ele><time>2026-09-05T02:30:39Z</time></trkpt>
			<trkpt lat="43.226590" lon="46.610510"><ele>172.7</ele><time>2026-09-05T02:30:48Z</time></trkpt>
			<trkpt lat="43.226510" lon="46.610560"><ele>172.7</ele><time>2026-09-05T02:30:57Z</time></trkpt>
			<trkpt lat="43.226440" lon="46.610640"><ele>172.7</ele><time>2026-09-05T02:31:06Z</time></trkpt>
			<trkpt lat="43.226380" lon="46.610730"><ele>172.8</ele><time>2026-09-05T02:31:15Z</time></trkpt>
			<trkpt lat="43.226330" lon="46.610840"><ele>172.8</ele><time>2026-09-05T02:31:23Z</time></trkpt>
			<trkpt lat="43.226310" lon="46.610960"><ele>172.8</ele><time>2026-09-05T02:31:32Z</time></trkpt>
			<trkpt lat="43.226310" lon="46.611080"><ele>172.9</ele><time>2026-09-05T02:31:41Z</time></trkpt>
			<trkpt lat="43.226320" lon="46.611210"><ele>172.9</ele><time>2026-09-05T02:31:50Z</time></trkpt>
			<trkpt lat="43.226350" lon="46.611310"><ele>172.9</ele><time>2026-09-05T02:31:59Z</time></trkpt>
			<trkpt lat="43.226420" lon="46.611440"><ele>173.0</ele><time>2026-09-05T02:32:07Z</time></trkpt>
			<trkpt lat="43.226370" lon="46.612010"><ele>173.1</ele><time>2026-09-05T02:32:16Z</time></trkpt>
			<trkpt lat="43.226330" lon="46.612240"><ele>173.2</ele><time>2026-09-05T02:32:25Z</time></trkpt>
			<trkpt lat="43.226080" lon="46.613100"><ele>173.5</ele><time>2026-09-05T02:32:34Z</time></trkpt>
			<trkpt lat="43.225180" lon="46.616050"><ele>174.4</ele><time>2026-09-05T02:32:43Z</time></trkpt>
			<trkpt lat="43.225060" lon="46.616440"><ele>174.7</ele><time>2026-09-05T02:32:51Z</time></trkpt>
			<trkpt lat="43.224750" lon="46.617420"><ele>175.4</ele><time>2026-09-05T02:33:00Z</time></trkpt>
			<trkpt lat="43.224610" lon="46.617830"><ele>175.7</ele><time>2026-09-05T02:33:09Z</time></trkpt>
			<trkpt lat="43.223850" lon="46.619990"><ele>177.3</ele><time>2026-09-05T02:33:18Z</time></trkpt>
			<trkpt lat="43.223230" lon="46.621480"><ele>178.4</ele><time>2026-09-05T02:33:27Z</time></trkpt>
			<trkpt lat="43.222560" lon="46.622830"><ele>179.0</ele><time>2026-09-05T02:33:35Z</time></trkpt>
			<trkpt lat="43.222430" lon="46.623100"><ele>178.9</ele><time>2026-09-05T02:33:44Z</time></trkpt>
			<trkpt lat="43.222290" lon="46.623380"><ele>178.7</ele><time>2026-09-05T02:33:53Z</time></trkpt>
			<trkpt lat="43.222030" lon="46.623880"><ele>178.4</ele><time>2026-09-05T02:34:02Z</time></trkpt>
			<trkpt lat="43.221710" lon="46.624510"><ele>178.1</ele><time>2026-09-05T02:34:11Z</time></trkpt>
			<trkpt lat="43.221660" lon="46.624590"><ele>178.0</ele><time>2026-09-05T02:34:19Z</time></trkpt>
			<trkpt lat="43.221390" lon="46.625130"><ele>177.7</ele><time>2026-09-05T02:34:28Z</time></trkpt>
			<trkpt lat="43.221120" lon="46.625670"><ele>177.4</ele><time>2026-09-05T02:34:37Z</time></trkpt>
			<trkpt lat="43.219720" lon="46.628450"><ele>175.8</ele><time>2026-09-05T02:34:46Z</time></trkpt>
			<trkpt lat="43.219620" lon="46.628640"><ele>175.7</ele><time>2026-09-05T02:34:55Z</time></trkpt>
			<trkpt lat="43.219370" lon="46.629140"><ele>176.7</ele><time>2026-09-05T02:35:03Z</time></trkpt>
			<trkpt lat="43.218780" lon="46.630310"><ele>178.9</ele><time>2026-09-05T02:35:12Z</time></trkpt>
			<trkpt lat="43.218450" lon="46.631020"><ele>180.2</ele><time>2026-09-05T02:35:21Z</time></trkpt>
			<trkpt lat="43.218400" lon="46.631120"><ele>180.4</ele><time>2026-09-05T02:35:30Z</time></trkpt>
			<trkpt lat="43.216490" lon="46.634850"><ele>187.6</ele><time>2026-09-05T02:35:39Z</time></trkpt>
			<trkpt lat="43.214760" lon="46.638340"><ele>194.4</ele><time>2026-09-05T02:35:47Z</time></trkpt>
			<trkpt lat="43.213850" lon="46.640070"><ele>197.9</ele><time>2026-09-05T02:35:56Z</time></trkpt>
			<trkpt lat="43.211420" lon="46.644910"><ele>204.1</ele><time>2026-09-05T02:36:05Z</time></trkpt>
			<trkpt lat="43.211270" lon="46.645180"><ele>204.5</ele><time>2026-09-05T02:36:14Z</time></trkpt>
			<trkpt lat="43.210940" lon="46.645770"><ele>205.2</ele><time>2026-09-05T02:36:23Z</time></trkpt>
			<trkpt lat="43.210450" lon="46.646760"><ele>206.3</ele><time>2026-09-05T02:36:31Z</time></trkpt>
			<trkpt lat="43.210300" lon="46.647090"><ele>206.6</ele><time>2026-09-05T02:36:40Z</time></trkpt>
			<trkpt lat="43.210000" lon="46.647820"><ele>205.0</ele><time>2026-09-05T02:36:49Z</time></trkpt>
			<trkpt lat="43.209750" lon="46.648650"><ele>203.4</ele><time>2026-09-05T02:36:58Z</time></trkpt>
			<trkpt lat="43.209600" lon="46.649240"><ele>202.2</ele><time>2026-09-05T02:37:07Z</time></trkpt>
			<trkpt lat="43.209380" lon="46.650150"><ele>200.5</ele><time>2026-09-05T02:37:15Z</time></trkpt>
			<trkpt lat="43.209270" lon="46.650900"><ele>199.1</ele><time>2026-09-05T02:37:24Z</time></trkpt>
			<trkpt lat="43.209220" lon="46.651650"><ele>197.7</ele><time>2026-09-05T02:37:33Z</time></trkpt>
			<trkpt lat="43.209210" lon="46.652680"><ele>195.8</ele><time>2026-09-05T02:37:42Z</time></trkpt>
			<trkpt lat="43.209240" lon="46.653200"><ele>194.8</ele><time>2026-09-05T02:37:51Z</time></trkpt>
			<trkpt lat="43.209270" lon="46.653790"><ele>193.7</ele><time>2026-09-05T02:38:00Z</time></trkpt>
			<trkpt lat="43.209410" lon="46.655430"><ele>193.5</ele><time>2026-09-05T02:38:08Z</time></trkpt>
			<trkpt lat="43.209410" lon="46.655650"><ele>193.7</ele><time>2026-09-05T02:38:17Z</time></trkpt>
			<trkpt lat="43.209400" lon="46.655840"><ele>193.8</ele><time>2026-09-05T02:38:26Z</time></trkpt>
			<trkpt lat="43.209380" lon="46.655900"><ele>193.8</ele><time>2026-09-05T02:38:35Z</time></trkpt>
			<trkpt lat="43.209370" lon="46.655990"><ele>193.8</ele><time>2026-09-05T02:38:44Z</time></trkpt>
			<trkpt lat="43.209360" lon="46.656080"><ele>193.9</ele><time>2026-09-05T02:38:52Z</time></trkpt>
			<trkpt lat="43.209370" lon="46.656180"><ele>193.9</ele><time>2026-09-05T02:39:01Z</time></trkpt>
			<trkpt lat="43.209390" lon="46.656310"><ele>194.0</ele><time>2026-09-05T02:39:10Z</time></trkpt>
			<trkpt lat="43.209450" lon="46.656530"><ele>194.1</ele><time>2026-09-05T02:39:19Z</time></trkpt>
			<trkpt lat="43.209530" lon="46.656970"><ele>194.4</ele><time>2026-09-05T02:39:28Z</time></trkpt>
			<trkpt lat="43.209570" lon="46.657330"><ele>194.6</ele><time>2026-09-05T02:39:36Z</time></trkpt>
			<trkpt lat="43.209610" lon="46.657790"><ele>194.8</ele><time>2026-09-05T02:39:45Z</time></trkpt>
			<trkpt lat="43.209630" lon="46.658380"><ele>195.1</ele><time>2026-09-05T02:39:54Z</time></trkpt>
			<trkpt lat="43.209620" lon="46.659480"><ele>195.7</ele><time>2026-09-05T02:40:03Z</time></trkpt>
			<trkpt lat="43.209550" lon="46.660260"><ele>196.1</ele><time>2026-09-05T02:40:12Z</time></trkpt>
			<trkpt lat="43.209410" lon="46.661250"><ele>196.6</ele><time>2026-09-05T02:40:20Z</time></trkpt>
			<trkpt lat="43.209380" lon="46.661660"><ele>196.8</ele><time>2026-09-05T02:40:29Z</time></trkpt>
			<trkpt lat="43.209260" lon="46.662210"><ele>197.3</ele><time>2026-09-05T02:40:38Z</time></trkpt>
			<trkpt lat="43.209050" lon="46.663190"><ele>198.2</ele><time>2026-09-05T02:40:47Z</time></trkpt>
			<trkpt lat="43.208450" lon="46.665980"><ele>200.7</ele><time>2026-09-05T02:40:56Z</time></trkpt>
			<trkpt lat="43.207260" lon="46.671600"><ele>202.1</ele><time>2026-09-05T02:41:04Z</time></trkpt>
			<trkpt lat="43.206860" lon="46.673390"><ele>201.4</ele><time>2026-09-05T02:41:13Z</time></trkpt>
			<trkpt lat="43.206650" lon="46.674330"><ele>201.0</ele><time>2026-09-05T02:41:22Z</time></trkpt>
			<trkpt lat="43.206610" lon="46.674520"><ele>201.0</ele><time>2026-09-05T02:41:31Z</time></trkpt>
			<trkpt lat="43.206350" lon="46.675720"><ele>200.5</ele><time>2026-09-05T02:41:40Z</time></trkpt>
			<trkpt lat="43.206290" lon="46.675990"><ele>200.4</ele><time>2026-09-05T02:41:48Z</time></trkpt>
			<trkpt lat="43.205960" lon="46.677500"><ele>200.9</ele><time>2026-09-05T02:41:57Z</time></trkpt>
			<trkpt lat="43.205840" lon="46.678040"><ele>201.1</ele><time>2026-09-05T02:42:06Z</time></trkpt>
			<trkpt lat="43.205620" lon="46.679010"><ele>201.4</ele><time>2026-09-05T02:42:15Z</time></trkpt>
			<trkpt lat="43.205130" lon="46.681240"><ele>202.1</ele><time>2026-09-05T02:42:24Z</time></trkpt>
			<trkpt lat="43.204750" lon="46.683000"><ele>202.7</ele><time>2026-09-05T02:42:32Z</time></trkpt>
			<trkpt lat="43.204450" lon="46.684410"><ele>201.2</ele><time>2026-09-05T02:42:41Z</time></trkpt>
			<trkpt lat="43.203920" lon="46.686860"><ele>198.2</ele><time>2026-09-05T02:42:50Z</time></trkpt>
			<trkpt lat="43.203620" lon="46.688260"><ele>196.6</ele><time>2026-09-05T02:42:59Z</time></trkpt>
			<trkpt lat="43.203310" lon="46.689720"><ele>194.8</ele><time>2026-09-05T02:43:08Z</time></trkpt>
			<trkpt lat="43.202840" lon="46.691880"><ele>192.9</ele><time>2026-09-05T02:43:16Z</time></trkpt>
			<trkpt lat="43.202530" lon="46.693360"><ele>191.8</ele><time>2026-09-05T02:43:25Z</time></trkpt>
			<trkpt lat="43.202230" lon="46.694940"><ele>190.6</ele><time>2026-09-05T02:43:34Z</time></trkpt>
			<trkpt lat="43.202170" lon="46.695330"><ele>190.3</ele><time>2026-09-05T02:43:43Z</time></trkpt>
			<trkpt lat="43.201840" lon="46.697430"><ele>188.7</ele><time>2026-09-05T02:43:52Z</time></trkpt>
			<trkpt lat="43.200660" lon="46.705840"><ele>178.3</ele><time>2026-09-05T02:44:00Z</time></trkpt>
			<trkpt lat="43.198920" lon="46.718350"><ele>165.7</ele><time>2026-09-05T02:44:09Z</time></trkpt>
			<trkpt lat="43.198290" lon="46.722930"><ele>162.7</ele><time>2026-09-05T02:44:18Z</time></trkpt>
			<trkpt lat="43.197300" lon="46.729200"><ele>157.2</ele><time>2026-09-05T02:44:27Z</time></trkpt>
			<trkpt lat="43.191720" lon="46.762570"><ele>123.5</ele><time>2026-09-05T02:44:36Z</time></trkpt>
			<trkpt lat="43.190860" lon="46.767730"><ele>121.1</ele><time>2026-09-05T02:44:44Z</time></trkpt>
			<trkpt lat="43.190720" lon="46.768500"><ele>120.8</ele><time>2026-09-05T02:44:53Z</time></trkpt>
			<trkpt lat="43.190210" lon="46.771680"><ele>118.7</ele><time>2026-09-05T02:45:02Z</time></trkpt>
			<trkpt lat="43.189130" lon="46.778170"><ele>112.3</ele><time>2026-09-05T02:45:11Z</time></trkpt>
			<trkpt lat="43.187820" lon="46.786010"><ele>102.4</ele><time>2026-09-05T02:45:20Z</time></trkpt>
			<trkpt lat="43.187600" lon="46.787360"><ele>102.4</ele><time>2026-09-05T02:45:28Z</time></trkpt>
			<trkpt lat="43.185460" lon="46.800120"><ele>99.7</ele><time>2026-09-05T02:45:37Z</time></trkpt>
			<trkpt lat="43.185200" lon="46.801730"><ele>98.4</ele><time>2026-09-05T02:45:46Z</time></trkpt>
			<trkpt lat="43.185080" lon="46.802510"><ele>97.7</ele><time>2026-09-05T02:45:55Z</time></trkpt>
			<trkpt lat="43.185010" lon="46.803120"><ele>97.2</ele><time>2026-09-05T02:46:04Z</time></trkpt>
			<trkpt lat="43.184920" lon="46.803930"><ele>96.5</ele><time>2026-09-05T02:46:12Z</time></trkpt>
			<trkpt lat="43.184830" lon="46.805230"><ele>95.4</ele><time>2026-09-05T02:46:21Z</time></trkpt>
			<trkpt lat="43.184790" lon="46.805920"><ele>94.8</ele><time>2026-09-05T02:46:30Z</time></trkpt>
			<trkpt lat="43.184800" lon="46.806810"><ele>94.1</ele><time>2026-09-05T02:46:39Z</time></trkpt>
			<trkpt lat="43.184820" lon="46.808580"><ele>92.4</ele><time>2026-09-05T02:46:48Z</time></trkpt>
			<trkpt lat="43.184850" lon="46.809130"><ele>91.8</ele><time>2026-09-05T02:46:56Z</time></trkpt>
			<trkpt lat="43.184880" lon="46.809550"><ele>91.4</ele><time>2026-09-05T02:47:05Z</time></trkpt>
			<trkpt lat="43.185670" lon="46.816700"><ele>85.5</ele><time>2026-09-05T02:47:14Z</time></trkpt>
			<trkpt lat="43.185990" lon="46.819520"><ele>84.2</ele><time>2026-09-05T02:47:23Z</time></trkpt>
			<trkpt lat="43.186090" lon="46.820670"><ele>83.6</ele><time>2026-09-05T02:47:32Z</time></trkpt>
			<trkpt lat="43.186140" lon="46.821400"><ele>83.3</ele><time>2026-09-05T02:47:40Z</time></trkpt>
			<trkpt lat="43.186160" lon="46.822090"><ele>83.0</ele><time>2026-09-05T02:47:49Z</time></trkpt>
			<trkpt lat="43.186180" lon="46.823020"><ele>82.8</ele><time>2026-09-05T02:47:58Z</time></trkpt>
			<trkpt lat="43.186180" lon="46.823880"><ele>82.6</ele><time>2026-09-05T02:48:07Z</time></trkpt>
			<trkpt lat="43.186150" lon="46.824660"><ele>82.5</ele><time>2026-09-05T02:48:16Z</time></trkpt>
			<trkpt lat="43.186050" lon="46.825830"><ele>82.2</ele><time>2026-09-05T02:48:24Z</time></trkpt>
			<trkpt lat="43.185970" lon="46.826530"><ele>82.0</ele><time>2026-09-05T02:48:33Z</time></trkpt>
			<trkpt lat="43.185890" lon="46.827180"><ele>81.9</ele><time>2026-09-05T02:48:42Z</time></trkpt>
			<trkpt lat="43.185790" lon="46.827760"><ele>81.8</ele><time>2026-09-05T02:48:51Z</time></trkpt>
			<trkpt lat="43.185440" lon="46.829700"><ele>79.6</ele><time>2026-09-05T02:49:00Z</time></trkpt>
			<trkpt lat="43.185420" lon="46.829820"><ele>79.1</ele><time>2026-09-05T02:49:08Z</time></trkpt>
			<trkpt lat="43.184920" lon="46.832110"><ele>70.8</ele><time>2026-09-05T02:49:17Z</time></trkpt>
			<trkpt lat="43.184760" lon="46.832840"><ele>68.2</ele><time>2026-09-05T02:49:26Z</time></trkpt>
			<trkpt lat="43.184320" lon="46.834900"><ele>60.8</ele><time>2026-09-05T02:49:35Z</time></trkpt>
			<trkpt lat="43.184100" lon="46.836050"><ele>56.6</ele><time>2026-09-05T02:49:44Z</time></trkpt>
			<trkpt lat="43.183930" lon="46.837130"><ele>55.3</ele><time>2026-09-05T02:49:52Z</time></trkpt>
			<trkpt lat="43.183820" lon="46.837950"><ele>55.1</ele><time>2026-09-05T02:50:01Z</time></trkpt>
			<trkpt lat="43.183790" lon="46.838540"><ele>54.9</ele><time>2026-09-05T02:50:10Z</time></trkpt>
			<trkpt lat="43.183820" lon="46.839130"><ele>54.7</ele><time>2026-09-05T02:50:19Z</time></trkpt>
			<trkpt lat="43.183880" lon="46.839880"><ele>54.5</ele><time>2026-09-05T02:50:28Z</time></trkpt>
			<trkpt lat="43.184220" lon="46.843500"><ele>53.5</ele><time>2026-09-05T02:50:36Z</time></trkpt>
			<trkpt lat="43.184390" lon="46.844940"><ele>56.4</ele><time>2026-09-05T02:50:45Z</time></trkpt>
			<trkpt lat="43.184490" lon="46.846240"><ele>59.7</ele><time>2026-09-05T02:50:54Z</time></trkpt>
			<trkpt lat="43.184530" lon="46.847090"><ele>61.8</ele><time>2026-09-05T02:51:03Z</time></trkpt>
			<trkpt lat="43.184470" lon="46.847900"><ele>63.8</ele><time>2026-09-05T02:51:12Z</time></trkpt>
			<trkpt lat="43.184360" lon="46.849000"><ele>66.6</ele><time>2026-09-05T02:51:20Z</time></trkpt>
			<trkpt lat="43.184210" lon="46.849850"><ele>68.8</ele><time>2026-09-05T02:51:29Z</time></trkpt>
			<trkpt lat="43.183990" lon="46.850760"><ele>71.1</ele><time>2026-09-05T02:51:38Z</time></trkpt>
			<trkpt lat="43.183720" lon="46.851440"><ele>72.3</ele><time>2026-09-05T02:51:47Z</time></trkpt>
			<trkpt lat="43.183330" lon="46.852520"><ele>73.3</ele><time>2026-09-05T02:51:56Z</time></trkpt>
			<trkpt lat="43.182020" lon="46.855990"><ele>76.3</ele><time>2026-09-05T02:52:05Z</time></trkpt>
			<trkpt lat="43.181420" lon="46.857640"><ele>77.7</ele><time>2026-09-05T02:52:13Z</time></trkpt>
			<trkpt lat="43.179580" lon="46.862690"><ele>77.5</ele><time>2026-09-05T02:52:22Z</time></trkpt>
			<trkpt lat="43.178770" lon="46.864930"><ele>77.5</ele><time>2026-09-05T02:52:31Z</time></trkpt>
			<trkpt lat="43.177050" lon="46.869620"><ele>79.1</ele><time>2026-09-05T02:52:40Z</time></trkpt>
			<trkpt lat="43.176540" lon="46.871080"><ele>79.5</ele><time>2026-09-05T02:52:49Z</time></trkpt>
		</trkseg>
	</trk>
<wpt lat="42.967340" lon="47.394530"><ele>100.600</ele><time>2026-09-19T03:00:00Z</time><name>Старт(0.0 км) Ленинкент, отель Сабур</name><cmt>Старт</cmt><desc>фото-отметка на фоне отеля Сабур</desc><type>Generic</type><sym>Pin, Blue</sym></wpt><wpt lat="43.232750" lon="46.588720"><ele>170.194</ele><time>2026-09-19T06:24:44Z</time><name>КП-1(75.1 км) Хасавюрт, стелла-глобус на кольце</name><cmt>КП-1</cmt><desc>фото-отметка на фоне стеллы-глобуса Хасавюрт на кольце</desc><type>Generic</type><sym>Pin, Blue</sym></wpt><wpt lat="43.347170" lon="46.099830"><ele>57.542</ele><time>2026-09-19T08:23:37Z</time><name>КП-2(118.7 км) Гудермес, стелла Гудермес</name><cmt>КП-2</cmt><desc>фото-отметка на фоне стеллы Гудермес</desc><type>Generic</type><sym>Pin, Blue</sym></wpt><wpt lat="43.762980" lon="44.736230"><ele>132.107</ele><time>2026-09-19T14:21:55Z</time><name>КП-3(250.0 км) Весёлое, столовая Осетинские пироги</name><cmt>КП-3</cmt><desc>фото-отметка на фоне Осетинские пироги</desc><type>Generic</type><sym>Pin, Blue</sym></wpt><wpt lat="43.482600" lon="44.135490"><ele>260.826</ele><time>2026-09-19T18:36:11Z</time><name>КП-4(343.3 км) Терек, Администрация пам. Ленину</name><cmt>КП-4</cmt><desc>фото-отметка на фоне пам. Ленину</desc><type>Generic</type><sym>Pin, Blue</sym></wpt><wpt lat="43.197360" lon="44.767530"><ele>528.483</ele><time>2026-09-19T22:05:52Z</time><name>КП-5(420.2 км) Назрань, Мемориал 9 башен</name><cmt>КП-5</cmt><desc>фото-отметка на фоне aото-отметка на фоне Мемориала 9 башен</desc><type>Generic</type><sym>Pin, Blue</sym></wpt><wpt lat="43.232340" lon="45.396210"><ele>179.731</ele><time>2026-09-20T00:41:05Z</time><name>КП-6(477.1 км) Шаами-Юрт, Мечеть</name><cmt>КП-6</cmt><desc>фото-отметка на фоне Мечети</desc><type>Generic</type><sym>Pin, Blue</sym></wpt><wpt lat="43.189570" lon="45.776910"><ele>211.637</ele><time>2026-09-20T02:10:14Z</time><name>КП-7(509.8 км) Чечен-Аул, Мечеть</name><cmt>КП-7</cmt><desc>фото-отметка на фоне Мечети</desc><type>Generic</type><sym>Pin, Blue</sym></wpt><wpt lat="43.176540" lon="46.871080"><ele>79.498</ele><time>2026-09-20T06:31:08Z</time><name>Финиш(605.4 км) Комсомольское, столовая</name><cmt>Финиш</cmt><desc>фото-отметка на фоне Столовой</desc><type>Generic</type><sym>Pin, Blue</sym></wpt></gpx>